<?xml version="1.0" encoding="UTF-8" standalone="no" ?>
<gpx xmlns="http://www.topografix.com/GPX/1/1" xmlns:xsi="http://www.w3.org/2001/XMLSchema-instance" xsi:schemaLocation="http://www.topografix.com/GPX/1/1 http://www.topografix.com/GPX/1/1/gpx.xsd" version="1.1" creator="VisuGPX - https://www.visugpx.com">
  <metadata>
    <name>Bruniquel Montricoux Bruniquel</name>
    <desc><![CDATA[Petite balade dans la campagne.....]]></desc>
  </metadata>
  <trk>
    <name><![CDATA[Bruniquel Montricoux Bruniquel_1]]></name>
    <trkseg>
      <trkpt lat="44.05379" lon="1.66479">
        <ele>14200</ele>
        <time>2020-05-31T04:34:38Z</time>
      </trkpt>
      <trkpt lat="44.05379" lon="1.66479">
        <ele>14200</ele>
        <time>2020-05-31T04:34:39Z</time>
      </trkpt>
      <trkpt lat="44.05379" lon="1.66479">
        <ele>14200</ele>
        <time>2020-05-31T04:34:40Z</time>
      </trkpt>
      <trkpt lat="44.0538" lon="1.66479">
        <ele>14200</ele>
        <time>2020-05-31T04:34:41Z</time>
      </trkpt>
      <trkpt lat="44.0538" lon="1.66478">
        <ele>14200</ele>
        <time>2020-05-31T04:34:43Z</time>
      </trkpt>
      <trkpt lat="44.0538" lon="1.66478">
        <ele>14200</ele>
        <time>2020-05-31T04:34:43Z</time>
      </trkpt>
      <trkpt lat="44.0538" lon="1.66477">
        <ele>14200</ele>
        <time>2020-05-31T04:34:44Z</time>
      </trkpt>
      <trkpt lat="44.0538" lon="1.66475">
        <ele>14200</ele>
        <time>2020-05-31T04:34:45Z</time>
      </trkpt>
      <trkpt lat="44.0538" lon="1.66474">
        <ele>14200</ele>
        <time>2020-05-31T04:34:46Z</time>
      </trkpt>
      <trkpt lat="44.05381" lon="1.66472">
        <ele>14200</ele>
        <time>2020-05-31T04:34:47Z</time>
      </trkpt>
      <trkpt lat="44.05381" lon="1.66469">
        <ele>14200</ele>
        <time>2020-05-31T04:34:48Z</time>
      </trkpt>
      <trkpt lat="44.05381" lon="1.66466">
        <ele>14200</ele>
        <time>2020-05-31T04:34:49Z</time>
      </trkpt>
      <trkpt lat="44.05381" lon="1.66463">
        <ele>14200</ele>
        <time>2020-05-31T04:34:51Z</time>
      </trkpt>
      <trkpt lat="44.05381" lon="1.66459">
        <ele>14200</ele>
        <time>2020-05-31T04:34:51Z</time>
      </trkpt>
      <trkpt lat="44.05381" lon="1.66455">
        <ele>14200</ele>
        <time>2020-05-31T04:34:52Z</time>
      </trkpt>
      <trkpt lat="44.05382" lon="1.66451">
        <ele>14200</ele>
        <time>2020-05-31T04:34:53Z</time>
      </trkpt>
      <trkpt lat="44.05382" lon="1.66448">
        <ele>14200</ele>
        <time>2020-05-31T04:34:54Z</time>
      </trkpt>
      <trkpt lat="44.05383" lon="1.66445">
        <ele>14200</ele>
        <time>2020-05-31T04:34:55Z</time>
      </trkpt>
      <trkpt lat="44.05383" lon="1.66442">
        <ele>14200</ele>
        <time>2020-05-31T04:34:56Z</time>
      </trkpt>
      <trkpt lat="44.05383" lon="1.66439">
        <ele>14200</ele>
        <time>2020-05-31T04:34:57Z</time>
      </trkpt>
      <trkpt lat="44.05383" lon="1.66436">
        <ele>14200</ele>
        <time>2020-05-31T04:34:58Z</time>
      </trkpt>
      <trkpt lat="44.05383" lon="1.66433">
        <ele>14200</ele>
        <time>2020-05-31T04:34:59Z</time>
      </trkpt>
      <trkpt lat="44.05383" lon="1.6643">
        <ele>14200</ele>
        <time>2020-05-31T04:35:00Z</time>
      </trkpt>
      <trkpt lat="44.05383" lon="1.66426">
        <ele>14100</ele>
        <time>2020-05-31T04:35:01Z</time>
      </trkpt>
      <trkpt lat="44.05382" lon="1.66422">
        <ele>14100</ele>
        <time>2020-05-31T04:35:02Z</time>
      </trkpt>
      <trkpt lat="44.05382" lon="1.66417">
        <ele>14100</ele>
        <time>2020-05-31T04:35:03Z</time>
      </trkpt>
      <trkpt lat="44.05382" lon="1.66412">
        <ele>14100</ele>
        <time>2020-05-31T04:35:04Z</time>
      </trkpt>
      <trkpt lat="44.05382" lon="1.66407">
        <ele>14100</ele>
        <time>2020-05-31T04:35:05Z</time>
      </trkpt>
      <trkpt lat="44.05382" lon="1.66402">
        <ele>14100</ele>
        <time>2020-05-31T04:35:06Z</time>
      </trkpt>
      <trkpt lat="44.05383" lon="1.66397">
        <ele>14100</ele>
        <time>2020-05-31T04:35:07Z</time>
      </trkpt>
      <trkpt lat="44.05383" lon="1.66391">
        <ele>14100</ele>
        <time>2020-05-31T04:35:08Z</time>
      </trkpt>
      <trkpt lat="44.05382" lon="1.66385">
        <ele>14100</ele>
        <time>2020-05-31T04:35:09Z</time>
      </trkpt>
      <trkpt lat="44.05382" lon="1.66378">
        <ele>14100</ele>
        <time>2020-05-31T04:35:10Z</time>
      </trkpt>
      <trkpt lat="44.05381" lon="1.6637">
        <ele>14100</ele>
        <time>2020-05-31T04:35:11Z</time>
      </trkpt>
      <trkpt lat="44.05381" lon="1.66361">
        <ele>14100</ele>
        <time>2020-05-31T04:35:12Z</time>
      </trkpt>
      <trkpt lat="44.05381" lon="1.66352">
        <ele>14000</ele>
        <time>2020-05-31T04:35:13Z</time>
      </trkpt>
      <trkpt lat="44.05381" lon="1.66343">
        <ele>14000</ele>
        <time>2020-05-31T04:35:14Z</time>
      </trkpt>
      <trkpt lat="44.05381" lon="1.66334">
        <ele>14000</ele>
        <time>2020-05-31T04:35:15Z</time>
      </trkpt>
      <trkpt lat="44.05381" lon="1.66326">
        <ele>14000</ele>
        <time>2020-05-31T04:35:17Z</time>
      </trkpt>
      <trkpt lat="44.05383" lon="1.66318">
        <ele>14000</ele>
        <time>2020-05-31T04:35:17Z</time>
      </trkpt>
      <trkpt lat="44.05384" lon="1.6631">
        <ele>13900</ele>
        <time>2020-05-31T04:35:18Z</time>
      </trkpt>
      <trkpt lat="44.05386" lon="1.66303">
        <ele>13900</ele>
        <time>2020-05-31T04:35:19Z</time>
      </trkpt>
      <trkpt lat="44.05388" lon="1.66295">
        <ele>13900</ele>
        <time>2020-05-31T04:35:20Z</time>
      </trkpt>
      <trkpt lat="44.0539" lon="1.66288">
        <ele>13900</ele>
        <time>2020-05-31T04:35:21Z</time>
      </trkpt>
      <trkpt lat="44.05393" lon="1.66281">
        <ele>13900</ele>
        <time>2020-05-31T04:35:22Z</time>
      </trkpt>
      <trkpt lat="44.05395" lon="1.66274">
        <ele>13900</ele>
        <time>2020-05-31T04:35:23Z</time>
      </trkpt>
      <trkpt lat="44.05397" lon="1.66269">
        <ele>13900</ele>
        <time>2020-05-31T04:35:24Z</time>
      </trkpt>
      <trkpt lat="44.05401" lon="1.66264">
        <ele>13900</ele>
        <time>2020-05-31T04:35:25Z</time>
      </trkpt>
      <trkpt lat="44.05403" lon="1.66258">
        <ele>13900</ele>
        <time>2020-05-31T04:35:26Z</time>
      </trkpt>
      <trkpt lat="44.05403" lon="1.66251">
        <ele>13800</ele>
        <time>2020-05-31T04:35:27Z</time>
      </trkpt>
      <trkpt lat="44.05403" lon="1.66244">
        <ele>13800</ele>
        <time>2020-05-31T04:35:28Z</time>
      </trkpt>
      <trkpt lat="44.05403" lon="1.66236">
        <ele>13800</ele>
        <time>2020-05-31T04:35:29Z</time>
      </trkpt>
      <trkpt lat="44.05404" lon="1.66228">
        <ele>13800</ele>
        <time>2020-05-31T04:35:30Z</time>
      </trkpt>
      <trkpt lat="44.05405" lon="1.66221">
        <ele>13800</ele>
        <time>2020-05-31T04:35:31Z</time>
      </trkpt>
      <trkpt lat="44.05406" lon="1.66213">
        <ele>13800</ele>
        <time>2020-05-31T04:35:32Z</time>
      </trkpt>
      <trkpt lat="44.05407" lon="1.66205">
        <ele>13800</ele>
        <time>2020-05-31T04:35:33Z</time>
      </trkpt>
      <trkpt lat="44.05408" lon="1.66198">
        <ele>13800</ele>
        <time>2020-05-31T04:35:34Z</time>
      </trkpt>
      <trkpt lat="44.05409" lon="1.66191">
        <ele>13800</ele>
        <time>2020-05-31T04:35:35Z</time>
      </trkpt>
      <trkpt lat="44.05411" lon="1.66184">
        <ele>13800</ele>
        <time>2020-05-31T04:35:36Z</time>
      </trkpt>
      <trkpt lat="44.05413" lon="1.66176">
        <ele>13700</ele>
        <time>2020-05-31T04:35:37Z</time>
      </trkpt>
      <trkpt lat="44.05415" lon="1.66169">
        <ele>13700</ele>
        <time>2020-05-31T04:35:38Z</time>
      </trkpt>
      <trkpt lat="44.05418" lon="1.66162">
        <ele>13700</ele>
        <time>2020-05-31T04:35:39Z</time>
      </trkpt>
      <trkpt lat="44.05421" lon="1.66155">
        <ele>13700</ele>
        <time>2020-05-31T04:35:40Z</time>
      </trkpt>
      <trkpt lat="44.05424" lon="1.66148">
        <ele>13700</ele>
        <time>2020-05-31T04:35:41Z</time>
      </trkpt>
      <trkpt lat="44.05428" lon="1.66142">
        <ele>13700</ele>
        <time>2020-05-31T04:35:42Z</time>
      </trkpt>
      <trkpt lat="44.05432" lon="1.66136">
        <ele>13600</ele>
        <time>2020-05-31T04:35:43Z</time>
      </trkpt>
      <trkpt lat="44.05436" lon="1.66131">
        <ele>13600</ele>
        <time>2020-05-31T04:35:44Z</time>
      </trkpt>
      <trkpt lat="44.05442" lon="1.66126">
        <ele>13600</ele>
        <time>2020-05-31T04:35:45Z</time>
      </trkpt>
      <trkpt lat="44.05447" lon="1.66121">
        <ele>13600</ele>
        <time>2020-05-31T04:35:46Z</time>
      </trkpt>
      <trkpt lat="44.05452" lon="1.66117">
        <ele>13600</ele>
        <time>2020-05-31T04:35:47Z</time>
      </trkpt>
      <trkpt lat="44.05457" lon="1.66112">
        <ele>13600</ele>
        <time>2020-05-31T04:35:48Z</time>
      </trkpt>
      <trkpt lat="44.05462" lon="1.66106">
        <ele>13500</ele>
        <time>2020-05-31T04:35:49Z</time>
      </trkpt>
      <trkpt lat="44.05466" lon="1.66101">
        <ele>13500</ele>
        <time>2020-05-31T04:35:50Z</time>
      </trkpt>
      <trkpt lat="44.05471" lon="1.66095">
        <ele>13500</ele>
        <time>2020-05-31T04:35:51Z</time>
      </trkpt>
      <trkpt lat="44.05475" lon="1.66089">
        <ele>13500</ele>
        <time>2020-05-31T04:35:52Z</time>
      </trkpt>
      <trkpt lat="44.0548" lon="1.66083">
        <ele>13500</ele>
        <time>2020-05-31T04:35:54Z</time>
      </trkpt>
      <trkpt lat="44.05484" lon="1.66078">
        <ele>13500</ele>
        <time>2020-05-31T04:35:54Z</time>
      </trkpt>
      <trkpt lat="44.05489" lon="1.66072">
        <ele>13500</ele>
        <time>2020-05-31T04:35:55Z</time>
      </trkpt>
      <trkpt lat="44.05493" lon="1.66067">
        <ele>13500</ele>
        <time>2020-05-31T04:35:56Z</time>
      </trkpt>
      <trkpt lat="44.05498" lon="1.66061">
        <ele>13500</ele>
        <time>2020-05-31T04:35:57Z</time>
      </trkpt>
      <trkpt lat="44.05502" lon="1.66056">
        <ele>13500</ele>
        <time>2020-05-31T04:35:58Z</time>
      </trkpt>
      <trkpt lat="44.05507" lon="1.66051">
        <ele>13500</ele>
        <time>2020-05-31T04:35:59Z</time>
      </trkpt>
      <trkpt lat="44.05511" lon="1.66047">
        <ele>13500</ele>
        <time>2020-05-31T04:36:00Z</time>
      </trkpt>
      <trkpt lat="44.05515" lon="1.66042">
        <ele>13500</ele>
        <time>2020-05-31T04:36:01Z</time>
      </trkpt>
      <trkpt lat="44.0552" lon="1.66038">
        <ele>13500</ele>
        <time>2020-05-31T04:36:02Z</time>
      </trkpt>
      <trkpt lat="44.05524" lon="1.66034">
        <ele>13500</ele>
        <time>2020-05-31T04:36:03Z</time>
      </trkpt>
      <trkpt lat="44.05528" lon="1.66029">
        <ele>13500</ele>
        <time>2020-05-31T04:36:04Z</time>
      </trkpt>
      <trkpt lat="44.05533" lon="1.66025">
        <ele>13500</ele>
        <time>2020-05-31T04:36:05Z</time>
      </trkpt>
      <trkpt lat="44.05537" lon="1.66021">
        <ele>13500</ele>
        <time>2020-05-31T04:36:06Z</time>
      </trkpt>
      <trkpt lat="44.05542" lon="1.66017">
        <ele>13500</ele>
        <time>2020-05-31T04:36:07Z</time>
      </trkpt>
      <trkpt lat="44.05547" lon="1.66014">
        <ele>13500</ele>
        <time>2020-05-31T04:36:08Z</time>
      </trkpt>
      <trkpt lat="44.05551" lon="1.66011">
        <ele>13500</ele>
        <time>2020-05-31T04:36:09Z</time>
      </trkpt>
      <trkpt lat="44.05555" lon="1.66008">
        <ele>13500</ele>
        <time>2020-05-31T04:36:10Z</time>
      </trkpt>
      <trkpt lat="44.0556" lon="1.66005">
        <ele>13500</ele>
        <time>2020-05-31T04:36:11Z</time>
      </trkpt>
      <trkpt lat="44.05564" lon="1.66003">
        <ele>13500</ele>
        <time>2020-05-31T04:36:12Z</time>
      </trkpt>
      <trkpt lat="44.05568" lon="1.66001">
        <ele>13600</ele>
        <time>2020-05-31T04:36:13Z</time>
      </trkpt>
      <trkpt lat="44.05573" lon="1.65998">
        <ele>13600</ele>
        <time>2020-05-31T04:36:14Z</time>
      </trkpt>
      <trkpt lat="44.05577" lon="1.65996">
        <ele>13600</ele>
        <time>2020-05-31T04:36:15Z</time>
      </trkpt>
      <trkpt lat="44.05581" lon="1.65994">
        <ele>13600</ele>
        <time>2020-05-31T04:36:16Z</time>
      </trkpt>
      <trkpt lat="44.05585" lon="1.65992">
        <ele>13600</ele>
        <time>2020-05-31T04:36:17Z</time>
      </trkpt>
      <trkpt lat="44.05589" lon="1.6599">
        <ele>13600</ele>
        <time>2020-05-31T04:36:18Z</time>
      </trkpt>
      <trkpt lat="44.05593" lon="1.65988">
        <ele>13600</ele>
        <time>2020-05-31T04:36:19Z</time>
      </trkpt>
      <trkpt lat="44.05597" lon="1.65986">
        <ele>13600</ele>
        <time>2020-05-31T04:36:20Z</time>
      </trkpt>
      <trkpt lat="44.05601" lon="1.65984">
        <ele>13600</ele>
        <time>2020-05-31T04:36:21Z</time>
      </trkpt>
      <trkpt lat="44.05605" lon="1.65981">
        <ele>13600</ele>
        <time>2020-05-31T04:36:22Z</time>
      </trkpt>
      <trkpt lat="44.0561" lon="1.65979">
        <ele>13600</ele>
        <time>2020-05-31T04:36:23Z</time>
      </trkpt>
      <trkpt lat="44.05614" lon="1.65977">
        <ele>13700</ele>
        <time>2020-05-31T04:36:24Z</time>
      </trkpt>
      <trkpt lat="44.05618" lon="1.65975">
        <ele>13700</ele>
        <time>2020-05-31T04:36:25Z</time>
      </trkpt>
      <trkpt lat="44.05621" lon="1.65972">
        <ele>13700</ele>
        <time>2020-05-31T04:36:26Z</time>
      </trkpt>
      <trkpt lat="44.05625" lon="1.65969">
        <ele>13700</ele>
        <time>2020-05-31T04:36:28Z</time>
      </trkpt>
      <trkpt lat="44.05629" lon="1.65966">
        <ele>13700</ele>
        <time>2020-05-31T04:36:28Z</time>
      </trkpt>
      <trkpt lat="44.05632" lon="1.65963">
        <ele>13700</ele>
        <time>2020-05-31T04:36:29Z</time>
      </trkpt>
      <trkpt lat="44.05636" lon="1.6596">
        <ele>13700</ele>
        <time>2020-05-31T04:36:30Z</time>
      </trkpt>
      <trkpt lat="44.05639" lon="1.65956">
        <ele>13700</ele>
        <time>2020-05-31T04:36:31Z</time>
      </trkpt>
      <trkpt lat="44.05643" lon="1.65953">
        <ele>13700</ele>
        <time>2020-05-31T04:36:32Z</time>
      </trkpt>
      <trkpt lat="44.05647" lon="1.6595">
        <ele>13700</ele>
        <time>2020-05-31T04:36:33Z</time>
      </trkpt>
      <trkpt lat="44.0565" lon="1.65947">
        <ele>13700</ele>
        <time>2020-05-31T04:36:34Z</time>
      </trkpt>
      <trkpt lat="44.05653" lon="1.65944">
        <ele>13700</ele>
        <time>2020-05-31T04:36:35Z</time>
      </trkpt>
      <trkpt lat="44.05657" lon="1.65941">
        <ele>13700</ele>
        <time>2020-05-31T04:36:36Z</time>
      </trkpt>
      <trkpt lat="44.05661" lon="1.65938">
        <ele>13700</ele>
        <time>2020-05-31T04:36:37Z</time>
      </trkpt>
      <trkpt lat="44.05664" lon="1.65935">
        <ele>13700</ele>
        <time>2020-05-31T04:36:38Z</time>
      </trkpt>
      <trkpt lat="44.05668" lon="1.65932">
        <ele>13700</ele>
        <time>2020-05-31T04:36:39Z</time>
      </trkpt>
      <trkpt lat="44.05671" lon="1.65929">
        <ele>13700</ele>
        <time>2020-05-31T04:36:40Z</time>
      </trkpt>
      <trkpt lat="44.05676" lon="1.65926">
        <ele>13700</ele>
        <time>2020-05-31T04:36:41Z</time>
      </trkpt>
      <trkpt lat="44.05679" lon="1.65923">
        <ele>13700</ele>
        <time>2020-05-31T04:36:42Z</time>
      </trkpt>
      <trkpt lat="44.05683" lon="1.6592">
        <ele>13700</ele>
        <time>2020-05-31T04:36:43Z</time>
      </trkpt>
      <trkpt lat="44.05687" lon="1.65917">
        <ele>13700</ele>
        <time>2020-05-31T04:36:44Z</time>
      </trkpt>
      <trkpt lat="44.05691" lon="1.65913">
        <ele>13700</ele>
        <time>2020-05-31T04:36:45Z</time>
      </trkpt>
      <trkpt lat="44.05695" lon="1.6591">
        <ele>13700</ele>
        <time>2020-05-31T04:36:46Z</time>
      </trkpt>
      <trkpt lat="44.05699" lon="1.65907">
        <ele>13700</ele>
        <time>2020-05-31T04:36:47Z</time>
      </trkpt>
      <trkpt lat="44.05703" lon="1.65904">
        <ele>13700</ele>
        <time>2020-05-31T04:36:48Z</time>
      </trkpt>
      <trkpt lat="44.05707" lon="1.659">
        <ele>13700</ele>
        <time>2020-05-31T04:36:49Z</time>
      </trkpt>
      <trkpt lat="44.05711" lon="1.65896">
        <ele>13700</ele>
        <time>2020-05-31T04:36:50Z</time>
      </trkpt>
      <trkpt lat="44.05714" lon="1.65893">
        <ele>13800</ele>
        <time>2020-05-31T04:36:51Z</time>
      </trkpt>
      <trkpt lat="44.05719" lon="1.6589">
        <ele>13800</ele>
        <time>2020-05-31T04:36:52Z</time>
      </trkpt>
      <trkpt lat="44.05723" lon="1.65887">
        <ele>13800</ele>
        <time>2020-05-31T04:36:53Z</time>
      </trkpt>
      <trkpt lat="44.05727" lon="1.65884">
        <ele>13800</ele>
        <time>2020-05-31T04:36:54Z</time>
      </trkpt>
      <trkpt lat="44.05731" lon="1.65881">
        <ele>13800</ele>
        <time>2020-05-31T04:36:55Z</time>
      </trkpt>
      <trkpt lat="44.05735" lon="1.65878">
        <ele>13800</ele>
        <time>2020-05-31T04:36:56Z</time>
      </trkpt>
      <trkpt lat="44.05739" lon="1.65875">
        <ele>13800</ele>
        <time>2020-05-31T04:36:57Z</time>
      </trkpt>
      <trkpt lat="44.05743" lon="1.65872">
        <ele>13800</ele>
        <time>2020-05-31T04:36:58Z</time>
      </trkpt>
      <trkpt lat="44.05747" lon="1.6587">
        <ele>13800</ele>
        <time>2020-05-31T04:36:59Z</time>
      </trkpt>
      <trkpt lat="44.05751" lon="1.65867">
        <ele>13800</ele>
        <time>2020-05-31T04:37:00Z</time>
      </trkpt>
      <trkpt lat="44.05755" lon="1.65864">
        <ele>13800</ele>
        <time>2020-05-31T04:37:02Z</time>
      </trkpt>
      <trkpt lat="44.05759" lon="1.65861">
        <ele>13800</ele>
        <time>2020-05-31T04:37:02Z</time>
      </trkpt>
      <trkpt lat="44.05763" lon="1.65859">
        <ele>13800</ele>
        <time>2020-05-31T04:37:03Z</time>
      </trkpt>
      <trkpt lat="44.05767" lon="1.65856">
        <ele>13800</ele>
        <time>2020-05-31T04:37:04Z</time>
      </trkpt>
      <trkpt lat="44.0577" lon="1.65854">
        <ele>13800</ele>
        <time>2020-05-31T04:37:05Z</time>
      </trkpt>
      <trkpt lat="44.05773" lon="1.65851">
        <ele>13800</ele>
        <time>2020-05-31T04:37:06Z</time>
      </trkpt>
      <trkpt lat="44.05777" lon="1.65848">
        <ele>13800</ele>
        <time>2020-05-31T04:37:07Z</time>
      </trkpt>
      <trkpt lat="44.0578" lon="1.65845">
        <ele>13800</ele>
        <time>2020-05-31T04:37:08Z</time>
      </trkpt>
      <trkpt lat="44.05785" lon="1.65842">
        <ele>13800</ele>
        <time>2020-05-31T04:37:09Z</time>
      </trkpt>
      <trkpt lat="44.05788" lon="1.65838">
        <ele>13900</ele>
        <time>2020-05-31T04:37:10Z</time>
      </trkpt>
      <trkpt lat="44.05793" lon="1.65835">
        <ele>13900</ele>
        <time>2020-05-31T04:37:11Z</time>
      </trkpt>
      <trkpt lat="44.05797" lon="1.65832">
        <ele>13900</ele>
        <time>2020-05-31T04:37:12Z</time>
      </trkpt>
      <trkpt lat="44.05801" lon="1.65829">
        <ele>13900</ele>
        <time>2020-05-31T04:37:13Z</time>
      </trkpt>
      <trkpt lat="44.05805" lon="1.65826">
        <ele>13900</ele>
        <time>2020-05-31T04:37:14Z</time>
      </trkpt>
      <trkpt lat="44.05809" lon="1.65823">
        <ele>13900</ele>
        <time>2020-05-31T04:37:15Z</time>
      </trkpt>
      <trkpt lat="44.05813" lon="1.6582">
        <ele>13900</ele>
        <time>2020-05-31T04:37:16Z</time>
      </trkpt>
      <trkpt lat="44.05817" lon="1.65817">
        <ele>13900</ele>
        <time>2020-05-31T04:37:17Z</time>
      </trkpt>
      <trkpt lat="44.05822" lon="1.65814">
        <ele>13900</ele>
        <time>2020-05-31T04:37:18Z</time>
      </trkpt>
      <trkpt lat="44.05826" lon="1.65811">
        <ele>13900</ele>
        <time>2020-05-31T04:37:19Z</time>
      </trkpt>
      <trkpt lat="44.05831" lon="1.65808">
        <ele>13900</ele>
        <time>2020-05-31T04:37:20Z</time>
      </trkpt>
      <trkpt lat="44.05835" lon="1.65805">
        <ele>13900</ele>
        <time>2020-05-31T04:37:21Z</time>
      </trkpt>
      <trkpt lat="44.0584" lon="1.65802">
        <ele>13900</ele>
        <time>2020-05-31T04:37:22Z</time>
      </trkpt>
      <trkpt lat="44.05845" lon="1.65799">
        <ele>13900</ele>
        <time>2020-05-31T04:37:23Z</time>
      </trkpt>
      <trkpt lat="44.0585" lon="1.65796">
        <ele>13900</ele>
        <time>2020-05-31T04:37:24Z</time>
      </trkpt>
      <trkpt lat="44.05855" lon="1.65793">
        <ele>13900</ele>
        <time>2020-05-31T04:37:25Z</time>
      </trkpt>
      <trkpt lat="44.05861" lon="1.65791">
        <ele>13800</ele>
        <time>2020-05-31T04:37:26Z</time>
      </trkpt>
      <trkpt lat="44.05866" lon="1.65787">
        <ele>13800</ele>
        <time>2020-05-31T04:37:27Z</time>
      </trkpt>
      <trkpt lat="44.05871" lon="1.65784">
        <ele>13800</ele>
        <time>2020-05-31T04:37:28Z</time>
      </trkpt>
      <trkpt lat="44.05877" lon="1.65781">
        <ele>13800</ele>
        <time>2020-05-31T04:37:29Z</time>
      </trkpt>
      <trkpt lat="44.05883" lon="1.65779">
        <ele>13700</ele>
        <time>2020-05-31T04:37:30Z</time>
      </trkpt>
      <trkpt lat="44.05889" lon="1.65776">
        <ele>13700</ele>
        <time>2020-05-31T04:37:31Z</time>
      </trkpt>
      <trkpt lat="44.05895" lon="1.65773">
        <ele>13700</ele>
        <time>2020-05-31T04:37:32Z</time>
      </trkpt>
      <trkpt lat="44.05902" lon="1.65771">
        <ele>13600</ele>
        <time>2020-05-31T04:37:33Z</time>
      </trkpt>
      <trkpt lat="44.05909" lon="1.65769">
        <ele>13600</ele>
        <time>2020-05-31T04:37:34Z</time>
      </trkpt>
      <trkpt lat="44.05916" lon="1.65768">
        <ele>13600</ele>
        <time>2020-05-31T04:37:35Z</time>
      </trkpt>
      <trkpt lat="44.05922" lon="1.65766">
        <ele>13600</ele>
        <time>2020-05-31T04:37:36Z</time>
      </trkpt>
      <trkpt lat="44.05928" lon="1.65764">
        <ele>13600</ele>
        <time>2020-05-31T04:37:37Z</time>
      </trkpt>
      <trkpt lat="44.05933" lon="1.65762">
        <ele>13600</ele>
        <time>2020-05-31T04:37:38Z</time>
      </trkpt>
      <trkpt lat="44.0594" lon="1.6576">
        <ele>13600</ele>
        <time>2020-05-31T04:37:39Z</time>
      </trkpt>
      <trkpt lat="44.05946" lon="1.65758">
        <ele>13500</ele>
        <time>2020-05-31T04:37:40Z</time>
      </trkpt>
      <trkpt lat="44.05953" lon="1.65755">
        <ele>13500</ele>
        <time>2020-05-31T04:37:41Z</time>
      </trkpt>
      <trkpt lat="44.05959" lon="1.65753">
        <ele>13500</ele>
        <time>2020-05-31T04:37:42Z</time>
      </trkpt>
      <trkpt lat="44.05965" lon="1.65751">
        <ele>13500</ele>
        <time>2020-05-31T04:37:43Z</time>
      </trkpt>
      <trkpt lat="44.0597" lon="1.65749">
        <ele>13400</ele>
        <time>2020-05-31T04:37:44Z</time>
      </trkpt>
      <trkpt lat="44.05977" lon="1.65747">
        <ele>13400</ele>
        <time>2020-05-31T04:37:45Z</time>
      </trkpt>
      <trkpt lat="44.05983" lon="1.65744">
        <ele>13400</ele>
        <time>2020-05-31T04:37:46Z</time>
      </trkpt>
      <trkpt lat="44.0599" lon="1.65742">
        <ele>13400</ele>
        <time>2020-05-31T04:37:47Z</time>
      </trkpt>
      <trkpt lat="44.05997" lon="1.6574">
        <ele>13300</ele>
        <time>2020-05-31T04:37:48Z</time>
      </trkpt>
      <trkpt lat="44.06004" lon="1.65738">
        <ele>13300</ele>
        <time>2020-05-31T04:37:49Z</time>
      </trkpt>
      <trkpt lat="44.06011" lon="1.65736">
        <ele>13300</ele>
        <time>2020-05-31T04:37:50Z</time>
      </trkpt>
      <trkpt lat="44.06018" lon="1.65734">
        <ele>13300</ele>
        <time>2020-05-31T04:37:51Z</time>
      </trkpt>
      <trkpt lat="44.06025" lon="1.65731">
        <ele>13200</ele>
        <time>2020-05-31T04:37:52Z</time>
      </trkpt>
      <trkpt lat="44.06031" lon="1.65728">
        <ele>13200</ele>
        <time>2020-05-31T04:37:53Z</time>
      </trkpt>
      <trkpt lat="44.06039" lon="1.65725">
        <ele>13200</ele>
        <time>2020-05-31T04:37:54Z</time>
      </trkpt>
      <trkpt lat="44.06045" lon="1.65721">
        <ele>13200</ele>
        <time>2020-05-31T04:37:55Z</time>
      </trkpt>
      <trkpt lat="44.06051" lon="1.65717">
        <ele>13200</ele>
        <time>2020-05-31T04:37:56Z</time>
      </trkpt>
      <trkpt lat="44.06057" lon="1.65712">
        <ele>13200</ele>
        <time>2020-05-31T04:37:57Z</time>
      </trkpt>
      <trkpt lat="44.06063" lon="1.65706">
        <ele>13200</ele>
        <time>2020-05-31T04:37:58Z</time>
      </trkpt>
      <trkpt lat="44.06067" lon="1.65699">
        <ele>13200</ele>
        <time>2020-05-31T04:37:59Z</time>
      </trkpt>
      <trkpt lat="44.06072" lon="1.65693">
        <ele>13200</ele>
        <time>2020-05-31T04:38:00Z</time>
      </trkpt>
      <trkpt lat="44.06075" lon="1.65685">
        <ele>13200</ele>
        <time>2020-05-31T04:38:01Z</time>
      </trkpt>
      <trkpt lat="44.06078" lon="1.65678">
        <ele>13200</ele>
        <time>2020-05-31T04:38:02Z</time>
      </trkpt>
      <trkpt lat="44.0608" lon="1.65669">
        <ele>13200</ele>
        <time>2020-05-31T04:38:03Z</time>
      </trkpt>
      <trkpt lat="44.06082" lon="1.65661">
        <ele>13200</ele>
        <time>2020-05-31T04:38:04Z</time>
      </trkpt>
      <trkpt lat="44.06084" lon="1.65653">
        <ele>13100</ele>
        <time>2020-05-31T04:38:05Z</time>
      </trkpt>
      <trkpt lat="44.06087" lon="1.65644">
        <ele>13100</ele>
        <time>2020-05-31T04:38:06Z</time>
      </trkpt>
      <trkpt lat="44.06089" lon="1.65637">
        <ele>13100</ele>
        <time>2020-05-31T04:38:07Z</time>
      </trkpt>
      <trkpt lat="44.06092" lon="1.65629">
        <ele>13100</ele>
        <time>2020-05-31T04:38:08Z</time>
      </trkpt>
      <trkpt lat="44.06094" lon="1.65622">
        <ele>13100</ele>
        <time>2020-05-31T04:38:09Z</time>
      </trkpt>
      <trkpt lat="44.06097" lon="1.65615">
        <ele>13100</ele>
        <time>2020-05-31T04:38:10Z</time>
      </trkpt>
      <trkpt lat="44.06099" lon="1.65608">
        <ele>13100</ele>
        <time>2020-05-31T04:38:11Z</time>
      </trkpt>
      <trkpt lat="44.06102" lon="1.65601">
        <ele>13100</ele>
        <time>2020-05-31T04:38:12Z</time>
      </trkpt>
      <trkpt lat="44.06104" lon="1.65595">
        <ele>13100</ele>
        <time>2020-05-31T04:38:13Z</time>
      </trkpt>
      <trkpt lat="44.06106" lon="1.65589">
        <ele>13200</ele>
        <time>2020-05-31T04:38:14Z</time>
      </trkpt>
      <trkpt lat="44.06108" lon="1.65584">
        <ele>13200</ele>
        <time>2020-05-31T04:38:15Z</time>
      </trkpt>
      <trkpt lat="44.0611" lon="1.65578">
        <ele>13200</ele>
        <time>2020-05-31T04:38:16Z</time>
      </trkpt>
      <trkpt lat="44.06112" lon="1.65573">
        <ele>13200</ele>
        <time>2020-05-31T04:38:17Z</time>
      </trkpt>
      <trkpt lat="44.06113" lon="1.65568">
        <ele>13300</ele>
        <time>2020-05-31T04:38:18Z</time>
      </trkpt>
      <trkpt lat="44.06114" lon="1.65563">
        <ele>13300</ele>
        <time>2020-05-31T04:38:19Z</time>
      </trkpt>
      <trkpt lat="44.06115" lon="1.65559">
        <ele>13300</ele>
        <time>2020-05-31T04:38:20Z</time>
      </trkpt>
      <trkpt lat="44.06117" lon="1.65554">
        <ele>13300</ele>
        <time>2020-05-31T04:38:21Z</time>
      </trkpt>
      <trkpt lat="44.06117" lon="1.6555">
        <ele>13300</ele>
        <time>2020-05-31T04:38:22Z</time>
      </trkpt>
      <trkpt lat="44.06118" lon="1.65546">
        <ele>13300</ele>
        <time>2020-05-31T04:38:23Z</time>
      </trkpt>
      <trkpt lat="44.0612" lon="1.65543">
        <ele>13400</ele>
        <time>2020-05-31T04:38:24Z</time>
      </trkpt>
      <trkpt lat="44.0612" lon="1.65539">
        <ele>13400</ele>
        <time>2020-05-31T04:38:25Z</time>
      </trkpt>
      <trkpt lat="44.06121" lon="1.65535">
        <ele>13400</ele>
        <time>2020-05-31T04:38:26Z</time>
      </trkpt>
      <trkpt lat="44.06123" lon="1.65531">
        <ele>13500</ele>
        <time>2020-05-31T04:38:27Z</time>
      </trkpt>
      <trkpt lat="44.06123" lon="1.65527">
        <ele>13500</ele>
        <time>2020-05-31T04:38:28Z</time>
      </trkpt>
      <trkpt lat="44.06125" lon="1.65523">
        <ele>13500</ele>
        <time>2020-05-31T04:38:29Z</time>
      </trkpt>
      <trkpt lat="44.06125" lon="1.6552">
        <ele>13600</ele>
        <time>2020-05-31T04:38:30Z</time>
      </trkpt>
      <trkpt lat="44.06126" lon="1.65516">
        <ele>13600</ele>
        <time>2020-05-31T04:38:31Z</time>
      </trkpt>
      <trkpt lat="44.06126" lon="1.65512">
        <ele>13600</ele>
        <time>2020-05-31T04:38:32Z</time>
      </trkpt>
      <trkpt lat="44.06126" lon="1.65509">
        <ele>13600</ele>
        <time>2020-05-31T04:38:33Z</time>
      </trkpt>
      <trkpt lat="44.06126" lon="1.65505">
        <ele>13700</ele>
        <time>2020-05-31T04:38:34Z</time>
      </trkpt>
      <trkpt lat="44.06125" lon="1.65501">
        <ele>13700</ele>
        <time>2020-05-31T04:38:35Z</time>
      </trkpt>
      <trkpt lat="44.06125" lon="1.65497">
        <ele>13700</ele>
        <time>2020-05-31T04:38:36Z</time>
      </trkpt>
      <trkpt lat="44.06124" lon="1.65493">
        <ele>13700</ele>
        <time>2020-05-31T04:38:37Z</time>
      </trkpt>
      <trkpt lat="44.06123" lon="1.65489">
        <ele>13800</ele>
        <time>2020-05-31T04:38:38Z</time>
      </trkpt>
      <trkpt lat="44.06122" lon="1.65485">
        <ele>13800</ele>
        <time>2020-05-31T04:38:39Z</time>
      </trkpt>
      <trkpt lat="44.06121" lon="1.6548">
        <ele>13800</ele>
        <time>2020-05-31T04:38:40Z</time>
      </trkpt>
      <trkpt lat="44.0612" lon="1.65476">
        <ele>13800</ele>
        <time>2020-05-31T04:38:41Z</time>
      </trkpt>
      <trkpt lat="44.06119" lon="1.65472">
        <ele>13900</ele>
        <time>2020-05-31T04:38:42Z</time>
      </trkpt>
      <trkpt lat="44.06118" lon="1.65468">
        <ele>13900</ele>
        <time>2020-05-31T04:38:43Z</time>
      </trkpt>
      <trkpt lat="44.06119" lon="1.65464">
        <ele>13900</ele>
        <time>2020-05-31T04:38:44Z</time>
      </trkpt>
      <trkpt lat="44.0612" lon="1.65461">
        <ele>13900</ele>
        <time>2020-05-31T04:38:45Z</time>
      </trkpt>
      <trkpt lat="44.0612" lon="1.65457">
        <ele>14000</ele>
        <time>2020-05-31T04:38:46Z</time>
      </trkpt>
      <trkpt lat="44.0612" lon="1.65454">
        <ele>14000</ele>
        <time>2020-05-31T04:38:47Z</time>
      </trkpt>
      <trkpt lat="44.0612" lon="1.6545">
        <ele>14000</ele>
        <time>2020-05-31T04:38:48Z</time>
      </trkpt>
      <trkpt lat="44.0612" lon="1.65447">
        <ele>14000</ele>
        <time>2020-05-31T04:38:49Z</time>
      </trkpt>
      <trkpt lat="44.0612" lon="1.65443">
        <ele>14000</ele>
        <time>2020-05-31T04:38:50Z</time>
      </trkpt>
      <trkpt lat="44.06119" lon="1.65439">
        <ele>14000</ele>
        <time>2020-05-31T04:38:51Z</time>
      </trkpt>
      <trkpt lat="44.06118" lon="1.65436">
        <ele>14000</ele>
        <time>2020-05-31T04:38:52Z</time>
      </trkpt>
      <trkpt lat="44.06118" lon="1.65432">
        <ele>14000</ele>
        <time>2020-05-31T04:38:52Z</time>
      </trkpt>
      <trkpt lat="44.06117" lon="1.65428">
        <ele>14100</ele>
        <time>2020-05-31T04:38:53Z</time>
      </trkpt>
      <trkpt lat="44.06117" lon="1.65424">
        <ele>14100</ele>
        <time>2020-05-31T04:38:54Z</time>
      </trkpt>
      <trkpt lat="44.06117" lon="1.6542">
        <ele>14100</ele>
        <time>2020-05-31T04:38:55Z</time>
      </trkpt>
      <trkpt lat="44.06116" lon="1.65416">
        <ele>14100</ele>
        <time>2020-05-31T04:38:56Z</time>
      </trkpt>
      <trkpt lat="44.06115" lon="1.65413">
        <ele>14200</ele>
        <time>2020-05-31T04:38:57Z</time>
      </trkpt>
      <trkpt lat="44.06115" lon="1.65409">
        <ele>14200</ele>
        <time>2020-05-31T04:38:58Z</time>
      </trkpt>
      <trkpt lat="44.06115" lon="1.65405">
        <ele>14200</ele>
        <time>2020-05-31T04:38:59Z</time>
      </trkpt>
      <trkpt lat="44.06115" lon="1.65401">
        <ele>14200</ele>
        <time>2020-05-31T04:39:00Z</time>
      </trkpt>
      <trkpt lat="44.06115" lon="1.65397">
        <ele>14300</ele>
        <time>2020-05-31T04:39:01Z</time>
      </trkpt>
      <trkpt lat="44.06115" lon="1.65393">
        <ele>14300</ele>
        <time>2020-05-31T04:39:02Z</time>
      </trkpt>
      <trkpt lat="44.06115" lon="1.6539">
        <ele>14300</ele>
        <time>2020-05-31T04:39:03Z</time>
      </trkpt>
      <trkpt lat="44.06115" lon="1.65386">
        <ele>14300</ele>
        <time>2020-05-31T04:39:04Z</time>
      </trkpt>
      <trkpt lat="44.06116" lon="1.65383">
        <ele>14400</ele>
        <time>2020-05-31T04:39:05Z</time>
      </trkpt>
      <trkpt lat="44.06116" lon="1.65379">
        <ele>14400</ele>
        <time>2020-05-31T04:39:06Z</time>
      </trkpt>
      <trkpt lat="44.06115" lon="1.65375">
        <ele>14400</ele>
        <time>2020-05-31T04:39:07Z</time>
      </trkpt>
      <trkpt lat="44.06116" lon="1.65371">
        <ele>14400</ele>
        <time>2020-05-31T04:39:08Z</time>
      </trkpt>
      <trkpt lat="44.06117" lon="1.65368">
        <ele>14500</ele>
        <time>2020-05-31T04:39:09Z</time>
      </trkpt>
      <trkpt lat="44.06117" lon="1.65365">
        <ele>14500</ele>
        <time>2020-05-31T04:39:10Z</time>
      </trkpt>
      <trkpt lat="44.06118" lon="1.65362">
        <ele>14500</ele>
        <time>2020-05-31T04:39:11Z</time>
      </trkpt>
      <trkpt lat="44.06118" lon="1.65359">
        <ele>14500</ele>
        <time>2020-05-31T04:39:12Z</time>
      </trkpt>
      <trkpt lat="44.06119" lon="1.65356">
        <ele>14600</ele>
        <time>2020-05-31T04:39:13Z</time>
      </trkpt>
      <trkpt lat="44.06119" lon="1.65353">
        <ele>14600</ele>
        <time>2020-05-31T04:39:14Z</time>
      </trkpt>
      <trkpt lat="44.06119" lon="1.6535">
        <ele>14600</ele>
        <time>2020-05-31T04:39:15Z</time>
      </trkpt>
      <trkpt lat="44.06119" lon="1.65347">
        <ele>14600</ele>
        <time>2020-05-31T04:39:16Z</time>
      </trkpt>
      <trkpt lat="44.06119" lon="1.65343">
        <ele>14700</ele>
        <time>2020-05-31T04:39:17Z</time>
      </trkpt>
      <trkpt lat="44.06119" lon="1.6534">
        <ele>14700</ele>
        <time>2020-05-31T04:39:18Z</time>
      </trkpt>
      <trkpt lat="44.06118" lon="1.65337">
        <ele>14700</ele>
        <time>2020-05-31T04:39:19Z</time>
      </trkpt>
      <trkpt lat="44.06118" lon="1.65334">
        <ele>14700</ele>
        <time>2020-05-31T04:39:20Z</time>
      </trkpt>
      <trkpt lat="44.06118" lon="1.65331">
        <ele>14800</ele>
        <time>2020-05-31T04:39:21Z</time>
      </trkpt>
      <trkpt lat="44.06118" lon="1.65328">
        <ele>14800</ele>
        <time>2020-05-31T04:39:22Z</time>
      </trkpt>
      <trkpt lat="44.06118" lon="1.65326">
        <ele>14800</ele>
        <time>2020-05-31T04:39:23Z</time>
      </trkpt>
      <trkpt lat="44.06118" lon="1.65323">
        <ele>14800</ele>
        <time>2020-05-31T04:39:24Z</time>
      </trkpt>
      <trkpt lat="44.06119" lon="1.65319">
        <ele>14900</ele>
        <time>2020-05-31T04:39:25Z</time>
      </trkpt>
      <trkpt lat="44.06119" lon="1.65316">
        <ele>14900</ele>
        <time>2020-05-31T04:39:26Z</time>
      </trkpt>
      <trkpt lat="44.06119" lon="1.65312">
        <ele>14900</ele>
        <time>2020-05-31T04:39:27Z</time>
      </trkpt>
      <trkpt lat="44.06119" lon="1.65309">
        <ele>14900</ele>
        <time>2020-05-31T04:39:28Z</time>
      </trkpt>
      <trkpt lat="44.0612" lon="1.65305">
        <ele>14900</ele>
        <time>2020-05-31T04:39:29Z</time>
      </trkpt>
      <trkpt lat="44.0612" lon="1.65302">
        <ele>14900</ele>
        <time>2020-05-31T04:39:30Z</time>
      </trkpt>
      <trkpt lat="44.0612" lon="1.65298">
        <ele>14900</ele>
        <time>2020-05-31T04:39:31Z</time>
      </trkpt>
      <trkpt lat="44.0612" lon="1.65294">
        <ele>14900</ele>
        <time>2020-05-31T04:39:32Z</time>
      </trkpt>
      <trkpt lat="44.0612" lon="1.65291">
        <ele>15000</ele>
        <time>2020-05-31T04:39:33Z</time>
      </trkpt>
      <trkpt lat="44.0612" lon="1.65287">
        <ele>15000</ele>
        <time>2020-05-31T04:39:34Z</time>
      </trkpt>
      <trkpt lat="44.0612" lon="1.65284">
        <ele>15000</ele>
        <time>2020-05-31T04:39:35Z</time>
      </trkpt>
      <trkpt lat="44.0612" lon="1.65281">
        <ele>15000</ele>
        <time>2020-05-31T04:39:36Z</time>
      </trkpt>
      <trkpt lat="44.0612" lon="1.65278">
        <ele>15100</ele>
        <time>2020-05-31T04:39:37Z</time>
      </trkpt>
      <trkpt lat="44.06119" lon="1.65274">
        <ele>15100</ele>
        <time>2020-05-31T04:39:38Z</time>
      </trkpt>
      <trkpt lat="44.06118" lon="1.65271">
        <ele>15100</ele>
        <time>2020-05-31T04:39:39Z</time>
      </trkpt>
      <trkpt lat="44.06117" lon="1.65268">
        <ele>15100</ele>
        <time>2020-05-31T04:39:40Z</time>
      </trkpt>
      <trkpt lat="44.06115" lon="1.65266">
        <ele>15200</ele>
        <time>2020-05-31T04:39:41Z</time>
      </trkpt>
      <trkpt lat="44.06114" lon="1.65264">
        <ele>15200</ele>
        <time>2020-05-31T04:39:42Z</time>
      </trkpt>
      <trkpt lat="44.06112" lon="1.65263">
        <ele>15200</ele>
        <time>2020-05-31T04:39:43Z</time>
      </trkpt>
      <trkpt lat="44.0611" lon="1.65263">
        <ele>15200</ele>
        <time>2020-05-31T04:39:44Z</time>
      </trkpt>
      <trkpt lat="44.06108" lon="1.65264">
        <ele>15300</ele>
        <time>2020-05-31T04:39:45Z</time>
      </trkpt>
      <trkpt lat="44.06106" lon="1.65265">
        <ele>15300</ele>
        <time>2020-05-31T04:39:46Z</time>
      </trkpt>
      <trkpt lat="44.06104" lon="1.65267">
        <ele>15300</ele>
        <time>2020-05-31T04:39:47Z</time>
      </trkpt>
      <trkpt lat="44.06102" lon="1.65269">
        <ele>15300</ele>
        <time>2020-05-31T04:39:48Z</time>
      </trkpt>
      <trkpt lat="44.06099" lon="1.65271">
        <ele>15300</ele>
        <time>2020-05-31T04:39:49Z</time>
      </trkpt>
      <trkpt lat="44.06097" lon="1.65273">
        <ele>15400</ele>
        <time>2020-05-31T04:39:50Z</time>
      </trkpt>
      <trkpt lat="44.06096" lon="1.65276">
        <ele>15400</ele>
        <time>2020-05-31T04:39:51Z</time>
      </trkpt>
      <trkpt lat="44.06093" lon="1.65278">
        <ele>15400</ele>
        <time>2020-05-31T04:39:52Z</time>
      </trkpt>
      <trkpt lat="44.06091" lon="1.6528">
        <ele>15400</ele>
        <time>2020-05-31T04:39:53Z</time>
      </trkpt>
      <trkpt lat="44.06089" lon="1.65283">
        <ele>15400</ele>
        <time>2020-05-31T04:39:54Z</time>
      </trkpt>
      <trkpt lat="44.06086" lon="1.65285">
        <ele>15400</ele>
        <time>2020-05-31T04:39:55Z</time>
      </trkpt>
      <trkpt lat="44.06084" lon="1.65288">
        <ele>15400</ele>
        <time>2020-05-31T04:39:56Z</time>
      </trkpt>
      <trkpt lat="44.06081" lon="1.6529">
        <ele>15400</ele>
        <time>2020-05-31T04:39:57Z</time>
      </trkpt>
      <trkpt lat="44.06079" lon="1.65293">
        <ele>15400</ele>
        <time>2020-05-31T04:39:58Z</time>
      </trkpt>
      <trkpt lat="44.06076" lon="1.65295">
        <ele>15400</ele>
        <time>2020-05-31T04:39:59Z</time>
      </trkpt>
      <trkpt lat="44.06075" lon="1.65298">
        <ele>15400</ele>
        <time>2020-05-31T04:40:00Z</time>
      </trkpt>
      <trkpt lat="44.06072" lon="1.653">
        <ele>15500</ele>
        <time>2020-05-31T04:40:01Z</time>
      </trkpt>
      <trkpt lat="44.06069" lon="1.65303">
        <ele>15500</ele>
        <time>2020-05-31T04:40:02Z</time>
      </trkpt>
      <trkpt lat="44.06066" lon="1.65305">
        <ele>15500</ele>
        <time>2020-05-31T04:40:03Z</time>
      </trkpt>
      <trkpt lat="44.06063" lon="1.65308">
        <ele>15500</ele>
        <time>2020-05-31T04:40:04Z</time>
      </trkpt>
      <trkpt lat="44.0606" lon="1.6531">
        <ele>15500</ele>
        <time>2020-05-31T04:40:05Z</time>
      </trkpt>
      <trkpt lat="44.06059" lon="1.65313">
        <ele>15600</ele>
        <time>2020-05-31T04:40:06Z</time>
      </trkpt>
      <trkpt lat="44.06056" lon="1.65316">
        <ele>15600</ele>
        <time>2020-05-31T04:40:07Z</time>
      </trkpt>
      <trkpt lat="44.06054" lon="1.65319">
        <ele>15600</ele>
        <time>2020-05-31T04:40:08Z</time>
      </trkpt>
      <trkpt lat="44.06051" lon="1.65322">
        <ele>15600</ele>
        <time>2020-05-31T04:40:09Z</time>
      </trkpt>
      <trkpt lat="44.06049" lon="1.65325">
        <ele>15600</ele>
        <time>2020-05-31T04:40:10Z</time>
      </trkpt>
      <trkpt lat="44.06046" lon="1.65327">
        <ele>15700</ele>
        <time>2020-05-31T04:40:11Z</time>
      </trkpt>
      <trkpt lat="44.06044" lon="1.6533">
        <ele>15700</ele>
        <time>2020-05-31T04:40:12Z</time>
      </trkpt>
      <trkpt lat="44.06041" lon="1.65331">
        <ele>15700</ele>
        <time>2020-05-31T04:40:13Z</time>
      </trkpt>
      <trkpt lat="44.06039" lon="1.65333">
        <ele>15700</ele>
        <time>2020-05-31T04:40:14Z</time>
      </trkpt>
      <trkpt lat="44.06036" lon="1.65336">
        <ele>15700</ele>
        <time>2020-05-31T04:40:15Z</time>
      </trkpt>
      <trkpt lat="44.06035" lon="1.65338">
        <ele>15700</ele>
        <time>2020-05-31T04:40:16Z</time>
      </trkpt>
      <trkpt lat="44.06033" lon="1.65341">
        <ele>15800</ele>
        <time>2020-05-31T04:40:17Z</time>
      </trkpt>
      <trkpt lat="44.0603" lon="1.65345">
        <ele>15800</ele>
        <time>2020-05-31T04:40:18Z</time>
      </trkpt>
      <trkpt lat="44.06028" lon="1.65347">
        <ele>15800</ele>
        <time>2020-05-31T04:40:19Z</time>
      </trkpt>
      <trkpt lat="44.06025" lon="1.6535">
        <ele>15800</ele>
        <time>2020-05-31T04:40:20Z</time>
      </trkpt>
      <trkpt lat="44.06023" lon="1.65352">
        <ele>15800</ele>
        <time>2020-05-31T04:40:21Z</time>
      </trkpt>
      <trkpt lat="44.06021" lon="1.65355">
        <ele>15900</ele>
        <time>2020-05-31T04:40:22Z</time>
      </trkpt>
      <trkpt lat="44.06018" lon="1.65357">
        <ele>15900</ele>
        <time>2020-05-31T04:40:23Z</time>
      </trkpt>
      <trkpt lat="44.06015" lon="1.6536">
        <ele>15900</ele>
        <time>2020-05-31T04:40:24Z</time>
      </trkpt>
      <trkpt lat="44.06014" lon="1.65362">
        <ele>15900</ele>
        <time>2020-05-31T04:40:25Z</time>
      </trkpt>
      <trkpt lat="44.06011" lon="1.65364">
        <ele>15900</ele>
        <time>2020-05-31T04:40:26Z</time>
      </trkpt>
      <trkpt lat="44.06008" lon="1.65367">
        <ele>16000</ele>
        <time>2020-05-31T04:40:27Z</time>
      </trkpt>
      <trkpt lat="44.06006" lon="1.65369">
        <ele>16000</ele>
        <time>2020-05-31T04:40:28Z</time>
      </trkpt>
      <trkpt lat="44.06003" lon="1.65371">
        <ele>16000</ele>
        <time>2020-05-31T04:40:29Z</time>
      </trkpt>
      <trkpt lat="44.06001" lon="1.65373">
        <ele>16000</ele>
        <time>2020-05-31T04:40:30Z</time>
      </trkpt>
      <trkpt lat="44.05998" lon="1.65376">
        <ele>16000</ele>
        <time>2020-05-31T04:40:31Z</time>
      </trkpt>
      <trkpt lat="44.05995" lon="1.65378">
        <ele>16100</ele>
        <time>2020-05-31T04:40:32Z</time>
      </trkpt>
      <trkpt lat="44.05993" lon="1.65381">
        <ele>16100</ele>
        <time>2020-05-31T04:40:33Z</time>
      </trkpt>
      <trkpt lat="44.0599" lon="1.65384">
        <ele>16100</ele>
        <time>2020-05-31T04:40:34Z</time>
      </trkpt>
      <trkpt lat="44.05987" lon="1.65388">
        <ele>16100</ele>
        <time>2020-05-31T04:40:35Z</time>
      </trkpt>
      <trkpt lat="44.05984" lon="1.65391">
        <ele>16100</ele>
        <time>2020-05-31T04:40:36Z</time>
      </trkpt>
      <trkpt lat="44.05981" lon="1.65395">
        <ele>16100</ele>
        <time>2020-05-31T04:40:37Z</time>
      </trkpt>
      <trkpt lat="44.05979" lon="1.65399">
        <ele>16100</ele>
        <time>2020-05-31T04:40:38Z</time>
      </trkpt>
      <trkpt lat="44.05977" lon="1.65402">
        <ele>16100</ele>
        <time>2020-05-31T04:40:39Z</time>
      </trkpt>
      <trkpt lat="44.05975" lon="1.65405">
        <ele>16100</ele>
        <time>2020-05-31T04:40:40Z</time>
      </trkpt>
      <trkpt lat="44.05972" lon="1.65408">
        <ele>16100</ele>
        <time>2020-05-31T04:40:41Z</time>
      </trkpt>
      <trkpt lat="44.05969" lon="1.65411">
        <ele>16100</ele>
        <time>2020-05-31T04:40:42Z</time>
      </trkpt>
      <trkpt lat="44.05967" lon="1.65414">
        <ele>16200</ele>
        <time>2020-05-31T04:40:43Z</time>
      </trkpt>
      <trkpt lat="44.05964" lon="1.65417">
        <ele>16200</ele>
        <time>2020-05-31T04:40:44Z</time>
      </trkpt>
      <trkpt lat="44.05961" lon="1.65419">
        <ele>16200</ele>
        <time>2020-05-31T04:40:45Z</time>
      </trkpt>
      <trkpt lat="44.05958" lon="1.65421">
        <ele>16200</ele>
        <time>2020-05-31T04:40:46Z</time>
      </trkpt>
      <trkpt lat="44.05955" lon="1.65424">
        <ele>16200</ele>
        <time>2020-05-31T04:40:47Z</time>
      </trkpt>
      <trkpt lat="44.05951" lon="1.65426">
        <ele>16300</ele>
        <time>2020-05-31T04:40:48Z</time>
      </trkpt>
      <trkpt lat="44.05948" lon="1.65428">
        <ele>16300</ele>
        <time>2020-05-31T04:40:49Z</time>
      </trkpt>
      <trkpt lat="44.05945" lon="1.65429">
        <ele>16300</ele>
        <time>2020-05-31T04:40:50Z</time>
      </trkpt>
      <trkpt lat="44.05942" lon="1.65431">
        <ele>16300</ele>
        <time>2020-05-31T04:40:51Z</time>
      </trkpt>
      <trkpt lat="44.05939" lon="1.65432">
        <ele>16400</ele>
        <time>2020-05-31T04:40:52Z</time>
      </trkpt>
      <trkpt lat="44.05936" lon="1.65434">
        <ele>16400</ele>
        <time>2020-05-31T04:40:53Z</time>
      </trkpt>
      <trkpt lat="44.05933" lon="1.65435">
        <ele>16400</ele>
        <time>2020-05-31T04:40:54Z</time>
      </trkpt>
      <trkpt lat="44.0593" lon="1.65436">
        <ele>16400</ele>
        <time>2020-05-31T04:40:55Z</time>
      </trkpt>
      <trkpt lat="44.05928" lon="1.65436">
        <ele>16500</ele>
        <time>2020-05-31T04:40:56Z</time>
      </trkpt>
      <trkpt lat="44.05925" lon="1.65437">
        <ele>16500</ele>
        <time>2020-05-31T04:40:57Z</time>
      </trkpt>
      <trkpt lat="44.05922" lon="1.65437">
        <ele>16500</ele>
        <time>2020-05-31T04:40:58Z</time>
      </trkpt>
      <trkpt lat="44.05919" lon="1.65438">
        <ele>16500</ele>
        <time>2020-05-31T04:40:59Z</time>
      </trkpt>
      <trkpt lat="44.05916" lon="1.65439">
        <ele>16600</ele>
        <time>2020-05-31T04:41:00Z</time>
      </trkpt>
      <trkpt lat="44.05914" lon="1.65439">
        <ele>16600</ele>
        <time>2020-05-31T04:41:01Z</time>
      </trkpt>
      <trkpt lat="44.05911" lon="1.6544">
        <ele>16600</ele>
        <time>2020-05-31T04:41:02Z</time>
      </trkpt>
      <trkpt lat="44.05909" lon="1.6544">
        <ele>16600</ele>
        <time>2020-05-31T04:41:03Z</time>
      </trkpt>
      <trkpt lat="44.05906" lon="1.65441">
        <ele>16700</ele>
        <time>2020-05-31T04:41:04Z</time>
      </trkpt>
      <trkpt lat="44.05903" lon="1.65441">
        <ele>16700</ele>
        <time>2020-05-31T04:41:05Z</time>
      </trkpt>
      <trkpt lat="44.05899" lon="1.65441">
        <ele>16700</ele>
        <time>2020-05-31T04:41:06Z</time>
      </trkpt>
      <trkpt lat="44.05896" lon="1.65442">
        <ele>16700</ele>
        <time>2020-05-31T04:41:07Z</time>
      </trkpt>
      <trkpt lat="44.05893" lon="1.65442">
        <ele>16800</ele>
        <time>2020-05-31T04:41:08Z</time>
      </trkpt>
      <trkpt lat="44.0589" lon="1.65443">
        <ele>16800</ele>
        <time>2020-05-31T04:41:09Z</time>
      </trkpt>
      <trkpt lat="44.05887" lon="1.65444">
        <ele>16800</ele>
        <time>2020-05-31T04:41:10Z</time>
      </trkpt>
      <trkpt lat="44.05884" lon="1.65445">
        <ele>16800</ele>
        <time>2020-05-31T04:41:11Z</time>
      </trkpt>
      <trkpt lat="44.0588" lon="1.65446">
        <ele>16900</ele>
        <time>2020-05-31T04:41:12Z</time>
      </trkpt>
      <trkpt lat="44.05877" lon="1.65447">
        <ele>16900</ele>
        <time>2020-05-31T04:41:13Z</time>
      </trkpt>
      <trkpt lat="44.05874" lon="1.65448">
        <ele>16900</ele>
        <time>2020-05-31T04:41:14Z</time>
      </trkpt>
      <trkpt lat="44.05871" lon="1.65449">
        <ele>16900</ele>
        <time>2020-05-31T04:41:15Z</time>
      </trkpt>
      <trkpt lat="44.05867" lon="1.6545">
        <ele>16900</ele>
        <time>2020-05-31T04:41:16Z</time>
      </trkpt>
      <trkpt lat="44.05866" lon="1.65451">
        <ele>16900</ele>
        <time>2020-05-31T04:41:17Z</time>
      </trkpt>
      <trkpt lat="44.05863" lon="1.65451">
        <ele>16900</ele>
        <time>2020-05-31T04:41:18Z</time>
      </trkpt>
      <trkpt lat="44.05861" lon="1.65452">
        <ele>16900</ele>
        <time>2020-05-31T04:41:19Z</time>
      </trkpt>
      <trkpt lat="44.05858" lon="1.65453">
        <ele>17000</ele>
        <time>2020-05-31T04:41:20Z</time>
      </trkpt>
      <trkpt lat="44.05856" lon="1.65453">
        <ele>17000</ele>
        <time>2020-05-31T04:41:21Z</time>
      </trkpt>
      <trkpt lat="44.05853" lon="1.65454">
        <ele>17000</ele>
        <time>2020-05-31T04:41:22Z</time>
      </trkpt>
      <trkpt lat="44.0585" lon="1.65455">
        <ele>17000</ele>
        <time>2020-05-31T04:41:23Z</time>
      </trkpt>
      <trkpt lat="44.05847" lon="1.65456">
        <ele>17100</ele>
        <time>2020-05-31T04:41:24Z</time>
      </trkpt>
      <trkpt lat="44.05845" lon="1.65457">
        <ele>17100</ele>
        <time>2020-05-31T04:41:25Z</time>
      </trkpt>
      <trkpt lat="44.05842" lon="1.65457">
        <ele>17100</ele>
        <time>2020-05-31T04:41:26Z</time>
      </trkpt>
      <trkpt lat="44.0584" lon="1.65458">
        <ele>17100</ele>
        <time>2020-05-31T04:41:27Z</time>
      </trkpt>
      <trkpt lat="44.05837" lon="1.65458">
        <ele>17200</ele>
        <time>2020-05-31T04:41:28Z</time>
      </trkpt>
      <trkpt lat="44.05835" lon="1.65459">
        <ele>17200</ele>
        <time>2020-05-31T04:41:29Z</time>
      </trkpt>
      <trkpt lat="44.05832" lon="1.6546">
        <ele>17200</ele>
        <time>2020-05-31T04:41:30Z</time>
      </trkpt>
      <trkpt lat="44.0583" lon="1.65461">
        <ele>17200</ele>
        <time>2020-05-31T04:41:31Z</time>
      </trkpt>
      <trkpt lat="44.05827" lon="1.65462">
        <ele>17300</ele>
        <time>2020-05-31T04:41:32Z</time>
      </trkpt>
      <trkpt lat="44.05825" lon="1.65463">
        <ele>17300</ele>
        <time>2020-05-31T04:41:33Z</time>
      </trkpt>
      <trkpt lat="44.05822" lon="1.65464">
        <ele>17300</ele>
        <time>2020-05-31T04:41:34Z</time>
      </trkpt>
      <trkpt lat="44.0582" lon="1.65465">
        <ele>17300</ele>
        <time>2020-05-31T04:41:35Z</time>
      </trkpt>
      <trkpt lat="44.05817" lon="1.65465">
        <ele>17400</ele>
        <time>2020-05-31T04:41:36Z</time>
      </trkpt>
      <trkpt lat="44.05815" lon="1.65466">
        <ele>17400</ele>
        <time>2020-05-31T04:41:37Z</time>
      </trkpt>
      <trkpt lat="44.05812" lon="1.65466">
        <ele>17400</ele>
        <time>2020-05-31T04:41:38Z</time>
      </trkpt>
      <trkpt lat="44.0581" lon="1.65467">
        <ele>17400</ele>
        <time>2020-05-31T04:41:39Z</time>
      </trkpt>
      <trkpt lat="44.05807" lon="1.65468">
        <ele>17500</ele>
        <time>2020-05-31T04:41:40Z</time>
      </trkpt>
      <trkpt lat="44.05804" lon="1.65468">
        <ele>17500</ele>
        <time>2020-05-31T04:41:41Z</time>
      </trkpt>
      <trkpt lat="44.05803" lon="1.65469">
        <ele>17500</ele>
        <time>2020-05-31T04:41:42Z</time>
      </trkpt>
      <trkpt lat="44.058" lon="1.6547">
        <ele>17500</ele>
        <time>2020-05-31T04:41:43Z</time>
      </trkpt>
      <trkpt lat="44.05797" lon="1.65471">
        <ele>17500</ele>
        <time>2020-05-31T04:41:44Z</time>
      </trkpt>
      <trkpt lat="44.05795" lon="1.65472">
        <ele>17500</ele>
        <time>2020-05-31T04:41:45Z</time>
      </trkpt>
      <trkpt lat="44.05792" lon="1.65473">
        <ele>17500</ele>
        <time>2020-05-31T04:41:46Z</time>
      </trkpt>
      <trkpt lat="44.05789" lon="1.65474">
        <ele>17500</ele>
        <time>2020-05-31T04:41:47Z</time>
      </trkpt>
      <trkpt lat="44.05786" lon="1.65475">
        <ele>17600</ele>
        <time>2020-05-31T04:41:48Z</time>
      </trkpt>
      <trkpt lat="44.05784" lon="1.65476">
        <ele>17600</ele>
        <time>2020-05-31T04:41:49Z</time>
      </trkpt>
      <trkpt lat="44.05781" lon="1.65477">
        <ele>17600</ele>
        <time>2020-05-31T04:41:50Z</time>
      </trkpt>
      <trkpt lat="44.05779" lon="1.65477">
        <ele>17600</ele>
        <time>2020-05-31T04:41:51Z</time>
      </trkpt>
      <trkpt lat="44.05776" lon="1.65478">
        <ele>17700</ele>
        <time>2020-05-31T04:41:52Z</time>
      </trkpt>
      <trkpt lat="44.05773" lon="1.65479">
        <ele>17700</ele>
        <time>2020-05-31T04:41:53Z</time>
      </trkpt>
      <trkpt lat="44.0577" lon="1.65479">
        <ele>17700</ele>
        <time>2020-05-31T04:41:54Z</time>
      </trkpt>
      <trkpt lat="44.05767" lon="1.6548">
        <ele>17700</ele>
        <time>2020-05-31T04:41:55Z</time>
      </trkpt>
      <trkpt lat="44.05764" lon="1.6548">
        <ele>17800</ele>
        <time>2020-05-31T04:41:56Z</time>
      </trkpt>
      <trkpt lat="44.05762" lon="1.6548">
        <ele>17800</ele>
        <time>2020-05-31T04:41:57Z</time>
      </trkpt>
      <trkpt lat="44.05759" lon="1.6548">
        <ele>17800</ele>
        <time>2020-05-31T04:41:58Z</time>
      </trkpt>
      <trkpt lat="44.05756" lon="1.6548">
        <ele>17800</ele>
        <time>2020-05-31T04:41:59Z</time>
      </trkpt>
      <trkpt lat="44.05754" lon="1.6548">
        <ele>17900</ele>
        <time>2020-05-31T04:42:00Z</time>
      </trkpt>
      <trkpt lat="44.05752" lon="1.6548">
        <ele>17900</ele>
        <time>2020-05-31T04:42:01Z</time>
      </trkpt>
      <trkpt lat="44.05749" lon="1.6548">
        <ele>17900</ele>
        <time>2020-05-31T04:42:02Z</time>
      </trkpt>
      <trkpt lat="44.05746" lon="1.65479">
        <ele>18000</ele>
        <time>2020-05-31T04:42:03Z</time>
      </trkpt>
      <trkpt lat="44.05744" lon="1.65479">
        <ele>18000</ele>
        <time>2020-05-31T04:42:04Z</time>
      </trkpt>
      <trkpt lat="44.05741" lon="1.65479">
        <ele>18000</ele>
        <time>2020-05-31T04:42:05Z</time>
      </trkpt>
      <trkpt lat="44.05738" lon="1.65479">
        <ele>18000</ele>
        <time>2020-05-31T04:42:06Z</time>
      </trkpt>
      <trkpt lat="44.05736" lon="1.65478">
        <ele>18100</ele>
        <time>2020-05-31T04:42:07Z</time>
      </trkpt>
      <trkpt lat="44.05733" lon="1.65478">
        <ele>18100</ele>
        <time>2020-05-31T04:42:08Z</time>
      </trkpt>
      <trkpt lat="44.0573" lon="1.65477">
        <ele>18100</ele>
        <time>2020-05-31T04:42:09Z</time>
      </trkpt>
      <trkpt lat="44.05728" lon="1.65476">
        <ele>18100</ele>
        <time>2020-05-31T04:42:10Z</time>
      </trkpt>
      <trkpt lat="44.05726" lon="1.65475">
        <ele>18200</ele>
        <time>2020-05-31T04:42:11Z</time>
      </trkpt>
      <trkpt lat="44.05724" lon="1.65474">
        <ele>18200</ele>
        <time>2020-05-31T04:42:12Z</time>
      </trkpt>
      <trkpt lat="44.05721" lon="1.65473">
        <ele>18200</ele>
        <time>2020-05-31T04:42:13Z</time>
      </trkpt>
      <trkpt lat="44.05719" lon="1.65472">
        <ele>18200</ele>
        <time>2020-05-31T04:42:14Z</time>
      </trkpt>
      <trkpt lat="44.05717" lon="1.65471">
        <ele>18200</ele>
        <time>2020-05-31T04:42:15Z</time>
      </trkpt>
      <trkpt lat="44.05714" lon="1.6547">
        <ele>18200</ele>
        <time>2020-05-31T04:42:16Z</time>
      </trkpt>
      <trkpt lat="44.05713" lon="1.6547">
        <ele>18200</ele>
        <time>2020-05-31T04:42:17Z</time>
      </trkpt>
      <trkpt lat="44.0571" lon="1.65469">
        <ele>18200</ele>
        <time>2020-05-31T04:42:18Z</time>
      </trkpt>
      <trkpt lat="44.05708" lon="1.65468">
        <ele>18300</ele>
        <time>2020-05-31T04:42:19Z</time>
      </trkpt>
      <trkpt lat="44.05706" lon="1.65468">
        <ele>18300</ele>
        <time>2020-05-31T04:42:20Z</time>
      </trkpt>
      <trkpt lat="44.05704" lon="1.65467">
        <ele>18300</ele>
        <time>2020-05-31T04:42:21Z</time>
      </trkpt>
      <trkpt lat="44.05701" lon="1.65467">
        <ele>18300</ele>
        <time>2020-05-31T04:42:22Z</time>
      </trkpt>
      <trkpt lat="44.05699" lon="1.65466">
        <ele>18400</ele>
        <time>2020-05-31T04:42:23Z</time>
      </trkpt>
      <trkpt lat="44.05697" lon="1.65466">
        <ele>18400</ele>
        <time>2020-05-31T04:42:24Z</time>
      </trkpt>
      <trkpt lat="44.05695" lon="1.65465">
        <ele>18400</ele>
        <time>2020-05-31T04:42:25Z</time>
      </trkpt>
      <trkpt lat="44.05692" lon="1.65465">
        <ele>18400</ele>
        <time>2020-05-31T04:42:26Z</time>
      </trkpt>
      <trkpt lat="44.0569" lon="1.65464">
        <ele>18500</ele>
        <time>2020-05-31T04:42:27Z</time>
      </trkpt>
      <trkpt lat="44.05687" lon="1.65463">
        <ele>18500</ele>
        <time>2020-05-31T04:42:28Z</time>
      </trkpt>
      <trkpt lat="44.05685" lon="1.65463">
        <ele>18500</ele>
        <time>2020-05-31T04:42:29Z</time>
      </trkpt>
      <trkpt lat="44.05683" lon="1.65462">
        <ele>18500</ele>
        <time>2020-05-31T04:42:30Z</time>
      </trkpt>
      <trkpt lat="44.0568" lon="1.65461">
        <ele>18600</ele>
        <time>2020-05-31T04:42:31Z</time>
      </trkpt>
      <trkpt lat="44.05678" lon="1.65461">
        <ele>18600</ele>
        <time>2020-05-31T04:42:32Z</time>
      </trkpt>
      <trkpt lat="44.05676" lon="1.6546">
        <ele>18600</ele>
        <time>2020-05-31T04:42:33Z</time>
      </trkpt>
      <trkpt lat="44.05674" lon="1.65459">
        <ele>18600</ele>
        <time>2020-05-31T04:42:34Z</time>
      </trkpt>
      <trkpt lat="44.05671" lon="1.65458">
        <ele>18700</ele>
        <time>2020-05-31T04:42:35Z</time>
      </trkpt>
      <trkpt lat="44.05669" lon="1.65457">
        <ele>18700</ele>
        <time>2020-05-31T04:42:36Z</time>
      </trkpt>
      <trkpt lat="44.05667" lon="1.65456">
        <ele>18700</ele>
        <time>2020-05-31T04:42:37Z</time>
      </trkpt>
      <trkpt lat="44.05665" lon="1.65455">
        <ele>18700</ele>
        <time>2020-05-31T04:42:38Z</time>
      </trkpt>
      <trkpt lat="44.05663" lon="1.65454">
        <ele>18800</ele>
        <time>2020-05-31T04:42:39Z</time>
      </trkpt>
      <trkpt lat="44.05661" lon="1.65454">
        <ele>18800</ele>
        <time>2020-05-31T04:42:40Z</time>
      </trkpt>
      <trkpt lat="44.05658" lon="1.65452">
        <ele>18800</ele>
        <time>2020-05-31T04:42:41Z</time>
      </trkpt>
      <trkpt lat="44.05656" lon="1.65451">
        <ele>18800</ele>
        <time>2020-05-31T04:42:42Z</time>
      </trkpt>
      <trkpt lat="44.05653" lon="1.6545">
        <ele>18900</ele>
        <time>2020-05-31T04:42:43Z</time>
      </trkpt>
      <trkpt lat="44.05652" lon="1.65449">
        <ele>18900</ele>
        <time>2020-05-31T04:42:44Z</time>
      </trkpt>
      <trkpt lat="44.05649" lon="1.65448">
        <ele>18900</ele>
        <time>2020-05-31T04:42:45Z</time>
      </trkpt>
      <trkpt lat="44.05647" lon="1.65448">
        <ele>18900</ele>
        <time>2020-05-31T04:42:46Z</time>
      </trkpt>
      <trkpt lat="44.05645" lon="1.65447">
        <ele>18900</ele>
        <time>2020-05-31T04:42:47Z</time>
      </trkpt>
      <trkpt lat="44.05643" lon="1.65446">
        <ele>18900</ele>
        <time>2020-05-31T04:42:48Z</time>
      </trkpt>
      <trkpt lat="44.05641" lon="1.65445">
        <ele>18900</ele>
        <time>2020-05-31T04:42:49Z</time>
      </trkpt>
      <trkpt lat="44.05638" lon="1.65444">
        <ele>18900</ele>
        <time>2020-05-31T04:42:50Z</time>
      </trkpt>
      <trkpt lat="44.05636" lon="1.65442">
        <ele>18900</ele>
        <time>2020-05-31T04:42:51Z</time>
      </trkpt>
      <trkpt lat="44.05634" lon="1.65441">
        <ele>19000</ele>
        <time>2020-05-31T04:42:52Z</time>
      </trkpt>
      <trkpt lat="44.05632" lon="1.6544">
        <ele>19000</ele>
        <time>2020-05-31T04:42:53Z</time>
      </trkpt>
      <trkpt lat="44.05629" lon="1.65438">
        <ele>19000</ele>
        <time>2020-05-31T04:42:54Z</time>
      </trkpt>
      <trkpt lat="44.05627" lon="1.65436">
        <ele>19000</ele>
        <time>2020-05-31T04:42:55Z</time>
      </trkpt>
      <trkpt lat="44.05625" lon="1.65435">
        <ele>19000</ele>
        <time>2020-05-31T04:42:56Z</time>
      </trkpt>
      <trkpt lat="44.05623" lon="1.65433">
        <ele>19100</ele>
        <time>2020-05-31T04:42:57Z</time>
      </trkpt>
      <trkpt lat="44.0562" lon="1.65432">
        <ele>19100</ele>
        <time>2020-05-31T04:42:58Z</time>
      </trkpt>
      <trkpt lat="44.05618" lon="1.65431">
        <ele>19100</ele>
        <time>2020-05-31T04:42:59Z</time>
      </trkpt>
      <trkpt lat="44.05616" lon="1.65429">
        <ele>19100</ele>
        <time>2020-05-31T04:43:00Z</time>
      </trkpt>
      <trkpt lat="44.05615" lon="1.65428">
        <ele>19200</ele>
        <time>2020-05-31T04:43:01Z</time>
      </trkpt>
      <trkpt lat="44.05613" lon="1.65426">
        <ele>19200</ele>
        <time>2020-05-31T04:43:02Z</time>
      </trkpt>
      <trkpt lat="44.05611" lon="1.65424">
        <ele>19200</ele>
        <time>2020-05-31T04:43:03Z</time>
      </trkpt>
      <trkpt lat="44.05609" lon="1.65423">
        <ele>19200</ele>
        <time>2020-05-31T04:43:04Z</time>
      </trkpt>
      <trkpt lat="44.05607" lon="1.65421">
        <ele>19300</ele>
        <time>2020-05-31T04:43:05Z</time>
      </trkpt>
      <trkpt lat="44.05605" lon="1.6542">
        <ele>19300</ele>
        <time>2020-05-31T04:43:06Z</time>
      </trkpt>
      <trkpt lat="44.05603" lon="1.65419">
        <ele>19300</ele>
        <time>2020-05-31T04:43:07Z</time>
      </trkpt>
      <trkpt lat="44.05601" lon="1.65417">
        <ele>19300</ele>
        <time>2020-05-31T04:43:07Z</time>
      </trkpt>
      <trkpt lat="44.05599" lon="1.65416">
        <ele>19400</ele>
        <time>2020-05-31T04:43:08Z</time>
      </trkpt>
      <trkpt lat="44.05597" lon="1.65414">
        <ele>19400</ele>
        <time>2020-05-31T04:43:09Z</time>
      </trkpt>
      <trkpt lat="44.05595" lon="1.65413">
        <ele>19400</ele>
        <time>2020-05-31T04:43:10Z</time>
      </trkpt>
      <trkpt lat="44.05593" lon="1.65412">
        <ele>19400</ele>
        <time>2020-05-31T04:43:11Z</time>
      </trkpt>
      <trkpt lat="44.0559" lon="1.6541">
        <ele>19500</ele>
        <time>2020-05-31T04:43:12Z</time>
      </trkpt>
      <trkpt lat="44.05589" lon="1.65409">
        <ele>19500</ele>
        <time>2020-05-31T04:43:13Z</time>
      </trkpt>
      <trkpt lat="44.05586" lon="1.65408">
        <ele>19500</ele>
        <time>2020-05-31T04:43:14Z</time>
      </trkpt>
      <trkpt lat="44.05584" lon="1.65406">
        <ele>19500</ele>
        <time>2020-05-31T04:43:15Z</time>
      </trkpt>
      <trkpt lat="44.05582" lon="1.65404">
        <ele>19500</ele>
        <time>2020-05-31T04:43:16Z</time>
      </trkpt>
      <trkpt lat="44.0558" lon="1.65403">
        <ele>19500</ele>
        <time>2020-05-31T04:43:17Z</time>
      </trkpt>
      <trkpt lat="44.05578" lon="1.65402">
        <ele>19500</ele>
        <time>2020-05-31T04:43:18Z</time>
      </trkpt>
      <trkpt lat="44.05576" lon="1.65401">
        <ele>19500</ele>
        <time>2020-05-31T04:43:19Z</time>
      </trkpt>
      <trkpt lat="44.05574" lon="1.65399">
        <ele>19600</ele>
        <time>2020-05-31T04:43:20Z</time>
      </trkpt>
      <trkpt lat="44.05572" lon="1.65398">
        <ele>19600</ele>
        <time>2020-05-31T04:43:21Z</time>
      </trkpt>
      <trkpt lat="44.05569" lon="1.65397">
        <ele>19600</ele>
        <time>2020-05-31T04:43:22Z</time>
      </trkpt>
      <trkpt lat="44.05567" lon="1.65396">
        <ele>19600</ele>
        <time>2020-05-31T04:43:23Z</time>
      </trkpt>
      <trkpt lat="44.05565" lon="1.65394">
        <ele>19700</ele>
        <time>2020-05-31T04:43:24Z</time>
      </trkpt>
      <trkpt lat="44.05563" lon="1.65393">
        <ele>19700</ele>
        <time>2020-05-31T04:43:25Z</time>
      </trkpt>
      <trkpt lat="44.05561" lon="1.65391">
        <ele>19700</ele>
        <time>2020-05-31T04:43:26Z</time>
      </trkpt>
      <trkpt lat="44.0556" lon="1.65389">
        <ele>19700</ele>
        <time>2020-05-31T04:43:27Z</time>
      </trkpt>
      <trkpt lat="44.05558" lon="1.65388">
        <ele>19800</ele>
        <time>2020-05-31T04:43:28Z</time>
      </trkpt>
      <trkpt lat="44.05556" lon="1.65386">
        <ele>19800</ele>
        <time>2020-05-31T04:43:29Z</time>
      </trkpt>
      <trkpt lat="44.05554" lon="1.65385">
        <ele>19800</ele>
        <time>2020-05-31T04:43:30Z</time>
      </trkpt>
      <trkpt lat="44.05552" lon="1.65383">
        <ele>19800</ele>
        <time>2020-05-31T04:43:31Z</time>
      </trkpt>
      <trkpt lat="44.0555" lon="1.65382">
        <ele>19800</ele>
        <time>2020-05-31T04:43:32Z</time>
      </trkpt>
      <trkpt lat="44.05547" lon="1.65381">
        <ele>19900</ele>
        <time>2020-05-31T04:43:33Z</time>
      </trkpt>
      <trkpt lat="44.05545" lon="1.65379">
        <ele>19900</ele>
        <time>2020-05-31T04:43:34Z</time>
      </trkpt>
      <trkpt lat="44.05543" lon="1.65378">
        <ele>19900</ele>
        <time>2020-05-31T04:43:35Z</time>
      </trkpt>
      <trkpt lat="44.05541" lon="1.65376">
        <ele>19900</ele>
        <time>2020-05-31T04:43:36Z</time>
      </trkpt>
      <trkpt lat="44.05538" lon="1.65374">
        <ele>19900</ele>
        <time>2020-05-31T04:43:37Z</time>
      </trkpt>
      <trkpt lat="44.05535" lon="1.65373">
        <ele>20000</ele>
        <time>2020-05-31T04:43:38Z</time>
      </trkpt>
      <trkpt lat="44.05533" lon="1.65371">
        <ele>20000</ele>
        <time>2020-05-31T04:43:39Z</time>
      </trkpt>
      <trkpt lat="44.05531" lon="1.6537">
        <ele>20000</ele>
        <time>2020-05-31T04:43:40Z</time>
      </trkpt>
      <trkpt lat="44.05528" lon="1.65368">
        <ele>20000</ele>
        <time>2020-05-31T04:43:41Z</time>
      </trkpt>
      <trkpt lat="44.05526" lon="1.65366">
        <ele>20000</ele>
        <time>2020-05-31T04:43:42Z</time>
      </trkpt>
      <trkpt lat="44.05523" lon="1.65364">
        <ele>20000</ele>
        <time>2020-05-31T04:43:43Z</time>
      </trkpt>
      <trkpt lat="44.05521" lon="1.65362">
        <ele>20100</ele>
        <time>2020-05-31T04:43:44Z</time>
      </trkpt>
      <trkpt lat="44.05518" lon="1.6536">
        <ele>20100</ele>
        <time>2020-05-31T04:43:45Z</time>
      </trkpt>
      <trkpt lat="44.05515" lon="1.65357">
        <ele>20100</ele>
        <time>2020-05-31T04:43:46Z</time>
      </trkpt>
      <trkpt lat="44.05512" lon="1.65355">
        <ele>20100</ele>
        <time>2020-05-31T04:43:47Z</time>
      </trkpt>
      <trkpt lat="44.0551" lon="1.65353">
        <ele>20100</ele>
        <time>2020-05-31T04:43:48Z</time>
      </trkpt>
      <trkpt lat="44.05507" lon="1.65351">
        <ele>20100</ele>
        <time>2020-05-31T04:43:49Z</time>
      </trkpt>
      <trkpt lat="44.05504" lon="1.65349">
        <ele>20100</ele>
        <time>2020-05-31T04:43:50Z</time>
      </trkpt>
      <trkpt lat="44.05501" lon="1.65347">
        <ele>20100</ele>
        <time>2020-05-31T04:43:51Z</time>
      </trkpt>
      <trkpt lat="44.05498" lon="1.65345">
        <ele>20100</ele>
        <time>2020-05-31T04:43:52Z</time>
      </trkpt>
      <trkpt lat="44.05496" lon="1.65343">
        <ele>20100</ele>
        <time>2020-05-31T04:43:53Z</time>
      </trkpt>
      <trkpt lat="44.05492" lon="1.65341">
        <ele>20200</ele>
        <time>2020-05-31T04:43:54Z</time>
      </trkpt>
      <trkpt lat="44.0549" lon="1.65339">
        <ele>20200</ele>
        <time>2020-05-31T04:43:55Z</time>
      </trkpt>
      <trkpt lat="44.05487" lon="1.65337">
        <ele>20200</ele>
        <time>2020-05-31T04:43:56Z</time>
      </trkpt>
      <trkpt lat="44.05484" lon="1.65335">
        <ele>20200</ele>
        <time>2020-05-31T04:43:57Z</time>
      </trkpt>
      <trkpt lat="44.05482" lon="1.65333">
        <ele>20200</ele>
        <time>2020-05-31T04:43:58Z</time>
      </trkpt>
      <trkpt lat="44.05479" lon="1.65331">
        <ele>193.1</ele>
        <time>2020-05-31T04:43:59Z</time>
      </trkpt>
      <trkpt lat="44.05476" lon="1.65329">
        <ele>193.1</ele>
        <time>2020-05-31T04:44:00Z</time>
      </trkpt>
      <trkpt lat="44.05473" lon="1.65327">
        <ele>193.2</ele>
        <time>2020-05-31T04:44:01Z</time>
      </trkpt>
      <trkpt lat="44.0547" lon="1.65325">
        <ele>193.4</ele>
        <time>2020-05-31T04:44:02Z</time>
      </trkpt>
      <trkpt lat="44.05468" lon="1.65323">
        <ele>193.5</ele>
        <time>2020-05-31T04:44:03Z</time>
      </trkpt>
      <trkpt lat="44.05465" lon="1.65321">
        <ele>193.7</ele>
        <time>2020-05-31T04:44:04Z</time>
      </trkpt>
      <trkpt lat="44.05462" lon="1.65319">
        <ele>193.9</ele>
        <time>2020-05-31T04:44:05Z</time>
      </trkpt>
      <trkpt lat="44.0546" lon="1.65317">
        <ele>194.1</ele>
        <time>2020-05-31T04:44:06Z</time>
      </trkpt>
      <trkpt lat="44.05457" lon="1.65314">
        <ele>194.2</ele>
        <time>2020-05-31T04:44:07Z</time>
      </trkpt>
      <trkpt lat="44.05454" lon="1.65312">
        <ele>194.4</ele>
        <time>2020-05-31T04:44:08Z</time>
      </trkpt>
      <trkpt lat="44.05452" lon="1.6531">
        <ele>194.6</ele>
        <time>2020-05-31T04:44:09Z</time>
      </trkpt>
      <trkpt lat="44.05449" lon="1.65308">
        <ele>194.8</ele>
        <time>2020-05-31T04:44:10Z</time>
      </trkpt>
      <trkpt lat="44.05446" lon="1.65305">
        <ele>194.9</ele>
        <time>2020-05-31T04:44:11Z</time>
      </trkpt>
      <trkpt lat="44.05444" lon="1.65303">
        <ele>195.1</ele>
        <time>2020-05-31T04:44:12Z</time>
      </trkpt>
      <trkpt lat="44.05441" lon="1.65301">
        <ele>195.3</ele>
        <time>2020-05-31T04:44:13Z</time>
      </trkpt>
      <trkpt lat="44.05438" lon="1.65299">
        <ele>195.5</ele>
        <time>2020-05-31T04:44:14Z</time>
      </trkpt>
      <trkpt lat="44.05436" lon="1.65296">
        <ele>195.6</ele>
        <time>2020-05-31T04:44:15Z</time>
      </trkpt>
      <trkpt lat="44.05433" lon="1.65294">
        <ele>195.8</ele>
        <time>2020-05-31T04:44:16Z</time>
      </trkpt>
      <trkpt lat="44.0543" lon="1.65291">
        <ele>196</ele>
        <time>2020-05-31T04:44:17Z</time>
      </trkpt>
      <trkpt lat="44.05427" lon="1.65288">
        <ele>196.3</ele>
        <time>2020-05-31T04:44:18Z</time>
      </trkpt>
      <trkpt lat="44.05425" lon="1.65285">
        <ele>196.4</ele>
        <time>2020-05-31T04:44:19Z</time>
      </trkpt>
      <trkpt lat="44.05422" lon="1.65283">
        <ele>196.6</ele>
        <time>2020-05-31T04:44:20Z</time>
      </trkpt>
      <trkpt lat="44.05419" lon="1.6528">
        <ele>196.8</ele>
        <time>2020-05-31T04:44:21Z</time>
      </trkpt>
      <trkpt lat="44.05417" lon="1.65277">
        <ele>197</ele>
        <time>2020-05-31T04:44:22Z</time>
      </trkpt>
      <trkpt lat="44.05414" lon="1.65275">
        <ele>197.1</ele>
        <time>2020-05-31T04:44:23Z</time>
      </trkpt>
      <trkpt lat="44.05411" lon="1.65272">
        <ele>197.2</ele>
        <time>2020-05-31T04:44:24Z</time>
      </trkpt>
      <trkpt lat="44.05409" lon="1.65269">
        <ele>197.3</ele>
        <time>2020-05-31T04:44:25Z</time>
      </trkpt>
      <trkpt lat="44.05406" lon="1.65267">
        <ele>197.4</ele>
        <time>2020-05-31T04:44:26Z</time>
      </trkpt>
      <trkpt lat="44.05404" lon="1.65264">
        <ele>197.5</ele>
        <time>2020-05-31T04:44:27Z</time>
      </trkpt>
      <trkpt lat="44.05401" lon="1.65262">
        <ele>197.5</ele>
        <time>2020-05-31T04:44:28Z</time>
      </trkpt>
      <trkpt lat="44.05399" lon="1.65259">
        <ele>197.6</ele>
        <time>2020-05-31T04:44:29Z</time>
      </trkpt>
      <trkpt lat="44.05396" lon="1.65256">
        <ele>197.7</ele>
        <time>2020-05-31T04:44:30Z</time>
      </trkpt>
      <trkpt lat="44.05393" lon="1.65253">
        <ele>197.9</ele>
        <time>2020-05-31T04:44:31Z</time>
      </trkpt>
      <trkpt lat="44.0539" lon="1.6525">
        <ele>197.9</ele>
        <time>2020-05-31T04:44:32Z</time>
      </trkpt>
      <trkpt lat="44.05387" lon="1.65247">
        <ele>198.2</ele>
        <time>2020-05-31T04:44:33Z</time>
      </trkpt>
      <trkpt lat="44.05385" lon="1.65245">
        <ele>198.4</ele>
        <time>2020-05-31T04:44:34Z</time>
      </trkpt>
      <trkpt lat="44.05382" lon="1.65242">
        <ele>198.6</ele>
        <time>2020-05-31T04:44:35Z</time>
      </trkpt>
      <trkpt lat="44.05379" lon="1.65239">
        <ele>198.8</ele>
        <time>2020-05-31T04:44:36Z</time>
      </trkpt>
      <trkpt lat="44.05376" lon="1.65237">
        <ele>198.9</ele>
        <time>2020-05-31T04:44:37Z</time>
      </trkpt>
      <trkpt lat="44.05374" lon="1.65235">
        <ele>199</ele>
        <time>2020-05-31T04:44:38Z</time>
      </trkpt>
      <trkpt lat="44.05371" lon="1.65232">
        <ele>199.1</ele>
        <time>2020-05-31T04:44:39Z</time>
      </trkpt>
      <trkpt lat="44.05368" lon="1.6523">
        <ele>199.1</ele>
        <time>2020-05-31T04:44:40Z</time>
      </trkpt>
      <trkpt lat="44.05365" lon="1.65227">
        <ele>199.2</ele>
        <time>2020-05-31T04:44:41Z</time>
      </trkpt>
      <trkpt lat="44.05362" lon="1.65225">
        <ele>199.1</ele>
        <time>2020-05-31T04:44:42Z</time>
      </trkpt>
      <trkpt lat="44.0536" lon="1.65222">
        <ele>199.2</ele>
        <time>2020-05-31T04:44:43Z</time>
      </trkpt>
      <trkpt lat="44.05357" lon="1.65219">
        <ele>199.4</ele>
        <time>2020-05-31T04:44:44Z</time>
      </trkpt>
      <trkpt lat="44.05354" lon="1.65216">
        <ele>199.7</ele>
        <time>2020-05-31T04:44:45Z</time>
      </trkpt>
      <trkpt lat="44.05352" lon="1.65214">
        <ele>199.9</ele>
        <time>2020-05-31T04:44:46Z</time>
      </trkpt>
      <trkpt lat="44.05349" lon="1.65211">
        <ele>200.1</ele>
        <time>2020-05-31T04:44:47Z</time>
      </trkpt>
      <trkpt lat="44.05347" lon="1.65209">
        <ele>200.2</ele>
        <time>2020-05-31T04:44:48Z</time>
      </trkpt>
      <trkpt lat="44.05345" lon="1.65206">
        <ele>200.4</ele>
        <time>2020-05-31T04:44:49Z</time>
      </trkpt>
      <trkpt lat="44.05342" lon="1.65204">
        <ele>200.6</ele>
        <time>2020-05-31T04:44:50Z</time>
      </trkpt>
      <trkpt lat="44.05339" lon="1.65201">
        <ele>200.8</ele>
        <time>2020-05-31T04:44:51Z</time>
      </trkpt>
      <trkpt lat="44.05337" lon="1.65198">
        <ele>200.8</ele>
        <time>2020-05-31T04:44:52Z</time>
      </trkpt>
      <trkpt lat="44.05335" lon="1.65194">
        <ele>200.9</ele>
        <time>2020-05-31T04:44:53Z</time>
      </trkpt>
      <trkpt lat="44.05331" lon="1.6519">
        <ele>201.1</ele>
        <time>2020-05-31T04:44:54Z</time>
      </trkpt>
      <trkpt lat="44.05329" lon="1.65186">
        <ele>201.3</ele>
        <time>2020-05-31T04:44:55Z</time>
      </trkpt>
      <trkpt lat="44.05326" lon="1.65183">
        <ele>201.4</ele>
        <time>2020-05-31T04:44:56Z</time>
      </trkpt>
      <trkpt lat="44.05323" lon="1.65181">
        <ele>201.6</ele>
        <time>2020-05-31T04:44:57Z</time>
      </trkpt>
      <trkpt lat="44.0532" lon="1.65178">
        <ele>201.7</ele>
        <time>2020-05-31T04:44:58Z</time>
      </trkpt>
      <trkpt lat="44.05317" lon="1.65176">
        <ele>201.8</ele>
        <time>2020-05-31T04:44:59Z</time>
      </trkpt>
      <trkpt lat="44.05314" lon="1.65174">
        <ele>201.9</ele>
        <time>2020-05-31T04:45:00Z</time>
      </trkpt>
      <trkpt lat="44.05312" lon="1.65171">
        <ele>201.9</ele>
        <time>2020-05-31T04:45:01Z</time>
      </trkpt>
      <trkpt lat="44.05309" lon="1.65169">
        <ele>202</ele>
        <time>2020-05-31T04:45:02Z</time>
      </trkpt>
      <trkpt lat="44.05307" lon="1.65167">
        <ele>201.9</ele>
        <time>2020-05-31T04:45:03Z</time>
      </trkpt>
      <trkpt lat="44.05304" lon="1.65164">
        <ele>202</ele>
        <time>2020-05-31T04:45:04Z</time>
      </trkpt>
      <trkpt lat="44.05302" lon="1.65162">
        <ele>202.1</ele>
        <time>2020-05-31T04:45:05Z</time>
      </trkpt>
      <trkpt lat="44.053" lon="1.65159">
        <ele>202.2</ele>
        <time>2020-05-31T04:45:06Z</time>
      </trkpt>
      <trkpt lat="44.05297" lon="1.65157">
        <ele>202.3</ele>
        <time>2020-05-31T04:45:07Z</time>
      </trkpt>
      <trkpt lat="44.05294" lon="1.65155">
        <ele>202.4</ele>
        <time>2020-05-31T04:45:08Z</time>
      </trkpt>
      <trkpt lat="44.05292" lon="1.65152">
        <ele>202.4</ele>
        <time>2020-05-31T04:45:09Z</time>
      </trkpt>
      <trkpt lat="44.05289" lon="1.65149">
        <ele>202.6</ele>
        <time>2020-05-31T04:45:10Z</time>
      </trkpt>
      <trkpt lat="44.05286" lon="1.65147">
        <ele>202.7</ele>
        <time>2020-05-31T04:45:11Z</time>
      </trkpt>
      <trkpt lat="44.05283" lon="1.65144">
        <ele>202.8</ele>
        <time>2020-05-31T04:45:12Z</time>
      </trkpt>
      <trkpt lat="44.0528" lon="1.65141">
        <ele>202.9</ele>
        <time>2020-05-31T04:45:13Z</time>
      </trkpt>
      <trkpt lat="44.05277" lon="1.65137">
        <ele>202.9</ele>
        <time>2020-05-31T04:45:14Z</time>
      </trkpt>
      <trkpt lat="44.05273" lon="1.65134">
        <ele>202.7</ele>
        <time>2020-05-31T04:45:15Z</time>
      </trkpt>
      <trkpt lat="44.0527" lon="1.65131">
        <ele>202.6</ele>
        <time>2020-05-31T04:45:16Z</time>
      </trkpt>
      <trkpt lat="44.05266" lon="1.65128">
        <ele>202.5</ele>
        <time>2020-05-31T04:45:17Z</time>
      </trkpt>
      <trkpt lat="44.05262" lon="1.65125">
        <ele>202.4</ele>
        <time>2020-05-31T04:45:18Z</time>
      </trkpt>
      <trkpt lat="44.05258" lon="1.65123">
        <ele>202.5</ele>
        <time>2020-05-31T04:45:19Z</time>
      </trkpt>
      <trkpt lat="44.05255" lon="1.6512">
        <ele>202.5</ele>
        <time>2020-05-31T04:45:20Z</time>
      </trkpt>
      <trkpt lat="44.05251" lon="1.65118">
        <ele>202.7</ele>
        <time>2020-05-31T04:45:21Z</time>
      </trkpt>
      <trkpt lat="44.05246" lon="1.65116">
        <ele>202.5</ele>
        <time>2020-05-31T04:45:22Z</time>
      </trkpt>
      <trkpt lat="44.05242" lon="1.65114">
        <ele>202.3</ele>
        <time>2020-05-31T04:45:23Z</time>
      </trkpt>
      <trkpt lat="44.05238" lon="1.65112">
        <ele>202.1</ele>
        <time>2020-05-31T04:45:24Z</time>
      </trkpt>
      <trkpt lat="44.05234" lon="1.65111">
        <ele>202</ele>
        <time>2020-05-31T04:45:25Z</time>
      </trkpt>
      <trkpt lat="44.05229" lon="1.6511">
        <ele>201.8</ele>
        <time>2020-05-31T04:45:26Z</time>
      </trkpt>
      <trkpt lat="44.05225" lon="1.65109">
        <ele>201.7</ele>
        <time>2020-05-31T04:45:27Z</time>
      </trkpt>
      <trkpt lat="44.0522" lon="1.65109">
        <ele>201.6</ele>
        <time>2020-05-31T04:45:28Z</time>
      </trkpt>
      <trkpt lat="44.05216" lon="1.65108">
        <ele>201.6</ele>
        <time>2020-05-31T04:45:29Z</time>
      </trkpt>
      <trkpt lat="44.05211" lon="1.65108">
        <ele>201.5</ele>
        <time>2020-05-31T04:45:30Z</time>
      </trkpt>
      <trkpt lat="44.05207" lon="1.65107">
        <ele>201.5</ele>
        <time>2020-05-31T04:45:31Z</time>
      </trkpt>
      <trkpt lat="44.05203" lon="1.65107">
        <ele>201.4</ele>
        <time>2020-05-31T04:45:32Z</time>
      </trkpt>
      <trkpt lat="44.05199" lon="1.65107">
        <ele>201.4</ele>
        <time>2020-05-31T04:45:33Z</time>
      </trkpt>
      <trkpt lat="44.05195" lon="1.65107">
        <ele>201.4</ele>
        <time>2020-05-31T04:45:34Z</time>
      </trkpt>
      <trkpt lat="44.0519" lon="1.65107">
        <ele>201.4</ele>
        <time>2020-05-31T04:45:35Z</time>
      </trkpt>
      <trkpt lat="44.05186" lon="1.65107">
        <ele>201.4</ele>
        <time>2020-05-31T04:45:36Z</time>
      </trkpt>
      <trkpt lat="44.05182" lon="1.65107">
        <ele>201.3</ele>
        <time>2020-05-31T04:45:37Z</time>
      </trkpt>
      <trkpt lat="44.05177" lon="1.65107">
        <ele>201.3</ele>
        <time>2020-05-31T04:45:38Z</time>
      </trkpt>
      <trkpt lat="44.05172" lon="1.65107">
        <ele>201.3</ele>
        <time>2020-05-31T04:45:39Z</time>
      </trkpt>
      <trkpt lat="44.05168" lon="1.65108">
        <ele>201.4</ele>
        <time>2020-05-31T04:45:40Z</time>
      </trkpt>
      <trkpt lat="44.05163" lon="1.65108">
        <ele>201.4</ele>
        <time>2020-05-31T04:45:41Z</time>
      </trkpt>
      <trkpt lat="44.05159" lon="1.65109">
        <ele>201.3</ele>
        <time>2020-05-31T04:45:42Z</time>
      </trkpt>
      <trkpt lat="44.05154" lon="1.6511">
        <ele>201.3</ele>
        <time>2020-05-31T04:45:43Z</time>
      </trkpt>
      <trkpt lat="44.0515" lon="1.65111">
        <ele>201.3</ele>
        <time>2020-05-31T04:45:44Z</time>
      </trkpt>
      <trkpt lat="44.05145" lon="1.65112">
        <ele>201.3</ele>
        <time>2020-05-31T04:45:45Z</time>
      </trkpt>
      <trkpt lat="44.0514" lon="1.65113">
        <ele>201.3</ele>
        <time>2020-05-31T04:45:46Z</time>
      </trkpt>
      <trkpt lat="44.05136" lon="1.65114">
        <ele>201.3</ele>
        <time>2020-05-31T04:45:47Z</time>
      </trkpt>
      <trkpt lat="44.05131" lon="1.65115">
        <ele>201.3</ele>
        <time>2020-05-31T04:45:48Z</time>
      </trkpt>
      <trkpt lat="44.05127" lon="1.65117">
        <ele>201.4</ele>
        <time>2020-05-31T04:45:49Z</time>
      </trkpt>
      <trkpt lat="44.05122" lon="1.65118">
        <ele>201.4</ele>
        <time>2020-05-31T04:45:50Z</time>
      </trkpt>
      <trkpt lat="44.05118" lon="1.6512">
        <ele>201.5</ele>
        <time>2020-05-31T04:45:51Z</time>
      </trkpt>
      <trkpt lat="44.05113" lon="1.65121">
        <ele>201.5</ele>
        <time>2020-05-31T04:45:52Z</time>
      </trkpt>
      <trkpt lat="44.05109" lon="1.65122">
        <ele>201.6</ele>
        <time>2020-05-31T04:45:53Z</time>
      </trkpt>
      <trkpt lat="44.05105" lon="1.65123">
        <ele>201.7</ele>
        <time>2020-05-31T04:45:54Z</time>
      </trkpt>
      <trkpt lat="44.05101" lon="1.65125">
        <ele>201.8</ele>
        <time>2020-05-31T04:45:55Z</time>
      </trkpt>
      <trkpt lat="44.05096" lon="1.65126">
        <ele>201.8</ele>
        <time>2020-05-31T04:45:56Z</time>
      </trkpt>
      <trkpt lat="44.05092" lon="1.65127">
        <ele>201.9</ele>
        <time>2020-05-31T04:45:57Z</time>
      </trkpt>
      <trkpt lat="44.05087" lon="1.65128">
        <ele>202</ele>
        <time>2020-05-31T04:45:58Z</time>
      </trkpt>
      <trkpt lat="44.05083" lon="1.6513">
        <ele>202</ele>
        <time>2020-05-31T04:45:59Z</time>
      </trkpt>
      <trkpt lat="44.05077" lon="1.65132">
        <ele>201.9</ele>
        <time>2020-05-31T04:46:00Z</time>
      </trkpt>
      <trkpt lat="44.05073" lon="1.65133">
        <ele>201.9</ele>
        <time>2020-05-31T04:46:01Z</time>
      </trkpt>
      <trkpt lat="44.05068" lon="1.65135">
        <ele>201.9</ele>
        <time>2020-05-31T04:46:02Z</time>
      </trkpt>
      <trkpt lat="44.05064" lon="1.65137">
        <ele>201.9</ele>
        <time>2020-05-31T04:46:03Z</time>
      </trkpt>
      <trkpt lat="44.05059" lon="1.65138">
        <ele>202</ele>
        <time>2020-05-31T04:46:04Z</time>
      </trkpt>
      <trkpt lat="44.05053" lon="1.6514">
        <ele>202</ele>
        <time>2020-05-31T04:46:05Z</time>
      </trkpt>
      <trkpt lat="44.05048" lon="1.65142">
        <ele>201.9</ele>
        <time>2020-05-31T04:46:06Z</time>
      </trkpt>
      <trkpt lat="44.05043" lon="1.65145">
        <ele>201.7</ele>
        <time>2020-05-31T04:46:07Z</time>
      </trkpt>
      <trkpt lat="44.05038" lon="1.65147">
        <ele>201.7</ele>
        <time>2020-05-31T04:46:08Z</time>
      </trkpt>
      <trkpt lat="44.05033" lon="1.6515">
        <ele>201.6</ele>
        <time>2020-05-31T04:46:09Z</time>
      </trkpt>
      <trkpt lat="44.05028" lon="1.65152">
        <ele>201.4</ele>
        <time>2020-05-31T04:46:10Z</time>
      </trkpt>
      <trkpt lat="44.05023" lon="1.65155">
        <ele>201.5</ele>
        <time>2020-05-31T04:46:11Z</time>
      </trkpt>
      <trkpt lat="44.05018" lon="1.65157">
        <ele>201.4</ele>
        <time>2020-05-31T04:46:12Z</time>
      </trkpt>
      <trkpt lat="44.05013" lon="1.65159">
        <ele>201.4</ele>
        <time>2020-05-31T04:46:13Z</time>
      </trkpt>
      <trkpt lat="44.05007" lon="1.6516">
        <ele>201.4</ele>
        <time>2020-05-31T04:46:14Z</time>
      </trkpt>
      <trkpt lat="44.05002" lon="1.65161">
        <ele>201.3</ele>
        <time>2020-05-31T04:46:15Z</time>
      </trkpt>
      <trkpt lat="44.04997" lon="1.65163">
        <ele>201.3</ele>
        <time>2020-05-31T04:46:16Z</time>
      </trkpt>
      <trkpt lat="44.04991" lon="1.65164">
        <ele>201.4</ele>
        <time>2020-05-31T04:46:17Z</time>
      </trkpt>
      <trkpt lat="44.04985" lon="1.65166">
        <ele>201.4</ele>
        <time>2020-05-31T04:46:18Z</time>
      </trkpt>
      <trkpt lat="44.04979" lon="1.65168">
        <ele>201.4</ele>
        <time>2020-05-31T04:46:19Z</time>
      </trkpt>
      <trkpt lat="44.04974" lon="1.6517">
        <ele>201.4</ele>
        <time>2020-05-31T04:46:20Z</time>
      </trkpt>
      <trkpt lat="44.04968" lon="1.65172">
        <ele>201.5</ele>
        <time>2020-05-31T04:46:21Z</time>
      </trkpt>
      <trkpt lat="44.04962" lon="1.65174">
        <ele>201.6</ele>
        <time>2020-05-31T04:46:22Z</time>
      </trkpt>
      <trkpt lat="44.04956" lon="1.65176">
        <ele>201.6</ele>
        <time>2020-05-31T04:46:23Z</time>
      </trkpt>
      <trkpt lat="44.0495" lon="1.65178">
        <ele>201.5</ele>
        <time>2020-05-31T04:46:24Z</time>
      </trkpt>
      <trkpt lat="44.04944" lon="1.65179">
        <ele>201.4</ele>
        <time>2020-05-31T04:46:25Z</time>
      </trkpt>
      <trkpt lat="44.04939" lon="1.65181">
        <ele>201.3</ele>
        <time>2020-05-31T04:46:26Z</time>
      </trkpt>
      <trkpt lat="44.04933" lon="1.65182">
        <ele>201.2</ele>
        <time>2020-05-31T04:46:27Z</time>
      </trkpt>
      <trkpt lat="44.04927" lon="1.65184">
        <ele>201.2</ele>
        <time>2020-05-31T04:46:28Z</time>
      </trkpt>
      <trkpt lat="44.04921" lon="1.65186">
        <ele>201.2</ele>
        <time>2020-05-31T04:46:29Z</time>
      </trkpt>
      <trkpt lat="44.04915" lon="1.65188">
        <ele>201.3</ele>
        <time>2020-05-31T04:46:30Z</time>
      </trkpt>
      <trkpt lat="44.0491" lon="1.6519">
        <ele>201.3</ele>
        <time>2020-05-31T04:46:31Z</time>
      </trkpt>
      <trkpt lat="44.04903" lon="1.65192">
        <ele>201.3</ele>
        <time>2020-05-31T04:46:32Z</time>
      </trkpt>
      <trkpt lat="44.04898" lon="1.65194">
        <ele>201.3</ele>
        <time>2020-05-31T04:46:33Z</time>
      </trkpt>
      <trkpt lat="44.04892" lon="1.65196">
        <ele>201.3</ele>
        <time>2020-05-31T04:46:34Z</time>
      </trkpt>
      <trkpt lat="44.04887" lon="1.65197">
        <ele>201.2</ele>
        <time>2020-05-31T04:46:35Z</time>
      </trkpt>
      <trkpt lat="44.04881" lon="1.65198">
        <ele>201.2</ele>
        <time>2020-05-31T04:46:36Z</time>
      </trkpt>
      <trkpt lat="44.04876" lon="1.652">
        <ele>201.1</ele>
        <time>2020-05-31T04:46:37Z</time>
      </trkpt>
      <trkpt lat="44.04871" lon="1.65201">
        <ele>201.1</ele>
        <time>2020-05-31T04:46:38Z</time>
      </trkpt>
      <trkpt lat="44.04866" lon="1.65203">
        <ele>201</ele>
        <time>2020-05-31T04:46:39Z</time>
      </trkpt>
      <trkpt lat="44.0486" lon="1.65204">
        <ele>201</ele>
        <time>2020-05-31T04:46:40Z</time>
      </trkpt>
      <trkpt lat="44.04855" lon="1.65206">
        <ele>201.2</ele>
        <time>2020-05-31T04:46:41Z</time>
      </trkpt>
      <trkpt lat="44.04851" lon="1.65206">
        <ele>201.3</ele>
        <time>2020-05-31T04:46:42Z</time>
      </trkpt>
      <trkpt lat="44.04846" lon="1.65207">
        <ele>201.3</ele>
        <time>2020-05-31T04:46:43Z</time>
      </trkpt>
      <trkpt lat="44.04842" lon="1.65207">
        <ele>201.4</ele>
        <time>2020-05-31T04:46:44Z</time>
      </trkpt>
      <trkpt lat="44.04837" lon="1.65208">
        <ele>201.4</ele>
        <time>2020-05-31T04:46:45Z</time>
      </trkpt>
      <trkpt lat="44.04832" lon="1.65208">
        <ele>201.4</ele>
        <time>2020-05-31T04:46:46Z</time>
      </trkpt>
      <trkpt lat="44.04828" lon="1.65209">
        <ele>201.4</ele>
        <time>2020-05-31T04:46:47Z</time>
      </trkpt>
      <trkpt lat="44.04824" lon="1.65209">
        <ele>201.4</ele>
        <time>2020-05-31T04:46:48Z</time>
      </trkpt>
      <trkpt lat="44.04819" lon="1.65211">
        <ele>201.5</ele>
        <time>2020-05-31T04:46:49Z</time>
      </trkpt>
      <trkpt lat="44.04815" lon="1.65212">
        <ele>201.5</ele>
        <time>2020-05-31T04:46:50Z</time>
      </trkpt>
      <trkpt lat="44.04811" lon="1.65213">
        <ele>201.5</ele>
        <time>2020-05-31T04:46:51Z</time>
      </trkpt>
      <trkpt lat="44.04807" lon="1.65215">
        <ele>201.5</ele>
        <time>2020-05-31T04:46:52Z</time>
      </trkpt>
      <trkpt lat="44.04803" lon="1.65217">
        <ele>201.6</ele>
        <time>2020-05-31T04:46:53Z</time>
      </trkpt>
      <trkpt lat="44.04799" lon="1.65218">
        <ele>201.7</ele>
        <time>2020-05-31T04:46:54Z</time>
      </trkpt>
      <trkpt lat="44.04796" lon="1.6522">
        <ele>201.8</ele>
        <time>2020-05-31T04:46:55Z</time>
      </trkpt>
      <trkpt lat="44.04792" lon="1.65222">
        <ele>202</ele>
        <time>2020-05-31T04:46:56Z</time>
      </trkpt>
      <trkpt lat="44.04788" lon="1.65223">
        <ele>202.1</ele>
        <time>2020-05-31T04:46:57Z</time>
      </trkpt>
      <trkpt lat="44.04785" lon="1.65224">
        <ele>202.1</ele>
        <time>2020-05-31T04:46:58Z</time>
      </trkpt>
      <trkpt lat="44.0478" lon="1.65225">
        <ele>202.2</ele>
        <time>2020-05-31T04:46:59Z</time>
      </trkpt>
      <trkpt lat="44.04775" lon="1.65226">
        <ele>202.3</ele>
        <time>2020-05-31T04:47:00Z</time>
      </trkpt>
      <trkpt lat="44.0477" lon="1.65227">
        <ele>202.3</ele>
        <time>2020-05-31T04:47:01Z</time>
      </trkpt>
      <trkpt lat="44.04765" lon="1.65228">
        <ele>202.3</ele>
        <time>2020-05-31T04:47:02Z</time>
      </trkpt>
      <trkpt lat="44.04761" lon="1.65228">
        <ele>202.3</ele>
        <time>2020-05-31T04:47:03Z</time>
      </trkpt>
      <trkpt lat="44.04756" lon="1.65229">
        <ele>202.3</ele>
        <time>2020-05-31T04:47:04Z</time>
      </trkpt>
      <trkpt lat="44.04751" lon="1.65229">
        <ele>202.3</ele>
        <time>2020-05-31T04:47:05Z</time>
      </trkpt>
      <trkpt lat="44.04746" lon="1.6523">
        <ele>202.1</ele>
        <time>2020-05-31T04:47:06Z</time>
      </trkpt>
      <trkpt lat="44.04741" lon="1.65231">
        <ele>201.9</ele>
        <time>2020-05-31T04:47:07Z</time>
      </trkpt>
      <trkpt lat="44.04736" lon="1.65232">
        <ele>201.7</ele>
        <time>2020-05-31T04:47:08Z</time>
      </trkpt>
      <trkpt lat="44.04731" lon="1.65232">
        <ele>201.5</ele>
        <time>2020-05-31T04:47:09Z</time>
      </trkpt>
      <trkpt lat="44.04726" lon="1.65233">
        <ele>201.4</ele>
        <time>2020-05-31T04:47:10Z</time>
      </trkpt>
      <trkpt lat="44.04722" lon="1.65234">
        <ele>201.3</ele>
        <time>2020-05-31T04:47:11Z</time>
      </trkpt>
      <trkpt lat="44.04717" lon="1.65236">
        <ele>201.3</ele>
        <time>2020-05-31T04:47:12Z</time>
      </trkpt>
      <trkpt lat="44.04712" lon="1.65237">
        <ele>201.4</ele>
        <time>2020-05-31T04:47:13Z</time>
      </trkpt>
      <trkpt lat="44.04706" lon="1.65238">
        <ele>201.5</ele>
        <time>2020-05-31T04:47:14Z</time>
      </trkpt>
      <trkpt lat="44.04701" lon="1.65239">
        <ele>201.5</ele>
        <time>2020-05-31T04:47:15Z</time>
      </trkpt>
      <trkpt lat="44.04696" lon="1.65239">
        <ele>201.4</ele>
        <time>2020-05-31T04:47:16Z</time>
      </trkpt>
      <trkpt lat="44.0469" lon="1.65238">
        <ele>201.3</ele>
        <time>2020-05-31T04:47:17Z</time>
      </trkpt>
      <trkpt lat="44.04684" lon="1.65237">
        <ele>201.1</ele>
        <time>2020-05-31T04:47:18Z</time>
      </trkpt>
      <trkpt lat="44.04677" lon="1.65236">
        <ele>201</ele>
        <time>2020-05-31T04:47:19Z</time>
      </trkpt>
      <trkpt lat="44.0467" lon="1.65235">
        <ele>200.9</ele>
        <time>2020-05-31T04:47:20Z</time>
      </trkpt>
      <trkpt lat="44.04664" lon="1.65234">
        <ele>200.9</ele>
        <time>2020-05-31T04:47:21Z</time>
      </trkpt>
      <trkpt lat="44.04658" lon="1.65231">
        <ele>201</ele>
        <time>2020-05-31T04:47:22Z</time>
      </trkpt>
      <trkpt lat="44.04652" lon="1.65229">
        <ele>201</ele>
        <time>2020-05-31T04:47:22Z</time>
      </trkpt>
      <trkpt lat="44.04647" lon="1.65226">
        <ele>200.9</ele>
        <time>2020-05-31T04:47:23Z</time>
      </trkpt>
      <trkpt lat="44.04642" lon="1.65222">
        <ele>200.9</ele>
        <time>2020-05-31T04:47:24Z</time>
      </trkpt>
      <trkpt lat="44.04637" lon="1.65218">
        <ele>200.8</ele>
        <time>2020-05-31T04:47:25Z</time>
      </trkpt>
      <trkpt lat="44.04631" lon="1.65214">
        <ele>200.6</ele>
        <time>2020-05-31T04:47:26Z</time>
      </trkpt>
      <trkpt lat="44.04626" lon="1.65209">
        <ele>200.3</ele>
        <time>2020-05-31T04:47:27Z</time>
      </trkpt>
      <trkpt lat="44.04621" lon="1.65204">
        <ele>199.9</ele>
        <time>2020-05-31T04:47:28Z</time>
      </trkpt>
      <trkpt lat="44.04616" lon="1.65198">
        <ele>199.4</ele>
        <time>2020-05-31T04:47:29Z</time>
      </trkpt>
      <trkpt lat="44.0461" lon="1.65192">
        <ele>198.9</ele>
        <time>2020-05-31T04:47:30Z</time>
      </trkpt>
      <trkpt lat="44.04605" lon="1.65186">
        <ele>198.6</ele>
        <time>2020-05-31T04:47:31Z</time>
      </trkpt>
      <trkpt lat="44.04599" lon="1.6518">
        <ele>198.2</ele>
        <time>2020-05-31T04:47:32Z</time>
      </trkpt>
      <trkpt lat="44.04593" lon="1.65173">
        <ele>197.7</ele>
        <time>2020-05-31T04:47:33Z</time>
      </trkpt>
      <trkpt lat="44.04586" lon="1.65167">
        <ele>197.1</ele>
        <time>2020-05-31T04:47:34Z</time>
      </trkpt>
      <trkpt lat="44.04579" lon="1.65161">
        <ele>196.3</ele>
        <time>2020-05-31T04:47:35Z</time>
      </trkpt>
      <trkpt lat="44.04572" lon="1.65155">
        <ele>195.5</ele>
        <time>2020-05-31T04:47:36Z</time>
      </trkpt>
      <trkpt lat="44.04564" lon="1.65149">
        <ele>194.8</ele>
        <time>2020-05-31T04:47:37Z</time>
      </trkpt>
      <trkpt lat="44.04555" lon="1.65145">
        <ele>194.2</ele>
        <time>2020-05-31T04:47:38Z</time>
      </trkpt>
      <trkpt lat="44.04546" lon="1.65141">
        <ele>193.4</ele>
        <time>2020-05-31T04:47:39Z</time>
      </trkpt>
      <trkpt lat="44.04537" lon="1.65137">
        <ele>192.6</ele>
        <time>2020-05-31T04:47:40Z</time>
      </trkpt>
      <trkpt lat="44.04527" lon="1.65134">
        <ele>20200</ele>
        <time>2020-05-31T04:47:41Z</time>
      </trkpt>
      <trkpt lat="44.04517" lon="1.6513">
        <ele>20100</ele>
        <time>2020-05-31T04:47:42Z</time>
      </trkpt>
      <trkpt lat="44.04506" lon="1.65127">
        <ele>20100</ele>
        <time>2020-05-31T04:47:43Z</time>
      </trkpt>
      <trkpt lat="44.04495" lon="1.65123">
        <ele>20000</ele>
        <time>2020-05-31T04:47:44Z</time>
      </trkpt>
      <trkpt lat="44.04484" lon="1.6512">
        <ele>19900</ele>
        <time>2020-05-31T04:47:45Z</time>
      </trkpt>
      <trkpt lat="44.04474" lon="1.65116">
        <ele>19700</ele>
        <time>2020-05-31T04:47:46Z</time>
      </trkpt>
      <trkpt lat="44.04462" lon="1.65113">
        <ele>19600</ele>
        <time>2020-05-31T04:47:47Z</time>
      </trkpt>
      <trkpt lat="44.04451" lon="1.65109">
        <ele>19600</ele>
        <time>2020-05-31T04:47:48Z</time>
      </trkpt>
      <trkpt lat="44.0444" lon="1.65106">
        <ele>19600</ele>
        <time>2020-05-31T04:47:49Z</time>
      </trkpt>
      <trkpt lat="44.04429" lon="1.65102">
        <ele>19400</ele>
        <time>2020-05-31T04:47:50Z</time>
      </trkpt>
      <trkpt lat="44.04419" lon="1.65097">
        <ele>19400</ele>
        <time>2020-05-31T04:47:51Z</time>
      </trkpt>
      <trkpt lat="44.04408" lon="1.65092">
        <ele>19300</ele>
        <time>2020-05-31T04:47:52Z</time>
      </trkpt>
      <trkpt lat="44.04399" lon="1.65087">
        <ele>19300</ele>
        <time>2020-05-31T04:47:53Z</time>
      </trkpt>
      <trkpt lat="44.04389" lon="1.65081">
        <ele>19300</ele>
        <time>2020-05-31T04:47:54Z</time>
      </trkpt>
      <trkpt lat="44.0438" lon="1.65075">
        <ele>19300</ele>
        <time>2020-05-31T04:47:55Z</time>
      </trkpt>
      <trkpt lat="44.0437" lon="1.65069">
        <ele>19300</ele>
        <time>2020-05-31T04:47:56Z</time>
      </trkpt>
      <trkpt lat="44.04361" lon="1.65063">
        <ele>19300</ele>
        <time>2020-05-31T04:47:57Z</time>
      </trkpt>
      <trkpt lat="44.04352" lon="1.65057">
        <ele>19300</ele>
        <time>2020-05-31T04:47:58Z</time>
      </trkpt>
      <trkpt lat="44.04344" lon="1.65051">
        <ele>19200</ele>
        <time>2020-05-31T04:47:59Z</time>
      </trkpt>
      <trkpt lat="44.04335" lon="1.65044">
        <ele>19200</ele>
        <time>2020-05-31T04:48:00Z</time>
      </trkpt>
      <trkpt lat="44.04326" lon="1.65039">
        <ele>19200</ele>
        <time>2020-05-31T04:48:01Z</time>
      </trkpt>
      <trkpt lat="44.04318" lon="1.65033">
        <ele>19200</ele>
        <time>2020-05-31T04:48:02Z</time>
      </trkpt>
      <trkpt lat="44.0431" lon="1.65027">
        <ele>19200</ele>
        <time>2020-05-31T04:48:03Z</time>
      </trkpt>
      <trkpt lat="44.04302" lon="1.65021">
        <ele>19100</ele>
        <time>2020-05-31T04:48:04Z</time>
      </trkpt>
      <trkpt lat="44.04295" lon="1.65016">
        <ele>19100</ele>
        <time>2020-05-31T04:48:05Z</time>
      </trkpt>
      <trkpt lat="44.04287" lon="1.65011">
        <ele>19100</ele>
        <time>2020-05-31T04:48:06Z</time>
      </trkpt>
      <trkpt lat="44.0428" lon="1.65005">
        <ele>19100</ele>
        <time>2020-05-31T04:48:07Z</time>
      </trkpt>
      <trkpt lat="44.04273" lon="1.65">
        <ele>19100</ele>
        <time>2020-05-31T04:48:08Z</time>
      </trkpt>
      <trkpt lat="44.04266" lon="1.64995">
        <ele>19100</ele>
        <time>2020-05-31T04:48:09Z</time>
      </trkpt>
      <trkpt lat="44.04258" lon="1.64991">
        <ele>19100</ele>
        <time>2020-05-31T04:48:10Z</time>
      </trkpt>
      <trkpt lat="44.04251" lon="1.64987">
        <ele>19100</ele>
        <time>2020-05-31T04:48:11Z</time>
      </trkpt>
      <trkpt lat="44.04244" lon="1.64983">
        <ele>19100</ele>
        <time>2020-05-31T04:48:12Z</time>
      </trkpt>
      <trkpt lat="44.04237" lon="1.64979">
        <ele>19000</ele>
        <time>2020-05-31T04:48:13Z</time>
      </trkpt>
      <trkpt lat="44.0423" lon="1.64975">
        <ele>19000</ele>
        <time>2020-05-31T04:48:14Z</time>
      </trkpt>
      <trkpt lat="44.04223" lon="1.64971">
        <ele>19000</ele>
        <time>2020-05-31T04:48:15Z</time>
      </trkpt>
      <trkpt lat="44.04215" lon="1.64967">
        <ele>18900</ele>
        <time>2020-05-31T04:48:16Z</time>
      </trkpt>
      <trkpt lat="44.04208" lon="1.64963">
        <ele>18900</ele>
        <time>2020-05-31T04:48:17Z</time>
      </trkpt>
      <trkpt lat="44.042" lon="1.6496">
        <ele>18900</ele>
        <time>2020-05-31T04:48:18Z</time>
      </trkpt>
      <trkpt lat="44.04192" lon="1.64957">
        <ele>18800</ele>
        <time>2020-05-31T04:48:19Z</time>
      </trkpt>
      <trkpt lat="44.04185" lon="1.64954">
        <ele>18800</ele>
        <time>2020-05-31T04:48:20Z</time>
      </trkpt>
      <trkpt lat="44.04177" lon="1.6495">
        <ele>18800</ele>
        <time>2020-05-31T04:48:21Z</time>
      </trkpt>
      <trkpt lat="44.04169" lon="1.64946">
        <ele>18700</ele>
        <time>2020-05-31T04:48:22Z</time>
      </trkpt>
      <trkpt lat="44.04162" lon="1.64942">
        <ele>18700</ele>
        <time>2020-05-31T04:48:23Z</time>
      </trkpt>
      <trkpt lat="44.04154" lon="1.64938">
        <ele>18700</ele>
        <time>2020-05-31T04:48:24Z</time>
      </trkpt>
      <trkpt lat="44.04146" lon="1.64934">
        <ele>18700</ele>
        <time>2020-05-31T04:48:25Z</time>
      </trkpt>
      <trkpt lat="44.04139" lon="1.6493">
        <ele>18700</ele>
        <time>2020-05-31T04:48:26Z</time>
      </trkpt>
      <trkpt lat="44.04131" lon="1.64927">
        <ele>18700</ele>
        <time>2020-05-31T04:48:27Z</time>
      </trkpt>
      <trkpt lat="44.04124" lon="1.64923">
        <ele>18700</ele>
        <time>2020-05-31T04:48:28Z</time>
      </trkpt>
      <trkpt lat="44.04117" lon="1.6492">
        <ele>18700</ele>
        <time>2020-05-31T04:48:29Z</time>
      </trkpt>
      <trkpt lat="44.0411" lon="1.64916">
        <ele>18700</ele>
        <time>2020-05-31T04:48:30Z</time>
      </trkpt>
      <trkpt lat="44.04104" lon="1.64913">
        <ele>18700</ele>
        <time>2020-05-31T04:48:31Z</time>
      </trkpt>
      <trkpt lat="44.04098" lon="1.6491">
        <ele>18700</ele>
        <time>2020-05-31T04:48:32Z</time>
      </trkpt>
      <trkpt lat="44.04092" lon="1.64906">
        <ele>18700</ele>
        <time>2020-05-31T04:48:33Z</time>
      </trkpt>
      <trkpt lat="44.04086" lon="1.64903">
        <ele>18700</ele>
        <time>2020-05-31T04:48:34Z</time>
      </trkpt>
      <trkpt lat="44.0408" lon="1.649">
        <ele>18700</ele>
        <time>2020-05-31T04:48:35Z</time>
      </trkpt>
      <trkpt lat="44.04075" lon="1.64897">
        <ele>18700</ele>
        <time>2020-05-31T04:48:36Z</time>
      </trkpt>
      <trkpt lat="44.0407" lon="1.64895">
        <ele>18700</ele>
        <time>2020-05-31T04:48:37Z</time>
      </trkpt>
      <trkpt lat="44.04064" lon="1.64892">
        <ele>18700</ele>
        <time>2020-05-31T04:48:38Z</time>
      </trkpt>
      <trkpt lat="44.04059" lon="1.6489">
        <ele>18700</ele>
        <time>2020-05-31T04:48:39Z</time>
      </trkpt>
      <trkpt lat="44.04055" lon="1.64888">
        <ele>18700</ele>
        <time>2020-05-31T04:48:40Z</time>
      </trkpt>
      <trkpt lat="44.0405" lon="1.64886">
        <ele>18800</ele>
        <time>2020-05-31T04:48:41Z</time>
      </trkpt>
      <trkpt lat="44.04046" lon="1.64883">
        <ele>18800</ele>
        <time>2020-05-31T04:48:42Z</time>
      </trkpt>
      <trkpt lat="44.04041" lon="1.64881">
        <ele>18800</ele>
        <time>2020-05-31T04:48:43Z</time>
      </trkpt>
      <trkpt lat="44.04036" lon="1.6488">
        <ele>18800</ele>
        <time>2020-05-31T04:48:44Z</time>
      </trkpt>
      <trkpt lat="44.04031" lon="1.64878">
        <ele>18900</ele>
        <time>2020-05-31T04:48:45Z</time>
      </trkpt>
      <trkpt lat="44.04028" lon="1.64877">
        <ele>18900</ele>
        <time>2020-05-31T04:48:46Z</time>
      </trkpt>
      <trkpt lat="44.04024" lon="1.64876">
        <ele>18900</ele>
        <time>2020-05-31T04:48:47Z</time>
      </trkpt>
      <trkpt lat="44.0402" lon="1.64875">
        <ele>18900</ele>
        <time>2020-05-31T04:48:48Z</time>
      </trkpt>
      <trkpt lat="44.04017" lon="1.64874">
        <ele>18900</ele>
        <time>2020-05-31T04:48:49Z</time>
      </trkpt>
      <trkpt lat="44.04013" lon="1.64872">
        <ele>19000</ele>
        <time>2020-05-31T04:48:50Z</time>
      </trkpt>
      <trkpt lat="44.0401" lon="1.64871">
        <ele>19000</ele>
        <time>2020-05-31T04:48:51Z</time>
      </trkpt>
      <trkpt lat="44.04007" lon="1.64869">
        <ele>19000</ele>
        <time>2020-05-31T04:48:52Z</time>
      </trkpt>
      <trkpt lat="44.04004" lon="1.64868">
        <ele>19000</ele>
        <time>2020-05-31T04:48:53Z</time>
      </trkpt>
      <trkpt lat="44.04" lon="1.64866">
        <ele>19000</ele>
        <time>2020-05-31T04:48:54Z</time>
      </trkpt>
      <trkpt lat="44.03997" lon="1.64865">
        <ele>19000</ele>
        <time>2020-05-31T04:48:55Z</time>
      </trkpt>
      <trkpt lat="44.03994" lon="1.64864">
        <ele>19100</ele>
        <time>2020-05-31T04:48:56Z</time>
      </trkpt>
      <trkpt lat="44.03991" lon="1.64862">
        <ele>19100</ele>
        <time>2020-05-31T04:48:57Z</time>
      </trkpt>
      <trkpt lat="44.03987" lon="1.64861">
        <ele>19100</ele>
        <time>2020-05-31T04:48:58Z</time>
      </trkpt>
      <trkpt lat="44.03984" lon="1.64859">
        <ele>19100</ele>
        <time>2020-05-31T04:48:59Z</time>
      </trkpt>
      <trkpt lat="44.03981" lon="1.64857">
        <ele>19100</ele>
        <time>2020-05-31T04:49:00Z</time>
      </trkpt>
      <trkpt lat="44.03977" lon="1.64854">
        <ele>19100</ele>
        <time>2020-05-31T04:49:01Z</time>
      </trkpt>
      <trkpt lat="44.03973" lon="1.64852">
        <ele>19100</ele>
        <time>2020-05-31T04:49:02Z</time>
      </trkpt>
      <trkpt lat="44.03969" lon="1.6485">
        <ele>19100</ele>
        <time>2020-05-31T04:49:03Z</time>
      </trkpt>
      <trkpt lat="44.03965" lon="1.64848">
        <ele>19100</ele>
        <time>2020-05-31T04:49:04Z</time>
      </trkpt>
      <trkpt lat="44.03962" lon="1.64846">
        <ele>19100</ele>
        <time>2020-05-31T04:49:05Z</time>
      </trkpt>
      <trkpt lat="44.03959" lon="1.64843">
        <ele>19100</ele>
        <time>2020-05-31T04:49:06Z</time>
      </trkpt>
      <trkpt lat="44.03956" lon="1.6484">
        <ele>19100</ele>
        <time>2020-05-31T04:49:07Z</time>
      </trkpt>
      <trkpt lat="44.03952" lon="1.64837">
        <ele>19100</ele>
        <time>2020-05-31T04:49:08Z</time>
      </trkpt>
      <trkpt lat="44.03949" lon="1.64834">
        <ele>19100</ele>
        <time>2020-05-31T04:49:09Z</time>
      </trkpt>
      <trkpt lat="44.03945" lon="1.64831">
        <ele>19100</ele>
        <time>2020-05-31T04:49:10Z</time>
      </trkpt>
      <trkpt lat="44.03942" lon="1.64828">
        <ele>19100</ele>
        <time>2020-05-31T04:49:11Z</time>
      </trkpt>
      <trkpt lat="44.03938" lon="1.64824">
        <ele>19200</ele>
        <time>2020-05-31T04:49:12Z</time>
      </trkpt>
      <trkpt lat="44.03935" lon="1.64821">
        <ele>19200</ele>
        <time>2020-05-31T04:49:13Z</time>
      </trkpt>
      <trkpt lat="44.03932" lon="1.64818">
        <ele>19200</ele>
        <time>2020-05-31T04:49:14Z</time>
      </trkpt>
      <trkpt lat="44.03928" lon="1.64814">
        <ele>19200</ele>
        <time>2020-05-31T04:49:15Z</time>
      </trkpt>
      <trkpt lat="44.03925" lon="1.64811">
        <ele>19200</ele>
        <time>2020-05-31T04:49:16Z</time>
      </trkpt>
      <trkpt lat="44.03922" lon="1.64807">
        <ele>19200</ele>
        <time>2020-05-31T04:49:17Z</time>
      </trkpt>
      <trkpt lat="44.03919" lon="1.64804">
        <ele>19200</ele>
        <time>2020-05-31T04:49:18Z</time>
      </trkpt>
      <trkpt lat="44.03915" lon="1.64802">
        <ele>19200</ele>
        <time>2020-05-31T04:49:19Z</time>
      </trkpt>
      <trkpt lat="44.03913" lon="1.64799">
        <ele>19200</ele>
        <time>2020-05-31T04:49:20Z</time>
      </trkpt>
      <trkpt lat="44.0391" lon="1.64795">
        <ele>19200</ele>
        <time>2020-05-31T04:49:21Z</time>
      </trkpt>
      <trkpt lat="44.03907" lon="1.64792">
        <ele>19200</ele>
        <time>2020-05-31T04:49:22Z</time>
      </trkpt>
      <trkpt lat="44.03904" lon="1.64788">
        <ele>19200</ele>
        <time>2020-05-31T04:49:23Z</time>
      </trkpt>
      <trkpt lat="44.03901" lon="1.64784">
        <ele>19200</ele>
        <time>2020-05-31T04:49:24Z</time>
      </trkpt>
      <trkpt lat="44.03897" lon="1.64779">
        <ele>19200</ele>
        <time>2020-05-31T04:49:25Z</time>
      </trkpt>
      <trkpt lat="44.03893" lon="1.64773">
        <ele>19000</ele>
        <time>2020-05-31T04:49:26Z</time>
      </trkpt>
      <trkpt lat="44.03889" lon="1.64767">
        <ele>19000</ele>
        <time>2020-05-31T04:49:27Z</time>
      </trkpt>
      <trkpt lat="44.03885" lon="1.64761">
        <ele>18900</ele>
        <time>2020-05-31T04:49:28Z</time>
      </trkpt>
      <trkpt lat="44.03881" lon="1.64754">
        <ele>18900</ele>
        <time>2020-05-31T04:49:29Z</time>
      </trkpt>
      <trkpt lat="44.03877" lon="1.64747">
        <ele>18800</ele>
        <time>2020-05-31T04:49:30Z</time>
      </trkpt>
      <trkpt lat="44.03871" lon="1.6474">
        <ele>18800</ele>
        <time>2020-05-31T04:49:31Z</time>
      </trkpt>
      <trkpt lat="44.03866" lon="1.64732">
        <ele>18700</ele>
        <time>2020-05-31T04:49:32Z</time>
      </trkpt>
      <trkpt lat="44.03861" lon="1.64725">
        <ele>18700</ele>
        <time>2020-05-31T04:49:33Z</time>
      </trkpt>
      <trkpt lat="44.03855" lon="1.64718">
        <ele>18600</ele>
        <time>2020-05-31T04:49:34Z</time>
      </trkpt>
      <trkpt lat="44.03849" lon="1.64711">
        <ele>18600</ele>
        <time>2020-05-31T04:49:35Z</time>
      </trkpt>
      <trkpt lat="44.03843" lon="1.64704">
        <ele>18600</ele>
        <time>2020-05-31T04:49:36Z</time>
      </trkpt>
      <trkpt lat="44.03836" lon="1.64698">
        <ele>18600</ele>
        <time>2020-05-31T04:49:37Z</time>
      </trkpt>
      <trkpt lat="44.0383" lon="1.64692">
        <ele>18600</ele>
        <time>2020-05-31T04:49:38Z</time>
      </trkpt>
      <trkpt lat="44.03824" lon="1.64686">
        <ele>18600</ele>
        <time>2020-05-31T04:49:39Z</time>
      </trkpt>
      <trkpt lat="44.03819" lon="1.6468">
        <ele>18600</ele>
        <time>2020-05-31T04:49:40Z</time>
      </trkpt>
      <trkpt lat="44.03813" lon="1.64675">
        <ele>18600</ele>
        <time>2020-05-31T04:49:41Z</time>
      </trkpt>
      <trkpt lat="44.03808" lon="1.6467">
        <ele>18600</ele>
        <time>2020-05-31T04:49:42Z</time>
      </trkpt>
      <trkpt lat="44.03803" lon="1.64665">
        <ele>18600</ele>
        <time>2020-05-31T04:49:43Z</time>
      </trkpt>
      <trkpt lat="44.03799" lon="1.64661">
        <ele>18600</ele>
        <time>2020-05-31T04:49:44Z</time>
      </trkpt>
      <trkpt lat="44.03794" lon="1.64656">
        <ele>18600</ele>
        <time>2020-05-31T04:49:45Z</time>
      </trkpt>
      <trkpt lat="44.03789" lon="1.64652">
        <ele>18600</ele>
        <time>2020-05-31T04:49:46Z</time>
      </trkpt>
      <trkpt lat="44.03785" lon="1.64648">
        <ele>18600</ele>
        <time>2020-05-31T04:49:47Z</time>
      </trkpt>
      <trkpt lat="44.0378" lon="1.64644">
        <ele>18600</ele>
        <time>2020-05-31T04:49:48Z</time>
      </trkpt>
      <trkpt lat="44.03776" lon="1.64641">
        <ele>18600</ele>
        <time>2020-05-31T04:49:49Z</time>
      </trkpt>
      <trkpt lat="44.03772" lon="1.64637">
        <ele>18600</ele>
        <time>2020-05-31T04:49:50Z</time>
      </trkpt>
      <trkpt lat="44.03768" lon="1.64634">
        <ele>18600</ele>
        <time>2020-05-31T04:49:51Z</time>
      </trkpt>
      <trkpt lat="44.03763" lon="1.64631">
        <ele>18600</ele>
        <time>2020-05-31T04:49:52Z</time>
      </trkpt>
      <trkpt lat="44.0376" lon="1.64629">
        <ele>18600</ele>
        <time>2020-05-31T04:49:53Z</time>
      </trkpt>
      <trkpt lat="44.03757" lon="1.64626">
        <ele>18700</ele>
        <time>2020-05-31T04:49:54Z</time>
      </trkpt>
      <trkpt lat="44.03753" lon="1.64623">
        <ele>18700</ele>
        <time>2020-05-31T04:49:55Z</time>
      </trkpt>
      <trkpt lat="44.0375" lon="1.6462">
        <ele>18700</ele>
        <time>2020-05-31T04:49:56Z</time>
      </trkpt>
      <trkpt lat="44.03747" lon="1.64617">
        <ele>18700</ele>
        <time>2020-05-31T04:49:57Z</time>
      </trkpt>
      <trkpt lat="44.03744" lon="1.64614">
        <ele>18800</ele>
        <time>2020-05-31T04:49:58Z</time>
      </trkpt>
      <trkpt lat="44.03741" lon="1.64612">
        <ele>18800</ele>
        <time>2020-05-31T04:49:59Z</time>
      </trkpt>
      <trkpt lat="44.03739" lon="1.64609">
        <ele>18800</ele>
        <time>2020-05-31T04:50:00Z</time>
      </trkpt>
      <trkpt lat="44.03736" lon="1.64606">
        <ele>18800</ele>
        <time>2020-05-31T04:50:01Z</time>
      </trkpt>
      <trkpt lat="44.03732" lon="1.64603">
        <ele>18800</ele>
        <time>2020-05-31T04:50:02Z</time>
      </trkpt>
      <trkpt lat="44.03729" lon="1.646">
        <ele>18900</ele>
        <time>2020-05-31T04:50:03Z</time>
      </trkpt>
      <trkpt lat="44.03726" lon="1.64598">
        <ele>18900</ele>
        <time>2020-05-31T04:50:04Z</time>
      </trkpt>
      <trkpt lat="44.03723" lon="1.64595">
        <ele>18900</ele>
        <time>2020-05-31T04:50:05Z</time>
      </trkpt>
      <trkpt lat="44.0372" lon="1.64592">
        <ele>18900</ele>
        <time>2020-05-31T04:50:06Z</time>
      </trkpt>
      <trkpt lat="44.03717" lon="1.64589">
        <ele>18900</ele>
        <time>2020-05-31T04:50:07Z</time>
      </trkpt>
      <trkpt lat="44.03714" lon="1.64587">
        <ele>18900</ele>
        <time>2020-05-31T04:50:08Z</time>
      </trkpt>
      <trkpt lat="44.03711" lon="1.64584">
        <ele>18900</ele>
        <time>2020-05-31T04:50:09Z</time>
      </trkpt>
      <trkpt lat="44.03708" lon="1.64581">
        <ele>18900</ele>
        <time>2020-05-31T04:50:10Z</time>
      </trkpt>
      <trkpt lat="44.03705" lon="1.64579">
        <ele>19000</ele>
        <time>2020-05-31T04:50:11Z</time>
      </trkpt>
      <trkpt lat="44.03702" lon="1.64576">
        <ele>19000</ele>
        <time>2020-05-31T04:50:12Z</time>
      </trkpt>
      <trkpt lat="44.03699" lon="1.64573">
        <ele>19000</ele>
        <time>2020-05-31T04:50:13Z</time>
      </trkpt>
      <trkpt lat="44.03696" lon="1.6457">
        <ele>19000</ele>
        <time>2020-05-31T04:50:14Z</time>
      </trkpt>
      <trkpt lat="44.03693" lon="1.64567">
        <ele>19000</ele>
        <time>2020-05-31T04:50:15Z</time>
      </trkpt>
      <trkpt lat="44.0369" lon="1.64564">
        <ele>19000</ele>
        <time>2020-05-31T04:50:16Z</time>
      </trkpt>
      <trkpt lat="44.03687" lon="1.64561">
        <ele>19100</ele>
        <time>2020-05-31T04:50:17Z</time>
      </trkpt>
      <trkpt lat="44.03684" lon="1.64559">
        <ele>19100</ele>
        <time>2020-05-31T04:50:18Z</time>
      </trkpt>
      <trkpt lat="44.03682" lon="1.64556">
        <ele>19100</ele>
        <time>2020-05-31T04:50:19Z</time>
      </trkpt>
      <trkpt lat="44.03679" lon="1.64553">
        <ele>19100</ele>
        <time>2020-05-31T04:50:20Z</time>
      </trkpt>
      <trkpt lat="44.03677" lon="1.6455">
        <ele>19100</ele>
        <time>2020-05-31T04:50:21Z</time>
      </trkpt>
      <trkpt lat="44.03674" lon="1.64548">
        <ele>19100</ele>
        <time>2020-05-31T04:50:22Z</time>
      </trkpt>
      <trkpt lat="44.03671" lon="1.64545">
        <ele>19100</ele>
        <time>2020-05-31T04:50:23Z</time>
      </trkpt>
      <trkpt lat="44.03669" lon="1.64542">
        <ele>19100</ele>
        <time>2020-05-31T04:50:24Z</time>
      </trkpt>
      <trkpt lat="44.03666" lon="1.6454">
        <ele>19100</ele>
        <time>2020-05-31T04:50:25Z</time>
      </trkpt>
      <trkpt lat="44.03663" lon="1.64537">
        <ele>19100</ele>
        <time>2020-05-31T04:50:26Z</time>
      </trkpt>
      <trkpt lat="44.03661" lon="1.64534">
        <ele>19200</ele>
        <time>2020-05-31T04:50:27Z</time>
      </trkpt>
      <trkpt lat="44.03658" lon="1.64532">
        <ele>19200</ele>
        <time>2020-05-31T04:50:28Z</time>
      </trkpt>
      <trkpt lat="44.03656" lon="1.64529">
        <ele>19200</ele>
        <time>2020-05-31T04:50:29Z</time>
      </trkpt>
      <trkpt lat="44.03653" lon="1.64526">
        <ele>19200</ele>
        <time>2020-05-31T04:50:30Z</time>
      </trkpt>
      <trkpt lat="44.03651" lon="1.64523">
        <ele>19200</ele>
        <time>2020-05-31T04:50:31Z</time>
      </trkpt>
      <trkpt lat="44.03648" lon="1.6452">
        <ele>19200</ele>
        <time>2020-05-31T04:50:32Z</time>
      </trkpt>
      <trkpt lat="44.03645" lon="1.64517">
        <ele>19200</ele>
        <time>2020-05-31T04:50:33Z</time>
      </trkpt>
      <trkpt lat="44.03642" lon="1.64513">
        <ele>19200</ele>
        <time>2020-05-31T04:50:34Z</time>
      </trkpt>
      <trkpt lat="44.03639" lon="1.6451">
        <ele>19200</ele>
        <time>2020-05-31T04:50:35Z</time>
      </trkpt>
      <trkpt lat="44.03635" lon="1.64507">
        <ele>19200</ele>
        <time>2020-05-31T04:50:36Z</time>
      </trkpt>
      <trkpt lat="44.03632" lon="1.64503">
        <ele>19200</ele>
        <time>2020-05-31T04:50:37Z</time>
      </trkpt>
      <trkpt lat="44.03629" lon="1.64499">
        <ele>19200</ele>
        <time>2020-05-31T04:50:38Z</time>
      </trkpt>
      <trkpt lat="44.03626" lon="1.64495">
        <ele>19200</ele>
        <time>2020-05-31T04:50:39Z</time>
      </trkpt>
      <trkpt lat="44.03622" lon="1.6449">
        <ele>19200</ele>
        <time>2020-05-31T04:50:40Z</time>
      </trkpt>
      <trkpt lat="44.03618" lon="1.64486">
        <ele>19200</ele>
        <time>2020-05-31T04:50:41Z</time>
      </trkpt>
      <trkpt lat="44.03614" lon="1.64481">
        <ele>19100</ele>
        <time>2020-05-31T04:50:42Z</time>
      </trkpt>
      <trkpt lat="44.03609" lon="1.64476">
        <ele>19100</ele>
        <time>2020-05-31T04:50:43Z</time>
      </trkpt>
      <trkpt lat="44.03603" lon="1.64472">
        <ele>19000</ele>
        <time>2020-05-31T04:50:44Z</time>
      </trkpt>
      <trkpt lat="44.03598" lon="1.64467">
        <ele>19000</ele>
        <time>2020-05-31T04:50:45Z</time>
      </trkpt>
      <trkpt lat="44.03592" lon="1.64462">
        <ele>18900</ele>
        <time>2020-05-31T04:50:46Z</time>
      </trkpt>
      <trkpt lat="44.03587" lon="1.64457">
        <ele>18900</ele>
        <time>2020-05-31T04:50:47Z</time>
      </trkpt>
      <trkpt lat="44.03581" lon="1.64452">
        <ele>18800</ele>
        <time>2020-05-31T04:50:48Z</time>
      </trkpt>
      <trkpt lat="44.03574" lon="1.64446">
        <ele>18800</ele>
        <time>2020-05-31T04:50:49Z</time>
      </trkpt>
      <trkpt lat="44.03566" lon="1.6444">
        <ele>18700</ele>
        <time>2020-05-31T04:50:50Z</time>
      </trkpt>
      <trkpt lat="44.03558" lon="1.64433">
        <ele>18700</ele>
        <time>2020-05-31T04:50:51Z</time>
      </trkpt>
      <trkpt lat="44.03551" lon="1.64425">
        <ele>18600</ele>
        <time>2020-05-31T04:50:52Z</time>
      </trkpt>
      <trkpt lat="44.03544" lon="1.64417">
        <ele>18600</ele>
        <time>2020-05-31T04:50:53Z</time>
      </trkpt>
      <trkpt lat="44.03536" lon="1.64408">
        <ele>18500</ele>
        <time>2020-05-31T04:50:54Z</time>
      </trkpt>
      <trkpt lat="44.03529" lon="1.64399">
        <ele>18500</ele>
        <time>2020-05-31T04:50:55Z</time>
      </trkpt>
      <trkpt lat="44.03521" lon="1.6439">
        <ele>18400</ele>
        <time>2020-05-31T04:50:56Z</time>
      </trkpt>
      <trkpt lat="44.03514" lon="1.64381">
        <ele>18400</ele>
        <time>2020-05-31T04:50:57Z</time>
      </trkpt>
      <trkpt lat="44.03507" lon="1.64372">
        <ele>18400</ele>
        <time>2020-05-31T04:50:58Z</time>
      </trkpt>
      <trkpt lat="44.035" lon="1.64363">
        <ele>18300</ele>
        <time>2020-05-31T04:50:59Z</time>
      </trkpt>
      <trkpt lat="44.03494" lon="1.64355">
        <ele>18300</ele>
        <time>2020-05-31T04:51:00Z</time>
      </trkpt>
      <trkpt lat="44.03488" lon="1.64346">
        <ele>18200</ele>
        <time>2020-05-31T04:51:01Z</time>
      </trkpt>
      <trkpt lat="44.03482" lon="1.64337">
        <ele>18200</ele>
        <time>2020-05-31T04:51:02Z</time>
      </trkpt>
      <trkpt lat="44.03476" lon="1.64329">
        <ele>18200</ele>
        <time>2020-05-31T04:51:03Z</time>
      </trkpt>
      <trkpt lat="44.0347" lon="1.64322">
        <ele>18100</ele>
        <time>2020-05-31T04:51:04Z</time>
      </trkpt>
      <trkpt lat="44.03464" lon="1.64315">
        <ele>18100</ele>
        <time>2020-05-31T04:51:05Z</time>
      </trkpt>
      <trkpt lat="44.03458" lon="1.64307">
        <ele>18100</ele>
        <time>2020-05-31T04:51:06Z</time>
      </trkpt>
      <trkpt lat="44.03452" lon="1.643">
        <ele>18100</ele>
        <time>2020-05-31T04:51:07Z</time>
      </trkpt>
      <trkpt lat="44.03448" lon="1.64293">
        <ele>18100</ele>
        <time>2020-05-31T04:51:08Z</time>
      </trkpt>
      <trkpt lat="44.03443" lon="1.64287">
        <ele>18100</ele>
        <time>2020-05-31T04:51:09Z</time>
      </trkpt>
      <trkpt lat="44.03438" lon="1.64281">
        <ele>18100</ele>
        <time>2020-05-31T04:51:10Z</time>
      </trkpt>
      <trkpt lat="44.03433" lon="1.64276">
        <ele>18100</ele>
        <time>2020-05-31T04:51:11Z</time>
      </trkpt>
      <trkpt lat="44.03428" lon="1.64273">
        <ele>18100</ele>
        <time>2020-05-31T04:51:12Z</time>
      </trkpt>
      <trkpt lat="44.03423" lon="1.6427">
        <ele>18100</ele>
        <time>2020-05-31T04:51:13Z</time>
      </trkpt>
      <trkpt lat="44.03418" lon="1.64268">
        <ele>18100</ele>
        <time>2020-05-31T04:51:14Z</time>
      </trkpt>
      <trkpt lat="44.03415" lon="1.64267">
        <ele>18200</ele>
        <time>2020-05-31T04:51:15Z</time>
      </trkpt>
      <trkpt lat="44.0341" lon="1.64266">
        <ele>18200</ele>
        <time>2020-05-31T04:51:16Z</time>
      </trkpt>
      <trkpt lat="44.03407" lon="1.64266">
        <ele>18200</ele>
        <time>2020-05-31T04:51:17Z</time>
      </trkpt>
      <trkpt lat="44.03403" lon="1.64266">
        <ele>18300</ele>
        <time>2020-05-31T04:51:18Z</time>
      </trkpt>
      <trkpt lat="44.034" lon="1.64266">
        <ele>18300</ele>
        <time>2020-05-31T04:51:19Z</time>
      </trkpt>
      <trkpt lat="44.03396" lon="1.64265">
        <ele>18300</ele>
        <time>2020-05-31T04:51:20Z</time>
      </trkpt>
      <trkpt lat="44.03393" lon="1.64263">
        <ele>18400</ele>
        <time>2020-05-31T04:51:21Z</time>
      </trkpt>
      <trkpt lat="44.0339" lon="1.64262">
        <ele>18400</ele>
        <time>2020-05-31T04:51:22Z</time>
      </trkpt>
      <trkpt lat="44.03388" lon="1.64259">
        <ele>18400</ele>
        <time>2020-05-31T04:51:23Z</time>
      </trkpt>
      <trkpt lat="44.03386" lon="1.64257">
        <ele>18500</ele>
        <time>2020-05-31T04:51:24Z</time>
      </trkpt>
      <trkpt lat="44.03384" lon="1.64254">
        <ele>18500</ele>
        <time>2020-05-31T04:51:25Z</time>
      </trkpt>
      <trkpt lat="44.03384" lon="1.64251">
        <ele>18500</ele>
        <time>2020-05-31T04:51:26Z</time>
      </trkpt>
      <trkpt lat="44.03385" lon="1.64248">
        <ele>18600</ele>
        <time>2020-05-31T04:51:27Z</time>
      </trkpt>
      <trkpt lat="44.03386" lon="1.64245">
        <ele>18600</ele>
        <time>2020-05-31T04:51:28Z</time>
      </trkpt>
      <trkpt lat="44.03388" lon="1.64242">
        <ele>18600</ele>
        <time>2020-05-31T04:51:29Z</time>
      </trkpt>
      <trkpt lat="44.03389" lon="1.64239">
        <ele>18600</ele>
        <time>2020-05-31T04:51:30Z</time>
      </trkpt>
      <trkpt lat="44.03391" lon="1.64236">
        <ele>18700</ele>
        <time>2020-05-31T04:51:31Z</time>
      </trkpt>
      <trkpt lat="44.03393" lon="1.64233">
        <ele>18700</ele>
        <time>2020-05-31T04:51:32Z</time>
      </trkpt>
      <trkpt lat="44.03395" lon="1.6423">
        <ele>18700</ele>
        <time>2020-05-31T04:51:33Z</time>
      </trkpt>
      <trkpt lat="44.03397" lon="1.64228">
        <ele>18700</ele>
        <time>2020-05-31T04:51:34Z</time>
      </trkpt>
      <trkpt lat="44.03399" lon="1.64226">
        <ele>18700</ele>
        <time>2020-05-31T04:51:35Z</time>
      </trkpt>
      <trkpt lat="44.03401" lon="1.64224">
        <ele>18700</ele>
        <time>2020-05-31T04:51:36Z</time>
      </trkpt>
      <trkpt lat="44.03402" lon="1.64222">
        <ele>18700</ele>
        <time>2020-05-31T04:51:37Z</time>
      </trkpt>
      <trkpt lat="44.03404" lon="1.64219">
        <ele>18700</ele>
        <time>2020-05-31T04:51:37Z</time>
      </trkpt>
      <trkpt lat="44.03406" lon="1.64216">
        <ele>18700</ele>
        <time>2020-05-31T04:51:38Z</time>
      </trkpt>
      <trkpt lat="44.03407" lon="1.64214">
        <ele>18800</ele>
        <time>2020-05-31T04:51:39Z</time>
      </trkpt>
      <trkpt lat="44.0341" lon="1.64211">
        <ele>18800</ele>
        <time>2020-05-31T04:51:40Z</time>
      </trkpt>
      <trkpt lat="44.03411" lon="1.64208">
        <ele>18800</ele>
        <time>2020-05-31T04:51:41Z</time>
      </trkpt>
      <trkpt lat="44.03413" lon="1.64205">
        <ele>18800</ele>
        <time>2020-05-31T04:51:42Z</time>
      </trkpt>
      <trkpt lat="44.03415" lon="1.64203">
        <ele>18900</ele>
        <time>2020-05-31T04:51:43Z</time>
      </trkpt>
      <trkpt lat="44.03416" lon="1.642">
        <ele>18900</ele>
        <time>2020-05-31T04:51:44Z</time>
      </trkpt>
      <trkpt lat="44.03418" lon="1.64198">
        <ele>18900</ele>
        <time>2020-05-31T04:51:45Z</time>
      </trkpt>
      <trkpt lat="44.0342" lon="1.64196">
        <ele>18900</ele>
        <time>2020-05-31T04:51:46Z</time>
      </trkpt>
      <trkpt lat="44.03422" lon="1.64194">
        <ele>19000</ele>
        <time>2020-05-31T04:51:47Z</time>
      </trkpt>
      <trkpt lat="44.03423" lon="1.64192">
        <ele>19000</ele>
        <time>2020-05-31T04:51:48Z</time>
      </trkpt>
      <trkpt lat="44.03425" lon="1.64189">
        <ele>19000</ele>
        <time>2020-05-31T04:51:49Z</time>
      </trkpt>
      <trkpt lat="44.03427" lon="1.64186">
        <ele>19000</ele>
        <time>2020-05-31T04:51:50Z</time>
      </trkpt>
      <trkpt lat="44.03428" lon="1.64183">
        <ele>19000</ele>
        <time>2020-05-31T04:51:51Z</time>
      </trkpt>
      <trkpt lat="44.03431" lon="1.6418">
        <ele>19100</ele>
        <time>2020-05-31T04:51:52Z</time>
      </trkpt>
      <trkpt lat="44.03431" lon="1.64177">
        <ele>19100</ele>
        <time>2020-05-31T04:51:53Z</time>
      </trkpt>
      <trkpt lat="44.03434" lon="1.64173">
        <ele>19100</ele>
        <time>2020-05-31T04:51:54Z</time>
      </trkpt>
      <trkpt lat="44.03435" lon="1.6417">
        <ele>19100</ele>
        <time>2020-05-31T04:51:55Z</time>
      </trkpt>
      <trkpt lat="44.03437" lon="1.64167">
        <ele>19100</ele>
        <time>2020-05-31T04:51:56Z</time>
      </trkpt>
      <trkpt lat="44.03439" lon="1.64164">
        <ele>19200</ele>
        <time>2020-05-31T04:51:57Z</time>
      </trkpt>
      <trkpt lat="44.03441" lon="1.64161">
        <ele>19200</ele>
        <time>2020-05-31T04:51:58Z</time>
      </trkpt>
      <trkpt lat="44.03443" lon="1.64158">
        <ele>19200</ele>
        <time>2020-05-31T04:51:59Z</time>
      </trkpt>
      <trkpt lat="44.03445" lon="1.64154">
        <ele>19200</ele>
        <time>2020-05-31T04:52:00Z</time>
      </trkpt>
      <trkpt lat="44.03446" lon="1.64151">
        <ele>19200</ele>
        <time>2020-05-31T04:52:01Z</time>
      </trkpt>
      <trkpt lat="44.03449" lon="1.64147">
        <ele>19300</ele>
        <time>2020-05-31T04:52:02Z</time>
      </trkpt>
      <trkpt lat="44.0345" lon="1.64143">
        <ele>19300</ele>
        <time>2020-05-31T04:52:03Z</time>
      </trkpt>
      <trkpt lat="44.03452" lon="1.64139">
        <ele>19300</ele>
        <time>2020-05-31T04:52:04Z</time>
      </trkpt>
      <trkpt lat="44.03453" lon="1.64135">
        <ele>19300</ele>
        <time>2020-05-31T04:52:05Z</time>
      </trkpt>
      <trkpt lat="44.03455" lon="1.64131">
        <ele>19300</ele>
        <time>2020-05-31T04:52:06Z</time>
      </trkpt>
      <trkpt lat="44.03457" lon="1.64127">
        <ele>19300</ele>
        <time>2020-05-31T04:52:07Z</time>
      </trkpt>
      <trkpt lat="44.03457" lon="1.64123">
        <ele>19300</ele>
        <time>2020-05-31T04:52:08Z</time>
      </trkpt>
      <trkpt lat="44.03458" lon="1.64119">
        <ele>19300</ele>
        <time>2020-05-31T04:52:09Z</time>
      </trkpt>
      <trkpt lat="44.03458" lon="1.64115">
        <ele>19300</ele>
        <time>2020-05-31T04:52:10Z</time>
      </trkpt>
      <trkpt lat="44.03457" lon="1.64111">
        <ele>19400</ele>
        <time>2020-05-31T04:52:11Z</time>
      </trkpt>
      <trkpt lat="44.03456" lon="1.64107">
        <ele>19400</ele>
        <time>2020-05-31T04:52:12Z</time>
      </trkpt>
      <trkpt lat="44.03455" lon="1.64103">
        <ele>19400</ele>
        <time>2020-05-31T04:52:13Z</time>
      </trkpt>
      <trkpt lat="44.03453" lon="1.64099">
        <ele>19400</ele>
        <time>2020-05-31T04:52:14Z</time>
      </trkpt>
      <trkpt lat="44.03452" lon="1.64095">
        <ele>19400</ele>
        <time>2020-05-31T04:52:15Z</time>
      </trkpt>
      <trkpt lat="44.03449" lon="1.64091">
        <ele>19500</ele>
        <time>2020-05-31T04:52:16Z</time>
      </trkpt>
      <trkpt lat="44.03447" lon="1.64088">
        <ele>19500</ele>
        <time>2020-05-31T04:52:17Z</time>
      </trkpt>
      <trkpt lat="44.03446" lon="1.64084">
        <ele>19500</ele>
        <time>2020-05-31T04:52:18Z</time>
      </trkpt>
      <trkpt lat="44.03444" lon="1.64081">
        <ele>19500</ele>
        <time>2020-05-31T04:52:19Z</time>
      </trkpt>
      <trkpt lat="44.03443" lon="1.64077">
        <ele>19500</ele>
        <time>2020-05-31T04:52:20Z</time>
      </trkpt>
      <trkpt lat="44.03442" lon="1.64073">
        <ele>19600</ele>
        <time>2020-05-31T04:52:21Z</time>
      </trkpt>
      <trkpt lat="44.0344" lon="1.64069">
        <ele>19600</ele>
        <time>2020-05-31T04:52:22Z</time>
      </trkpt>
      <trkpt lat="44.03439" lon="1.64066">
        <ele>19600</ele>
        <time>2020-05-31T04:52:23Z</time>
      </trkpt>
      <trkpt lat="44.03437" lon="1.64062">
        <ele>19600</ele>
        <time>2020-05-31T04:52:24Z</time>
      </trkpt>
      <trkpt lat="44.03435" lon="1.64058">
        <ele>19600</ele>
        <time>2020-05-31T04:52:25Z</time>
      </trkpt>
      <trkpt lat="44.03433" lon="1.64055">
        <ele>19600</ele>
        <time>2020-05-31T04:52:26Z</time>
      </trkpt>
      <trkpt lat="44.03431" lon="1.64051">
        <ele>19600</ele>
        <time>2020-05-31T04:52:27Z</time>
      </trkpt>
      <trkpt lat="44.03428" lon="1.64047">
        <ele>19600</ele>
        <time>2020-05-31T04:52:28Z</time>
      </trkpt>
      <trkpt lat="44.03425" lon="1.64043">
        <ele>19600</ele>
        <time>2020-05-31T04:52:29Z</time>
      </trkpt>
      <trkpt lat="44.03423" lon="1.64038">
        <ele>19600</ele>
        <time>2020-05-31T04:52:30Z</time>
      </trkpt>
      <trkpt lat="44.03421" lon="1.64035">
        <ele>19600</ele>
        <time>2020-05-31T04:52:31Z</time>
      </trkpt>
      <trkpt lat="44.03419" lon="1.64032">
        <ele>19600</ele>
        <time>2020-05-31T04:52:32Z</time>
      </trkpt>
      <trkpt lat="44.03416" lon="1.6403">
        <ele>19600</ele>
        <time>2020-05-31T04:52:33Z</time>
      </trkpt>
      <trkpt lat="44.03414" lon="1.64029">
        <ele>19600</ele>
        <time>2020-05-31T04:52:34Z</time>
      </trkpt>
      <trkpt lat="44.03412" lon="1.64028">
        <ele>19600</ele>
        <time>2020-05-31T04:52:35Z</time>
      </trkpt>
      <trkpt lat="44.03408" lon="1.64028">
        <ele>19500</ele>
        <time>2020-05-31T04:52:36Z</time>
      </trkpt>
      <trkpt lat="44.03405" lon="1.64029">
        <ele>19500</ele>
        <time>2020-05-31T04:52:37Z</time>
      </trkpt>
      <trkpt lat="44.03402" lon="1.6403">
        <ele>19500</ele>
        <time>2020-05-31T04:52:38Z</time>
      </trkpt>
      <trkpt lat="44.03398" lon="1.64031">
        <ele>19500</ele>
        <time>2020-05-31T04:52:39Z</time>
      </trkpt>
      <trkpt lat="44.03395" lon="1.64032">
        <ele>19500</ele>
        <time>2020-05-31T04:52:40Z</time>
      </trkpt>
      <trkpt lat="44.03391" lon="1.64034">
        <ele>19500</ele>
        <time>2020-05-31T04:52:41Z</time>
      </trkpt>
      <trkpt lat="44.03388" lon="1.64036">
        <ele>19500</ele>
        <time>2020-05-31T04:52:42Z</time>
      </trkpt>
      <trkpt lat="44.03384" lon="1.64038">
        <ele>19500</ele>
        <time>2020-05-31T04:52:43Z</time>
      </trkpt>
      <trkpt lat="44.03381" lon="1.6404">
        <ele>19500</ele>
        <time>2020-05-31T04:52:44Z</time>
      </trkpt>
      <trkpt lat="44.03377" lon="1.64042">
        <ele>19500</ele>
        <time>2020-05-31T04:52:45Z</time>
      </trkpt>
      <trkpt lat="44.03374" lon="1.64044">
        <ele>19500</ele>
        <time>2020-05-31T04:52:46Z</time>
      </trkpt>
      <trkpt lat="44.0337" lon="1.64045">
        <ele>19500</ele>
        <time>2020-05-31T04:52:47Z</time>
      </trkpt>
      <trkpt lat="44.03366" lon="1.64047">
        <ele>19500</ele>
        <time>2020-05-31T04:52:48Z</time>
      </trkpt>
      <trkpt lat="44.03362" lon="1.64049">
        <ele>19500</ele>
        <time>2020-05-31T04:52:49Z</time>
      </trkpt>
      <trkpt lat="44.03358" lon="1.64051">
        <ele>19500</ele>
        <time>2020-05-31T04:52:50Z</time>
      </trkpt>
      <trkpt lat="44.03354" lon="1.64053">
        <ele>19500</ele>
        <time>2020-05-31T04:52:51Z</time>
      </trkpt>
      <trkpt lat="44.0335" lon="1.64055">
        <ele>19500</ele>
        <time>2020-05-31T04:52:52Z</time>
      </trkpt>
      <trkpt lat="44.03345" lon="1.64058">
        <ele>19500</ele>
        <time>2020-05-31T04:52:53Z</time>
      </trkpt>
      <trkpt lat="44.03341" lon="1.6406">
        <ele>19500</ele>
        <time>2020-05-31T04:52:55Z</time>
      </trkpt>
      <trkpt lat="44.03337" lon="1.64062">
        <ele>19500</ele>
        <time>2020-05-31T04:52:55Z</time>
      </trkpt>
      <trkpt lat="44.03333" lon="1.64064">
        <ele>19500</ele>
        <time>2020-05-31T04:52:56Z</time>
      </trkpt>
      <trkpt lat="44.03329" lon="1.64066">
        <ele>19500</ele>
        <time>2020-05-31T04:52:57Z</time>
      </trkpt>
      <trkpt lat="44.03325" lon="1.64067">
        <ele>19500</ele>
        <time>2020-05-31T04:52:58Z</time>
      </trkpt>
      <trkpt lat="44.03322" lon="1.64068">
        <ele>19500</ele>
        <time>2020-05-31T04:52:59Z</time>
      </trkpt>
      <trkpt lat="44.03318" lon="1.6407">
        <ele>19500</ele>
        <time>2020-05-31T04:53:00Z</time>
      </trkpt>
      <trkpt lat="44.03314" lon="1.64073">
        <ele>19500</ele>
        <time>2020-05-31T04:53:01Z</time>
      </trkpt>
      <trkpt lat="44.03311" lon="1.64076">
        <ele>19500</ele>
        <time>2020-05-31T04:53:02Z</time>
      </trkpt>
      <trkpt lat="44.03307" lon="1.64078">
        <ele>19500</ele>
        <time>2020-05-31T04:53:03Z</time>
      </trkpt>
      <trkpt lat="44.03304" lon="1.64081">
        <ele>19400</ele>
        <time>2020-05-31T04:53:04Z</time>
      </trkpt>
      <trkpt lat="44.03299" lon="1.64084">
        <ele>19400</ele>
        <time>2020-05-31T04:53:05Z</time>
      </trkpt>
      <trkpt lat="44.03296" lon="1.64088">
        <ele>19400</ele>
        <time>2020-05-31T04:53:06Z</time>
      </trkpt>
      <trkpt lat="44.03292" lon="1.64091">
        <ele>19400</ele>
        <time>2020-05-31T04:53:07Z</time>
      </trkpt>
      <trkpt lat="44.03288" lon="1.64095">
        <ele>19400</ele>
        <time>2020-05-31T04:53:08Z</time>
      </trkpt>
      <trkpt lat="44.03283" lon="1.64099">
        <ele>19400</ele>
        <time>2020-05-31T04:53:09Z</time>
      </trkpt>
      <trkpt lat="44.03279" lon="1.64103">
        <ele>19300</ele>
        <time>2020-05-31T04:53:10Z</time>
      </trkpt>
      <trkpt lat="44.03274" lon="1.64106">
        <ele>19300</ele>
        <time>2020-05-31T04:53:11Z</time>
      </trkpt>
      <trkpt lat="44.0327" lon="1.64109">
        <ele>19300</ele>
        <time>2020-05-31T04:53:12Z</time>
      </trkpt>
      <trkpt lat="44.03265" lon="1.64111">
        <ele>19300</ele>
        <time>2020-05-31T04:53:13Z</time>
      </trkpt>
      <trkpt lat="44.0326" lon="1.64114">
        <ele>19300</ele>
        <time>2020-05-31T04:53:14Z</time>
      </trkpt>
      <trkpt lat="44.03256" lon="1.64116">
        <ele>19300</ele>
        <time>2020-05-31T04:53:15Z</time>
      </trkpt>
      <trkpt lat="44.03251" lon="1.64119">
        <ele>19300</ele>
        <time>2020-05-31T04:53:16Z</time>
      </trkpt>
      <trkpt lat="44.03246" lon="1.64121">
        <ele>19300</ele>
        <time>2020-05-31T04:53:17Z</time>
      </trkpt>
      <trkpt lat="44.03241" lon="1.64124">
        <ele>19300</ele>
        <time>2020-05-31T04:53:18Z</time>
      </trkpt>
      <trkpt lat="44.03235" lon="1.64128">
        <ele>19300</ele>
        <time>2020-05-31T04:53:19Z</time>
      </trkpt>
      <trkpt lat="44.03229" lon="1.64131">
        <ele>19200</ele>
        <time>2020-05-31T04:53:20Z</time>
      </trkpt>
      <trkpt lat="44.03223" lon="1.64134">
        <ele>19200</ele>
        <time>2020-05-31T04:53:21Z</time>
      </trkpt>
      <trkpt lat="44.03218" lon="1.64137">
        <ele>19200</ele>
        <time>2020-05-31T04:53:22Z</time>
      </trkpt>
      <trkpt lat="44.03213" lon="1.64139">
        <ele>19200</ele>
        <time>2020-05-31T04:53:23Z</time>
      </trkpt>
      <trkpt lat="44.03208" lon="1.64141">
        <ele>19200</ele>
        <time>2020-05-31T04:53:24Z</time>
      </trkpt>
      <trkpt lat="44.03203" lon="1.64143">
        <ele>19100</ele>
        <time>2020-05-31T04:53:25Z</time>
      </trkpt>
      <trkpt lat="44.03198" lon="1.64146">
        <ele>19100</ele>
        <time>2020-05-31T04:53:26Z</time>
      </trkpt>
      <trkpt lat="44.03193" lon="1.64149">
        <ele>19100</ele>
        <time>2020-05-31T04:53:27Z</time>
      </trkpt>
      <trkpt lat="44.03189" lon="1.64152">
        <ele>19100</ele>
        <time>2020-05-31T04:53:28Z</time>
      </trkpt>
      <trkpt lat="44.03184" lon="1.64154">
        <ele>19100</ele>
        <time>2020-05-31T04:53:29Z</time>
      </trkpt>
      <trkpt lat="44.0318" lon="1.64157">
        <ele>19100</ele>
        <time>2020-05-31T04:53:30Z</time>
      </trkpt>
      <trkpt lat="44.03174" lon="1.64159">
        <ele>19100</ele>
        <time>2020-05-31T04:53:31Z</time>
      </trkpt>
      <trkpt lat="44.03168" lon="1.64162">
        <ele>19100</ele>
        <time>2020-05-31T04:53:32Z</time>
      </trkpt>
      <trkpt lat="44.03163" lon="1.64164">
        <ele>19100</ele>
        <time>2020-05-31T04:53:33Z</time>
      </trkpt>
      <trkpt lat="44.03157" lon="1.64167">
        <ele>19100</ele>
        <time>2020-05-31T04:53:34Z</time>
      </trkpt>
      <trkpt lat="44.03151" lon="1.6417">
        <ele>19100</ele>
        <time>2020-05-31T04:53:35Z</time>
      </trkpt>
      <trkpt lat="44.03145" lon="1.64173">
        <ele>19100</ele>
        <time>2020-05-31T04:53:36Z</time>
      </trkpt>
      <trkpt lat="44.0314" lon="1.64175">
        <ele>19100</ele>
        <time>2020-05-31T04:53:37Z</time>
      </trkpt>
      <trkpt lat="44.03135" lon="1.64178">
        <ele>19100</ele>
        <time>2020-05-31T04:53:38Z</time>
      </trkpt>
      <trkpt lat="44.03129" lon="1.6418">
        <ele>19100</ele>
        <time>2020-05-31T04:53:39Z</time>
      </trkpt>
      <trkpt lat="44.03124" lon="1.64182">
        <ele>19100</ele>
        <time>2020-05-31T04:53:40Z</time>
      </trkpt>
      <trkpt lat="44.0312" lon="1.64184">
        <ele>19100</ele>
        <time>2020-05-31T04:53:41Z</time>
      </trkpt>
      <trkpt lat="44.03114" lon="1.64186">
        <ele>19000</ele>
        <time>2020-05-31T04:53:42Z</time>
      </trkpt>
      <trkpt lat="44.03109" lon="1.64187">
        <ele>19000</ele>
        <time>2020-05-31T04:53:43Z</time>
      </trkpt>
      <trkpt lat="44.03104" lon="1.64188">
        <ele>19000</ele>
        <time>2020-05-31T04:53:44Z</time>
      </trkpt>
      <trkpt lat="44.03098" lon="1.64188">
        <ele>19000</ele>
        <time>2020-05-31T04:53:45Z</time>
      </trkpt>
      <trkpt lat="44.03093" lon="1.64187">
        <ele>19000</ele>
        <time>2020-05-31T04:53:46Z</time>
      </trkpt>
      <trkpt lat="44.03087" lon="1.64185">
        <ele>19000</ele>
        <time>2020-05-31T04:53:47Z</time>
      </trkpt>
      <trkpt lat="44.03082" lon="1.64182">
        <ele>18900</ele>
        <time>2020-05-31T04:53:48Z</time>
      </trkpt>
      <trkpt lat="44.03076" lon="1.64178">
        <ele>18900</ele>
        <time>2020-05-31T04:53:49Z</time>
      </trkpt>
      <trkpt lat="44.03072" lon="1.64174">
        <ele>18900</ele>
        <time>2020-05-31T04:53:50Z</time>
      </trkpt>
      <trkpt lat="44.03067" lon="1.64169">
        <ele>18900</ele>
        <time>2020-05-31T04:53:51Z</time>
      </trkpt>
      <trkpt lat="44.03063" lon="1.64163">
        <ele>18900</ele>
        <time>2020-05-31T04:53:52Z</time>
      </trkpt>
      <trkpt lat="44.03059" lon="1.64157">
        <ele>18900</ele>
        <time>2020-05-31T04:53:53Z</time>
      </trkpt>
      <trkpt lat="44.03055" lon="1.64151">
        <ele>18800</ele>
        <time>2020-05-31T04:53:54Z</time>
      </trkpt>
      <trkpt lat="44.03051" lon="1.64144">
        <ele>18800</ele>
        <time>2020-05-31T04:53:55Z</time>
      </trkpt>
      <trkpt lat="44.03048" lon="1.64137">
        <ele>18800</ele>
        <time>2020-05-31T04:53:56Z</time>
      </trkpt>
      <trkpt lat="44.03045" lon="1.6413">
        <ele>18800</ele>
        <time>2020-05-31T04:53:57Z</time>
      </trkpt>
      <trkpt lat="44.03042" lon="1.64123">
        <ele>18800</ele>
        <time>2020-05-31T04:53:58Z</time>
      </trkpt>
      <trkpt lat="44.03038" lon="1.64115">
        <ele>18700</ele>
        <time>2020-05-31T04:53:59Z</time>
      </trkpt>
      <trkpt lat="44.03035" lon="1.64108">
        <ele>18700</ele>
        <time>2020-05-31T04:54:00Z</time>
      </trkpt>
      <trkpt lat="44.03032" lon="1.641">
        <ele>18700</ele>
        <time>2020-05-31T04:54:01Z</time>
      </trkpt>
      <trkpt lat="44.0303" lon="1.64092">
        <ele>18700</ele>
        <time>2020-05-31T04:54:02Z</time>
      </trkpt>
      <trkpt lat="44.03027" lon="1.64084">
        <ele>18600</ele>
        <time>2020-05-31T04:54:03Z</time>
      </trkpt>
      <trkpt lat="44.03024" lon="1.64076">
        <ele>18600</ele>
        <time>2020-05-31T04:54:04Z</time>
      </trkpt>
      <trkpt lat="44.03021" lon="1.64068">
        <ele>18600</ele>
        <time>2020-05-31T04:54:05Z</time>
      </trkpt>
      <trkpt lat="44.03018" lon="1.6406">
        <ele>18600</ele>
        <time>2020-05-31T04:54:06Z</time>
      </trkpt>
      <trkpt lat="44.03015" lon="1.64052">
        <ele>18600</ele>
        <time>2020-05-31T04:54:07Z</time>
      </trkpt>
      <trkpt lat="44.03011" lon="1.64044">
        <ele>18600</ele>
        <time>2020-05-31T04:54:08Z</time>
      </trkpt>
      <trkpt lat="44.03008" lon="1.64036">
        <ele>18600</ele>
        <time>2020-05-31T04:54:09Z</time>
      </trkpt>
      <trkpt lat="44.03005" lon="1.64028">
        <ele>18500</ele>
        <time>2020-05-31T04:54:10Z</time>
      </trkpt>
      <trkpt lat="44.03001" lon="1.64019">
        <ele>18500</ele>
        <time>2020-05-31T04:54:11Z</time>
      </trkpt>
      <trkpt lat="44.02997" lon="1.64011">
        <ele>18500</ele>
        <time>2020-05-31T04:54:12Z</time>
      </trkpt>
      <trkpt lat="44.02994" lon="1.64002">
        <ele>18400</ele>
        <time>2020-05-31T04:54:13Z</time>
      </trkpt>
      <trkpt lat="44.0299" lon="1.63993">
        <ele>18400</ele>
        <time>2020-05-31T04:54:14Z</time>
      </trkpt>
      <trkpt lat="44.02985" lon="1.63984">
        <ele>18300</ele>
        <time>2020-05-31T04:54:15Z</time>
      </trkpt>
      <trkpt lat="44.0298" lon="1.63975">
        <ele>18300</ele>
        <time>2020-05-31T04:54:16Z</time>
      </trkpt>
      <trkpt lat="44.02976" lon="1.63966">
        <ele>18200</ele>
        <time>2020-05-31T04:54:17Z</time>
      </trkpt>
      <trkpt lat="44.02971" lon="1.63956">
        <ele>18200</ele>
        <time>2020-05-31T04:54:18Z</time>
      </trkpt>
      <trkpt lat="44.02967" lon="1.63947">
        <ele>18100</ele>
        <time>2020-05-31T04:54:19Z</time>
      </trkpt>
      <trkpt lat="44.02961" lon="1.63938">
        <ele>18100</ele>
        <time>2020-05-31T04:54:20Z</time>
      </trkpt>
      <trkpt lat="44.02956" lon="1.63929">
        <ele>17900</ele>
        <time>2020-05-31T04:54:21Z</time>
      </trkpt>
      <trkpt lat="44.02951" lon="1.63921">
        <ele>17900</ele>
        <time>2020-05-31T04:54:22Z</time>
      </trkpt>
      <trkpt lat="44.02945" lon="1.63914">
        <ele>17900</ele>
        <time>2020-05-31T04:54:23Z</time>
      </trkpt>
      <trkpt lat="44.02939" lon="1.63909">
        <ele>17900</ele>
        <time>2020-05-31T04:54:24Z</time>
      </trkpt>
      <trkpt lat="44.02933" lon="1.63905">
        <ele>17900</ele>
        <time>2020-05-31T04:54:25Z</time>
      </trkpt>
      <trkpt lat="44.02927" lon="1.63903">
        <ele>17800</ele>
        <time>2020-05-31T04:54:26Z</time>
      </trkpt>
      <trkpt lat="44.0292" lon="1.63903">
        <ele>17800</ele>
        <time>2020-05-31T04:54:27Z</time>
      </trkpt>
      <trkpt lat="44.02914" lon="1.63905">
        <ele>17800</ele>
        <time>2020-05-31T04:54:28Z</time>
      </trkpt>
      <trkpt lat="44.02908" lon="1.63908">
        <ele>17600</ele>
        <time>2020-05-31T04:54:29Z</time>
      </trkpt>
      <trkpt lat="44.02902" lon="1.63913">
        <ele>17600</ele>
        <time>2020-05-31T04:54:30Z</time>
      </trkpt>
      <trkpt lat="44.02897" lon="1.63919">
        <ele>17600</ele>
        <time>2020-05-31T04:54:31Z</time>
      </trkpt>
      <trkpt lat="44.02891" lon="1.63926">
        <ele>17600</ele>
        <time>2020-05-31T04:54:32Z</time>
      </trkpt>
      <trkpt lat="44.02885" lon="1.63933">
        <ele>17600</ele>
        <time>2020-05-31T04:54:33Z</time>
      </trkpt>
      <trkpt lat="44.02879" lon="1.63941">
        <ele>17500</ele>
        <time>2020-05-31T04:54:34Z</time>
      </trkpt>
      <trkpt lat="44.02874" lon="1.6395">
        <ele>17500</ele>
        <time>2020-05-31T04:54:35Z</time>
      </trkpt>
      <trkpt lat="44.02869" lon="1.63959">
        <ele>17400</ele>
        <time>2020-05-31T04:54:36Z</time>
      </trkpt>
      <trkpt lat="44.02863" lon="1.63968">
        <ele>17400</ele>
        <time>2020-05-31T04:54:37Z</time>
      </trkpt>
      <trkpt lat="44.02858" lon="1.63977">
        <ele>17400</ele>
        <time>2020-05-31T04:54:38Z</time>
      </trkpt>
      <trkpt lat="44.02853" lon="1.63987">
        <ele>17300</ele>
        <time>2020-05-31T04:54:39Z</time>
      </trkpt>
      <trkpt lat="44.02847" lon="1.63996">
        <ele>17300</ele>
        <time>2020-05-31T04:54:40Z</time>
      </trkpt>
      <trkpt lat="44.02842" lon="1.64005">
        <ele>17300</ele>
        <time>2020-05-31T04:54:41Z</time>
      </trkpt>
      <trkpt lat="44.02837" lon="1.64013">
        <ele>17300</ele>
        <time>2020-05-31T04:54:42Z</time>
      </trkpt>
      <trkpt lat="44.02831" lon="1.64022">
        <ele>17300</ele>
        <time>2020-05-31T04:54:43Z</time>
      </trkpt>
      <trkpt lat="44.02827" lon="1.6403">
        <ele>17300</ele>
        <time>2020-05-31T04:54:44Z</time>
      </trkpt>
      <trkpt lat="44.02822" lon="1.64038">
        <ele>17300</ele>
        <time>2020-05-31T04:54:45Z</time>
      </trkpt>
      <trkpt lat="44.02817" lon="1.64046">
        <ele>17200</ele>
        <time>2020-05-31T04:54:46Z</time>
      </trkpt>
      <trkpt lat="44.02813" lon="1.64055">
        <ele>17200</ele>
        <time>2020-05-31T04:54:47Z</time>
      </trkpt>
      <trkpt lat="44.02807" lon="1.64063">
        <ele>17200</ele>
        <time>2020-05-31T04:54:48Z</time>
      </trkpt>
      <trkpt lat="44.02803" lon="1.64071">
        <ele>17200</ele>
        <time>2020-05-31T04:54:49Z</time>
      </trkpt>
      <trkpt lat="44.02798" lon="1.64079">
        <ele>17100</ele>
        <time>2020-05-31T04:54:50Z</time>
      </trkpt>
      <trkpt lat="44.02792" lon="1.64088">
        <ele>17100</ele>
        <time>2020-05-31T04:54:51Z</time>
      </trkpt>
      <trkpt lat="44.02787" lon="1.64096">
        <ele>17000</ele>
        <time>2020-05-31T04:54:52Z</time>
      </trkpt>
      <trkpt lat="44.02782" lon="1.64103">
        <ele>17000</ele>
        <time>2020-05-31T04:54:53Z</time>
      </trkpt>
      <trkpt lat="44.02776" lon="1.64109">
        <ele>17000</ele>
        <time>2020-05-31T04:54:54Z</time>
      </trkpt>
      <trkpt lat="44.02768" lon="1.64115">
        <ele>16900</ele>
        <time>2020-05-31T04:54:55Z</time>
      </trkpt>
      <trkpt lat="44.02761" lon="1.64118">
        <ele>16900</ele>
        <time>2020-05-31T04:54:56Z</time>
      </trkpt>
      <trkpt lat="44.02753" lon="1.6412">
        <ele>16800</ele>
        <time>2020-05-31T04:54:57Z</time>
      </trkpt>
      <trkpt lat="44.02744" lon="1.6412">
        <ele>16800</ele>
        <time>2020-05-31T04:54:58Z</time>
      </trkpt>
      <trkpt lat="44.02737" lon="1.64116">
        <ele>16700</ele>
        <time>2020-05-31T04:54:59Z</time>
      </trkpt>
      <trkpt lat="44.02731" lon="1.6411">
        <ele>16700</ele>
        <time>2020-05-31T04:55:00Z</time>
      </trkpt>
      <trkpt lat="44.02726" lon="1.64101">
        <ele>16600</ele>
        <time>2020-05-31T04:55:01Z</time>
      </trkpt>
      <trkpt lat="44.02723" lon="1.64091">
        <ele>16600</ele>
        <time>2020-05-31T04:55:02Z</time>
      </trkpt>
      <trkpt lat="44.02721" lon="1.6408">
        <ele>16600</ele>
        <time>2020-05-31T04:55:03Z</time>
      </trkpt>
      <trkpt lat="44.0272" lon="1.64068">
        <ele>16400</ele>
        <time>2020-05-31T04:55:04Z</time>
      </trkpt>
      <trkpt lat="44.0272" lon="1.64056">
        <ele>16400</ele>
        <time>2020-05-31T04:55:05Z</time>
      </trkpt>
      <trkpt lat="44.0272" lon="1.64044">
        <ele>16300</ele>
        <time>2020-05-31T04:55:06Z</time>
      </trkpt>
      <trkpt lat="44.02719" lon="1.64031">
        <ele>16300</ele>
        <time>2020-05-31T04:55:07Z</time>
      </trkpt>
      <trkpt lat="44.02718" lon="1.64019">
        <ele>16200</ele>
        <time>2020-05-31T04:55:08Z</time>
      </trkpt>
      <trkpt lat="44.02717" lon="1.64006">
        <ele>16200</ele>
        <time>2020-05-31T04:55:09Z</time>
      </trkpt>
      <trkpt lat="44.02715" lon="1.63993">
        <ele>16100</ele>
        <time>2020-05-31T04:55:10Z</time>
      </trkpt>
      <trkpt lat="44.02713" lon="1.6398">
        <ele>16100</ele>
        <time>2020-05-31T04:55:11Z</time>
      </trkpt>
      <trkpt lat="44.0271" lon="1.63967">
        <ele>16000</ele>
        <time>2020-05-31T04:55:12Z</time>
      </trkpt>
      <trkpt lat="44.02707" lon="1.63954">
        <ele>16000</ele>
        <time>2020-05-31T04:55:13Z</time>
      </trkpt>
      <trkpt lat="44.02704" lon="1.63941">
        <ele>15800</ele>
        <time>2020-05-31T04:55:14Z</time>
      </trkpt>
      <trkpt lat="44.02701" lon="1.63928">
        <ele>15800</ele>
        <time>2020-05-31T04:55:15Z</time>
      </trkpt>
      <trkpt lat="44.02698" lon="1.63914">
        <ele>15700</ele>
        <time>2020-05-31T04:55:16Z</time>
      </trkpt>
      <trkpt lat="44.02695" lon="1.639">
        <ele>15700</ele>
        <time>2020-05-31T04:55:17Z</time>
      </trkpt>
      <trkpt lat="44.02692" lon="1.63887">
        <ele>15600</ele>
        <time>2020-05-31T04:55:18Z</time>
      </trkpt>
      <trkpt lat="44.02689" lon="1.63873">
        <ele>15600</ele>
        <time>2020-05-31T04:55:19Z</time>
      </trkpt>
      <trkpt lat="44.02685" lon="1.6386">
        <ele>15500</ele>
        <time>2020-05-31T04:55:20Z</time>
      </trkpt>
      <trkpt lat="44.02681" lon="1.63846">
        <ele>15500</ele>
        <time>2020-05-31T04:55:21Z</time>
      </trkpt>
      <trkpt lat="44.02678" lon="1.63832">
        <ele>15400</ele>
        <time>2020-05-31T04:55:22Z</time>
      </trkpt>
      <trkpt lat="44.02674" lon="1.63819">
        <ele>15400</ele>
        <time>2020-05-31T04:55:23Z</time>
      </trkpt>
      <trkpt lat="44.0267" lon="1.63805">
        <ele>15300</ele>
        <time>2020-05-31T04:55:24Z</time>
      </trkpt>
      <trkpt lat="44.02667" lon="1.63792">
        <ele>15300</ele>
        <time>2020-05-31T04:55:25Z</time>
      </trkpt>
      <trkpt lat="44.02663" lon="1.63778">
        <ele>15200</ele>
        <time>2020-05-31T04:55:26Z</time>
      </trkpt>
      <trkpt lat="44.0266" lon="1.63764">
        <ele>15200</ele>
        <time>2020-05-31T04:55:27Z</time>
      </trkpt>
      <trkpt lat="44.02657" lon="1.63751">
        <ele>15100</ele>
        <time>2020-05-31T04:55:28Z</time>
      </trkpt>
      <trkpt lat="44.02653" lon="1.63738">
        <ele>15100</ele>
        <time>2020-05-31T04:55:29Z</time>
      </trkpt>
      <trkpt lat="44.0265" lon="1.63725">
        <ele>15000</ele>
        <time>2020-05-31T04:55:30Z</time>
      </trkpt>
      <trkpt lat="44.02647" lon="1.63711">
        <ele>15000</ele>
        <time>2020-05-31T04:55:31Z</time>
      </trkpt>
      <trkpt lat="44.02644" lon="1.63699">
        <ele>15000</ele>
        <time>2020-05-31T04:55:32Z</time>
      </trkpt>
      <trkpt lat="44.02641" lon="1.63686">
        <ele>15000</ele>
        <time>2020-05-31T04:55:33Z</time>
      </trkpt>
      <trkpt lat="44.02638" lon="1.63674">
        <ele>15000</ele>
        <time>2020-05-31T04:55:34Z</time>
      </trkpt>
      <trkpt lat="44.02634" lon="1.63663">
        <ele>15000</ele>
        <time>2020-05-31T04:55:35Z</time>
      </trkpt>
      <trkpt lat="44.0263" lon="1.63652">
        <ele>14900</ele>
        <time>2020-05-31T04:55:36Z</time>
      </trkpt>
      <trkpt lat="44.02626" lon="1.63642">
        <ele>14900</ele>
        <time>2020-05-31T04:55:37Z</time>
      </trkpt>
      <trkpt lat="44.0262" lon="1.63633">
        <ele>14900</ele>
        <time>2020-05-31T04:55:38Z</time>
      </trkpt>
      <trkpt lat="44.02616" lon="1.63624">
        <ele>14900</ele>
        <time>2020-05-31T04:55:39Z</time>
      </trkpt>
      <trkpt lat="44.0261" lon="1.63616">
        <ele>14900</ele>
        <time>2020-05-31T04:55:40Z</time>
      </trkpt>
      <trkpt lat="44.02605" lon="1.63608">
        <ele>14900</ele>
        <time>2020-05-31T04:55:41Z</time>
      </trkpt>
      <trkpt lat="44.02599" lon="1.63601">
        <ele>14900</ele>
        <time>2020-05-31T04:55:42Z</time>
      </trkpt>
      <trkpt lat="44.02594" lon="1.63594">
        <ele>14900</ele>
        <time>2020-05-31T04:55:43Z</time>
      </trkpt>
      <trkpt lat="44.02589" lon="1.63588">
        <ele>14900</ele>
        <time>2020-05-31T04:55:44Z</time>
      </trkpt>
      <trkpt lat="44.02583" lon="1.63582">
        <ele>14900</ele>
        <time>2020-05-31T04:55:45Z</time>
      </trkpt>
      <trkpt lat="44.02578" lon="1.63576">
        <ele>14900</ele>
        <time>2020-05-31T04:55:46Z</time>
      </trkpt>
      <trkpt lat="44.02572" lon="1.6357">
        <ele>14900</ele>
        <time>2020-05-31T04:55:47Z</time>
      </trkpt>
      <trkpt lat="44.02567" lon="1.63564">
        <ele>14900</ele>
        <time>2020-05-31T04:55:48Z</time>
      </trkpt>
      <trkpt lat="44.02561" lon="1.63559">
        <ele>14900</ele>
        <time>2020-05-31T04:55:49Z</time>
      </trkpt>
      <trkpt lat="44.02556" lon="1.63554">
        <ele>14900</ele>
        <time>2020-05-31T04:55:50Z</time>
      </trkpt>
      <trkpt lat="44.0255" lon="1.63549">
        <ele>14900</ele>
        <time>2020-05-31T04:55:51Z</time>
      </trkpt>
      <trkpt lat="44.02545" lon="1.63544">
        <ele>14900</ele>
        <time>2020-05-31T04:55:52Z</time>
      </trkpt>
      <trkpt lat="44.0254" lon="1.6354">
        <ele>14900</ele>
        <time>2020-05-31T04:55:52Z</time>
      </trkpt>
      <trkpt lat="44.02535" lon="1.63535">
        <ele>14900</ele>
        <time>2020-05-31T04:55:53Z</time>
      </trkpt>
      <trkpt lat="44.0253" lon="1.63531">
        <ele>14900</ele>
        <time>2020-05-31T04:55:54Z</time>
      </trkpt>
      <trkpt lat="44.02526" lon="1.63527">
        <ele>14900</ele>
        <time>2020-05-31T04:55:55Z</time>
      </trkpt>
      <trkpt lat="44.02522" lon="1.63522">
        <ele>14900</ele>
        <time>2020-05-31T04:55:56Z</time>
      </trkpt>
      <trkpt lat="44.02519" lon="1.63518">
        <ele>14900</ele>
        <time>2020-05-31T04:55:57Z</time>
      </trkpt>
      <trkpt lat="44.02515" lon="1.63513">
        <ele>14900</ele>
        <time>2020-05-31T04:55:58Z</time>
      </trkpt>
      <trkpt lat="44.02511" lon="1.63509">
        <ele>14900</ele>
        <time>2020-05-31T04:55:59Z</time>
      </trkpt>
      <trkpt lat="44.02508" lon="1.63505">
        <ele>14900</ele>
        <time>2020-05-31T04:56:00Z</time>
      </trkpt>
      <trkpt lat="44.02505" lon="1.63501">
        <ele>14900</ele>
        <time>2020-05-31T04:56:01Z</time>
      </trkpt>
      <trkpt lat="44.02502" lon="1.63496">
        <ele>14900</ele>
        <time>2020-05-31T04:56:02Z</time>
      </trkpt>
      <trkpt lat="44.02499" lon="1.63492">
        <ele>14900</ele>
        <time>2020-05-31T04:56:03Z</time>
      </trkpt>
      <trkpt lat="44.02496" lon="1.63488">
        <ele>14900</ele>
        <time>2020-05-31T04:56:04Z</time>
      </trkpt>
      <trkpt lat="44.02491" lon="1.63484">
        <ele>14900</ele>
        <time>2020-05-31T04:56:05Z</time>
      </trkpt>
      <trkpt lat="44.02488" lon="1.6348">
        <ele>14900</ele>
        <time>2020-05-31T04:56:06Z</time>
      </trkpt>
      <trkpt lat="44.02484" lon="1.63476">
        <ele>14900</ele>
        <time>2020-05-31T04:56:07Z</time>
      </trkpt>
      <trkpt lat="44.0248" lon="1.63472">
        <ele>14900</ele>
        <time>2020-05-31T04:56:08Z</time>
      </trkpt>
      <trkpt lat="44.02477" lon="1.63468">
        <ele>14900</ele>
        <time>2020-05-31T04:56:09Z</time>
      </trkpt>
      <trkpt lat="44.02472" lon="1.63464">
        <ele>14900</ele>
        <time>2020-05-31T04:56:10Z</time>
      </trkpt>
      <trkpt lat="44.02469" lon="1.63459">
        <ele>14900</ele>
        <time>2020-05-31T04:56:11Z</time>
      </trkpt>
      <trkpt lat="44.02465" lon="1.63455">
        <ele>14900</ele>
        <time>2020-05-31T04:56:12Z</time>
      </trkpt>
      <trkpt lat="44.02461" lon="1.63451">
        <ele>14900</ele>
        <time>2020-05-31T04:56:13Z</time>
      </trkpt>
      <trkpt lat="44.02457" lon="1.63446">
        <ele>14900</ele>
        <time>2020-05-31T04:56:14Z</time>
      </trkpt>
      <trkpt lat="44.02454" lon="1.63442">
        <ele>14900</ele>
        <time>2020-05-31T04:56:15Z</time>
      </trkpt>
      <trkpt lat="44.02449" lon="1.63438">
        <ele>14900</ele>
        <time>2020-05-31T04:56:16Z</time>
      </trkpt>
      <trkpt lat="44.02446" lon="1.63434">
        <ele>14900</ele>
        <time>2020-05-31T04:56:17Z</time>
      </trkpt>
      <trkpt lat="44.02441" lon="1.6343">
        <ele>14900</ele>
        <time>2020-05-31T04:56:18Z</time>
      </trkpt>
      <trkpt lat="44.02437" lon="1.63426">
        <ele>14900</ele>
        <time>2020-05-31T04:56:19Z</time>
      </trkpt>
      <trkpt lat="44.02433" lon="1.63422">
        <ele>14900</ele>
        <time>2020-05-31T04:56:20Z</time>
      </trkpt>
      <trkpt lat="44.02428" lon="1.63418">
        <ele>14900</ele>
        <time>2020-05-31T04:56:21Z</time>
      </trkpt>
      <trkpt lat="44.02424" lon="1.63413">
        <ele>14900</ele>
        <time>2020-05-31T04:56:22Z</time>
      </trkpt>
      <trkpt lat="44.02419" lon="1.63409">
        <ele>14900</ele>
        <time>2020-05-31T04:56:23Z</time>
      </trkpt>
      <trkpt lat="44.02415" lon="1.63405">
        <ele>14900</ele>
        <time>2020-05-31T04:56:24Z</time>
      </trkpt>
      <trkpt lat="44.02411" lon="1.63401">
        <ele>14900</ele>
        <time>2020-05-31T04:56:25Z</time>
      </trkpt>
      <trkpt lat="44.02406" lon="1.63397">
        <ele>14900</ele>
        <time>2020-05-31T04:56:26Z</time>
      </trkpt>
      <trkpt lat="44.02402" lon="1.63393">
        <ele>14900</ele>
        <time>2020-05-31T04:56:27Z</time>
      </trkpt>
      <trkpt lat="44.02398" lon="1.63388">
        <ele>14900</ele>
        <time>2020-05-31T04:56:28Z</time>
      </trkpt>
      <trkpt lat="44.02393" lon="1.63384">
        <ele>14900</ele>
        <time>2020-05-31T04:56:29Z</time>
      </trkpt>
      <trkpt lat="44.02389" lon="1.6338">
        <ele>14900</ele>
        <time>2020-05-31T04:56:30Z</time>
      </trkpt>
      <trkpt lat="44.02385" lon="1.63376">
        <ele>14900</ele>
        <time>2020-05-31T04:56:31Z</time>
      </trkpt>
      <trkpt lat="44.02381" lon="1.63372">
        <ele>14900</ele>
        <time>2020-05-31T04:56:32Z</time>
      </trkpt>
      <trkpt lat="44.02377" lon="1.63368">
        <ele>14900</ele>
        <time>2020-05-31T04:56:33Z</time>
      </trkpt>
      <trkpt lat="44.02372" lon="1.63364">
        <ele>14900</ele>
        <time>2020-05-31T04:56:34Z</time>
      </trkpt>
      <trkpt lat="44.02367" lon="1.6336">
        <ele>14900</ele>
        <time>2020-05-31T04:56:35Z</time>
      </trkpt>
      <trkpt lat="44.02363" lon="1.63356">
        <ele>14900</ele>
        <time>2020-05-31T04:56:36Z</time>
      </trkpt>
      <trkpt lat="44.02359" lon="1.63353">
        <ele>14900</ele>
        <time>2020-05-31T04:56:37Z</time>
      </trkpt>
      <trkpt lat="44.02355" lon="1.63349">
        <ele>14900</ele>
        <time>2020-05-31T04:56:38Z</time>
      </trkpt>
      <trkpt lat="44.02351" lon="1.63345">
        <ele>14900</ele>
        <time>2020-05-31T04:56:39Z</time>
      </trkpt>
      <trkpt lat="44.02346" lon="1.63341">
        <ele>14900</ele>
        <time>2020-05-31T04:56:40Z</time>
      </trkpt>
      <trkpt lat="44.02342" lon="1.63338">
        <ele>14900</ele>
        <time>2020-05-31T04:56:41Z</time>
      </trkpt>
      <trkpt lat="44.02338" lon="1.63334">
        <ele>14900</ele>
        <time>2020-05-31T04:56:42Z</time>
      </trkpt>
      <trkpt lat="44.02334" lon="1.6333">
        <ele>14900</ele>
        <time>2020-05-31T04:56:43Z</time>
      </trkpt>
      <trkpt lat="44.0233" lon="1.63326">
        <ele>14900</ele>
        <time>2020-05-31T04:56:44Z</time>
      </trkpt>
      <trkpt lat="44.02327" lon="1.63322">
        <ele>14900</ele>
        <time>2020-05-31T04:56:45Z</time>
      </trkpt>
      <trkpt lat="44.02323" lon="1.63318">
        <ele>14900</ele>
        <time>2020-05-31T04:56:46Z</time>
      </trkpt>
      <trkpt lat="44.02319" lon="1.63314">
        <ele>14900</ele>
        <time>2020-05-31T04:56:47Z</time>
      </trkpt>
      <trkpt lat="44.02315" lon="1.6331">
        <ele>14900</ele>
        <time>2020-05-31T04:56:48Z</time>
      </trkpt>
      <trkpt lat="44.02312" lon="1.63307">
        <ele>14900</ele>
        <time>2020-05-31T04:56:49Z</time>
      </trkpt>
      <trkpt lat="44.02308" lon="1.63303">
        <ele>14900</ele>
        <time>2020-05-31T04:56:50Z</time>
      </trkpt>
      <trkpt lat="44.02305" lon="1.633">
        <ele>14900</ele>
        <time>2020-05-31T04:56:51Z</time>
      </trkpt>
      <trkpt lat="44.02301" lon="1.63297">
        <ele>14900</ele>
        <time>2020-05-31T04:56:52Z</time>
      </trkpt>
      <trkpt lat="44.02297" lon="1.63294">
        <ele>14900</ele>
        <time>2020-05-31T04:56:53Z</time>
      </trkpt>
      <trkpt lat="44.02294" lon="1.63291">
        <ele>14900</ele>
        <time>2020-05-31T04:56:54Z</time>
      </trkpt>
      <trkpt lat="44.0229" lon="1.63287">
        <ele>14900</ele>
        <time>2020-05-31T04:56:55Z</time>
      </trkpt>
      <trkpt lat="44.02287" lon="1.63284">
        <ele>14900</ele>
        <time>2020-05-31T04:56:56Z</time>
      </trkpt>
      <trkpt lat="44.02282" lon="1.63281">
        <ele>14900</ele>
        <time>2020-05-31T04:56:57Z</time>
      </trkpt>
      <trkpt lat="44.02279" lon="1.63278">
        <ele>15000</ele>
        <time>2020-05-31T04:56:58Z</time>
      </trkpt>
      <trkpt lat="44.02276" lon="1.63276">
        <ele>15000</ele>
        <time>2020-05-31T04:56:59Z</time>
      </trkpt>
      <trkpt lat="44.02272" lon="1.63273">
        <ele>15000</ele>
        <time>2020-05-31T04:57:00Z</time>
      </trkpt>
      <trkpt lat="44.02268" lon="1.6327">
        <ele>15000</ele>
        <time>2020-05-31T04:57:01Z</time>
      </trkpt>
      <trkpt lat="44.02264" lon="1.63267">
        <ele>15000</ele>
        <time>2020-05-31T04:57:02Z</time>
      </trkpt>
      <trkpt lat="44.02261" lon="1.63264">
        <ele>15000</ele>
        <time>2020-05-31T04:57:03Z</time>
      </trkpt>
      <trkpt lat="44.02258" lon="1.63261">
        <ele>15000</ele>
        <time>2020-05-31T04:57:04Z</time>
      </trkpt>
      <trkpt lat="44.02255" lon="1.63257">
        <ele>15000</ele>
        <time>2020-05-31T04:57:05Z</time>
      </trkpt>
      <trkpt lat="44.02251" lon="1.63254">
        <ele>15000</ele>
        <time>2020-05-31T04:57:06Z</time>
      </trkpt>
      <trkpt lat="44.02248" lon="1.63251">
        <ele>15000</ele>
        <time>2020-05-31T04:57:07Z</time>
      </trkpt>
      <trkpt lat="44.02243" lon="1.63248">
        <ele>15000</ele>
        <time>2020-05-31T04:57:08Z</time>
      </trkpt>
      <trkpt lat="44.0224" lon="1.63245">
        <ele>15000</ele>
        <time>2020-05-31T04:57:09Z</time>
      </trkpt>
      <trkpt lat="44.02237" lon="1.63242">
        <ele>15100</ele>
        <time>2020-05-31T04:57:10Z</time>
      </trkpt>
      <trkpt lat="44.02234" lon="1.63239">
        <ele>15100</ele>
        <time>2020-05-31T04:57:11Z</time>
      </trkpt>
      <trkpt lat="44.02231" lon="1.63236">
        <ele>15100</ele>
        <time>2020-05-31T04:57:12Z</time>
      </trkpt>
      <trkpt lat="44.02227" lon="1.63233">
        <ele>15100</ele>
        <time>2020-05-31T04:57:13Z</time>
      </trkpt>
      <trkpt lat="44.02224" lon="1.6323">
        <ele>15100</ele>
        <time>2020-05-31T04:57:14Z</time>
      </trkpt>
      <trkpt lat="44.02221" lon="1.63227">
        <ele>15100</ele>
        <time>2020-05-31T04:57:15Z</time>
      </trkpt>
      <trkpt lat="44.02218" lon="1.63224">
        <ele>15100</ele>
        <time>2020-05-31T04:57:16Z</time>
      </trkpt>
      <trkpt lat="44.02215" lon="1.63221">
        <ele>15100</ele>
        <time>2020-05-31T04:57:17Z</time>
      </trkpt>
      <trkpt lat="44.02212" lon="1.63218">
        <ele>15200</ele>
        <time>2020-05-31T04:57:18Z</time>
      </trkpt>
      <trkpt lat="44.0221" lon="1.63215">
        <ele>15200</ele>
        <time>2020-05-31T04:57:19Z</time>
      </trkpt>
      <trkpt lat="44.02208" lon="1.63211">
        <ele>15200</ele>
        <time>2020-05-31T04:57:20Z</time>
      </trkpt>
      <trkpt lat="44.02207" lon="1.63208">
        <ele>15200</ele>
        <time>2020-05-31T04:57:21Z</time>
      </trkpt>
      <trkpt lat="44.02207" lon="1.63204">
        <ele>15200</ele>
        <time>2020-05-31T04:57:22Z</time>
      </trkpt>
      <trkpt lat="44.02208" lon="1.632">
        <ele>15200</ele>
        <time>2020-05-31T04:57:23Z</time>
      </trkpt>
      <trkpt lat="44.0221" lon="1.63195">
        <ele>15200</ele>
        <time>2020-05-31T04:57:24Z</time>
      </trkpt>
      <trkpt lat="44.02213" lon="1.63191">
        <ele>15200</ele>
        <time>2020-05-31T04:57:25Z</time>
      </trkpt>
      <trkpt lat="44.02216" lon="1.63186">
        <ele>15200</ele>
        <time>2020-05-31T04:57:26Z</time>
      </trkpt>
      <trkpt lat="44.0222" lon="1.63182">
        <ele>15200</ele>
        <time>2020-05-31T04:57:27Z</time>
      </trkpt>
      <trkpt lat="44.02224" lon="1.63178">
        <ele>15200</ele>
        <time>2020-05-31T04:57:28Z</time>
      </trkpt>
      <trkpt lat="44.02228" lon="1.63174">
        <ele>15100</ele>
        <time>2020-05-31T04:57:29Z</time>
      </trkpt>
      <trkpt lat="44.02231" lon="1.63171">
        <ele>15100</ele>
        <time>2020-05-31T04:57:30Z</time>
      </trkpt>
      <trkpt lat="44.02235" lon="1.63167">
        <ele>15100</ele>
        <time>2020-05-31T04:57:31Z</time>
      </trkpt>
      <trkpt lat="44.0224" lon="1.63164">
        <ele>15100</ele>
        <time>2020-05-31T04:57:32Z</time>
      </trkpt>
      <trkpt lat="44.02245" lon="1.63162">
        <ele>15100</ele>
        <time>2020-05-31T04:57:33Z</time>
      </trkpt>
      <trkpt lat="44.0225" lon="1.6316">
        <ele>15100</ele>
        <time>2020-05-31T04:57:34Z</time>
      </trkpt>
      <trkpt lat="44.02255" lon="1.63159">
        <ele>15100</ele>
        <time>2020-05-31T04:57:35Z</time>
      </trkpt>
      <trkpt lat="44.02259" lon="1.63158">
        <ele>15100</ele>
        <time>2020-05-31T04:57:36Z</time>
      </trkpt>
      <trkpt lat="44.02264" lon="1.63157">
        <ele>15100</ele>
        <time>2020-05-31T04:57:37Z</time>
      </trkpt>
      <trkpt lat="44.02269" lon="1.63156">
        <ele>15100</ele>
        <time>2020-05-31T04:57:38Z</time>
      </trkpt>
      <trkpt lat="44.02274" lon="1.63155">
        <ele>15100</ele>
        <time>2020-05-31T04:57:39Z</time>
      </trkpt>
      <trkpt lat="44.02279" lon="1.63154">
        <ele>15100</ele>
        <time>2020-05-31T04:57:40Z</time>
      </trkpt>
      <trkpt lat="44.02283" lon="1.63153">
        <ele>15100</ele>
        <time>2020-05-31T04:57:41Z</time>
      </trkpt>
      <trkpt lat="44.02288" lon="1.63152">
        <ele>15100</ele>
        <time>2020-05-31T04:57:42Z</time>
      </trkpt>
      <trkpt lat="44.02292" lon="1.63151">
        <ele>15100</ele>
        <time>2020-05-31T04:57:43Z</time>
      </trkpt>
      <trkpt lat="44.02296" lon="1.63149">
        <ele>15100</ele>
        <time>2020-05-31T04:57:44Z</time>
      </trkpt>
      <trkpt lat="44.023" lon="1.63147">
        <ele>15100</ele>
        <time>2020-05-31T04:57:45Z</time>
      </trkpt>
      <trkpt lat="44.02305" lon="1.63145">
        <ele>15100</ele>
        <time>2020-05-31T04:57:46Z</time>
      </trkpt>
      <trkpt lat="44.02309" lon="1.63143">
        <ele>15100</ele>
        <time>2020-05-31T04:57:47Z</time>
      </trkpt>
      <trkpt lat="44.02314" lon="1.6314">
        <ele>15100</ele>
        <time>2020-05-31T04:57:48Z</time>
      </trkpt>
      <trkpt lat="44.02318" lon="1.63137">
        <ele>15000</ele>
        <time>2020-05-31T04:57:49Z</time>
      </trkpt>
      <trkpt lat="44.02323" lon="1.63134">
        <ele>15000</ele>
        <time>2020-05-31T04:57:50Z</time>
      </trkpt>
      <trkpt lat="44.02327" lon="1.6313">
        <ele>15000</ele>
        <time>2020-05-31T04:57:51Z</time>
      </trkpt>
      <trkpt lat="44.02331" lon="1.63127">
        <ele>15000</ele>
        <time>2020-05-31T04:57:52Z</time>
      </trkpt>
      <trkpt lat="44.02335" lon="1.63122">
        <ele>15000</ele>
        <time>2020-05-31T04:57:53Z</time>
      </trkpt>
      <trkpt lat="44.02339" lon="1.63117">
        <ele>15000</ele>
        <time>2020-05-31T04:57:54Z</time>
      </trkpt>
      <trkpt lat="44.02342" lon="1.6311">
        <ele>15000</ele>
        <time>2020-05-31T04:57:55Z</time>
      </trkpt>
      <trkpt lat="44.02345" lon="1.63104">
        <ele>15000</ele>
        <time>2020-05-31T04:57:56Z</time>
      </trkpt>
      <trkpt lat="44.02347" lon="1.63096">
        <ele>15000</ele>
        <time>2020-05-31T04:57:57Z</time>
      </trkpt>
      <trkpt lat="44.02348" lon="1.63088">
        <ele>15000</ele>
        <time>2020-05-31T04:57:58Z</time>
      </trkpt>
      <trkpt lat="44.02349" lon="1.63081">
        <ele>15000</ele>
        <time>2020-05-31T04:57:59Z</time>
      </trkpt>
      <trkpt lat="44.02348" lon="1.63073">
        <ele>15000</ele>
        <time>2020-05-31T04:58:00Z</time>
      </trkpt>
      <trkpt lat="44.02346" lon="1.63065">
        <ele>15000</ele>
        <time>2020-05-31T04:58:01Z</time>
      </trkpt>
      <trkpt lat="44.02345" lon="1.63059">
        <ele>15000</ele>
        <time>2020-05-31T04:58:02Z</time>
      </trkpt>
      <trkpt lat="44.02342" lon="1.63052">
        <ele>15000</ele>
        <time>2020-05-31T04:58:03Z</time>
      </trkpt>
      <trkpt lat="44.0234" lon="1.63046">
        <ele>15000</ele>
        <time>2020-05-31T04:58:04Z</time>
      </trkpt>
      <trkpt lat="44.02338" lon="1.63041">
        <ele>15000</ele>
        <time>2020-05-31T04:58:05Z</time>
      </trkpt>
      <trkpt lat="44.02336" lon="1.63036">
        <ele>15000</ele>
        <time>2020-05-31T04:58:06Z</time>
      </trkpt>
      <trkpt lat="44.02335" lon="1.63031">
        <ele>15000</ele>
        <time>2020-05-31T04:58:07Z</time>
      </trkpt>
      <trkpt lat="44.02334" lon="1.63027">
        <ele>15000</ele>
        <time>2020-05-31T04:58:08Z</time>
      </trkpt>
      <trkpt lat="44.02333" lon="1.63022">
        <ele>15000</ele>
        <time>2020-05-31T04:58:09Z</time>
      </trkpt>
      <trkpt lat="44.02332" lon="1.63017">
        <ele>15000</ele>
        <time>2020-05-31T04:58:10Z</time>
      </trkpt>
      <trkpt lat="44.02332" lon="1.63012">
        <ele>15000</ele>
        <time>2020-05-31T04:58:11Z</time>
      </trkpt>
      <trkpt lat="44.02333" lon="1.63006">
        <ele>15000</ele>
        <time>2020-05-31T04:58:12Z</time>
      </trkpt>
      <trkpt lat="44.02335" lon="1.63">
        <ele>15000</ele>
        <time>2020-05-31T04:58:13Z</time>
      </trkpt>
      <trkpt lat="44.02337" lon="1.62994">
        <ele>15000</ele>
        <time>2020-05-31T04:58:14Z</time>
      </trkpt>
      <trkpt lat="44.0234" lon="1.62988">
        <ele>15000</ele>
        <time>2020-05-31T04:58:15Z</time>
      </trkpt>
      <trkpt lat="44.02343" lon="1.62982">
        <ele>14900</ele>
        <time>2020-05-31T04:58:16Z</time>
      </trkpt>
      <trkpt lat="44.02347" lon="1.62975">
        <ele>14900</ele>
        <time>2020-05-31T04:58:17Z</time>
      </trkpt>
      <trkpt lat="44.02351" lon="1.62969">
        <ele>14900</ele>
        <time>2020-05-31T04:58:18Z</time>
      </trkpt>
      <trkpt lat="44.02355" lon="1.62962">
        <ele>14900</ele>
        <time>2020-05-31T04:58:19Z</time>
      </trkpt>
      <trkpt lat="44.02359" lon="1.62956">
        <ele>14900</ele>
        <time>2020-05-31T04:58:20Z</time>
      </trkpt>
      <trkpt lat="44.02363" lon="1.6295">
        <ele>14900</ele>
        <time>2020-05-31T04:58:21Z</time>
      </trkpt>
      <trkpt lat="44.02367" lon="1.62944">
        <ele>14900</ele>
        <time>2020-05-31T04:58:22Z</time>
      </trkpt>
      <trkpt lat="44.02372" lon="1.62939">
        <ele>14900</ele>
        <time>2020-05-31T04:58:23Z</time>
      </trkpt>
      <trkpt lat="44.02376" lon="1.62933">
        <ele>14900</ele>
        <time>2020-05-31T04:58:24Z</time>
      </trkpt>
      <trkpt lat="44.0238" lon="1.62928">
        <ele>14900</ele>
        <time>2020-05-31T04:58:25Z</time>
      </trkpt>
      <trkpt lat="44.02385" lon="1.62924">
        <ele>14900</ele>
        <time>2020-05-31T04:58:26Z</time>
      </trkpt>
      <trkpt lat="44.02388" lon="1.62919">
        <ele>14900</ele>
        <time>2020-05-31T04:58:27Z</time>
      </trkpt>
      <trkpt lat="44.02393" lon="1.62915">
        <ele>15000</ele>
        <time>2020-05-31T04:58:28Z</time>
      </trkpt>
      <trkpt lat="44.02396" lon="1.62911">
        <ele>15000</ele>
        <time>2020-05-31T04:58:29Z</time>
      </trkpt>
      <trkpt lat="44.024" lon="1.62908">
        <ele>15000</ele>
        <time>2020-05-31T04:58:30Z</time>
      </trkpt>
      <trkpt lat="44.02403" lon="1.62904">
        <ele>15000</ele>
        <time>2020-05-31T04:58:31Z</time>
      </trkpt>
      <trkpt lat="44.02406" lon="1.62901">
        <ele>15000</ele>
        <time>2020-05-31T04:58:32Z</time>
      </trkpt>
      <trkpt lat="44.02409" lon="1.62897">
        <ele>15100</ele>
        <time>2020-05-31T04:58:33Z</time>
      </trkpt>
      <trkpt lat="44.02411" lon="1.62894">
        <ele>15100</ele>
        <time>2020-05-31T04:58:34Z</time>
      </trkpt>
      <trkpt lat="44.02414" lon="1.6289">
        <ele>15100</ele>
        <time>2020-05-31T04:58:35Z</time>
      </trkpt>
      <trkpt lat="44.02417" lon="1.62886">
        <ele>15100</ele>
        <time>2020-05-31T04:58:36Z</time>
      </trkpt>
      <trkpt lat="44.02419" lon="1.62883">
        <ele>15100</ele>
        <time>2020-05-31T04:58:37Z</time>
      </trkpt>
      <trkpt lat="44.02421" lon="1.62879">
        <ele>15100</ele>
        <time>2020-05-31T04:58:38Z</time>
      </trkpt>
      <trkpt lat="44.02424" lon="1.62876">
        <ele>15100</ele>
        <time>2020-05-31T04:58:39Z</time>
      </trkpt>
      <trkpt lat="44.02427" lon="1.62872">
        <ele>15200</ele>
        <time>2020-05-31T04:58:40Z</time>
      </trkpt>
      <trkpt lat="44.0243" lon="1.62869">
        <ele>15200</ele>
        <time>2020-05-31T04:58:41Z</time>
      </trkpt>
      <trkpt lat="44.02433" lon="1.62866">
        <ele>15200</ele>
        <time>2020-05-31T04:58:42Z</time>
      </trkpt>
      <trkpt lat="44.02436" lon="1.62862">
        <ele>15200</ele>
        <time>2020-05-31T04:58:43Z</time>
      </trkpt>
      <trkpt lat="44.02438" lon="1.62859">
        <ele>15200</ele>
        <time>2020-05-31T04:58:44Z</time>
      </trkpt>
      <trkpt lat="44.02441" lon="1.62855">
        <ele>15200</ele>
        <time>2020-05-31T04:58:45Z</time>
      </trkpt>
      <trkpt lat="44.02444" lon="1.62851">
        <ele>15200</ele>
        <time>2020-05-31T04:58:46Z</time>
      </trkpt>
      <trkpt lat="44.02446" lon="1.62847">
        <ele>15200</ele>
        <time>2020-05-31T04:58:47Z</time>
      </trkpt>
      <trkpt lat="44.02448" lon="1.62842">
        <ele>15200</ele>
        <time>2020-05-31T04:58:48Z</time>
      </trkpt>
      <trkpt lat="44.02451" lon="1.62837">
        <ele>15200</ele>
        <time>2020-05-31T04:58:49Z</time>
      </trkpt>
      <trkpt lat="44.02453" lon="1.62833">
        <ele>15200</ele>
        <time>2020-05-31T04:58:50Z</time>
      </trkpt>
      <trkpt lat="44.02455" lon="1.62828">
        <ele>15200</ele>
        <time>2020-05-31T04:58:51Z</time>
      </trkpt>
      <trkpt lat="44.02457" lon="1.62824">
        <ele>15200</ele>
        <time>2020-05-31T04:58:52Z</time>
      </trkpt>
      <trkpt lat="44.02459" lon="1.6282">
        <ele>15200</ele>
        <time>2020-05-31T04:58:53Z</time>
      </trkpt>
      <trkpt lat="44.02461" lon="1.62815">
        <ele>15200</ele>
        <time>2020-05-31T04:58:54Z</time>
      </trkpt>
      <trkpt lat="44.02463" lon="1.6281">
        <ele>15200</ele>
        <time>2020-05-31T04:58:55Z</time>
      </trkpt>
      <trkpt lat="44.02465" lon="1.62806">
        <ele>15200</ele>
        <time>2020-05-31T04:58:56Z</time>
      </trkpt>
      <trkpt lat="44.02468" lon="1.62802">
        <ele>15200</ele>
        <time>2020-05-31T04:58:57Z</time>
      </trkpt>
      <trkpt lat="44.02471" lon="1.62798">
        <ele>15200</ele>
        <time>2020-05-31T04:58:58Z</time>
      </trkpt>
      <trkpt lat="44.02473" lon="1.62794">
        <ele>15200</ele>
        <time>2020-05-31T04:58:59Z</time>
      </trkpt>
      <trkpt lat="44.02476" lon="1.6279">
        <ele>15300</ele>
        <time>2020-05-31T04:59:00Z</time>
      </trkpt>
      <trkpt lat="44.02479" lon="1.62786">
        <ele>15300</ele>
        <time>2020-05-31T04:59:01Z</time>
      </trkpt>
      <trkpt lat="44.02482" lon="1.62782">
        <ele>15300</ele>
        <time>2020-05-31T04:59:02Z</time>
      </trkpt>
      <trkpt lat="44.02484" lon="1.62778">
        <ele>15300</ele>
        <time>2020-05-31T04:59:03Z</time>
      </trkpt>
      <trkpt lat="44.02486" lon="1.62773">
        <ele>15300</ele>
        <time>2020-05-31T04:59:04Z</time>
      </trkpt>
      <trkpt lat="44.02488" lon="1.62769">
        <ele>15300</ele>
        <time>2020-05-31T04:59:05Z</time>
      </trkpt>
      <trkpt lat="44.02491" lon="1.62764">
        <ele>15300</ele>
        <time>2020-05-31T04:59:06Z</time>
      </trkpt>
      <trkpt lat="44.02493" lon="1.62759">
        <ele>15300</ele>
        <time>2020-05-31T04:59:07Z</time>
      </trkpt>
      <trkpt lat="44.02494" lon="1.62754">
        <ele>15300</ele>
        <time>2020-05-31T04:59:08Z</time>
      </trkpt>
      <trkpt lat="44.02496" lon="1.62749">
        <ele>15300</ele>
        <time>2020-05-31T04:59:09Z</time>
      </trkpt>
      <trkpt lat="44.02498" lon="1.62744">
        <ele>15300</ele>
        <time>2020-05-31T04:59:10Z</time>
      </trkpt>
      <trkpt lat="44.025" lon="1.62739">
        <ele>15300</ele>
        <time>2020-05-31T04:59:11Z</time>
      </trkpt>
      <trkpt lat="44.02502" lon="1.62734">
        <ele>15300</ele>
        <time>2020-05-31T04:59:12Z</time>
      </trkpt>
      <trkpt lat="44.02504" lon="1.6273">
        <ele>15300</ele>
        <time>2020-05-31T04:59:13Z</time>
      </trkpt>
      <trkpt lat="44.02506" lon="1.62725">
        <ele>15300</ele>
        <time>2020-05-31T04:59:14Z</time>
      </trkpt>
      <trkpt lat="44.02508" lon="1.6272">
        <ele>15300</ele>
        <time>2020-05-31T04:59:15Z</time>
      </trkpt>
      <trkpt lat="44.02511" lon="1.62716">
        <ele>15300</ele>
        <time>2020-05-31T04:59:16Z</time>
      </trkpt>
      <trkpt lat="44.02513" lon="1.62711">
        <ele>15300</ele>
        <time>2020-05-31T04:59:17Z</time>
      </trkpt>
      <trkpt lat="44.02515" lon="1.62707">
        <ele>15300</ele>
        <time>2020-05-31T04:59:18Z</time>
      </trkpt>
      <trkpt lat="44.02517" lon="1.62703">
        <ele>15300</ele>
        <time>2020-05-31T04:59:19Z</time>
      </trkpt>
      <trkpt lat="44.0252" lon="1.62698">
        <ele>15300</ele>
        <time>2020-05-31T04:59:20Z</time>
      </trkpt>
      <trkpt lat="44.02523" lon="1.62694">
        <ele>15400</ele>
        <time>2020-05-31T04:59:21Z</time>
      </trkpt>
      <trkpt lat="44.02525" lon="1.62689">
        <ele>15400</ele>
        <time>2020-05-31T04:59:22Z</time>
      </trkpt>
      <trkpt lat="44.02527" lon="1.62685">
        <ele>15400</ele>
        <time>2020-05-31T04:59:23Z</time>
      </trkpt>
      <trkpt lat="44.02529" lon="1.6268">
        <ele>15400</ele>
        <time>2020-05-31T04:59:24Z</time>
      </trkpt>
      <trkpt lat="44.02531" lon="1.62675">
        <ele>15400</ele>
        <time>2020-05-31T04:59:25Z</time>
      </trkpt>
      <trkpt lat="44.02533" lon="1.6267">
        <ele>15400</ele>
        <time>2020-05-31T04:59:26Z</time>
      </trkpt>
      <trkpt lat="44.02536" lon="1.62665">
        <ele>15400</ele>
        <time>2020-05-31T04:59:27Z</time>
      </trkpt>
      <trkpt lat="44.02538" lon="1.6266">
        <ele>15400</ele>
        <time>2020-05-31T04:59:28Z</time>
      </trkpt>
      <trkpt lat="44.0254" lon="1.62655">
        <ele>15400</ele>
        <time>2020-05-31T04:59:29Z</time>
      </trkpt>
      <trkpt lat="44.02542" lon="1.6265">
        <ele>15400</ele>
        <time>2020-05-31T04:59:30Z</time>
      </trkpt>
      <trkpt lat="44.02544" lon="1.62645">
        <ele>15400</ele>
        <time>2020-05-31T04:59:31Z</time>
      </trkpt>
      <trkpt lat="44.02546" lon="1.62641">
        <ele>15400</ele>
        <time>2020-05-31T04:59:32Z</time>
      </trkpt>
      <trkpt lat="44.02548" lon="1.62636">
        <ele>15400</ele>
        <time>2020-05-31T04:59:33Z</time>
      </trkpt>
      <trkpt lat="44.0255" lon="1.62631">
        <ele>15500</ele>
        <time>2020-05-31T04:59:34Z</time>
      </trkpt>
      <trkpt lat="44.02552" lon="1.62626">
        <ele>15500</ele>
        <time>2020-05-31T04:59:35Z</time>
      </trkpt>
      <trkpt lat="44.02555" lon="1.62621">
        <ele>15500</ele>
        <time>2020-05-31T04:59:36Z</time>
      </trkpt>
      <trkpt lat="44.02557" lon="1.62616">
        <ele>15500</ele>
        <time>2020-05-31T04:59:37Z</time>
      </trkpt>
      <trkpt lat="44.02559" lon="1.62612">
        <ele>15500</ele>
        <time>2020-05-31T04:59:38Z</time>
      </trkpt>
      <trkpt lat="44.02561" lon="1.62607">
        <ele>15500</ele>
        <time>2020-05-31T04:59:39Z</time>
      </trkpt>
      <trkpt lat="44.02563" lon="1.62602">
        <ele>15500</ele>
        <time>2020-05-31T04:59:40Z</time>
      </trkpt>
      <trkpt lat="44.02565" lon="1.62597">
        <ele>15500</ele>
        <time>2020-05-31T04:59:41Z</time>
      </trkpt>
      <trkpt lat="44.02567" lon="1.62593">
        <ele>15500</ele>
        <time>2020-05-31T04:59:42Z</time>
      </trkpt>
      <trkpt lat="44.02569" lon="1.62588">
        <ele>15500</ele>
        <time>2020-05-31T04:59:43Z</time>
      </trkpt>
      <trkpt lat="44.02571" lon="1.62583">
        <ele>15500</ele>
        <time>2020-05-31T04:59:44Z</time>
      </trkpt>
      <trkpt lat="44.02573" lon="1.62578">
        <ele>15500</ele>
        <time>2020-05-31T04:59:45Z</time>
      </trkpt>
      <trkpt lat="44.02574" lon="1.62573">
        <ele>15500</ele>
        <time>2020-05-31T04:59:46Z</time>
      </trkpt>
      <trkpt lat="44.02576" lon="1.62568">
        <ele>15500</ele>
        <time>2020-05-31T04:59:47Z</time>
      </trkpt>
      <trkpt lat="44.02578" lon="1.62563">
        <ele>15600</ele>
        <time>2020-05-31T04:59:48Z</time>
      </trkpt>
      <trkpt lat="44.02579" lon="1.62558">
        <ele>15600</ele>
        <time>2020-05-31T04:59:49Z</time>
      </trkpt>
      <trkpt lat="44.02581" lon="1.62553">
        <ele>15600</ele>
        <time>2020-05-31T04:59:50Z</time>
      </trkpt>
      <trkpt lat="44.02583" lon="1.62549">
        <ele>15600</ele>
        <time>2020-05-31T04:59:51Z</time>
      </trkpt>
      <trkpt lat="44.02585" lon="1.62544">
        <ele>15600</ele>
        <time>2020-05-31T04:59:52Z</time>
      </trkpt>
      <trkpt lat="44.02588" lon="1.6254">
        <ele>15600</ele>
        <time>2020-05-31T04:59:53Z</time>
      </trkpt>
      <trkpt lat="44.0259" lon="1.62536">
        <ele>15600</ele>
        <time>2020-05-31T04:59:54Z</time>
      </trkpt>
      <trkpt lat="44.02593" lon="1.62532">
        <ele>15600</ele>
        <time>2020-05-31T04:59:55Z</time>
      </trkpt>
      <trkpt lat="44.02595" lon="1.62528">
        <ele>15600</ele>
        <time>2020-05-31T04:59:56Z</time>
      </trkpt>
      <trkpt lat="44.02598" lon="1.62524">
        <ele>15600</ele>
        <time>2020-05-31T04:59:57Z</time>
      </trkpt>
      <trkpt lat="44.026" lon="1.62519">
        <ele>15600</ele>
        <time>2020-05-31T04:59:58Z</time>
      </trkpt>
      <trkpt lat="44.02602" lon="1.62515">
        <ele>15600</ele>
        <time>2020-05-31T04:59:59Z</time>
      </trkpt>
      <trkpt lat="44.02604" lon="1.6251">
        <ele>15600</ele>
        <time>2020-05-31T05:00:00Z</time>
      </trkpt>
      <trkpt lat="44.02606" lon="1.62505">
        <ele>15600</ele>
        <time>2020-05-31T05:00:01Z</time>
      </trkpt>
      <trkpt lat="44.02608" lon="1.62501">
        <ele>15600</ele>
        <time>2020-05-31T05:00:02Z</time>
      </trkpt>
      <trkpt lat="44.0261" lon="1.62496">
        <ele>15600</ele>
        <time>2020-05-31T05:00:03Z</time>
      </trkpt>
      <trkpt lat="44.02612" lon="1.62491">
        <ele>15700</ele>
        <time>2020-05-31T05:00:04Z</time>
      </trkpt>
      <trkpt lat="44.02615" lon="1.62487">
        <ele>15700</ele>
        <time>2020-05-31T05:00:05Z</time>
      </trkpt>
      <trkpt lat="44.02617" lon="1.62482">
        <ele>15700</ele>
        <time>2020-05-31T05:00:06Z</time>
      </trkpt>
      <trkpt lat="44.0262" lon="1.62478">
        <ele>15700</ele>
        <time>2020-05-31T05:00:07Z</time>
      </trkpt>
      <trkpt lat="44.02622" lon="1.62473">
        <ele>15700</ele>
        <time>2020-05-31T05:00:07Z</time>
      </trkpt>
      <trkpt lat="44.02623" lon="1.62469">
        <ele>15700</ele>
        <time>2020-05-31T05:00:08Z</time>
      </trkpt>
      <trkpt lat="44.02625" lon="1.62464">
        <ele>15700</ele>
        <time>2020-05-31T05:00:09Z</time>
      </trkpt>
      <trkpt lat="44.02627" lon="1.62459">
        <ele>15700</ele>
        <time>2020-05-31T05:00:10Z</time>
      </trkpt>
      <trkpt lat="44.02629" lon="1.62454">
        <ele>15700</ele>
        <time>2020-05-31T05:00:11Z</time>
      </trkpt>
      <trkpt lat="44.02631" lon="1.62449">
        <ele>15700</ele>
        <time>2020-05-31T05:00:12Z</time>
      </trkpt>
      <trkpt lat="44.02633" lon="1.62444">
        <ele>15700</ele>
        <time>2020-05-31T05:00:13Z</time>
      </trkpt>
      <trkpt lat="44.02635" lon="1.62439">
        <ele>15700</ele>
        <time>2020-05-31T05:00:14Z</time>
      </trkpt>
      <trkpt lat="44.02636" lon="1.62434">
        <ele>15700</ele>
        <time>2020-05-31T05:00:15Z</time>
      </trkpt>
      <trkpt lat="44.02638" lon="1.62428">
        <ele>15700</ele>
        <time>2020-05-31T05:00:16Z</time>
      </trkpt>
      <trkpt lat="44.02639" lon="1.62423">
        <ele>15700</ele>
        <time>2020-05-31T05:00:17Z</time>
      </trkpt>
      <trkpt lat="44.02641" lon="1.62418">
        <ele>15700</ele>
        <time>2020-05-31T05:00:18Z</time>
      </trkpt>
      <trkpt lat="44.02642" lon="1.62413">
        <ele>15700</ele>
        <time>2020-05-31T05:00:19Z</time>
      </trkpt>
      <trkpt lat="44.02644" lon="1.62408">
        <ele>15700</ele>
        <time>2020-05-31T05:00:20Z</time>
      </trkpt>
      <trkpt lat="44.02645" lon="1.62402">
        <ele>15800</ele>
        <time>2020-05-31T05:00:21Z</time>
      </trkpt>
      <trkpt lat="44.02646" lon="1.62397">
        <ele>15800</ele>
        <time>2020-05-31T05:00:22Z</time>
      </trkpt>
      <trkpt lat="44.02647" lon="1.62392">
        <ele>15800</ele>
        <time>2020-05-31T05:00:23Z</time>
      </trkpt>
      <trkpt lat="44.02649" lon="1.62387">
        <ele>15800</ele>
        <time>2020-05-31T05:00:24Z</time>
      </trkpt>
      <trkpt lat="44.02651" lon="1.62381">
        <ele>15800</ele>
        <time>2020-05-31T05:00:25Z</time>
      </trkpt>
      <trkpt lat="44.02652" lon="1.62376">
        <ele>15800</ele>
        <time>2020-05-31T05:00:26Z</time>
      </trkpt>
      <trkpt lat="44.02653" lon="1.62371">
        <ele>15800</ele>
        <time>2020-05-31T05:00:27Z</time>
      </trkpt>
      <trkpt lat="44.02654" lon="1.62365">
        <ele>15800</ele>
        <time>2020-05-31T05:00:28Z</time>
      </trkpt>
      <trkpt lat="44.02655" lon="1.6236">
        <ele>15800</ele>
        <time>2020-05-31T05:00:29Z</time>
      </trkpt>
      <trkpt lat="44.02656" lon="1.62355">
        <ele>15800</ele>
        <time>2020-05-31T05:00:30Z</time>
      </trkpt>
      <trkpt lat="44.02657" lon="1.62349">
        <ele>15800</ele>
        <time>2020-05-31T05:00:31Z</time>
      </trkpt>
      <trkpt lat="44.02659" lon="1.62344">
        <ele>15800</ele>
        <time>2020-05-31T05:00:32Z</time>
      </trkpt>
      <trkpt lat="44.0266" lon="1.62338">
        <ele>15800</ele>
        <time>2020-05-31T05:00:33Z</time>
      </trkpt>
      <trkpt lat="44.02661" lon="1.62333">
        <ele>15800</ele>
        <time>2020-05-31T05:00:34Z</time>
      </trkpt>
      <trkpt lat="44.02663" lon="1.62327">
        <ele>15800</ele>
        <time>2020-05-31T05:00:35Z</time>
      </trkpt>
      <trkpt lat="44.02665" lon="1.62322">
        <ele>15800</ele>
        <time>2020-05-31T05:00:36Z</time>
      </trkpt>
      <trkpt lat="44.02667" lon="1.62317">
        <ele>15800</ele>
        <time>2020-05-31T05:00:37Z</time>
      </trkpt>
      <trkpt lat="44.02668" lon="1.62312">
        <ele>15800</ele>
        <time>2020-05-31T05:00:38Z</time>
      </trkpt>
      <trkpt lat="44.02671" lon="1.62308">
        <ele>15800</ele>
        <time>2020-05-31T05:00:39Z</time>
      </trkpt>
      <trkpt lat="44.02673" lon="1.62304">
        <ele>15800</ele>
        <time>2020-05-31T05:00:40Z</time>
      </trkpt>
      <trkpt lat="44.02675" lon="1.623">
        <ele>15800</ele>
        <time>2020-05-31T05:00:41Z</time>
      </trkpt>
      <trkpt lat="44.02678" lon="1.62296">
        <ele>15900</ele>
        <time>2020-05-31T05:00:42Z</time>
      </trkpt>
      <trkpt lat="44.0268" lon="1.62293">
        <ele>15900</ele>
        <time>2020-05-31T05:00:43Z</time>
      </trkpt>
      <trkpt lat="44.02683" lon="1.62289">
        <ele>15900</ele>
        <time>2020-05-31T05:00:44Z</time>
      </trkpt>
      <trkpt lat="44.02686" lon="1.62285">
        <ele>15900</ele>
        <time>2020-05-31T05:00:45Z</time>
      </trkpt>
      <trkpt lat="44.02689" lon="1.62281">
        <ele>15900</ele>
        <time>2020-05-31T05:00:46Z</time>
      </trkpt>
      <trkpt lat="44.02691" lon="1.62277">
        <ele>15900</ele>
        <time>2020-05-31T05:00:47Z</time>
      </trkpt>
      <trkpt lat="44.02694" lon="1.62273">
        <ele>15900</ele>
        <time>2020-05-31T05:00:48Z</time>
      </trkpt>
      <trkpt lat="44.02697" lon="1.62269">
        <ele>15900</ele>
        <time>2020-05-31T05:00:49Z</time>
      </trkpt>
      <trkpt lat="44.02699" lon="1.62264">
        <ele>15900</ele>
        <time>2020-05-31T05:00:50Z</time>
      </trkpt>
      <trkpt lat="44.02702" lon="1.6226">
        <ele>15900</ele>
        <time>2020-05-31T05:00:51Z</time>
      </trkpt>
      <trkpt lat="44.02704" lon="1.62256">
        <ele>15900</ele>
        <time>2020-05-31T05:00:52Z</time>
      </trkpt>
      <trkpt lat="44.02707" lon="1.62251">
        <ele>15900</ele>
        <time>2020-05-31T05:00:53Z</time>
      </trkpt>
      <trkpt lat="44.02708" lon="1.62247">
        <ele>15900</ele>
        <time>2020-05-31T05:00:54Z</time>
      </trkpt>
      <trkpt lat="44.0271" lon="1.62243">
        <ele>15900</ele>
        <time>2020-05-31T05:00:55Z</time>
      </trkpt>
      <trkpt lat="44.02713" lon="1.62238">
        <ele>15900</ele>
        <time>2020-05-31T05:00:56Z</time>
      </trkpt>
      <trkpt lat="44.02716" lon="1.62234">
        <ele>15900</ele>
        <time>2020-05-31T05:00:57Z</time>
      </trkpt>
      <trkpt lat="44.02718" lon="1.6223">
        <ele>15900</ele>
        <time>2020-05-31T05:00:58Z</time>
      </trkpt>
      <trkpt lat="44.0272" lon="1.62226">
        <ele>15900</ele>
        <time>2020-05-31T05:00:59Z</time>
      </trkpt>
      <trkpt lat="44.02723" lon="1.62223">
        <ele>15900</ele>
        <time>2020-05-31T05:01:00Z</time>
      </trkpt>
      <trkpt lat="44.02725" lon="1.62218">
        <ele>15900</ele>
        <time>2020-05-31T05:01:01Z</time>
      </trkpt>
      <trkpt lat="44.02728" lon="1.62214">
        <ele>15900</ele>
        <time>2020-05-31T05:01:02Z</time>
      </trkpt>
      <trkpt lat="44.02731" lon="1.62209">
        <ele>15900</ele>
        <time>2020-05-31T05:01:03Z</time>
      </trkpt>
      <trkpt lat="44.02733" lon="1.62205">
        <ele>15900</ele>
        <time>2020-05-31T05:01:04Z</time>
      </trkpt>
      <trkpt lat="44.02736" lon="1.622">
        <ele>15900</ele>
        <time>2020-05-31T05:01:05Z</time>
      </trkpt>
      <trkpt lat="44.02738" lon="1.62196">
        <ele>15900</ele>
        <time>2020-05-31T05:01:06Z</time>
      </trkpt>
      <trkpt lat="44.02741" lon="1.62191">
        <ele>15900</ele>
        <time>2020-05-31T05:01:07Z</time>
      </trkpt>
      <trkpt lat="44.02744" lon="1.62187">
        <ele>15900</ele>
        <time>2020-05-31T05:01:08Z</time>
      </trkpt>
      <trkpt lat="44.02746" lon="1.62182">
        <ele>15900</ele>
        <time>2020-05-31T05:01:09Z</time>
      </trkpt>
      <trkpt lat="44.02749" lon="1.62177">
        <ele>15900</ele>
        <time>2020-05-31T05:01:10Z</time>
      </trkpt>
      <trkpt lat="44.02752" lon="1.62173">
        <ele>15900</ele>
        <time>2020-05-31T05:01:11Z</time>
      </trkpt>
      <trkpt lat="44.02755" lon="1.62168">
        <ele>15900</ele>
        <time>2020-05-31T05:01:12Z</time>
      </trkpt>
      <trkpt lat="44.02757" lon="1.62163">
        <ele>15900</ele>
        <time>2020-05-31T05:01:13Z</time>
      </trkpt>
      <trkpt lat="44.0276" lon="1.62159">
        <ele>15900</ele>
        <time>2020-05-31T05:01:14Z</time>
      </trkpt>
      <trkpt lat="44.02763" lon="1.62154">
        <ele>15900</ele>
        <time>2020-05-31T05:01:15Z</time>
      </trkpt>
      <trkpt lat="44.02765" lon="1.62149">
        <ele>15900</ele>
        <time>2020-05-31T05:01:16Z</time>
      </trkpt>
      <trkpt lat="44.02768" lon="1.62144">
        <ele>15900</ele>
        <time>2020-05-31T05:01:17Z</time>
      </trkpt>
      <trkpt lat="44.02771" lon="1.6214">
        <ele>15900</ele>
        <time>2020-05-31T05:01:18Z</time>
      </trkpt>
      <trkpt lat="44.02773" lon="1.62135">
        <ele>16000</ele>
        <time>2020-05-31T05:01:19Z</time>
      </trkpt>
      <trkpt lat="44.02774" lon="1.6213">
        <ele>16000</ele>
        <time>2020-05-31T05:01:20Z</time>
      </trkpt>
      <trkpt lat="44.02777" lon="1.62124">
        <ele>16000</ele>
        <time>2020-05-31T05:01:21Z</time>
      </trkpt>
      <trkpt lat="44.02778" lon="1.62119">
        <ele>16000</ele>
        <time>2020-05-31T05:01:22Z</time>
      </trkpt>
      <trkpt lat="44.0278" lon="1.62114">
        <ele>16000</ele>
        <time>2020-05-31T05:01:23Z</time>
      </trkpt>
      <trkpt lat="44.02782" lon="1.62109">
        <ele>16000</ele>
        <time>2020-05-31T05:01:24Z</time>
      </trkpt>
      <trkpt lat="44.02783" lon="1.62104">
        <ele>16000</ele>
        <time>2020-05-31T05:01:25Z</time>
      </trkpt>
      <trkpt lat="44.02785" lon="1.62098">
        <ele>16000</ele>
        <time>2020-05-31T05:01:26Z</time>
      </trkpt>
      <trkpt lat="44.02787" lon="1.62092">
        <ele>16000</ele>
        <time>2020-05-31T05:01:27Z</time>
      </trkpt>
      <trkpt lat="44.02788" lon="1.62086">
        <ele>16000</ele>
        <time>2020-05-31T05:01:28Z</time>
      </trkpt>
      <trkpt lat="44.0279" lon="1.6208">
        <ele>16000</ele>
        <time>2020-05-31T05:01:29Z</time>
      </trkpt>
      <trkpt lat="44.02792" lon="1.62074">
        <ele>16000</ele>
        <time>2020-05-31T05:01:30Z</time>
      </trkpt>
      <trkpt lat="44.02794" lon="1.62069">
        <ele>16000</ele>
        <time>2020-05-31T05:01:31Z</time>
      </trkpt>
      <trkpt lat="44.02795" lon="1.62063">
        <ele>16000</ele>
        <time>2020-05-31T05:01:32Z</time>
      </trkpt>
      <trkpt lat="44.02798" lon="1.62057">
        <ele>16000</ele>
        <time>2020-05-31T05:01:33Z</time>
      </trkpt>
      <trkpt lat="44.028" lon="1.62051">
        <ele>16000</ele>
        <time>2020-05-31T05:01:34Z</time>
      </trkpt>
      <trkpt lat="44.02802" lon="1.62045">
        <ele>16000</ele>
        <time>2020-05-31T05:01:35Z</time>
      </trkpt>
      <trkpt lat="44.02804" lon="1.62039">
        <ele>16000</ele>
        <time>2020-05-31T05:01:36Z</time>
      </trkpt>
      <trkpt lat="44.02807" lon="1.62033">
        <ele>15900</ele>
        <time>2020-05-31T05:01:37Z</time>
      </trkpt>
      <trkpt lat="44.0281" lon="1.62028">
        <ele>15900</ele>
        <time>2020-05-31T05:01:38Z</time>
      </trkpt>
      <trkpt lat="44.02813" lon="1.62022">
        <ele>15900</ele>
        <time>2020-05-31T05:01:39Z</time>
      </trkpt>
      <trkpt lat="44.02816" lon="1.62016">
        <ele>15900</ele>
        <time>2020-05-31T05:01:40Z</time>
      </trkpt>
      <trkpt lat="44.02819" lon="1.62009">
        <ele>15900</ele>
        <time>2020-05-31T05:01:41Z</time>
      </trkpt>
      <trkpt lat="44.02822" lon="1.62002">
        <ele>15800</ele>
        <time>2020-05-31T05:01:42Z</time>
      </trkpt>
      <trkpt lat="44.02825" lon="1.61995">
        <ele>15800</ele>
        <time>2020-05-31T05:01:43Z</time>
      </trkpt>
      <trkpt lat="44.02828" lon="1.61989">
        <ele>15700</ele>
        <time>2020-05-31T05:01:44Z</time>
      </trkpt>
      <trkpt lat="44.02832" lon="1.61981">
        <ele>15700</ele>
        <time>2020-05-31T05:01:45Z</time>
      </trkpt>
      <trkpt lat="44.02834" lon="1.61974">
        <ele>15700</ele>
        <time>2020-05-31T05:01:46Z</time>
      </trkpt>
      <trkpt lat="44.02837" lon="1.61967">
        <ele>15700</ele>
        <time>2020-05-31T05:01:47Z</time>
      </trkpt>
      <trkpt lat="44.0284" lon="1.61959">
        <ele>15700</ele>
        <time>2020-05-31T05:01:48Z</time>
      </trkpt>
      <trkpt lat="44.02844" lon="1.61952">
        <ele>15700</ele>
        <time>2020-05-31T05:01:49Z</time>
      </trkpt>
      <trkpt lat="44.02847" lon="1.61945">
        <ele>15700</ele>
        <time>2020-05-31T05:01:50Z</time>
      </trkpt>
      <trkpt lat="44.02852" lon="1.61938">
        <ele>15700</ele>
        <time>2020-05-31T05:01:51Z</time>
      </trkpt>
      <trkpt lat="44.02855" lon="1.61931">
        <ele>15700</ele>
        <time>2020-05-31T05:01:52Z</time>
      </trkpt>
      <trkpt lat="44.0286" lon="1.61925">
        <ele>15700</ele>
        <time>2020-05-31T05:01:53Z</time>
      </trkpt>
      <trkpt lat="44.02864" lon="1.6192">
        <ele>15700</ele>
        <time>2020-05-31T05:01:54Z</time>
      </trkpt>
      <trkpt lat="44.02869" lon="1.61914">
        <ele>15700</ele>
        <time>2020-05-31T05:01:55Z</time>
      </trkpt>
      <trkpt lat="44.02873" lon="1.61909">
        <ele>15700</ele>
        <time>2020-05-31T05:01:56Z</time>
      </trkpt>
      <trkpt lat="44.02877" lon="1.61904">
        <ele>15700</ele>
        <time>2020-05-31T05:01:57Z</time>
      </trkpt>
      <trkpt lat="44.02882" lon="1.61899">
        <ele>15700</ele>
        <time>2020-05-31T05:01:58Z</time>
      </trkpt>
      <trkpt lat="44.02886" lon="1.61895">
        <ele>15700</ele>
        <time>2020-05-31T05:01:59Z</time>
      </trkpt>
      <trkpt lat="44.0289" lon="1.61889">
        <ele>15700</ele>
        <time>2020-05-31T05:02:00Z</time>
      </trkpt>
      <trkpt lat="44.02894" lon="1.61885">
        <ele>15700</ele>
        <time>2020-05-31T05:02:01Z</time>
      </trkpt>
      <trkpt lat="44.02898" lon="1.6188">
        <ele>15700</ele>
        <time>2020-05-31T05:02:02Z</time>
      </trkpt>
      <trkpt lat="44.02902" lon="1.61875">
        <ele>15700</ele>
        <time>2020-05-31T05:02:03Z</time>
      </trkpt>
      <trkpt lat="44.02906" lon="1.6187">
        <ele>15700</ele>
        <time>2020-05-31T05:02:04Z</time>
      </trkpt>
      <trkpt lat="44.02909" lon="1.61865">
        <ele>15700</ele>
        <time>2020-05-31T05:02:05Z</time>
      </trkpt>
      <trkpt lat="44.02912" lon="1.61861">
        <ele>15700</ele>
        <time>2020-05-31T05:02:06Z</time>
      </trkpt>
      <trkpt lat="44.02915" lon="1.61856">
        <ele>15700</ele>
        <time>2020-05-31T05:02:07Z</time>
      </trkpt>
      <trkpt lat="44.02919" lon="1.61852">
        <ele>15700</ele>
        <time>2020-05-31T05:02:08Z</time>
      </trkpt>
      <trkpt lat="44.02922" lon="1.61847">
        <ele>15700</ele>
        <time>2020-05-31T05:02:09Z</time>
      </trkpt>
      <trkpt lat="44.02926" lon="1.61843">
        <ele>15700</ele>
        <time>2020-05-31T05:02:10Z</time>
      </trkpt>
      <trkpt lat="44.02928" lon="1.61838">
        <ele>15700</ele>
        <time>2020-05-31T05:02:11Z</time>
      </trkpt>
      <trkpt lat="44.02932" lon="1.61834">
        <ele>15700</ele>
        <time>2020-05-31T05:02:12Z</time>
      </trkpt>
      <trkpt lat="44.02935" lon="1.61829">
        <ele>15700</ele>
        <time>2020-05-31T05:02:13Z</time>
      </trkpt>
      <trkpt lat="44.02937" lon="1.61825">
        <ele>15700</ele>
        <time>2020-05-31T05:02:14Z</time>
      </trkpt>
      <trkpt lat="44.0294" lon="1.6182">
        <ele>15700</ele>
        <time>2020-05-31T05:02:15Z</time>
      </trkpt>
      <trkpt lat="44.02943" lon="1.61816">
        <ele>15700</ele>
        <time>2020-05-31T05:02:16Z</time>
      </trkpt>
      <trkpt lat="44.02946" lon="1.61812">
        <ele>15800</ele>
        <time>2020-05-31T05:02:17Z</time>
      </trkpt>
      <trkpt lat="44.02949" lon="1.61808">
        <ele>15800</ele>
        <time>2020-05-31T05:02:18Z</time>
      </trkpt>
      <trkpt lat="44.02952" lon="1.61804">
        <ele>15800</ele>
        <time>2020-05-31T05:02:19Z</time>
      </trkpt>
      <trkpt lat="44.02954" lon="1.618">
        <ele>15800</ele>
        <time>2020-05-31T05:02:20Z</time>
      </trkpt>
      <trkpt lat="44.02956" lon="1.61796">
        <ele>15800</ele>
        <time>2020-05-31T05:02:21Z</time>
      </trkpt>
      <trkpt lat="44.02958" lon="1.61792">
        <ele>15800</ele>
        <time>2020-05-31T05:02:22Z</time>
      </trkpt>
      <trkpt lat="44.0296" lon="1.61787">
        <ele>15800</ele>
        <time>2020-05-31T05:02:23Z</time>
      </trkpt>
      <trkpt lat="44.02963" lon="1.61783">
        <ele>15800</ele>
        <time>2020-05-31T05:02:24Z</time>
      </trkpt>
      <trkpt lat="44.02964" lon="1.61779">
        <ele>15900</ele>
        <time>2020-05-31T05:02:25Z</time>
      </trkpt>
      <trkpt lat="44.02967" lon="1.61774">
        <ele>15900</ele>
        <time>2020-05-31T05:02:26Z</time>
      </trkpt>
      <trkpt lat="44.02969" lon="1.6177">
        <ele>15900</ele>
        <time>2020-05-31T05:02:27Z</time>
      </trkpt>
      <trkpt lat="44.02971" lon="1.61766">
        <ele>15900</ele>
        <time>2020-05-31T05:02:28Z</time>
      </trkpt>
      <trkpt lat="44.02974" lon="1.61762">
        <ele>15900</ele>
        <time>2020-05-31T05:02:29Z</time>
      </trkpt>
      <trkpt lat="44.02976" lon="1.61759">
        <ele>15900</ele>
        <time>2020-05-31T05:02:30Z</time>
      </trkpt>
      <trkpt lat="44.02979" lon="1.61755">
        <ele>15900</ele>
        <time>2020-05-31T05:02:31Z</time>
      </trkpt>
      <trkpt lat="44.02981" lon="1.61752">
        <ele>15900</ele>
        <time>2020-05-31T05:02:32Z</time>
      </trkpt>
      <trkpt lat="44.02984" lon="1.61748">
        <ele>16000</ele>
        <time>2020-05-31T05:02:33Z</time>
      </trkpt>
      <trkpt lat="44.02987" lon="1.61745">
        <ele>16000</ele>
        <time>2020-05-31T05:02:34Z</time>
      </trkpt>
      <trkpt lat="44.02989" lon="1.61741">
        <ele>16000</ele>
        <time>2020-05-31T05:02:35Z</time>
      </trkpt>
      <trkpt lat="44.02992" lon="1.61737">
        <ele>16000</ele>
        <time>2020-05-31T05:02:36Z</time>
      </trkpt>
      <trkpt lat="44.02994" lon="1.61733">
        <ele>16000</ele>
        <time>2020-05-31T05:02:37Z</time>
      </trkpt>
      <trkpt lat="44.02996" lon="1.61729">
        <ele>16000</ele>
        <time>2020-05-31T05:02:38Z</time>
      </trkpt>
      <trkpt lat="44.02998" lon="1.61725">
        <ele>16000</ele>
        <time>2020-05-31T05:02:39Z</time>
      </trkpt>
      <trkpt lat="44.03001" lon="1.61721">
        <ele>16000</ele>
        <time>2020-05-31T05:02:40Z</time>
      </trkpt>
      <trkpt lat="44.03003" lon="1.61717">
        <ele>16000</ele>
        <time>2020-05-31T05:02:41Z</time>
      </trkpt>
      <trkpt lat="44.03005" lon="1.61713">
        <ele>16100</ele>
        <time>2020-05-31T05:02:42Z</time>
      </trkpt>
      <trkpt lat="44.03008" lon="1.61709">
        <ele>16100</ele>
        <time>2020-05-31T05:02:43Z</time>
      </trkpt>
      <trkpt lat="44.03009" lon="1.61705">
        <ele>16100</ele>
        <time>2020-05-31T05:02:44Z</time>
      </trkpt>
      <trkpt lat="44.03012" lon="1.61701">
        <ele>16100</ele>
        <time>2020-05-31T05:02:45Z</time>
      </trkpt>
      <trkpt lat="44.03014" lon="1.61696">
        <ele>16100</ele>
        <time>2020-05-31T05:02:46Z</time>
      </trkpt>
      <trkpt lat="44.03015" lon="1.61692">
        <ele>16100</ele>
        <time>2020-05-31T05:02:47Z</time>
      </trkpt>
      <trkpt lat="44.03017" lon="1.61687">
        <ele>16100</ele>
        <time>2020-05-31T05:02:48Z</time>
      </trkpt>
      <trkpt lat="44.03019" lon="1.61683">
        <ele>16100</ele>
        <time>2020-05-31T05:02:49Z</time>
      </trkpt>
      <trkpt lat="44.03021" lon="1.61678">
        <ele>16200</ele>
        <time>2020-05-31T05:02:50Z</time>
      </trkpt>
      <trkpt lat="44.03023" lon="1.61674">
        <ele>16200</ele>
        <time>2020-05-31T05:02:51Z</time>
      </trkpt>
      <trkpt lat="44.03025" lon="1.61669">
        <ele>16200</ele>
        <time>2020-05-31T05:02:52Z</time>
      </trkpt>
      <trkpt lat="44.03027" lon="1.61665">
        <ele>16200</ele>
        <time>2020-05-31T05:02:53Z</time>
      </trkpt>
      <trkpt lat="44.0303" lon="1.61661">
        <ele>16200</ele>
        <time>2020-05-31T05:02:54Z</time>
      </trkpt>
      <trkpt lat="44.03032" lon="1.61656">
        <ele>16200</ele>
        <time>2020-05-31T05:02:55Z</time>
      </trkpt>
      <trkpt lat="44.03034" lon="1.61652">
        <ele>16200</ele>
        <time>2020-05-31T05:02:56Z</time>
      </trkpt>
      <trkpt lat="44.03036" lon="1.61648">
        <ele>16200</ele>
        <time>2020-05-31T05:02:57Z</time>
      </trkpt>
      <trkpt lat="44.03038" lon="1.61644">
        <ele>16200</ele>
        <time>2020-05-31T05:02:58Z</time>
      </trkpt>
      <trkpt lat="44.03041" lon="1.6164">
        <ele>16200</ele>
        <time>2020-05-31T05:02:59Z</time>
      </trkpt>
      <trkpt lat="44.03043" lon="1.61635">
        <ele>16200</ele>
        <time>2020-05-31T05:03:00Z</time>
      </trkpt>
      <trkpt lat="44.03045" lon="1.61631">
        <ele>16200</ele>
        <time>2020-05-31T05:03:01Z</time>
      </trkpt>
      <trkpt lat="44.03048" lon="1.61627">
        <ele>16200</ele>
        <time>2020-05-31T05:03:02Z</time>
      </trkpt>
      <trkpt lat="44.0305" lon="1.61622">
        <ele>16200</ele>
        <time>2020-05-31T05:03:03Z</time>
      </trkpt>
      <trkpt lat="44.03052" lon="1.61617">
        <ele>16200</ele>
        <time>2020-05-31T05:03:04Z</time>
      </trkpt>
      <trkpt lat="44.03054" lon="1.61613">
        <ele>16200</ele>
        <time>2020-05-31T05:03:05Z</time>
      </trkpt>
      <trkpt lat="44.03057" lon="1.61608">
        <ele>16300</ele>
        <time>2020-05-31T05:03:06Z</time>
      </trkpt>
      <trkpt lat="44.03059" lon="1.61603">
        <ele>16300</ele>
        <time>2020-05-31T05:03:07Z</time>
      </trkpt>
      <trkpt lat="44.03061" lon="1.61599">
        <ele>16300</ele>
        <time>2020-05-31T05:03:08Z</time>
      </trkpt>
      <trkpt lat="44.03063" lon="1.61595">
        <ele>16300</ele>
        <time>2020-05-31T05:03:09Z</time>
      </trkpt>
      <trkpt lat="44.03066" lon="1.61591">
        <ele>16300</ele>
        <time>2020-05-31T05:03:10Z</time>
      </trkpt>
      <trkpt lat="44.03069" lon="1.61587">
        <ele>16300</ele>
        <time>2020-05-31T05:03:11Z</time>
      </trkpt>
      <trkpt lat="44.03071" lon="1.61582">
        <ele>16300</ele>
        <time>2020-05-31T05:03:12Z</time>
      </trkpt>
      <trkpt lat="44.03074" lon="1.61578">
        <ele>16300</ele>
        <time>2020-05-31T05:03:13Z</time>
      </trkpt>
      <trkpt lat="44.03075" lon="1.61575">
        <ele>16300</ele>
        <time>2020-05-31T05:03:14Z</time>
      </trkpt>
      <trkpt lat="44.03078" lon="1.61571">
        <ele>16300</ele>
        <time>2020-05-31T05:03:15Z</time>
      </trkpt>
      <trkpt lat="44.0308" lon="1.61567">
        <ele>16300</ele>
        <time>2020-05-31T05:03:16Z</time>
      </trkpt>
      <trkpt lat="44.03081" lon="1.61564">
        <ele>16300</ele>
        <time>2020-05-31T05:03:17Z</time>
      </trkpt>
      <trkpt lat="44.03083" lon="1.6156">
        <ele>16400</ele>
        <time>2020-05-31T05:03:18Z</time>
      </trkpt>
      <trkpt lat="44.03085" lon="1.61557">
        <ele>16400</ele>
        <time>2020-05-31T05:03:19Z</time>
      </trkpt>
      <trkpt lat="44.03087" lon="1.61553">
        <ele>16400</ele>
        <time>2020-05-31T05:03:20Z</time>
      </trkpt>
      <trkpt lat="44.03088" lon="1.61549">
        <ele>16400</ele>
        <time>2020-05-31T05:03:21Z</time>
      </trkpt>
      <trkpt lat="44.0309" lon="1.61545">
        <ele>16400</ele>
        <time>2020-05-31T05:03:22Z</time>
      </trkpt>
      <trkpt lat="44.03093" lon="1.61541">
        <ele>16400</ele>
        <time>2020-05-31T05:03:23Z</time>
      </trkpt>
      <trkpt lat="44.03095" lon="1.61537">
        <ele>16400</ele>
        <time>2020-05-31T05:03:24Z</time>
      </trkpt>
      <trkpt lat="44.03096" lon="1.61533">
        <ele>16500</ele>
        <time>2020-05-31T05:03:25Z</time>
      </trkpt>
      <trkpt lat="44.03099" lon="1.61529">
        <ele>16500</ele>
        <time>2020-05-31T05:03:26Z</time>
      </trkpt>
      <trkpt lat="44.03101" lon="1.61526">
        <ele>16500</ele>
        <time>2020-05-31T05:03:27Z</time>
      </trkpt>
      <trkpt lat="44.03104" lon="1.61522">
        <ele>16500</ele>
        <time>2020-05-31T05:03:28Z</time>
      </trkpt>
      <trkpt lat="44.03106" lon="1.61518">
        <ele>16500</ele>
        <time>2020-05-31T05:03:29Z</time>
      </trkpt>
      <trkpt lat="44.03109" lon="1.61514">
        <ele>16500</ele>
        <time>2020-05-31T05:03:30Z</time>
      </trkpt>
      <trkpt lat="44.03111" lon="1.6151">
        <ele>16500</ele>
        <time>2020-05-31T05:03:31Z</time>
      </trkpt>
      <trkpt lat="44.03114" lon="1.61506">
        <ele>16500</ele>
        <time>2020-05-31T05:03:32Z</time>
      </trkpt>
      <trkpt lat="44.03116" lon="1.61502">
        <ele>16500</ele>
        <time>2020-05-31T05:03:33Z</time>
      </trkpt>
      <trkpt lat="44.03118" lon="1.61498">
        <ele>16500</ele>
        <time>2020-05-31T05:03:34Z</time>
      </trkpt>
      <trkpt lat="44.0312" lon="1.61494">
        <ele>16600</ele>
        <time>2020-05-31T05:03:35Z</time>
      </trkpt>
      <trkpt lat="44.03123" lon="1.6149">
        <ele>16600</ele>
        <time>2020-05-31T05:03:36Z</time>
      </trkpt>
      <trkpt lat="44.03125" lon="1.61486">
        <ele>16600</ele>
        <time>2020-05-31T05:03:37Z</time>
      </trkpt>
      <trkpt lat="44.03128" lon="1.61482">
        <ele>16600</ele>
        <time>2020-05-31T05:03:38Z</time>
      </trkpt>
      <trkpt lat="44.0313" lon="1.61479">
        <ele>16600</ele>
        <time>2020-05-31T05:03:39Z</time>
      </trkpt>
      <trkpt lat="44.03133" lon="1.61475">
        <ele>16600</ele>
        <time>2020-05-31T05:03:40Z</time>
      </trkpt>
      <trkpt lat="44.03135" lon="1.61472">
        <ele>16600</ele>
        <time>2020-05-31T05:03:41Z</time>
      </trkpt>
      <trkpt lat="44.03137" lon="1.61468">
        <ele>16600</ele>
        <time>2020-05-31T05:03:42Z</time>
      </trkpt>
      <trkpt lat="44.03139" lon="1.61465">
        <ele>16600</ele>
        <time>2020-05-31T05:03:43Z</time>
      </trkpt>
      <trkpt lat="44.03142" lon="1.61461">
        <ele>16600</ele>
        <time>2020-05-31T05:03:44Z</time>
      </trkpt>
      <trkpt lat="44.03144" lon="1.61458">
        <ele>16600</ele>
        <time>2020-05-31T05:03:45Z</time>
      </trkpt>
      <trkpt lat="44.03146" lon="1.61454">
        <ele>16600</ele>
        <time>2020-05-31T05:03:46Z</time>
      </trkpt>
      <trkpt lat="44.03148" lon="1.6145">
        <ele>16600</ele>
        <time>2020-05-31T05:03:47Z</time>
      </trkpt>
      <trkpt lat="44.0315" lon="1.61445">
        <ele>16600</ele>
        <time>2020-05-31T05:03:48Z</time>
      </trkpt>
      <trkpt lat="44.03153" lon="1.61441">
        <ele>16600</ele>
        <time>2020-05-31T05:03:49Z</time>
      </trkpt>
      <trkpt lat="44.03156" lon="1.61437">
        <ele>16600</ele>
        <time>2020-05-31T05:03:50Z</time>
      </trkpt>
      <trkpt lat="44.03158" lon="1.61433">
        <ele>16600</ele>
        <time>2020-05-31T05:03:51Z</time>
      </trkpt>
      <trkpt lat="44.03161" lon="1.61429">
        <ele>16600</ele>
        <time>2020-05-31T05:03:52Z</time>
      </trkpt>
      <trkpt lat="44.03163" lon="1.61425">
        <ele>16600</ele>
        <time>2020-05-31T05:03:53Z</time>
      </trkpt>
      <trkpt lat="44.03166" lon="1.61421">
        <ele>16600</ele>
        <time>2020-05-31T05:03:54Z</time>
      </trkpt>
      <trkpt lat="44.03168" lon="1.61417">
        <ele>16700</ele>
        <time>2020-05-31T05:03:55Z</time>
      </trkpt>
      <trkpt lat="44.03171" lon="1.61413">
        <ele>16700</ele>
        <time>2020-05-31T05:03:56Z</time>
      </trkpt>
      <trkpt lat="44.03173" lon="1.61409">
        <ele>16700</ele>
        <time>2020-05-31T05:03:57Z</time>
      </trkpt>
      <trkpt lat="44.03175" lon="1.61406">
        <ele>16700</ele>
        <time>2020-05-31T05:03:58Z</time>
      </trkpt>
      <trkpt lat="44.03178" lon="1.61402">
        <ele>16700</ele>
        <time>2020-05-31T05:03:59Z</time>
      </trkpt>
      <trkpt lat="44.0318" lon="1.61398">
        <ele>16700</ele>
        <time>2020-05-31T05:04:00Z</time>
      </trkpt>
      <trkpt lat="44.03182" lon="1.61394">
        <ele>16700</ele>
        <time>2020-05-31T05:04:01Z</time>
      </trkpt>
      <trkpt lat="44.03184" lon="1.6139">
        <ele>16800</ele>
        <time>2020-05-31T05:04:02Z</time>
      </trkpt>
      <trkpt lat="44.03186" lon="1.61386">
        <ele>16800</ele>
        <time>2020-05-31T05:04:03Z</time>
      </trkpt>
      <trkpt lat="44.03188" lon="1.61382">
        <ele>16800</ele>
        <time>2020-05-31T05:04:04Z</time>
      </trkpt>
      <trkpt lat="44.03191" lon="1.61378">
        <ele>16800</ele>
        <time>2020-05-31T05:04:05Z</time>
      </trkpt>
      <trkpt lat="44.03193" lon="1.61374">
        <ele>16800</ele>
        <time>2020-05-31T05:04:06Z</time>
      </trkpt>
      <trkpt lat="44.03195" lon="1.61371">
        <ele>16800</ele>
        <time>2020-05-31T05:04:07Z</time>
      </trkpt>
      <trkpt lat="44.03198" lon="1.61367">
        <ele>16800</ele>
        <time>2020-05-31T05:04:08Z</time>
      </trkpt>
      <trkpt lat="44.03199" lon="1.61363">
        <ele>16900</ele>
        <time>2020-05-31T05:04:09Z</time>
      </trkpt>
      <trkpt lat="44.03202" lon="1.61359">
        <ele>16900</ele>
        <time>2020-05-31T05:04:10Z</time>
      </trkpt>
      <trkpt lat="44.03204" lon="1.61356">
        <ele>16900</ele>
        <time>2020-05-31T05:04:11Z</time>
      </trkpt>
      <trkpt lat="44.03206" lon="1.61352">
        <ele>16900</ele>
        <time>2020-05-31T05:04:12Z</time>
      </trkpt>
      <trkpt lat="44.03208" lon="1.61348">
        <ele>16900</ele>
        <time>2020-05-31T05:04:13Z</time>
      </trkpt>
      <trkpt lat="44.03211" lon="1.61344">
        <ele>16900</ele>
        <time>2020-05-31T05:04:14Z</time>
      </trkpt>
      <trkpt lat="44.03214" lon="1.6134">
        <ele>17000</ele>
        <time>2020-05-31T05:04:15Z</time>
      </trkpt>
      <trkpt lat="44.03216" lon="1.61336">
        <ele>17000</ele>
        <time>2020-05-31T05:04:16Z</time>
      </trkpt>
      <trkpt lat="44.03218" lon="1.61332">
        <ele>17000</ele>
        <time>2020-05-31T05:04:17Z</time>
      </trkpt>
      <trkpt lat="44.0322" lon="1.61328">
        <ele>17000</ele>
        <time>2020-05-31T05:04:18Z</time>
      </trkpt>
      <trkpt lat="44.03223" lon="1.61324">
        <ele>17000</ele>
        <time>2020-05-31T05:04:19Z</time>
      </trkpt>
      <trkpt lat="44.03225" lon="1.6132">
        <ele>17000</ele>
        <time>2020-05-31T05:04:20Z</time>
      </trkpt>
      <trkpt lat="44.03227" lon="1.61316">
        <ele>17000</ele>
        <time>2020-05-31T05:04:21Z</time>
      </trkpt>
      <trkpt lat="44.0323" lon="1.61313">
        <ele>17100</ele>
        <time>2020-05-31T05:04:22Z</time>
      </trkpt>
      <trkpt lat="44.03232" lon="1.61309">
        <ele>17100</ele>
        <time>2020-05-31T05:04:22Z</time>
      </trkpt>
      <trkpt lat="44.03235" lon="1.61305">
        <ele>17100</ele>
        <time>2020-05-31T05:04:23Z</time>
      </trkpt>
      <trkpt lat="44.03236" lon="1.61301">
        <ele>17100</ele>
        <time>2020-05-31T05:04:24Z</time>
      </trkpt>
      <trkpt lat="44.03238" lon="1.61297">
        <ele>17100</ele>
        <time>2020-05-31T05:04:25Z</time>
      </trkpt>
      <trkpt lat="44.03241" lon="1.61293">
        <ele>17100</ele>
        <time>2020-05-31T05:04:26Z</time>
      </trkpt>
      <trkpt lat="44.03243" lon="1.6129">
        <ele>17100</ele>
        <time>2020-05-31T05:04:27Z</time>
      </trkpt>
      <trkpt lat="44.03244" lon="1.61286">
        <ele>17100</ele>
        <time>2020-05-31T05:04:28Z</time>
      </trkpt>
      <trkpt lat="44.03247" lon="1.61282">
        <ele>17200</ele>
        <time>2020-05-31T05:04:29Z</time>
      </trkpt>
      <trkpt lat="44.03249" lon="1.61278">
        <ele>17200</ele>
        <time>2020-05-31T05:04:30Z</time>
      </trkpt>
      <trkpt lat="44.03252" lon="1.61274">
        <ele>17200</ele>
        <time>2020-05-31T05:04:31Z</time>
      </trkpt>
      <trkpt lat="44.03254" lon="1.61271">
        <ele>17200</ele>
        <time>2020-05-31T05:04:32Z</time>
      </trkpt>
      <trkpt lat="44.03257" lon="1.61267">
        <ele>17200</ele>
        <time>2020-05-31T05:04:33Z</time>
      </trkpt>
      <trkpt lat="44.03261" lon="1.61264">
        <ele>17200</ele>
        <time>2020-05-31T05:04:34Z</time>
      </trkpt>
      <trkpt lat="44.03265" lon="1.61261">
        <ele>17200</ele>
        <time>2020-05-31T05:04:35Z</time>
      </trkpt>
      <trkpt lat="44.03268" lon="1.61259">
        <ele>17200</ele>
        <time>2020-05-31T05:04:36Z</time>
      </trkpt>
      <trkpt lat="44.03272" lon="1.61256">
        <ele>17200</ele>
        <time>2020-05-31T05:04:37Z</time>
      </trkpt>
      <trkpt lat="44.03275" lon="1.61254">
        <ele>17200</ele>
        <time>2020-05-31T05:04:38Z</time>
      </trkpt>
      <trkpt lat="44.0328" lon="1.61251">
        <ele>17200</ele>
        <time>2020-05-31T05:04:39Z</time>
      </trkpt>
      <trkpt lat="44.03283" lon="1.61249">
        <ele>17200</ele>
        <time>2020-05-31T05:04:40Z</time>
      </trkpt>
      <trkpt lat="44.03287" lon="1.61247">
        <ele>17200</ele>
        <time>2020-05-31T05:04:41Z</time>
      </trkpt>
      <trkpt lat="44.03291" lon="1.61245">
        <ele>17200</ele>
        <time>2020-05-31T05:04:42Z</time>
      </trkpt>
      <trkpt lat="44.03295" lon="1.61243">
        <ele>17200</ele>
        <time>2020-05-31T05:04:43Z</time>
      </trkpt>
      <trkpt lat="44.03299" lon="1.61242">
        <ele>17200</ele>
        <time>2020-05-31T05:04:44Z</time>
      </trkpt>
      <trkpt lat="44.03304" lon="1.61241">
        <ele>17200</ele>
        <time>2020-05-31T05:04:45Z</time>
      </trkpt>
      <trkpt lat="44.03308" lon="1.61239">
        <ele>17200</ele>
        <time>2020-05-31T05:04:46Z</time>
      </trkpt>
      <trkpt lat="44.03312" lon="1.61238">
        <ele>17200</ele>
        <time>2020-05-31T05:04:47Z</time>
      </trkpt>
      <trkpt lat="44.03316" lon="1.61237">
        <ele>17200</ele>
        <time>2020-05-31T05:04:48Z</time>
      </trkpt>
      <trkpt lat="44.0332" lon="1.61237">
        <ele>17200</ele>
        <time>2020-05-31T05:04:49Z</time>
      </trkpt>
      <trkpt lat="44.03324" lon="1.61236">
        <ele>17200</ele>
        <time>2020-05-31T05:04:50Z</time>
      </trkpt>
      <trkpt lat="44.03328" lon="1.61235">
        <ele>17200</ele>
        <time>2020-05-31T05:04:51Z</time>
      </trkpt>
      <trkpt lat="44.03332" lon="1.61233">
        <ele>17200</ele>
        <time>2020-05-31T05:04:52Z</time>
      </trkpt>
      <trkpt lat="44.03336" lon="1.61232">
        <ele>17200</ele>
        <time>2020-05-31T05:04:53Z</time>
      </trkpt>
      <trkpt lat="44.0334" lon="1.6123">
        <ele>17200</ele>
        <time>2020-05-31T05:04:54Z</time>
      </trkpt>
      <trkpt lat="44.03344" lon="1.61228">
        <ele>17200</ele>
        <time>2020-05-31T05:04:55Z</time>
      </trkpt>
      <trkpt lat="44.03349" lon="1.61226">
        <ele>17200</ele>
        <time>2020-05-31T05:04:56Z</time>
      </trkpt>
      <trkpt lat="44.03353" lon="1.61224">
        <ele>17200</ele>
        <time>2020-05-31T05:04:57Z</time>
      </trkpt>
      <trkpt lat="44.03358" lon="1.61222">
        <ele>17200</ele>
        <time>2020-05-31T05:04:58Z</time>
      </trkpt>
      <trkpt lat="44.03362" lon="1.61219">
        <ele>17200</ele>
        <time>2020-05-31T05:04:59Z</time>
      </trkpt>
      <trkpt lat="44.03367" lon="1.61217">
        <ele>17200</ele>
        <time>2020-05-31T05:05:00Z</time>
      </trkpt>
      <trkpt lat="44.03371" lon="1.61215">
        <ele>17200</ele>
        <time>2020-05-31T05:05:01Z</time>
      </trkpt>
      <trkpt lat="44.03376" lon="1.61213">
        <ele>17200</ele>
        <time>2020-05-31T05:05:02Z</time>
      </trkpt>
      <trkpt lat="44.0338" lon="1.61211">
        <ele>17200</ele>
        <time>2020-05-31T05:05:03Z</time>
      </trkpt>
      <trkpt lat="44.03385" lon="1.61209">
        <ele>17200</ele>
        <time>2020-05-31T05:05:04Z</time>
      </trkpt>
      <trkpt lat="44.03389" lon="1.61207">
        <ele>17200</ele>
        <time>2020-05-31T05:05:05Z</time>
      </trkpt>
      <trkpt lat="44.03394" lon="1.61205">
        <ele>17200</ele>
        <time>2020-05-31T05:05:06Z</time>
      </trkpt>
      <trkpt lat="44.03398" lon="1.61202">
        <ele>17200</ele>
        <time>2020-05-31T05:05:07Z</time>
      </trkpt>
      <trkpt lat="44.03401" lon="1.612">
        <ele>17200</ele>
        <time>2020-05-31T05:05:08Z</time>
      </trkpt>
      <trkpt lat="44.03405" lon="1.61198">
        <ele>17200</ele>
        <time>2020-05-31T05:05:09Z</time>
      </trkpt>
      <trkpt lat="44.0341" lon="1.61195">
        <ele>17200</ele>
        <time>2020-05-31T05:05:10Z</time>
      </trkpt>
      <trkpt lat="44.03414" lon="1.61193">
        <ele>17200</ele>
        <time>2020-05-31T05:05:11Z</time>
      </trkpt>
      <trkpt lat="44.03419" lon="1.6119">
        <ele>17200</ele>
        <time>2020-05-31T05:05:12Z</time>
      </trkpt>
      <trkpt lat="44.03424" lon="1.61187">
        <ele>17200</ele>
        <time>2020-05-31T05:05:13Z</time>
      </trkpt>
      <trkpt lat="44.03429" lon="1.61184">
        <ele>17200</ele>
        <time>2020-05-31T05:05:14Z</time>
      </trkpt>
      <trkpt lat="44.03434" lon="1.61181">
        <ele>17200</ele>
        <time>2020-05-31T05:05:15Z</time>
      </trkpt>
      <trkpt lat="44.0344" lon="1.61178">
        <ele>17100</ele>
        <time>2020-05-31T05:05:16Z</time>
      </trkpt>
      <trkpt lat="44.03445" lon="1.61174">
        <ele>17100</ele>
        <time>2020-05-31T05:05:17Z</time>
      </trkpt>
      <trkpt lat="44.03449" lon="1.6117">
        <ele>17100</ele>
        <time>2020-05-31T05:05:18Z</time>
      </trkpt>
      <trkpt lat="44.03455" lon="1.61166">
        <ele>17100</ele>
        <time>2020-05-31T05:05:19Z</time>
      </trkpt>
      <trkpt lat="44.03458" lon="1.61161">
        <ele>17100</ele>
        <time>2020-05-31T05:05:20Z</time>
      </trkpt>
      <trkpt lat="44.03463" lon="1.61155">
        <ele>17000</ele>
        <time>2020-05-31T05:05:21Z</time>
      </trkpt>
      <trkpt lat="44.03466" lon="1.61149">
        <ele>17000</ele>
        <time>2020-05-31T05:05:22Z</time>
      </trkpt>
      <trkpt lat="44.03469" lon="1.61142">
        <ele>16900</ele>
        <time>2020-05-31T05:05:23Z</time>
      </trkpt>
      <trkpt lat="44.03471" lon="1.61135">
        <ele>16900</ele>
        <time>2020-05-31T05:05:24Z</time>
      </trkpt>
      <trkpt lat="44.03471" lon="1.61128">
        <ele>16800</ele>
        <time>2020-05-31T05:05:25Z</time>
      </trkpt>
      <trkpt lat="44.0347" lon="1.6112">
        <ele>16800</ele>
        <time>2020-05-31T05:05:26Z</time>
      </trkpt>
      <trkpt lat="44.03467" lon="1.61112">
        <ele>16700</ele>
        <time>2020-05-31T05:05:27Z</time>
      </trkpt>
      <trkpt lat="44.03464" lon="1.61104">
        <ele>16700</ele>
        <time>2020-05-31T05:05:28Z</time>
      </trkpt>
      <trkpt lat="44.03459" lon="1.61095">
        <ele>16600</ele>
        <time>2020-05-31T05:05:29Z</time>
      </trkpt>
      <trkpt lat="44.03455" lon="1.61086">
        <ele>16600</ele>
        <time>2020-05-31T05:05:30Z</time>
      </trkpt>
      <trkpt lat="44.03449" lon="1.61077">
        <ele>16500</ele>
        <time>2020-05-31T05:05:31Z</time>
      </trkpt>
      <trkpt lat="44.03445" lon="1.61068">
        <ele>16500</ele>
        <time>2020-05-31T05:05:32Z</time>
      </trkpt>
      <trkpt lat="44.0344" lon="1.61059">
        <ele>16300</ele>
        <time>2020-05-31T05:05:33Z</time>
      </trkpt>
      <trkpt lat="44.03434" lon="1.61049">
        <ele>16300</ele>
        <time>2020-05-31T05:05:34Z</time>
      </trkpt>
      <trkpt lat="44.03429" lon="1.6104">
        <ele>16200</ele>
        <time>2020-05-31T05:05:35Z</time>
      </trkpt>
      <trkpt lat="44.03424" lon="1.6103">
        <ele>16200</ele>
        <time>2020-05-31T05:05:36Z</time>
      </trkpt>
      <trkpt lat="44.03419" lon="1.6102">
        <ele>16200</ele>
        <time>2020-05-31T05:05:37Z</time>
      </trkpt>
      <trkpt lat="44.03413" lon="1.6101">
        <ele>16200</ele>
        <time>2020-05-31T05:05:38Z</time>
      </trkpt>
      <trkpt lat="44.03408" lon="1.61">
        <ele>16100</ele>
        <time>2020-05-31T05:05:39Z</time>
      </trkpt>
      <trkpt lat="44.03402" lon="1.60989">
        <ele>16100</ele>
        <time>2020-05-31T05:05:40Z</time>
      </trkpt>
      <trkpt lat="44.03396" lon="1.60979">
        <ele>16000</ele>
        <time>2020-05-31T05:05:41Z</time>
      </trkpt>
      <trkpt lat="44.03389" lon="1.60968">
        <ele>16000</ele>
        <time>2020-05-31T05:05:42Z</time>
      </trkpt>
      <trkpt lat="44.03383" lon="1.60957">
        <ele>15900</ele>
        <time>2020-05-31T05:05:43Z</time>
      </trkpt>
      <trkpt lat="44.03378" lon="1.60945">
        <ele>15900</ele>
        <time>2020-05-31T05:05:44Z</time>
      </trkpt>
      <trkpt lat="44.03373" lon="1.60932">
        <ele>15800</ele>
        <time>2020-05-31T05:05:45Z</time>
      </trkpt>
      <trkpt lat="44.03368" lon="1.60918">
        <ele>15800</ele>
        <time>2020-05-31T05:05:46Z</time>
      </trkpt>
      <trkpt lat="44.03365" lon="1.60904">
        <ele>15600</ele>
        <time>2020-05-31T05:05:47Z</time>
      </trkpt>
      <trkpt lat="44.03364" lon="1.60889">
        <ele>15600</ele>
        <time>2020-05-31T05:05:48Z</time>
      </trkpt>
      <trkpt lat="44.03365" lon="1.60876">
        <ele>15500</ele>
        <time>2020-05-31T05:05:49Z</time>
      </trkpt>
      <trkpt lat="44.03368" lon="1.60862">
        <ele>15500</ele>
        <time>2020-05-31T05:05:50Z</time>
      </trkpt>
      <trkpt lat="44.03373" lon="1.6085">
        <ele>15500</ele>
        <time>2020-05-31T05:05:51Z</time>
      </trkpt>
      <trkpt lat="44.03378" lon="1.6084">
        <ele>15500</ele>
        <time>2020-05-31T05:05:52Z</time>
      </trkpt>
      <trkpt lat="44.03385" lon="1.60832">
        <ele>15500</ele>
        <time>2020-05-31T05:05:53Z</time>
      </trkpt>
      <trkpt lat="44.03392" lon="1.60825">
        <ele>15500</ele>
        <time>2020-05-31T05:05:54Z</time>
      </trkpt>
      <trkpt lat="44.03398" lon="1.60821">
        <ele>15500</ele>
        <time>2020-05-31T05:05:55Z</time>
      </trkpt>
      <trkpt lat="44.03403" lon="1.60818">
        <ele>15600</ele>
        <time>2020-05-31T05:05:56Z</time>
      </trkpt>
      <trkpt lat="44.03409" lon="1.60816">
        <ele>15600</ele>
        <time>2020-05-31T05:05:57Z</time>
      </trkpt>
      <trkpt lat="44.03415" lon="1.60815">
        <ele>15700</ele>
        <time>2020-05-31T05:05:58Z</time>
      </trkpt>
      <trkpt lat="44.0342" lon="1.60814">
        <ele>15700</ele>
        <time>2020-05-31T05:05:59Z</time>
      </trkpt>
      <trkpt lat="44.03424" lon="1.60813">
        <ele>15700</ele>
        <time>2020-05-31T05:06:00Z</time>
      </trkpt>
      <trkpt lat="44.03428" lon="1.60813">
        <ele>15800</ele>
        <time>2020-05-31T05:06:01Z</time>
      </trkpt>
      <trkpt lat="44.03433" lon="1.60813">
        <ele>15800</ele>
        <time>2020-05-31T05:06:02Z</time>
      </trkpt>
      <trkpt lat="44.03436" lon="1.60814">
        <ele>15800</ele>
        <time>2020-05-31T05:06:03Z</time>
      </trkpt>
      <trkpt lat="44.03439" lon="1.60815">
        <ele>15900</ele>
        <time>2020-05-31T05:06:04Z</time>
      </trkpt>
      <trkpt lat="44.03442" lon="1.60816">
        <ele>15900</ele>
        <time>2020-05-31T05:06:05Z</time>
      </trkpt>
      <trkpt lat="44.03445" lon="1.60817">
        <ele>15900</ele>
        <time>2020-05-31T05:06:06Z</time>
      </trkpt>
      <trkpt lat="44.03448" lon="1.60818">
        <ele>15900</ele>
        <time>2020-05-31T05:06:07Z</time>
      </trkpt>
      <trkpt lat="44.03451" lon="1.60819">
        <ele>16000</ele>
        <time>2020-05-31T05:06:08Z</time>
      </trkpt>
      <trkpt lat="44.03454" lon="1.60821">
        <ele>16000</ele>
        <time>2020-05-31T05:06:09Z</time>
      </trkpt>
      <trkpt lat="44.03457" lon="1.60822">
        <ele>16000</ele>
        <time>2020-05-31T05:06:10Z</time>
      </trkpt>
      <trkpt lat="44.0346" lon="1.60823">
        <ele>16000</ele>
        <time>2020-05-31T05:06:11Z</time>
      </trkpt>
      <trkpt lat="44.03464" lon="1.60825">
        <ele>16100</ele>
        <time>2020-05-31T05:06:12Z</time>
      </trkpt>
      <trkpt lat="44.03467" lon="1.60826">
        <ele>16100</ele>
        <time>2020-05-31T05:06:13Z</time>
      </trkpt>
      <trkpt lat="44.0347" lon="1.60828">
        <ele>16100</ele>
        <time>2020-05-31T05:06:14Z</time>
      </trkpt>
      <trkpt lat="44.03473" lon="1.60829">
        <ele>16100</ele>
        <time>2020-05-31T05:06:15Z</time>
      </trkpt>
      <trkpt lat="44.03477" lon="1.60831">
        <ele>16100</ele>
        <time>2020-05-31T05:06:16Z</time>
      </trkpt>
      <trkpt lat="44.0348" lon="1.60832">
        <ele>16200</ele>
        <time>2020-05-31T05:06:17Z</time>
      </trkpt>
      <trkpt lat="44.03482" lon="1.60834">
        <ele>16200</ele>
        <time>2020-05-31T05:06:18Z</time>
      </trkpt>
      <trkpt lat="44.03485" lon="1.60837">
        <ele>16200</ele>
        <time>2020-05-31T05:06:19Z</time>
      </trkpt>
      <trkpt lat="44.03488" lon="1.60839">
        <ele>16200</ele>
        <time>2020-05-31T05:06:20Z</time>
      </trkpt>
      <trkpt lat="44.0349" lon="1.60841">
        <ele>16200</ele>
        <time>2020-05-31T05:06:21Z</time>
      </trkpt>
      <trkpt lat="44.03492" lon="1.60844">
        <ele>16300</ele>
        <time>2020-05-31T05:06:22Z</time>
      </trkpt>
      <trkpt lat="44.03494" lon="1.60846">
        <ele>16300</ele>
        <time>2020-05-31T05:06:23Z</time>
      </trkpt>
      <trkpt lat="44.03497" lon="1.60849">
        <ele>16300</ele>
        <time>2020-05-31T05:06:24Z</time>
      </trkpt>
      <trkpt lat="44.03499" lon="1.60851">
        <ele>16300</ele>
        <time>2020-05-31T05:06:25Z</time>
      </trkpt>
      <trkpt lat="44.03502" lon="1.60854">
        <ele>16300</ele>
        <time>2020-05-31T05:06:26Z</time>
      </trkpt>
      <trkpt lat="44.03504" lon="1.60857">
        <ele>16400</ele>
        <time>2020-05-31T05:06:27Z</time>
      </trkpt>
      <trkpt lat="44.03506" lon="1.60859">
        <ele>16400</ele>
        <time>2020-05-31T05:06:28Z</time>
      </trkpt>
      <trkpt lat="44.03508" lon="1.60861">
        <ele>16400</ele>
        <time>2020-05-31T05:06:29Z</time>
      </trkpt>
      <trkpt lat="44.03511" lon="1.60863">
        <ele>16400</ele>
        <time>2020-05-31T05:06:30Z</time>
      </trkpt>
      <trkpt lat="44.03513" lon="1.60866">
        <ele>16400</ele>
        <time>2020-05-31T05:06:31Z</time>
      </trkpt>
      <trkpt lat="44.03515" lon="1.60868">
        <ele>16500</ele>
        <time>2020-05-31T05:06:32Z</time>
      </trkpt>
      <trkpt lat="44.03518" lon="1.60871">
        <ele>16500</ele>
        <time>2020-05-31T05:06:33Z</time>
      </trkpt>
      <trkpt lat="44.03519" lon="1.60873">
        <ele>16500</ele>
        <time>2020-05-31T05:06:34Z</time>
      </trkpt>
      <trkpt lat="44.03521" lon="1.60875">
        <ele>16500</ele>
        <time>2020-05-31T05:06:35Z</time>
      </trkpt>
      <trkpt lat="44.03523" lon="1.60878">
        <ele>16500</ele>
        <time>2020-05-31T05:06:36Z</time>
      </trkpt>
      <trkpt lat="44.03525" lon="1.60881">
        <ele>16600</ele>
        <time>2020-05-31T05:06:37Z</time>
      </trkpt>
      <trkpt lat="44.03526" lon="1.60884">
        <ele>16600</ele>
        <time>2020-05-31T05:06:38Z</time>
      </trkpt>
      <trkpt lat="44.03527" lon="1.60887">
        <ele>16600</ele>
        <time>2020-05-31T05:06:39Z</time>
      </trkpt>
      <trkpt lat="44.03529" lon="1.6089">
        <ele>16600</ele>
        <time>2020-05-31T05:06:40Z</time>
      </trkpt>
      <trkpt lat="44.03531" lon="1.60893">
        <ele>16600</ele>
        <time>2020-05-31T05:06:41Z</time>
      </trkpt>
      <trkpt lat="44.03533" lon="1.60895">
        <ele>16600</ele>
        <time>2020-05-31T05:06:42Z</time>
      </trkpt>
      <trkpt lat="44.03536" lon="1.60897">
        <ele>16600</ele>
        <time>2020-05-31T05:06:43Z</time>
      </trkpt>
      <trkpt lat="44.03537" lon="1.60898">
        <ele>16600</ele>
        <time>2020-05-31T05:06:44Z</time>
      </trkpt>
      <trkpt lat="44.03539" lon="1.609">
        <ele>16600</ele>
        <time>2020-05-31T05:06:45Z</time>
      </trkpt>
      <trkpt lat="44.03542" lon="1.60901">
        <ele>16600</ele>
        <time>2020-05-31T05:06:46Z</time>
      </trkpt>
      <trkpt lat="44.03544" lon="1.60903">
        <ele>16700</ele>
        <time>2020-05-31T05:06:47Z</time>
      </trkpt>
      <trkpt lat="44.03547" lon="1.60904">
        <ele>16700</ele>
        <time>2020-05-31T05:06:48Z</time>
      </trkpt>
      <trkpt lat="44.03549" lon="1.60905">
        <ele>16700</ele>
        <time>2020-05-31T05:06:49Z</time>
      </trkpt>
      <trkpt lat="44.03552" lon="1.60906">
        <ele>16700</ele>
        <time>2020-05-31T05:06:50Z</time>
      </trkpt>
      <trkpt lat="44.03555" lon="1.60907">
        <ele>16800</ele>
        <time>2020-05-31T05:06:51Z</time>
      </trkpt>
      <trkpt lat="44.03559" lon="1.60907">
        <ele>16800</ele>
        <time>2020-05-31T05:06:52Z</time>
      </trkpt>
      <trkpt lat="44.03563" lon="1.60908">
        <ele>16800</ele>
        <time>2020-05-31T05:06:53Z</time>
      </trkpt>
      <trkpt lat="44.03567" lon="1.60908">
        <ele>16800</ele>
        <time>2020-05-31T05:06:54Z</time>
      </trkpt>
      <trkpt lat="44.0357" lon="1.60909">
        <ele>16800</ele>
        <time>2020-05-31T05:06:55Z</time>
      </trkpt>
      <trkpt lat="44.03574" lon="1.6091">
        <ele>16900</ele>
        <time>2020-05-31T05:06:56Z</time>
      </trkpt>
      <trkpt lat="44.03577" lon="1.60911">
        <ele>16900</ele>
        <time>2020-05-31T05:06:57Z</time>
      </trkpt>
      <trkpt lat="44.03581" lon="1.60911">
        <ele>16900</ele>
        <time>2020-05-31T05:06:58Z</time>
      </trkpt>
      <trkpt lat="44.03584" lon="1.60911">
        <ele>16900</ele>
        <time>2020-05-31T05:06:59Z</time>
      </trkpt>
      <trkpt lat="44.03587" lon="1.60911">
        <ele>16900</ele>
        <time>2020-05-31T05:07:00Z</time>
      </trkpt>
      <trkpt lat="44.0359" lon="1.6091">
        <ele>17000</ele>
        <time>2020-05-31T05:07:01Z</time>
      </trkpt>
      <trkpt lat="44.03593" lon="1.60909">
        <ele>17000</ele>
        <time>2020-05-31T05:07:02Z</time>
      </trkpt>
      <trkpt lat="44.03596" lon="1.60908">
        <ele>17000</ele>
        <time>2020-05-31T05:07:03Z</time>
      </trkpt>
      <trkpt lat="44.03599" lon="1.60907">
        <ele>17000</ele>
        <time>2020-05-31T05:07:04Z</time>
      </trkpt>
      <trkpt lat="44.03602" lon="1.60905">
        <ele>17000</ele>
        <time>2020-05-31T05:07:05Z</time>
      </trkpt>
      <trkpt lat="44.03604" lon="1.60904">
        <ele>17100</ele>
        <time>2020-05-31T05:07:06Z</time>
      </trkpt>
      <trkpt lat="44.03606" lon="1.60902">
        <ele>17100</ele>
        <time>2020-05-31T05:07:07Z</time>
      </trkpt>
      <trkpt lat="44.03609" lon="1.60899">
        <ele>17100</ele>
        <time>2020-05-31T05:07:08Z</time>
      </trkpt>
      <trkpt lat="44.03611" lon="1.60896">
        <ele>17100</ele>
        <time>2020-05-31T05:07:09Z</time>
      </trkpt>
      <trkpt lat="44.03613" lon="1.60893">
        <ele>17100</ele>
        <time>2020-05-31T05:07:10Z</time>
      </trkpt>
      <trkpt lat="44.03615" lon="1.6089">
        <ele>17100</ele>
        <time>2020-05-31T05:07:11Z</time>
      </trkpt>
      <trkpt lat="44.03616" lon="1.60886">
        <ele>17100</ele>
        <time>2020-05-31T05:07:12Z</time>
      </trkpt>
      <trkpt lat="44.03617" lon="1.60881">
        <ele>17100</ele>
        <time>2020-05-31T05:07:13Z</time>
      </trkpt>
      <trkpt lat="44.03619" lon="1.60877">
        <ele>17100</ele>
        <time>2020-05-31T05:07:14Z</time>
      </trkpt>
      <trkpt lat="44.03621" lon="1.60874">
        <ele>17100</ele>
        <time>2020-05-31T05:07:15Z</time>
      </trkpt>
      <trkpt lat="44.03623" lon="1.6087">
        <ele>17200</ele>
        <time>2020-05-31T05:07:16Z</time>
      </trkpt>
      <trkpt lat="44.03625" lon="1.60867">
        <ele>17200</ele>
        <time>2020-05-31T05:07:17Z</time>
      </trkpt>
      <trkpt lat="44.03627" lon="1.60863">
        <ele>17200</ele>
        <time>2020-05-31T05:07:18Z</time>
      </trkpt>
      <trkpt lat="44.0363" lon="1.60859">
        <ele>17200</ele>
        <time>2020-05-31T05:07:19Z</time>
      </trkpt>
      <trkpt lat="44.03632" lon="1.60855">
        <ele>17200</ele>
        <time>2020-05-31T05:07:20Z</time>
      </trkpt>
      <trkpt lat="44.03633" lon="1.60851">
        <ele>17200</ele>
        <time>2020-05-31T05:07:21Z</time>
      </trkpt>
      <trkpt lat="44.03634" lon="1.60847">
        <ele>17300</ele>
        <time>2020-05-31T05:07:22Z</time>
      </trkpt>
      <trkpt lat="44.03635" lon="1.60842">
        <ele>17300</ele>
        <time>2020-05-31T05:07:23Z</time>
      </trkpt>
      <trkpt lat="44.03636" lon="1.60838">
        <ele>17300</ele>
        <time>2020-05-31T05:07:24Z</time>
      </trkpt>
      <trkpt lat="44.03636" lon="1.60834">
        <ele>17300</ele>
        <time>2020-05-31T05:07:25Z</time>
      </trkpt>
      <trkpt lat="44.03637" lon="1.60829">
        <ele>17300</ele>
        <time>2020-05-31T05:07:26Z</time>
      </trkpt>
      <trkpt lat="44.03637" lon="1.60824">
        <ele>17400</ele>
        <time>2020-05-31T05:07:27Z</time>
      </trkpt>
      <trkpt lat="44.03637" lon="1.6082">
        <ele>17400</ele>
        <time>2020-05-31T05:07:28Z</time>
      </trkpt>
      <trkpt lat="44.03637" lon="1.60815">
        <ele>17400</ele>
        <time>2020-05-31T05:07:29Z</time>
      </trkpt>
      <trkpt lat="44.03637" lon="1.60811">
        <ele>17400</ele>
        <time>2020-05-31T05:07:30Z</time>
      </trkpt>
      <trkpt lat="44.03637" lon="1.60807">
        <ele>17400</ele>
        <time>2020-05-31T05:07:31Z</time>
      </trkpt>
      <trkpt lat="44.03637" lon="1.60802">
        <ele>17500</ele>
        <time>2020-05-31T05:07:32Z</time>
      </trkpt>
      <trkpt lat="44.03637" lon="1.60798">
        <ele>17500</ele>
        <time>2020-05-31T05:07:33Z</time>
      </trkpt>
      <trkpt lat="44.03637" lon="1.60794">
        <ele>17500</ele>
        <time>2020-05-31T05:07:34Z</time>
      </trkpt>
      <trkpt lat="44.03637" lon="1.60789">
        <ele>17500</ele>
        <time>2020-05-31T05:07:35Z</time>
      </trkpt>
      <trkpt lat="44.03637" lon="1.60784">
        <ele>17500</ele>
        <time>2020-05-31T05:07:36Z</time>
      </trkpt>
      <trkpt lat="44.03637" lon="1.60779">
        <ele>17500</ele>
        <time>2020-05-31T05:07:37Z</time>
      </trkpt>
      <trkpt lat="44.03637" lon="1.60774">
        <ele>17600</ele>
        <time>2020-05-31T05:07:38Z</time>
      </trkpt>
      <trkpt lat="44.03637" lon="1.6077">
        <ele>17600</ele>
        <time>2020-05-31T05:07:39Z</time>
      </trkpt>
      <trkpt lat="44.03637" lon="1.60765">
        <ele>17600</ele>
        <time>2020-05-31T05:07:40Z</time>
      </trkpt>
      <trkpt lat="44.03637" lon="1.60761">
        <ele>17600</ele>
        <time>2020-05-31T05:07:41Z</time>
      </trkpt>
      <trkpt lat="44.03637" lon="1.60757">
        <ele>17600</ele>
        <time>2020-05-31T05:07:42Z</time>
      </trkpt>
      <trkpt lat="44.03637" lon="1.60752">
        <ele>17700</ele>
        <time>2020-05-31T05:07:43Z</time>
      </trkpt>
      <trkpt lat="44.03637" lon="1.60748">
        <ele>17700</ele>
        <time>2020-05-31T05:07:44Z</time>
      </trkpt>
      <trkpt lat="44.03637" lon="1.60743">
        <ele>17700</ele>
        <time>2020-05-31T05:07:45Z</time>
      </trkpt>
      <trkpt lat="44.03636" lon="1.60739">
        <ele>17700</ele>
        <time>2020-05-31T05:07:46Z</time>
      </trkpt>
      <trkpt lat="44.03636" lon="1.60735">
        <ele>17700</ele>
        <time>2020-05-31T05:07:47Z</time>
      </trkpt>
      <trkpt lat="44.03636" lon="1.6073">
        <ele>17800</ele>
        <time>2020-05-31T05:07:48Z</time>
      </trkpt>
      <trkpt lat="44.03635" lon="1.60726">
        <ele>17800</ele>
        <time>2020-05-31T05:07:49Z</time>
      </trkpt>
      <trkpt lat="44.03635" lon="1.60722">
        <ele>17800</ele>
        <time>2020-05-31T05:07:50Z</time>
      </trkpt>
      <trkpt lat="44.03634" lon="1.60718">
        <ele>17800</ele>
        <time>2020-05-31T05:07:51Z</time>
      </trkpt>
      <trkpt lat="44.03634" lon="1.60714">
        <ele>17800</ele>
        <time>2020-05-31T05:07:52Z</time>
      </trkpt>
      <trkpt lat="44.03633" lon="1.60709">
        <ele>17800</ele>
        <time>2020-05-31T05:07:53Z</time>
      </trkpt>
      <trkpt lat="44.03633" lon="1.60705">
        <ele>17800</ele>
        <time>2020-05-31T05:07:54Z</time>
      </trkpt>
      <trkpt lat="44.03632" lon="1.60701">
        <ele>17800</ele>
        <time>2020-05-31T05:07:55Z</time>
      </trkpt>
      <trkpt lat="44.03631" lon="1.60697">
        <ele>17800</ele>
        <time>2020-05-31T05:07:56Z</time>
      </trkpt>
      <trkpt lat="44.0363" lon="1.60693">
        <ele>17800</ele>
        <time>2020-05-31T05:07:57Z</time>
      </trkpt>
      <trkpt lat="44.0363" lon="1.60689">
        <ele>17900</ele>
        <time>2020-05-31T05:07:58Z</time>
      </trkpt>
      <trkpt lat="44.03629" lon="1.60684">
        <ele>17900</ele>
        <time>2020-05-31T05:07:59Z</time>
      </trkpt>
      <trkpt lat="44.03627" lon="1.6068">
        <ele>17900</ele>
        <time>2020-05-31T05:08:00Z</time>
      </trkpt>
      <trkpt lat="44.03627" lon="1.60676">
        <ele>17900</ele>
        <time>2020-05-31T05:08:01Z</time>
      </trkpt>
      <trkpt lat="44.03626" lon="1.60673">
        <ele>17900</ele>
        <time>2020-05-31T05:08:02Z</time>
      </trkpt>
      <trkpt lat="44.03626" lon="1.60669">
        <ele>17900</ele>
        <time>2020-05-31T05:08:03Z</time>
      </trkpt>
      <trkpt lat="44.03624" lon="1.60665">
        <ele>17900</ele>
        <time>2020-05-31T05:08:04Z</time>
      </trkpt>
      <trkpt lat="44.03624" lon="1.60661">
        <ele>18000</ele>
        <time>2020-05-31T05:08:05Z</time>
      </trkpt>
      <trkpt lat="44.03622" lon="1.60657">
        <ele>18000</ele>
        <time>2020-05-31T05:08:06Z</time>
      </trkpt>
      <trkpt lat="44.03621" lon="1.60652">
        <ele>18000</ele>
        <time>2020-05-31T05:08:07Z</time>
      </trkpt>
      <trkpt lat="44.03619" lon="1.60648">
        <ele>18000</ele>
        <time>2020-05-31T05:08:08Z</time>
      </trkpt>
      <trkpt lat="44.03619" lon="1.60643">
        <ele>18000</ele>
        <time>2020-05-31T05:08:09Z</time>
      </trkpt>
      <trkpt lat="44.03618" lon="1.60639">
        <ele>18100</ele>
        <time>2020-05-31T05:08:10Z</time>
      </trkpt>
      <trkpt lat="44.03618" lon="1.60634">
        <ele>18100</ele>
        <time>2020-05-31T05:08:11Z</time>
      </trkpt>
      <trkpt lat="44.03618" lon="1.6063">
        <ele>18100</ele>
        <time>2020-05-31T05:08:12Z</time>
      </trkpt>
      <trkpt lat="44.03618" lon="1.60626">
        <ele>18100</ele>
        <time>2020-05-31T05:08:13Z</time>
      </trkpt>
      <trkpt lat="44.03617" lon="1.60622">
        <ele>18200</ele>
        <time>2020-05-31T05:08:14Z</time>
      </trkpt>
      <trkpt lat="44.03616" lon="1.60618">
        <ele>18200</ele>
        <time>2020-05-31T05:08:15Z</time>
      </trkpt>
      <trkpt lat="44.03615" lon="1.60615">
        <ele>18200</ele>
        <time>2020-05-31T05:08:16Z</time>
      </trkpt>
      <trkpt lat="44.03614" lon="1.60611">
        <ele>18200</ele>
        <time>2020-05-31T05:08:17Z</time>
      </trkpt>
      <trkpt lat="44.03612" lon="1.60606">
        <ele>18200</ele>
        <time>2020-05-31T05:08:18Z</time>
      </trkpt>
      <trkpt lat="44.03611" lon="1.60602">
        <ele>18300</ele>
        <time>2020-05-31T05:08:19Z</time>
      </trkpt>
      <trkpt lat="44.0361" lon="1.60598">
        <ele>18300</ele>
        <time>2020-05-31T05:08:20Z</time>
      </trkpt>
      <trkpt lat="44.03609" lon="1.60595">
        <ele>18300</ele>
        <time>2020-05-31T05:08:21Z</time>
      </trkpt>
      <trkpt lat="44.03608" lon="1.60591">
        <ele>18300</ele>
        <time>2020-05-31T05:08:22Z</time>
      </trkpt>
      <trkpt lat="44.03606" lon="1.60587">
        <ele>18300</ele>
        <time>2020-05-31T05:08:23Z</time>
      </trkpt>
      <trkpt lat="44.03606" lon="1.60583">
        <ele>18400</ele>
        <time>2020-05-31T05:08:24Z</time>
      </trkpt>
      <trkpt lat="44.03604" lon="1.60579">
        <ele>18400</ele>
        <time>2020-05-31T05:08:25Z</time>
      </trkpt>
      <trkpt lat="44.03603" lon="1.60574">
        <ele>18400</ele>
        <time>2020-05-31T05:08:26Z</time>
      </trkpt>
      <trkpt lat="44.03602" lon="1.6057">
        <ele>18400</ele>
        <time>2020-05-31T05:08:27Z</time>
      </trkpt>
      <trkpt lat="44.03601" lon="1.60566">
        <ele>18400</ele>
        <time>2020-05-31T05:08:28Z</time>
      </trkpt>
      <trkpt lat="44.036" lon="1.60563">
        <ele>18400</ele>
        <time>2020-05-31T05:08:29Z</time>
      </trkpt>
      <trkpt lat="44.03599" lon="1.60559">
        <ele>18400</ele>
        <time>2020-05-31T05:08:30Z</time>
      </trkpt>
      <trkpt lat="44.03598" lon="1.60555">
        <ele>18400</ele>
        <time>2020-05-31T05:08:31Z</time>
      </trkpt>
      <trkpt lat="44.03597" lon="1.60552">
        <ele>18400</ele>
        <time>2020-05-31T05:08:32Z</time>
      </trkpt>
      <trkpt lat="44.03596" lon="1.60548">
        <ele>18400</ele>
        <time>2020-05-31T05:08:33Z</time>
      </trkpt>
      <trkpt lat="44.03596" lon="1.60544">
        <ele>18400</ele>
        <time>2020-05-31T05:08:34Z</time>
      </trkpt>
      <trkpt lat="44.03595" lon="1.6054">
        <ele>18400</ele>
        <time>2020-05-31T05:08:35Z</time>
      </trkpt>
      <trkpt lat="44.03594" lon="1.60535">
        <ele>18400</ele>
        <time>2020-05-31T05:08:36Z</time>
      </trkpt>
      <trkpt lat="44.03593" lon="1.60531">
        <ele>18400</ele>
        <time>2020-05-31T05:08:37Z</time>
      </trkpt>
      <trkpt lat="44.03592" lon="1.60526">
        <ele>18400</ele>
        <time>2020-05-31T05:08:37Z</time>
      </trkpt>
      <trkpt lat="44.03591" lon="1.60521">
        <ele>18500</ele>
        <time>2020-05-31T05:08:38Z</time>
      </trkpt>
      <trkpt lat="44.0359" lon="1.60517">
        <ele>18500</ele>
        <time>2020-05-31T05:08:39Z</time>
      </trkpt>
      <trkpt lat="44.03589" lon="1.60511">
        <ele>18500</ele>
        <time>2020-05-31T05:08:40Z</time>
      </trkpt>
      <trkpt lat="44.03588" lon="1.60506">
        <ele>18500</ele>
        <time>2020-05-31T05:08:41Z</time>
      </trkpt>
      <trkpt lat="44.03587" lon="1.60501">
        <ele>18500</ele>
        <time>2020-05-31T05:08:42Z</time>
      </trkpt>
      <trkpt lat="44.03586" lon="1.60495">
        <ele>18500</ele>
        <time>2020-05-31T05:08:43Z</time>
      </trkpt>
      <trkpt lat="44.03585" lon="1.6049">
        <ele>18500</ele>
        <time>2020-05-31T05:08:44Z</time>
      </trkpt>
      <trkpt lat="44.03585" lon="1.60484">
        <ele>18500</ele>
        <time>2020-05-31T05:08:45Z</time>
      </trkpt>
      <trkpt lat="44.03584" lon="1.60479">
        <ele>18500</ele>
        <time>2020-05-31T05:08:46Z</time>
      </trkpt>
      <trkpt lat="44.03584" lon="1.60473">
        <ele>18500</ele>
        <time>2020-05-31T05:08:47Z</time>
      </trkpt>
      <trkpt lat="44.03584" lon="1.60467">
        <ele>18500</ele>
        <time>2020-05-31T05:08:48Z</time>
      </trkpt>
      <trkpt lat="44.03585" lon="1.60461">
        <ele>18500</ele>
        <time>2020-05-31T05:08:49Z</time>
      </trkpt>
      <trkpt lat="44.03586" lon="1.60456">
        <ele>18500</ele>
        <time>2020-05-31T05:08:50Z</time>
      </trkpt>
      <trkpt lat="44.03588" lon="1.60451">
        <ele>18500</ele>
        <time>2020-05-31T05:08:51Z</time>
      </trkpt>
      <trkpt lat="44.03591" lon="1.60446">
        <ele>18500</ele>
        <time>2020-05-31T05:08:52Z</time>
      </trkpt>
      <trkpt lat="44.03594" lon="1.60442">
        <ele>18500</ele>
        <time>2020-05-31T05:08:53Z</time>
      </trkpt>
      <trkpt lat="44.03597" lon="1.60437">
        <ele>18500</ele>
        <time>2020-05-31T05:08:54Z</time>
      </trkpt>
      <trkpt lat="44.03602" lon="1.60433">
        <ele>18500</ele>
        <time>2020-05-31T05:08:55Z</time>
      </trkpt>
      <trkpt lat="44.03606" lon="1.6043">
        <ele>18500</ele>
        <time>2020-05-31T05:08:56Z</time>
      </trkpt>
      <trkpt lat="44.0361" lon="1.60426">
        <ele>18400</ele>
        <time>2020-05-31T05:08:57Z</time>
      </trkpt>
      <trkpt lat="44.03615" lon="1.60423">
        <ele>18400</ele>
        <time>2020-05-31T05:08:58Z</time>
      </trkpt>
      <trkpt lat="44.0362" lon="1.60419">
        <ele>18400</ele>
        <time>2020-05-31T05:08:59Z</time>
      </trkpt>
      <trkpt lat="44.03625" lon="1.60416">
        <ele>18400</ele>
        <time>2020-05-31T05:09:00Z</time>
      </trkpt>
      <trkpt lat="44.0363" lon="1.60413">
        <ele>18400</ele>
        <time>2020-05-31T05:09:01Z</time>
      </trkpt>
      <trkpt lat="44.03635" lon="1.60409">
        <ele>18300</ele>
        <time>2020-05-31T05:09:02Z</time>
      </trkpt>
      <trkpt lat="44.03641" lon="1.60406">
        <ele>18300</ele>
        <time>2020-05-31T05:09:03Z</time>
      </trkpt>
      <trkpt lat="44.03646" lon="1.60402">
        <ele>18300</ele>
        <time>2020-05-31T05:09:04Z</time>
      </trkpt>
      <trkpt lat="44.03651" lon="1.60398">
        <ele>18300</ele>
        <time>2020-05-31T05:09:05Z</time>
      </trkpt>
      <trkpt lat="44.03657" lon="1.60394">
        <ele>18300</ele>
        <time>2020-05-31T05:09:06Z</time>
      </trkpt>
      <trkpt lat="44.03661" lon="1.60389">
        <ele>18300</ele>
        <time>2020-05-31T05:09:07Z</time>
      </trkpt>
      <trkpt lat="44.03666" lon="1.60385">
        <ele>18300</ele>
        <time>2020-05-31T05:09:08Z</time>
      </trkpt>
      <trkpt lat="44.03671" lon="1.6038">
        <ele>18300</ele>
        <time>2020-05-31T05:09:09Z</time>
      </trkpt>
      <trkpt lat="44.03676" lon="1.60375">
        <ele>18300</ele>
        <time>2020-05-31T05:09:10Z</time>
      </trkpt>
      <trkpt lat="44.03681" lon="1.6037">
        <ele>18300</ele>
        <time>2020-05-31T05:09:11Z</time>
      </trkpt>
      <trkpt lat="44.03685" lon="1.60365">
        <ele>18300</ele>
        <time>2020-05-31T05:09:12Z</time>
      </trkpt>
      <trkpt lat="44.03689" lon="1.60359">
        <ele>18300</ele>
        <time>2020-05-31T05:09:13Z</time>
      </trkpt>
      <trkpt lat="44.03693" lon="1.60354">
        <ele>18300</ele>
        <time>2020-05-31T05:09:14Z</time>
      </trkpt>
      <trkpt lat="44.03696" lon="1.60348">
        <ele>18300</ele>
        <time>2020-05-31T05:09:15Z</time>
      </trkpt>
      <trkpt lat="44.03699" lon="1.60342">
        <ele>18300</ele>
        <time>2020-05-31T05:09:16Z</time>
      </trkpt>
      <trkpt lat="44.03701" lon="1.60335">
        <ele>18300</ele>
        <time>2020-05-31T05:09:17Z</time>
      </trkpt>
      <trkpt lat="44.03704" lon="1.60329">
        <ele>18300</ele>
        <time>2020-05-31T05:09:18Z</time>
      </trkpt>
      <trkpt lat="44.03706" lon="1.60322">
        <ele>18300</ele>
        <time>2020-05-31T05:09:19Z</time>
      </trkpt>
      <trkpt lat="44.03709" lon="1.60315">
        <ele>18300</ele>
        <time>2020-05-31T05:09:20Z</time>
      </trkpt>
      <trkpt lat="44.03712" lon="1.60308">
        <ele>18300</ele>
        <time>2020-05-31T05:09:21Z</time>
      </trkpt>
      <trkpt lat="44.03714" lon="1.60302">
        <ele>18300</ele>
        <time>2020-05-31T05:09:22Z</time>
      </trkpt>
      <trkpt lat="44.03718" lon="1.60295">
        <ele>18300</ele>
        <time>2020-05-31T05:09:23Z</time>
      </trkpt>
      <trkpt lat="44.03721" lon="1.60289">
        <ele>18200</ele>
        <time>2020-05-31T05:09:24Z</time>
      </trkpt>
      <trkpt lat="44.03723" lon="1.60282">
        <ele>18200</ele>
        <time>2020-05-31T05:09:25Z</time>
      </trkpt>
      <trkpt lat="44.03726" lon="1.60276">
        <ele>18200</ele>
        <time>2020-05-31T05:09:26Z</time>
      </trkpt>
      <trkpt lat="44.03729" lon="1.60269">
        <ele>18200</ele>
        <time>2020-05-31T05:09:27Z</time>
      </trkpt>
      <trkpt lat="44.03732" lon="1.60262">
        <ele>18200</ele>
        <time>2020-05-31T05:09:28Z</time>
      </trkpt>
      <trkpt lat="44.03735" lon="1.60256">
        <ele>18200</ele>
        <time>2020-05-31T05:09:29Z</time>
      </trkpt>
      <trkpt lat="44.03737" lon="1.60249">
        <ele>18200</ele>
        <time>2020-05-31T05:09:30Z</time>
      </trkpt>
      <trkpt lat="44.03739" lon="1.60242">
        <ele>18200</ele>
        <time>2020-05-31T05:09:31Z</time>
      </trkpt>
      <trkpt lat="44.03742" lon="1.60235">
        <ele>18200</ele>
        <time>2020-05-31T05:09:32Z</time>
      </trkpt>
      <trkpt lat="44.03744" lon="1.60228">
        <ele>18100</ele>
        <time>2020-05-31T05:09:33Z</time>
      </trkpt>
      <trkpt lat="44.03746" lon="1.60221">
        <ele>18100</ele>
        <time>2020-05-31T05:09:34Z</time>
      </trkpt>
      <trkpt lat="44.03747" lon="1.60214">
        <ele>18100</ele>
        <time>2020-05-31T05:09:35Z</time>
      </trkpt>
      <trkpt lat="44.0375" lon="1.60207">
        <ele>18100</ele>
        <time>2020-05-31T05:09:36Z</time>
      </trkpt>
      <trkpt lat="44.03751" lon="1.60201">
        <ele>18100</ele>
        <time>2020-05-31T05:09:37Z</time>
      </trkpt>
      <trkpt lat="44.03754" lon="1.60194">
        <ele>18100</ele>
        <time>2020-05-31T05:09:38Z</time>
      </trkpt>
      <trkpt lat="44.03756" lon="1.60187">
        <ele>18100</ele>
        <time>2020-05-31T05:09:39Z</time>
      </trkpt>
      <trkpt lat="44.03758" lon="1.6018">
        <ele>18100</ele>
        <time>2020-05-31T05:09:40Z</time>
      </trkpt>
      <trkpt lat="44.03761" lon="1.60173">
        <ele>18000</ele>
        <time>2020-05-31T05:09:41Z</time>
      </trkpt>
      <trkpt lat="44.03763" lon="1.60166">
        <ele>18000</ele>
        <time>2020-05-31T05:09:42Z</time>
      </trkpt>
      <trkpt lat="44.03766" lon="1.60159">
        <ele>18000</ele>
        <time>2020-05-31T05:09:43Z</time>
      </trkpt>
      <trkpt lat="44.03769" lon="1.60152">
        <ele>18000</ele>
        <time>2020-05-31T05:09:44Z</time>
      </trkpt>
      <trkpt lat="44.03771" lon="1.60145">
        <ele>18000</ele>
        <time>2020-05-31T05:09:45Z</time>
      </trkpt>
      <trkpt lat="44.03774" lon="1.60139">
        <ele>18000</ele>
        <time>2020-05-31T05:09:46Z</time>
      </trkpt>
      <trkpt lat="44.03777" lon="1.60132">
        <ele>17900</ele>
        <time>2020-05-31T05:09:47Z</time>
      </trkpt>
      <trkpt lat="44.0378" lon="1.60126">
        <ele>17900</ele>
        <time>2020-05-31T05:09:48Z</time>
      </trkpt>
      <trkpt lat="44.03783" lon="1.60119">
        <ele>17900</ele>
        <time>2020-05-31T05:09:49Z</time>
      </trkpt>
      <trkpt lat="44.03786" lon="1.60112">
        <ele>17900</ele>
        <time>2020-05-31T05:09:50Z</time>
      </trkpt>
      <trkpt lat="44.0379" lon="1.60105">
        <ele>17800</ele>
        <time>2020-05-31T05:09:51Z</time>
      </trkpt>
      <trkpt lat="44.03793" lon="1.60097">
        <ele>17800</ele>
        <time>2020-05-31T05:09:52Z</time>
      </trkpt>
      <trkpt lat="44.03798" lon="1.60089">
        <ele>17800</ele>
        <time>2020-05-31T05:09:53Z</time>
      </trkpt>
      <trkpt lat="44.03802" lon="1.60081">
        <ele>17700</ele>
        <time>2020-05-31T05:09:54Z</time>
      </trkpt>
      <trkpt lat="44.03806" lon="1.60073">
        <ele>17700</ele>
        <time>2020-05-31T05:09:55Z</time>
      </trkpt>
      <trkpt lat="44.0381" lon="1.60065">
        <ele>17700</ele>
        <time>2020-05-31T05:09:56Z</time>
      </trkpt>
      <trkpt lat="44.03814" lon="1.60058">
        <ele>17700</ele>
        <time>2020-05-31T05:09:57Z</time>
      </trkpt>
      <trkpt lat="44.03819" lon="1.6005">
        <ele>17600</ele>
        <time>2020-05-31T05:09:58Z</time>
      </trkpt>
      <trkpt lat="44.03824" lon="1.60043">
        <ele>17600</ele>
        <time>2020-05-31T05:09:59Z</time>
      </trkpt>
      <trkpt lat="44.03828" lon="1.60036">
        <ele>17600</ele>
        <time>2020-05-31T05:10:00Z</time>
      </trkpt>
      <trkpt lat="44.03834" lon="1.60028">
        <ele>17600</ele>
        <time>2020-05-31T05:10:01Z</time>
      </trkpt>
      <trkpt lat="44.03839" lon="1.60022">
        <ele>17600</ele>
        <time>2020-05-31T05:10:02Z</time>
      </trkpt>
      <trkpt lat="44.03845" lon="1.60015">
        <ele>17600</ele>
        <time>2020-05-31T05:10:03Z</time>
      </trkpt>
      <trkpt lat="44.03851" lon="1.60009">
        <ele>17600</ele>
        <time>2020-05-31T05:10:04Z</time>
      </trkpt>
      <trkpt lat="44.03857" lon="1.60003">
        <ele>17500</ele>
        <time>2020-05-31T05:10:05Z</time>
      </trkpt>
      <trkpt lat="44.03863" lon="1.59998">
        <ele>17500</ele>
        <time>2020-05-31T05:10:06Z</time>
      </trkpt>
      <trkpt lat="44.03869" lon="1.59992">
        <ele>17500</ele>
        <time>2020-05-31T05:10:07Z</time>
      </trkpt>
      <trkpt lat="44.03875" lon="1.59987">
        <ele>17500</ele>
        <time>2020-05-31T05:10:08Z</time>
      </trkpt>
      <trkpt lat="44.03881" lon="1.59981">
        <ele>17500</ele>
        <time>2020-05-31T05:10:09Z</time>
      </trkpt>
      <trkpt lat="44.03887" lon="1.59976">
        <ele>17400</ele>
        <time>2020-05-31T05:10:10Z</time>
      </trkpt>
      <trkpt lat="44.03893" lon="1.5997">
        <ele>17400</ele>
        <time>2020-05-31T05:10:11Z</time>
      </trkpt>
      <trkpt lat="44.03898" lon="1.59965">
        <ele>17400</ele>
        <time>2020-05-31T05:10:12Z</time>
      </trkpt>
      <trkpt lat="44.03904" lon="1.5996">
        <ele>17400</ele>
        <time>2020-05-31T05:10:13Z</time>
      </trkpt>
      <trkpt lat="44.0391" lon="1.59954">
        <ele>17400</ele>
        <time>2020-05-31T05:10:14Z</time>
      </trkpt>
      <trkpt lat="44.03916" lon="1.59949">
        <ele>17300</ele>
        <time>2020-05-31T05:10:15Z</time>
      </trkpt>
      <trkpt lat="44.03921" lon="1.59944">
        <ele>17300</ele>
        <time>2020-05-31T05:10:16Z</time>
      </trkpt>
      <trkpt lat="44.03927" lon="1.59939">
        <ele>17300</ele>
        <time>2020-05-31T05:10:17Z</time>
      </trkpt>
      <trkpt lat="44.03933" lon="1.59933">
        <ele>17300</ele>
        <time>2020-05-31T05:10:18Z</time>
      </trkpt>
      <trkpt lat="44.03938" lon="1.59927">
        <ele>17300</ele>
        <time>2020-05-31T05:10:19Z</time>
      </trkpt>
      <trkpt lat="44.03944" lon="1.59921">
        <ele>17300</ele>
        <time>2020-05-31T05:10:20Z</time>
      </trkpt>
      <trkpt lat="44.0395" lon="1.59915">
        <ele>17300</ele>
        <time>2020-05-31T05:10:21Z</time>
      </trkpt>
      <trkpt lat="44.03955" lon="1.5991">
        <ele>17300</ele>
        <time>2020-05-31T05:10:22Z</time>
      </trkpt>
      <trkpt lat="44.0396" lon="1.59904">
        <ele>17300</ele>
        <time>2020-05-31T05:10:23Z</time>
      </trkpt>
      <trkpt lat="44.03964" lon="1.59899">
        <ele>17300</ele>
        <time>2020-05-31T05:10:24Z</time>
      </trkpt>
      <trkpt lat="44.03968" lon="1.59894">
        <ele>17300</ele>
        <time>2020-05-31T05:10:25Z</time>
      </trkpt>
      <trkpt lat="44.03973" lon="1.5989">
        <ele>17200</ele>
        <time>2020-05-31T05:10:26Z</time>
      </trkpt>
      <trkpt lat="44.03977" lon="1.59887">
        <ele>17200</ele>
        <time>2020-05-31T05:10:27Z</time>
      </trkpt>
      <trkpt lat="44.0398" lon="1.59883">
        <ele>17200</ele>
        <time>2020-05-31T05:10:28Z</time>
      </trkpt>
      <trkpt lat="44.03983" lon="1.59881">
        <ele>17200</ele>
        <time>2020-05-31T05:10:29Z</time>
      </trkpt>
      <trkpt lat="44.03986" lon="1.59878">
        <ele>17200</ele>
        <time>2020-05-31T05:10:30Z</time>
      </trkpt>
      <trkpt lat="44.03989" lon="1.59875">
        <ele>17200</ele>
        <time>2020-05-31T05:10:31Z</time>
      </trkpt>
      <trkpt lat="44.03992" lon="1.59873">
        <ele>17200</ele>
        <time>2020-05-31T05:10:32Z</time>
      </trkpt>
      <trkpt lat="44.03994" lon="1.59872">
        <ele>17200</ele>
        <time>2020-05-31T05:10:33Z</time>
      </trkpt>
      <trkpt lat="44.03996" lon="1.5987">
        <ele>17200</ele>
        <time>2020-05-31T05:10:34Z</time>
      </trkpt>
      <trkpt lat="44.03997" lon="1.5987">
        <ele>17200</ele>
        <time>2020-05-31T05:10:35Z</time>
      </trkpt>
      <trkpt lat="44.03997" lon="1.5987">
        <ele>17200</ele>
        <time>2020-05-31T05:10:36Z</time>
      </trkpt>
      <trkpt lat="44.03998" lon="1.5987">
        <ele>17200</ele>
        <time>2020-05-31T05:10:37Z</time>
      </trkpt>
      <trkpt lat="44.03998" lon="1.5987">
        <ele>17200</ele>
        <time>2020-05-31T05:10:38Z</time>
      </trkpt>
      <trkpt lat="44.03999" lon="1.5987">
        <ele>17200</ele>
        <time>2020-05-31T05:10:39Z</time>
      </trkpt>
      <trkpt lat="44.03999" lon="1.5987">
        <ele>17200</ele>
        <time>2020-05-31T05:10:40Z</time>
      </trkpt>
      <trkpt lat="44.04" lon="1.5987">
        <ele>17200</ele>
        <time>2020-05-31T05:10:41Z</time>
      </trkpt>
      <trkpt lat="44.04001" lon="1.5987">
        <ele>17200</ele>
        <time>2020-05-31T05:10:42Z</time>
      </trkpt>
      <trkpt lat="44.04002" lon="1.59871">
        <ele>17200</ele>
        <time>2020-05-31T05:10:43Z</time>
      </trkpt>
      <trkpt lat="44.04003" lon="1.59871">
        <ele>17200</ele>
        <time>2020-05-31T05:10:44Z</time>
      </trkpt>
      <trkpt lat="44.04005" lon="1.59873">
        <ele>17200</ele>
        <time>2020-05-31T05:10:45Z</time>
      </trkpt>
      <trkpt lat="44.04008" lon="1.59874">
        <ele>17100</ele>
        <time>2020-05-31T05:10:46Z</time>
      </trkpt>
      <trkpt lat="44.04011" lon="1.59875">
        <ele>17100</ele>
        <time>2020-05-31T05:10:47Z</time>
      </trkpt>
      <trkpt lat="44.04015" lon="1.59877">
        <ele>17100</ele>
        <time>2020-05-31T05:10:48Z</time>
      </trkpt>
      <trkpt lat="44.04018" lon="1.59879">
        <ele>17100</ele>
        <time>2020-05-31T05:10:49Z</time>
      </trkpt>
      <trkpt lat="44.04022" lon="1.59881">
        <ele>17100</ele>
        <time>2020-05-31T05:10:50Z</time>
      </trkpt>
      <trkpt lat="44.04026" lon="1.59883">
        <ele>17000</ele>
        <time>2020-05-31T05:10:51Z</time>
      </trkpt>
      <trkpt lat="44.04031" lon="1.59885">
        <ele>17000</ele>
        <time>2020-05-31T05:10:52Z</time>
      </trkpt>
      <trkpt lat="44.04034" lon="1.59886">
        <ele>17000</ele>
        <time>2020-05-31T05:10:53Z</time>
      </trkpt>
      <trkpt lat="44.04039" lon="1.59887">
        <ele>17000</ele>
        <time>2020-05-31T05:10:54Z</time>
      </trkpt>
      <trkpt lat="44.04044" lon="1.59888">
        <ele>17000</ele>
        <time>2020-05-31T05:10:55Z</time>
      </trkpt>
      <trkpt lat="44.04049" lon="1.59889">
        <ele>17000</ele>
        <time>2020-05-31T05:10:56Z</time>
      </trkpt>
      <trkpt lat="44.04055" lon="1.5989">
        <ele>16900</ele>
        <time>2020-05-31T05:10:57Z</time>
      </trkpt>
      <trkpt lat="44.0406" lon="1.59891">
        <ele>16900</ele>
        <time>2020-05-31T05:10:58Z</time>
      </trkpt>
      <trkpt lat="44.04065" lon="1.59892">
        <ele>16900</ele>
        <time>2020-05-31T05:10:59Z</time>
      </trkpt>
      <trkpt lat="44.0407" lon="1.59893">
        <ele>16900</ele>
        <time>2020-05-31T05:11:00Z</time>
      </trkpt>
      <trkpt lat="44.04075" lon="1.59895">
        <ele>16900</ele>
        <time>2020-05-31T05:11:01Z</time>
      </trkpt>
      <trkpt lat="44.04081" lon="1.59896">
        <ele>16900</ele>
        <time>2020-05-31T05:11:02Z</time>
      </trkpt>
      <trkpt lat="44.04086" lon="1.59898">
        <ele>16900</ele>
        <time>2020-05-31T05:11:03Z</time>
      </trkpt>
      <trkpt lat="44.04093" lon="1.59901">
        <ele>16800</ele>
        <time>2020-05-31T05:11:04Z</time>
      </trkpt>
      <trkpt lat="44.04099" lon="1.59903">
        <ele>16800</ele>
        <time>2020-05-31T05:11:05Z</time>
      </trkpt>
      <trkpt lat="44.04105" lon="1.59905">
        <ele>16800</ele>
        <time>2020-05-31T05:11:06Z</time>
      </trkpt>
      <trkpt lat="44.04111" lon="1.59906">
        <ele>16800</ele>
        <time>2020-05-31T05:11:07Z</time>
      </trkpt>
      <trkpt lat="44.04116" lon="1.59906">
        <ele>16800</ele>
        <time>2020-05-31T05:11:08Z</time>
      </trkpt>
      <trkpt lat="44.04122" lon="1.59907">
        <ele>16800</ele>
        <time>2020-05-31T05:11:09Z</time>
      </trkpt>
      <trkpt lat="44.04127" lon="1.59907">
        <ele>16800</ele>
        <time>2020-05-31T05:11:10Z</time>
      </trkpt>
      <trkpt lat="44.04133" lon="1.59907">
        <ele>16800</ele>
        <time>2020-05-31T05:11:11Z</time>
      </trkpt>
      <trkpt lat="44.04138" lon="1.59907">
        <ele>16800</ele>
        <time>2020-05-31T05:11:12Z</time>
      </trkpt>
      <trkpt lat="44.04144" lon="1.59907">
        <ele>16800</ele>
        <time>2020-05-31T05:11:13Z</time>
      </trkpt>
      <trkpt lat="44.0415" lon="1.59908">
        <ele>16800</ele>
        <time>2020-05-31T05:11:14Z</time>
      </trkpt>
      <trkpt lat="44.04155" lon="1.59909">
        <ele>16800</ele>
        <time>2020-05-31T05:11:15Z</time>
      </trkpt>
      <trkpt lat="44.04162" lon="1.5991">
        <ele>16800</ele>
        <time>2020-05-31T05:11:16Z</time>
      </trkpt>
      <trkpt lat="44.04168" lon="1.5991">
        <ele>16800</ele>
        <time>2020-05-31T05:11:17Z</time>
      </trkpt>
      <trkpt lat="44.04173" lon="1.5991">
        <ele>16800</ele>
        <time>2020-05-31T05:11:18Z</time>
      </trkpt>
      <trkpt lat="44.0418" lon="1.59909">
        <ele>16800</ele>
        <time>2020-05-31T05:11:19Z</time>
      </trkpt>
      <trkpt lat="44.04186" lon="1.59909">
        <ele>16800</ele>
        <time>2020-05-31T05:11:20Z</time>
      </trkpt>
      <trkpt lat="44.04193" lon="1.59909">
        <ele>16800</ele>
        <time>2020-05-31T05:11:21Z</time>
      </trkpt>
      <trkpt lat="44.04199" lon="1.59908">
        <ele>16800</ele>
        <time>2020-05-31T05:11:22Z</time>
      </trkpt>
      <trkpt lat="44.04205" lon="1.59908">
        <ele>16800</ele>
        <time>2020-05-31T05:11:23Z</time>
      </trkpt>
      <trkpt lat="44.04211" lon="1.59908">
        <ele>16800</ele>
        <time>2020-05-31T05:11:24Z</time>
      </trkpt>
      <trkpt lat="44.04217" lon="1.59909">
        <ele>16800</ele>
        <time>2020-05-31T05:11:25Z</time>
      </trkpt>
      <trkpt lat="44.04223" lon="1.59909">
        <ele>16800</ele>
        <time>2020-05-31T05:11:26Z</time>
      </trkpt>
      <trkpt lat="44.04229" lon="1.59909">
        <ele>16700</ele>
        <time>2020-05-31T05:11:27Z</time>
      </trkpt>
      <trkpt lat="44.04234" lon="1.59909">
        <ele>16700</ele>
        <time>2020-05-31T05:11:28Z</time>
      </trkpt>
      <trkpt lat="44.0424" lon="1.59909">
        <ele>16700</ele>
        <time>2020-05-31T05:11:29Z</time>
      </trkpt>
      <trkpt lat="44.04246" lon="1.5991">
        <ele>16700</ele>
        <time>2020-05-31T05:11:30Z</time>
      </trkpt>
      <trkpt lat="44.04252" lon="1.5991">
        <ele>16700</ele>
        <time>2020-05-31T05:11:31Z</time>
      </trkpt>
      <trkpt lat="44.04258" lon="1.5991">
        <ele>16700</ele>
        <time>2020-05-31T05:11:32Z</time>
      </trkpt>
      <trkpt lat="44.04265" lon="1.5991">
        <ele>16700</ele>
        <time>2020-05-31T05:11:33Z</time>
      </trkpt>
      <trkpt lat="44.04271" lon="1.5991">
        <ele>16700</ele>
        <time>2020-05-31T05:11:34Z</time>
      </trkpt>
      <trkpt lat="44.04277" lon="1.59911">
        <ele>16700</ele>
        <time>2020-05-31T05:11:35Z</time>
      </trkpt>
      <trkpt lat="44.04282" lon="1.59911">
        <ele>16700</ele>
        <time>2020-05-31T05:11:36Z</time>
      </trkpt>
      <trkpt lat="44.04289" lon="1.59912">
        <ele>16700</ele>
        <time>2020-05-31T05:11:37Z</time>
      </trkpt>
      <trkpt lat="44.04295" lon="1.59913">
        <ele>16700</ele>
        <time>2020-05-31T05:11:38Z</time>
      </trkpt>
      <trkpt lat="44.043" lon="1.59914">
        <ele>16600</ele>
        <time>2020-05-31T05:11:39Z</time>
      </trkpt>
      <trkpt lat="44.04306" lon="1.59915">
        <ele>16600</ele>
        <time>2020-05-31T05:11:40Z</time>
      </trkpt>
      <trkpt lat="44.04312" lon="1.59916">
        <ele>16600</ele>
        <time>2020-05-31T05:11:41Z</time>
      </trkpt>
      <trkpt lat="44.04317" lon="1.59917">
        <ele>16600</ele>
        <time>2020-05-31T05:11:42Z</time>
      </trkpt>
      <trkpt lat="44.04322" lon="1.59918">
        <ele>16600</ele>
        <time>2020-05-31T05:11:43Z</time>
      </trkpt>
      <trkpt lat="44.04328" lon="1.59919">
        <ele>16600</ele>
        <time>2020-05-31T05:11:44Z</time>
      </trkpt>
      <trkpt lat="44.04333" lon="1.59921">
        <ele>16600</ele>
        <time>2020-05-31T05:11:45Z</time>
      </trkpt>
      <trkpt lat="44.04338" lon="1.59922">
        <ele>16600</ele>
        <time>2020-05-31T05:11:46Z</time>
      </trkpt>
      <trkpt lat="44.04344" lon="1.59924">
        <ele>16600</ele>
        <time>2020-05-31T05:11:47Z</time>
      </trkpt>
      <trkpt lat="44.0435" lon="1.59926">
        <ele>16600</ele>
        <time>2020-05-31T05:11:48Z</time>
      </trkpt>
      <trkpt lat="44.04355" lon="1.59927">
        <ele>16600</ele>
        <time>2020-05-31T05:11:49Z</time>
      </trkpt>
      <trkpt lat="44.04361" lon="1.59929">
        <ele>16600</ele>
        <time>2020-05-31T05:11:50Z</time>
      </trkpt>
      <trkpt lat="44.04367" lon="1.5993">
        <ele>16600</ele>
        <time>2020-05-31T05:11:51Z</time>
      </trkpt>
      <trkpt lat="44.04372" lon="1.59931">
        <ele>16500</ele>
        <time>2020-05-31T05:11:52Z</time>
      </trkpt>
      <trkpt lat="44.04379" lon="1.59933">
        <ele>16500</ele>
        <time>2020-05-31T05:11:53Z</time>
      </trkpt>
      <trkpt lat="44.04384" lon="1.59934">
        <ele>16500</ele>
        <time>2020-05-31T05:11:54Z</time>
      </trkpt>
      <trkpt lat="44.04389" lon="1.59935">
        <ele>16500</ele>
        <time>2020-05-31T05:11:55Z</time>
      </trkpt>
      <trkpt lat="44.04395" lon="1.59936">
        <ele>16500</ele>
        <time>2020-05-31T05:11:56Z</time>
      </trkpt>
      <trkpt lat="44.04401" lon="1.59937">
        <ele>16500</ele>
        <time>2020-05-31T05:11:57Z</time>
      </trkpt>
      <trkpt lat="44.04406" lon="1.59937">
        <ele>16500</ele>
        <time>2020-05-31T05:11:58Z</time>
      </trkpt>
      <trkpt lat="44.04411" lon="1.59938">
        <ele>16500</ele>
        <time>2020-05-31T05:11:59Z</time>
      </trkpt>
      <trkpt lat="44.04417" lon="1.59938">
        <ele>16500</ele>
        <time>2020-05-31T05:12:00Z</time>
      </trkpt>
      <trkpt lat="44.04423" lon="1.59938">
        <ele>16500</ele>
        <time>2020-05-31T05:12:01Z</time>
      </trkpt>
      <trkpt lat="44.04428" lon="1.59938">
        <ele>16500</ele>
        <time>2020-05-31T05:12:02Z</time>
      </trkpt>
      <trkpt lat="44.04434" lon="1.59938">
        <ele>16500</ele>
        <time>2020-05-31T05:12:03Z</time>
      </trkpt>
      <trkpt lat="44.0444" lon="1.59938">
        <ele>16500</ele>
        <time>2020-05-31T05:12:04Z</time>
      </trkpt>
      <trkpt lat="44.04445" lon="1.59938">
        <ele>16500</ele>
        <time>2020-05-31T05:12:05Z</time>
      </trkpt>
      <trkpt lat="44.04451" lon="1.59938">
        <ele>16500</ele>
        <time>2020-05-31T05:12:06Z</time>
      </trkpt>
      <trkpt lat="44.04456" lon="1.59938">
        <ele>16500</ele>
        <time>2020-05-31T05:12:07Z</time>
      </trkpt>
      <trkpt lat="44.04462" lon="1.59939">
        <ele>16500</ele>
        <time>2020-05-31T05:12:08Z</time>
      </trkpt>
      <trkpt lat="44.04467" lon="1.5994">
        <ele>16500</ele>
        <time>2020-05-31T05:12:09Z</time>
      </trkpt>
      <trkpt lat="44.04473" lon="1.5994">
        <ele>16400</ele>
        <time>2020-05-31T05:12:10Z</time>
      </trkpt>
      <trkpt lat="44.04479" lon="1.59941">
        <ele>16400</ele>
        <time>2020-05-31T05:12:11Z</time>
      </trkpt>
      <trkpt lat="44.04483" lon="1.59942">
        <ele>16400</ele>
        <time>2020-05-31T05:12:12Z</time>
      </trkpt>
      <trkpt lat="44.04489" lon="1.59943">
        <ele>16400</ele>
        <time>2020-05-31T05:12:13Z</time>
      </trkpt>
      <trkpt lat="44.04494" lon="1.59944">
        <ele>16400</ele>
        <time>2020-05-31T05:12:14Z</time>
      </trkpt>
      <trkpt lat="44.04499" lon="1.59945">
        <ele>16400</ele>
        <time>2020-05-31T05:12:15Z</time>
      </trkpt>
      <trkpt lat="44.04504" lon="1.59947">
        <ele>16400</ele>
        <time>2020-05-31T05:12:16Z</time>
      </trkpt>
      <trkpt lat="44.0451" lon="1.59947">
        <ele>16400</ele>
        <time>2020-05-31T05:12:17Z</time>
      </trkpt>
      <trkpt lat="44.04515" lon="1.59948">
        <ele>16400</ele>
        <time>2020-05-31T05:12:18Z</time>
      </trkpt>
      <trkpt lat="44.04519" lon="1.59949">
        <ele>16400</ele>
        <time>2020-05-31T05:12:19Z</time>
      </trkpt>
      <trkpt lat="44.04525" lon="1.59949">
        <ele>16400</ele>
        <time>2020-05-31T05:12:20Z</time>
      </trkpt>
      <trkpt lat="44.0453" lon="1.5995">
        <ele>16400</ele>
        <time>2020-05-31T05:12:21Z</time>
      </trkpt>
      <trkpt lat="44.04535" lon="1.59951">
        <ele>16400</ele>
        <time>2020-05-31T05:12:22Z</time>
      </trkpt>
      <trkpt lat="44.04541" lon="1.59952">
        <ele>16400</ele>
        <time>2020-05-31T05:12:23Z</time>
      </trkpt>
      <trkpt lat="44.04546" lon="1.59953">
        <ele>16400</ele>
        <time>2020-05-31T05:12:24Z</time>
      </trkpt>
      <trkpt lat="44.04552" lon="1.59954">
        <ele>16400</ele>
        <time>2020-05-31T05:12:25Z</time>
      </trkpt>
      <trkpt lat="44.04557" lon="1.59956">
        <ele>16400</ele>
        <time>2020-05-31T05:12:26Z</time>
      </trkpt>
      <trkpt lat="44.04563" lon="1.59957">
        <ele>16400</ele>
        <time>2020-05-31T05:12:27Z</time>
      </trkpt>
      <trkpt lat="44.04569" lon="1.59958">
        <ele>16400</ele>
        <time>2020-05-31T05:12:28Z</time>
      </trkpt>
      <trkpt lat="44.04574" lon="1.59959">
        <ele>16400</ele>
        <time>2020-05-31T05:12:29Z</time>
      </trkpt>
      <trkpt lat="44.04579" lon="1.59961">
        <ele>16400</ele>
        <time>2020-05-31T05:12:30Z</time>
      </trkpt>
      <trkpt lat="44.04585" lon="1.59962">
        <ele>16300</ele>
        <time>2020-05-31T05:12:31Z</time>
      </trkpt>
      <trkpt lat="44.0459" lon="1.59963">
        <ele>16300</ele>
        <time>2020-05-31T05:12:32Z</time>
      </trkpt>
      <trkpt lat="44.04595" lon="1.59965">
        <ele>16300</ele>
        <time>2020-05-31T05:12:33Z</time>
      </trkpt>
      <trkpt lat="44.046" lon="1.59966">
        <ele>16300</ele>
        <time>2020-05-31T05:12:34Z</time>
      </trkpt>
      <trkpt lat="44.04606" lon="1.59968">
        <ele>16300</ele>
        <time>2020-05-31T05:12:35Z</time>
      </trkpt>
      <trkpt lat="44.04611" lon="1.5997">
        <ele>16300</ele>
        <time>2020-05-31T05:12:36Z</time>
      </trkpt>
      <trkpt lat="44.04617" lon="1.59971">
        <ele>16300</ele>
        <time>2020-05-31T05:12:37Z</time>
      </trkpt>
      <trkpt lat="44.04622" lon="1.59972">
        <ele>16300</ele>
        <time>2020-05-31T05:12:38Z</time>
      </trkpt>
      <trkpt lat="44.04628" lon="1.59973">
        <ele>16300</ele>
        <time>2020-05-31T05:12:39Z</time>
      </trkpt>
      <trkpt lat="44.04633" lon="1.59974">
        <ele>16300</ele>
        <time>2020-05-31T05:12:40Z</time>
      </trkpt>
      <trkpt lat="44.04638" lon="1.59975">
        <ele>16300</ele>
        <time>2020-05-31T05:12:41Z</time>
      </trkpt>
      <trkpt lat="44.04644" lon="1.59976">
        <ele>16300</ele>
        <time>2020-05-31T05:12:42Z</time>
      </trkpt>
      <trkpt lat="44.04649" lon="1.59977">
        <ele>16300</ele>
        <time>2020-05-31T05:12:43Z</time>
      </trkpt>
      <trkpt lat="44.04655" lon="1.59978">
        <ele>16300</ele>
        <time>2020-05-31T05:12:44Z</time>
      </trkpt>
      <trkpt lat="44.0466" lon="1.59979">
        <ele>16300</ele>
        <time>2020-05-31T05:12:45Z</time>
      </trkpt>
      <trkpt lat="44.04666" lon="1.59979">
        <ele>16300</ele>
        <time>2020-05-31T05:12:46Z</time>
      </trkpt>
      <trkpt lat="44.04672" lon="1.59981">
        <ele>16300</ele>
        <time>2020-05-31T05:12:47Z</time>
      </trkpt>
      <trkpt lat="44.04678" lon="1.59981">
        <ele>16300</ele>
        <time>2020-05-31T05:12:48Z</time>
      </trkpt>
      <trkpt lat="44.04684" lon="1.59982">
        <ele>16300</ele>
        <time>2020-05-31T05:12:49Z</time>
      </trkpt>
      <trkpt lat="44.04689" lon="1.59984">
        <ele>16300</ele>
        <time>2020-05-31T05:12:50Z</time>
      </trkpt>
      <trkpt lat="44.04695" lon="1.59985">
        <ele>16300</ele>
        <time>2020-05-31T05:12:51Z</time>
      </trkpt>
      <trkpt lat="44.04701" lon="1.59986">
        <ele>16300</ele>
        <time>2020-05-31T05:12:52Z</time>
      </trkpt>
      <trkpt lat="44.04706" lon="1.59987">
        <ele>16300</ele>
        <time>2020-05-31T05:12:52Z</time>
      </trkpt>
      <trkpt lat="44.04712" lon="1.59988">
        <ele>16300</ele>
        <time>2020-05-31T05:12:53Z</time>
      </trkpt>
      <trkpt lat="44.04717" lon="1.59989">
        <ele>16300</ele>
        <time>2020-05-31T05:12:54Z</time>
      </trkpt>
      <trkpt lat="44.04722" lon="1.5999">
        <ele>16300</ele>
        <time>2020-05-31T05:12:55Z</time>
      </trkpt>
      <trkpt lat="44.04728" lon="1.59991">
        <ele>16300</ele>
        <time>2020-05-31T05:12:56Z</time>
      </trkpt>
      <trkpt lat="44.04733" lon="1.59992">
        <ele>16300</ele>
        <time>2020-05-31T05:12:57Z</time>
      </trkpt>
      <trkpt lat="44.0474" lon="1.59993">
        <ele>16300</ele>
        <time>2020-05-31T05:12:58Z</time>
      </trkpt>
      <trkpt lat="44.04745" lon="1.59994">
        <ele>16300</ele>
        <time>2020-05-31T05:12:59Z</time>
      </trkpt>
      <trkpt lat="44.04751" lon="1.59995">
        <ele>16300</ele>
        <time>2020-05-31T05:13:00Z</time>
      </trkpt>
      <trkpt lat="44.04757" lon="1.59995">
        <ele>16300</ele>
        <time>2020-05-31T05:13:01Z</time>
      </trkpt>
      <trkpt lat="44.04762" lon="1.59995">
        <ele>16300</ele>
        <time>2020-05-31T05:13:02Z</time>
      </trkpt>
      <trkpt lat="44.04767" lon="1.59995">
        <ele>16300</ele>
        <time>2020-05-31T05:13:03Z</time>
      </trkpt>
      <trkpt lat="44.04772" lon="1.59995">
        <ele>16300</ele>
        <time>2020-05-31T05:13:04Z</time>
      </trkpt>
      <trkpt lat="44.04778" lon="1.59995">
        <ele>16200</ele>
        <time>2020-05-31T05:13:05Z</time>
      </trkpt>
      <trkpt lat="44.04784" lon="1.59995">
        <ele>16200</ele>
        <time>2020-05-31T05:13:06Z</time>
      </trkpt>
      <trkpt lat="44.04789" lon="1.59994">
        <ele>16200</ele>
        <time>2020-05-31T05:13:07Z</time>
      </trkpt>
      <trkpt lat="44.04794" lon="1.59994">
        <ele>16200</ele>
        <time>2020-05-31T05:13:08Z</time>
      </trkpt>
      <trkpt lat="44.048" lon="1.59993">
        <ele>16200</ele>
        <time>2020-05-31T05:13:09Z</time>
      </trkpt>
      <trkpt lat="44.04806" lon="1.59992">
        <ele>16200</ele>
        <time>2020-05-31T05:13:10Z</time>
      </trkpt>
      <trkpt lat="44.04811" lon="1.59991">
        <ele>16200</ele>
        <time>2020-05-31T05:13:11Z</time>
      </trkpt>
      <trkpt lat="44.04816" lon="1.5999">
        <ele>16200</ele>
        <time>2020-05-31T05:13:12Z</time>
      </trkpt>
      <trkpt lat="44.04822" lon="1.59989">
        <ele>16200</ele>
        <time>2020-05-31T05:13:13Z</time>
      </trkpt>
      <trkpt lat="44.04827" lon="1.59988">
        <ele>16200</ele>
        <time>2020-05-31T05:13:14Z</time>
      </trkpt>
      <trkpt lat="44.04833" lon="1.59988">
        <ele>16200</ele>
        <time>2020-05-31T05:13:15Z</time>
      </trkpt>
      <trkpt lat="44.04838" lon="1.59986">
        <ele>16200</ele>
        <time>2020-05-31T05:13:16Z</time>
      </trkpt>
      <trkpt lat="44.04843" lon="1.59985">
        <ele>16200</ele>
        <time>2020-05-31T05:13:17Z</time>
      </trkpt>
      <trkpt lat="44.04848" lon="1.59985">
        <ele>16200</ele>
        <time>2020-05-31T05:13:18Z</time>
      </trkpt>
      <trkpt lat="44.04853" lon="1.59984">
        <ele>16200</ele>
        <time>2020-05-31T05:13:19Z</time>
      </trkpt>
      <trkpt lat="44.04857" lon="1.59984">
        <ele>16200</ele>
        <time>2020-05-31T05:13:20Z</time>
      </trkpt>
      <trkpt lat="44.04862" lon="1.59984">
        <ele>16200</ele>
        <time>2020-05-31T05:13:21Z</time>
      </trkpt>
      <trkpt lat="44.04866" lon="1.59984">
        <ele>16200</ele>
        <time>2020-05-31T05:13:22Z</time>
      </trkpt>
      <trkpt lat="44.0487" lon="1.59984">
        <ele>16200</ele>
        <time>2020-05-31T05:13:23Z</time>
      </trkpt>
      <trkpt lat="44.04872" lon="1.59984">
        <ele>16200</ele>
        <time>2020-05-31T05:13:24Z</time>
      </trkpt>
      <trkpt lat="44.04874" lon="1.59984">
        <ele>16200</ele>
        <time>2020-05-31T05:13:25Z</time>
      </trkpt>
      <trkpt lat="44.04876" lon="1.59984">
        <ele>16200</ele>
        <time>2020-05-31T05:13:26Z</time>
      </trkpt>
      <trkpt lat="44.04877" lon="1.59984">
        <ele>16200</ele>
        <time>2020-05-31T05:13:27Z</time>
      </trkpt>
      <trkpt lat="44.04876" lon="1.59983">
        <ele>16200</ele>
        <time>2020-05-31T05:13:36Z</time>
      </trkpt>
      <trkpt lat="44.04876" lon="1.59983">
        <ele>16200</ele>
        <time>2020-05-31T05:13:37Z</time>
      </trkpt>
      <trkpt lat="44.0487" lon="1.59952">
        <ele>16200</ele>
        <time>2020-05-31T05:13:42Z</time>
      </trkpt>
      <trkpt lat="44.0487" lon="1.59956">
        <ele>16200</ele>
        <time>2020-05-31T05:13:43Z</time>
      </trkpt>
      <trkpt lat="44.04871" lon="1.59961">
        <ele>16200</ele>
        <time>2020-05-31T05:13:44Z</time>
      </trkpt>
      <trkpt lat="44.04872" lon="1.59965">
        <ele>16200</ele>
        <time>2020-05-31T05:13:45Z</time>
      </trkpt>
      <trkpt lat="44.04872" lon="1.59968">
        <ele>16200</ele>
        <time>2020-05-31T05:13:46Z</time>
      </trkpt>
      <trkpt lat="44.04873" lon="1.5997">
        <ele>16200</ele>
        <time>2020-05-31T05:13:47Z</time>
      </trkpt>
      <trkpt lat="44.04873" lon="1.59971">
        <ele>16200</ele>
        <time>2020-05-31T05:13:48Z</time>
      </trkpt>
      <trkpt lat="44.04873" lon="1.59972">
        <ele>16200</ele>
        <time>2020-05-31T05:13:49Z</time>
      </trkpt>
      <trkpt lat="44.04873" lon="1.59974">
        <ele>16200</ele>
        <time>2020-05-31T05:13:50Z</time>
      </trkpt>
      <trkpt lat="44.04873" lon="1.59974">
        <ele>16200</ele>
        <time>2020-05-31T05:13:51Z</time>
      </trkpt>
      <trkpt lat="44.04874" lon="1.59974">
        <ele>16200</ele>
        <time>2020-05-31T05:13:52Z</time>
      </trkpt>
      <trkpt lat="44.04874" lon="1.59974">
        <ele>16200</ele>
        <time>2020-05-31T05:13:53Z</time>
      </trkpt>
      <trkpt lat="44.04874" lon="1.59973">
        <ele>16200</ele>
        <time>2020-05-31T05:13:54Z</time>
      </trkpt>
      <trkpt lat="44.04874" lon="1.59972">
        <ele>16200</ele>
        <time>2020-05-31T05:13:55Z</time>
      </trkpt>
      <trkpt lat="44.04874" lon="1.59972">
        <ele>16200</ele>
        <time>2020-05-31T05:13:56Z</time>
      </trkpt>
      <trkpt lat="44.04875" lon="1.59972">
        <ele>16300</ele>
        <time>2020-05-31T05:13:57Z</time>
      </trkpt>
      <trkpt lat="44.04875" lon="1.59972">
        <ele>16300</ele>
        <time>2020-05-31T05:13:58Z</time>
      </trkpt>
      <trkpt lat="44.04875" lon="1.59972">
        <ele>16300</ele>
        <time>2020-05-31T05:13:59Z</time>
      </trkpt>
      <trkpt lat="44.04874" lon="1.59972">
        <ele>16300</ele>
        <time>2020-05-31T05:14:00Z</time>
      </trkpt>
      <trkpt lat="44.04874" lon="1.59972">
        <ele>16300</ele>
        <time>2020-05-31T05:14:01Z</time>
      </trkpt>
      <trkpt lat="44.04874" lon="1.59972">
        <ele>16300</ele>
        <time>2020-05-31T05:14:02Z</time>
      </trkpt>
      <trkpt lat="44.04872" lon="1.59972">
        <ele>16300</ele>
        <time>2020-05-31T05:14:04Z</time>
      </trkpt>
      <trkpt lat="44.04872" lon="1.59972">
        <ele>16300</ele>
        <time>2020-05-31T05:14:05Z</time>
      </trkpt>
      <trkpt lat="44.04872" lon="1.59973">
        <ele>16300</ele>
        <time>2020-05-31T05:14:07Z</time>
      </trkpt>
      <trkpt lat="44.04872" lon="1.59973">
        <ele>16300</ele>
        <time>2020-05-31T05:14:08Z</time>
      </trkpt>
      <trkpt lat="44.04872" lon="1.59974">
        <ele>16300</ele>
        <time>2020-05-31T05:14:09Z</time>
      </trkpt>
      <trkpt lat="44.04872" lon="1.59974">
        <ele>16300</ele>
        <time>2020-05-31T05:14:10Z</time>
      </trkpt>
      <trkpt lat="44.04872" lon="1.59974">
        <ele>16300</ele>
        <time>2020-05-31T05:14:11Z</time>
      </trkpt>
      <trkpt lat="44.04872" lon="1.59974">
        <ele>16300</ele>
        <time>2020-05-31T05:14:12Z</time>
      </trkpt>
      <trkpt lat="44.04872" lon="1.59974">
        <ele>16300</ele>
        <time>2020-05-31T05:14:13Z</time>
      </trkpt>
      <trkpt lat="44.04872" lon="1.59974">
        <ele>16300</ele>
        <time>2020-05-31T05:14:14Z</time>
      </trkpt>
      <trkpt lat="44.04872" lon="1.59974">
        <ele>16300</ele>
        <time>2020-05-31T05:14:15Z</time>
      </trkpt>
      <trkpt lat="44.04873" lon="1.59973">
        <ele>16300</ele>
        <time>2020-05-31T05:14:16Z</time>
      </trkpt>
      <trkpt lat="44.04873" lon="1.59973">
        <ele>16300</ele>
        <time>2020-05-31T05:14:17Z</time>
      </trkpt>
      <trkpt lat="44.04873" lon="1.59973">
        <ele>16300</ele>
        <time>2020-05-31T05:14:18Z</time>
      </trkpt>
      <trkpt lat="44.04874" lon="1.59973">
        <ele>16300</ele>
        <time>2020-05-31T05:14:19Z</time>
      </trkpt>
      <trkpt lat="44.04874" lon="1.59973">
        <ele>16300</ele>
        <time>2020-05-31T05:14:20Z</time>
      </trkpt>
      <trkpt lat="44.04874" lon="1.59974">
        <ele>16300</ele>
        <time>2020-05-31T05:14:21Z</time>
      </trkpt>
      <trkpt lat="44.04874" lon="1.59975">
        <ele>16300</ele>
        <time>2020-05-31T05:14:22Z</time>
      </trkpt>
      <trkpt lat="44.04874" lon="1.59976">
        <ele>16300</ele>
        <time>2020-05-31T05:14:23Z</time>
      </trkpt>
      <trkpt lat="44.04874" lon="1.59977">
        <ele>16300</ele>
        <time>2020-05-31T05:14:24Z</time>
      </trkpt>
      <trkpt lat="44.04874" lon="1.59978">
        <ele>16300</ele>
        <time>2020-05-31T05:14:25Z</time>
      </trkpt>
      <trkpt lat="44.04874" lon="1.59978">
        <ele>16300</ele>
        <time>2020-05-31T05:14:26Z</time>
      </trkpt>
      <trkpt lat="44.04874" lon="1.59979">
        <ele>16300</ele>
        <time>2020-05-31T05:14:27Z</time>
      </trkpt>
      <trkpt lat="44.04874" lon="1.59979">
        <ele>16300</ele>
        <time>2020-05-31T05:14:28Z</time>
      </trkpt>
      <trkpt lat="44.04874" lon="1.59978">
        <ele>16300</ele>
        <time>2020-05-31T05:14:29Z</time>
      </trkpt>
      <trkpt lat="44.04874" lon="1.59978">
        <ele>16300</ele>
        <time>2020-05-31T05:14:30Z</time>
      </trkpt>
      <trkpt lat="44.04874" lon="1.59977">
        <ele>16300</ele>
        <time>2020-05-31T05:14:31Z</time>
      </trkpt>
      <trkpt lat="44.04873" lon="1.59976">
        <ele>16300</ele>
        <time>2020-05-31T05:14:32Z</time>
      </trkpt>
      <trkpt lat="44.04873" lon="1.59975">
        <ele>16300</ele>
        <time>2020-05-31T05:14:33Z</time>
      </trkpt>
      <trkpt lat="44.04873" lon="1.59974">
        <ele>16300</ele>
        <time>2020-05-31T05:14:34Z</time>
      </trkpt>
      <trkpt lat="44.04872" lon="1.59972">
        <ele>16300</ele>
        <time>2020-05-31T05:14:35Z</time>
      </trkpt>
      <trkpt lat="44.04872" lon="1.5997">
        <ele>16300</ele>
        <time>2020-05-31T05:14:36Z</time>
      </trkpt>
      <trkpt lat="44.04871" lon="1.59968">
        <ele>16300</ele>
        <time>2020-05-31T05:14:37Z</time>
      </trkpt>
      <trkpt lat="44.04871" lon="1.59967">
        <ele>16300</ele>
        <time>2020-05-31T05:14:38Z</time>
      </trkpt>
      <trkpt lat="44.04871" lon="1.59966">
        <ele>16300</ele>
        <time>2020-05-31T05:14:39Z</time>
      </trkpt>
      <trkpt lat="44.04872" lon="1.59964">
        <ele>16300</ele>
        <time>2020-05-31T05:14:40Z</time>
      </trkpt>
      <trkpt lat="44.04873" lon="1.59963">
        <ele>16300</ele>
        <time>2020-05-31T05:14:41Z</time>
      </trkpt>
      <trkpt lat="44.04874" lon="1.59962">
        <ele>16300</ele>
        <time>2020-05-31T05:14:42Z</time>
      </trkpt>
      <trkpt lat="44.04874" lon="1.59962">
        <ele>16300</ele>
        <time>2020-05-31T05:14:43Z</time>
      </trkpt>
      <trkpt lat="44.04874" lon="1.59961">
        <ele>16300</ele>
        <time>2020-05-31T05:14:44Z</time>
      </trkpt>
      <trkpt lat="44.04874" lon="1.59961">
        <ele>16300</ele>
        <time>2020-05-31T05:14:45Z</time>
      </trkpt>
      <trkpt lat="44.04874" lon="1.59959">
        <ele>16300</ele>
        <time>2020-05-31T05:14:47Z</time>
      </trkpt>
      <trkpt lat="44.04874" lon="1.59959">
        <ele>16300</ele>
        <time>2020-05-31T05:14:48Z</time>
      </trkpt>
      <trkpt lat="44.04874" lon="1.5996">
        <ele>16300</ele>
        <time>2020-05-31T05:14:49Z</time>
      </trkpt>
      <trkpt lat="44.04874" lon="1.5996">
        <ele>16300</ele>
        <time>2020-05-31T05:14:50Z</time>
      </trkpt>
      <trkpt lat="44.04874" lon="1.59961">
        <ele>16300</ele>
        <time>2020-05-31T05:14:51Z</time>
      </trkpt>
      <trkpt lat="44.04874" lon="1.59962">
        <ele>16300</ele>
        <time>2020-05-31T05:14:52Z</time>
      </trkpt>
      <trkpt lat="44.04874" lon="1.59963">
        <ele>16300</ele>
        <time>2020-05-31T05:14:53Z</time>
      </trkpt>
      <trkpt lat="44.04874" lon="1.59964">
        <ele>16300</ele>
        <time>2020-05-31T05:14:54Z</time>
      </trkpt>
      <trkpt lat="44.04875" lon="1.59965">
        <ele>16300</ele>
        <time>2020-05-31T05:14:55Z</time>
      </trkpt>
      <trkpt lat="44.04875" lon="1.59966">
        <ele>16300</ele>
        <time>2020-05-31T05:14:56Z</time>
      </trkpt>
      <trkpt lat="44.04875" lon="1.59967">
        <ele>16300</ele>
        <time>2020-05-31T05:14:57Z</time>
      </trkpt>
      <trkpt lat="44.04875" lon="1.59968">
        <ele>16300</ele>
        <time>2020-05-31T05:14:58Z</time>
      </trkpt>
      <trkpt lat="44.04875" lon="1.59968">
        <ele>16300</ele>
        <time>2020-05-31T05:14:59Z</time>
      </trkpt>
      <trkpt lat="44.04875" lon="1.59968">
        <ele>16300</ele>
        <time>2020-05-31T05:15:00Z</time>
      </trkpt>
      <trkpt lat="44.04874" lon="1.59967">
        <ele>16300</ele>
        <time>2020-05-31T05:15:01Z</time>
      </trkpt>
      <trkpt lat="44.04873" lon="1.59965">
        <ele>16300</ele>
        <time>2020-05-31T05:15:02Z</time>
      </trkpt>
      <trkpt lat="44.04873" lon="1.59963">
        <ele>16300</ele>
        <time>2020-05-31T05:15:03Z</time>
      </trkpt>
      <trkpt lat="44.04872" lon="1.59962">
        <ele>16300</ele>
        <time>2020-05-31T05:15:04Z</time>
      </trkpt>
      <trkpt lat="44.04871" lon="1.59961">
        <ele>16300</ele>
        <time>2020-05-31T05:15:05Z</time>
      </trkpt>
      <trkpt lat="44.0487" lon="1.5996">
        <ele>16300</ele>
        <time>2020-05-31T05:15:06Z</time>
      </trkpt>
      <trkpt lat="44.04869" lon="1.59961">
        <ele>16300</ele>
        <time>2020-05-31T05:15:07Z</time>
      </trkpt>
      <trkpt lat="44.04868" lon="1.59961">
        <ele>16300</ele>
        <time>2020-05-31T05:15:08Z</time>
      </trkpt>
      <trkpt lat="44.04867" lon="1.59962">
        <ele>16300</ele>
        <time>2020-05-31T05:15:09Z</time>
      </trkpt>
      <trkpt lat="44.04866" lon="1.59964">
        <ele>16300</ele>
        <time>2020-05-31T05:15:10Z</time>
      </trkpt>
      <trkpt lat="44.04867" lon="1.59965">
        <ele>16300</ele>
        <time>2020-05-31T05:15:11Z</time>
      </trkpt>
      <trkpt lat="44.04868" lon="1.59966">
        <ele>16300</ele>
        <time>2020-05-31T05:15:12Z</time>
      </trkpt>
      <trkpt lat="44.04869" lon="1.59967">
        <ele>16300</ele>
        <time>2020-05-31T05:15:13Z</time>
      </trkpt>
      <trkpt lat="44.0487" lon="1.59968">
        <ele>16300</ele>
        <time>2020-05-31T05:15:14Z</time>
      </trkpt>
      <trkpt lat="44.04872" lon="1.59968">
        <ele>16300</ele>
        <time>2020-05-31T05:15:15Z</time>
      </trkpt>
      <trkpt lat="44.04874" lon="1.59968">
        <ele>16300</ele>
        <time>2020-05-31T05:15:16Z</time>
      </trkpt>
      <trkpt lat="44.04876" lon="1.59968">
        <ele>16300</ele>
        <time>2020-05-31T05:15:17Z</time>
      </trkpt>
      <trkpt lat="44.04879" lon="1.59968">
        <ele>16300</ele>
        <time>2020-05-31T05:15:18Z</time>
      </trkpt>
      <trkpt lat="44.04882" lon="1.59968">
        <ele>16300</ele>
        <time>2020-05-31T05:15:19Z</time>
      </trkpt>
      <trkpt lat="44.04887" lon="1.59967">
        <ele>16300</ele>
        <time>2020-05-31T05:15:20Z</time>
      </trkpt>
      <trkpt lat="44.0489" lon="1.59967">
        <ele>16300</ele>
        <time>2020-05-31T05:15:21Z</time>
      </trkpt>
      <trkpt lat="44.04894" lon="1.59967">
        <ele>16300</ele>
        <time>2020-05-31T05:15:22Z</time>
      </trkpt>
      <trkpt lat="44.04899" lon="1.59967">
        <ele>16300</ele>
        <time>2020-05-31T05:15:23Z</time>
      </trkpt>
      <trkpt lat="44.04902" lon="1.59967">
        <ele>16300</ele>
        <time>2020-05-31T05:15:24Z</time>
      </trkpt>
      <trkpt lat="44.04907" lon="1.59967">
        <ele>16300</ele>
        <time>2020-05-31T05:15:25Z</time>
      </trkpt>
      <trkpt lat="44.04911" lon="1.59967">
        <ele>16300</ele>
        <time>2020-05-31T05:15:26Z</time>
      </trkpt>
      <trkpt lat="44.04916" lon="1.59967">
        <ele>16100</ele>
        <time>2020-05-31T05:15:27Z</time>
      </trkpt>
      <trkpt lat="44.0492" lon="1.59967">
        <ele>16100</ele>
        <time>2020-05-31T05:15:28Z</time>
      </trkpt>
      <trkpt lat="44.04925" lon="1.59967">
        <ele>16100</ele>
        <time>2020-05-31T05:15:29Z</time>
      </trkpt>
      <trkpt lat="44.04929" lon="1.59967">
        <ele>16100</ele>
        <time>2020-05-31T05:15:30Z</time>
      </trkpt>
      <trkpt lat="44.04934" lon="1.59967">
        <ele>16100</ele>
        <time>2020-05-31T05:15:31Z</time>
      </trkpt>
      <trkpt lat="44.04938" lon="1.59967">
        <ele>16100</ele>
        <time>2020-05-31T05:15:32Z</time>
      </trkpt>
      <trkpt lat="44.04942" lon="1.59967">
        <ele>16100</ele>
        <time>2020-05-31T05:15:33Z</time>
      </trkpt>
      <trkpt lat="44.04947" lon="1.59966">
        <ele>16100</ele>
        <time>2020-05-31T05:15:34Z</time>
      </trkpt>
      <trkpt lat="44.04951" lon="1.59965">
        <ele>16100</ele>
        <time>2020-05-31T05:15:35Z</time>
      </trkpt>
      <trkpt lat="44.04955" lon="1.59964">
        <ele>16100</ele>
        <time>2020-05-31T05:15:36Z</time>
      </trkpt>
      <trkpt lat="44.0496" lon="1.59963">
        <ele>16100</ele>
        <time>2020-05-31T05:15:37Z</time>
      </trkpt>
      <trkpt lat="44.04964" lon="1.59962">
        <ele>16100</ele>
        <time>2020-05-31T05:15:38Z</time>
      </trkpt>
      <trkpt lat="44.04968" lon="1.59961">
        <ele>16100</ele>
        <time>2020-05-31T05:15:39Z</time>
      </trkpt>
      <trkpt lat="44.04973" lon="1.5996">
        <ele>16100</ele>
        <time>2020-05-31T05:15:40Z</time>
      </trkpt>
      <trkpt lat="44.04978" lon="1.59959">
        <ele>16100</ele>
        <time>2020-05-31T05:15:41Z</time>
      </trkpt>
      <trkpt lat="44.04982" lon="1.59958">
        <ele>16100</ele>
        <time>2020-05-31T05:15:42Z</time>
      </trkpt>
      <trkpt lat="44.04987" lon="1.59956">
        <ele>16100</ele>
        <time>2020-05-31T05:15:43Z</time>
      </trkpt>
      <trkpt lat="44.04992" lon="1.59955">
        <ele>16100</ele>
        <time>2020-05-31T05:15:44Z</time>
      </trkpt>
      <trkpt lat="44.04996" lon="1.59953">
        <ele>16100</ele>
        <time>2020-05-31T05:15:45Z</time>
      </trkpt>
      <trkpt lat="44.05001" lon="1.59951">
        <ele>16100</ele>
        <time>2020-05-31T05:15:46Z</time>
      </trkpt>
      <trkpt lat="44.05005" lon="1.59949">
        <ele>16100</ele>
        <time>2020-05-31T05:15:47Z</time>
      </trkpt>
      <trkpt lat="44.0501" lon="1.59947">
        <ele>16100</ele>
        <time>2020-05-31T05:15:48Z</time>
      </trkpt>
      <trkpt lat="44.05014" lon="1.59945">
        <ele>16100</ele>
        <time>2020-05-31T05:15:49Z</time>
      </trkpt>
      <trkpt lat="44.05019" lon="1.59942">
        <ele>16100</ele>
        <time>2020-05-31T05:15:50Z</time>
      </trkpt>
      <trkpt lat="44.05023" lon="1.5994">
        <ele>16100</ele>
        <time>2020-05-31T05:15:51Z</time>
      </trkpt>
      <trkpt lat="44.05028" lon="1.59938">
        <ele>16100</ele>
        <time>2020-05-31T05:15:52Z</time>
      </trkpt>
      <trkpt lat="44.05032" lon="1.59936">
        <ele>16100</ele>
        <time>2020-05-31T05:15:53Z</time>
      </trkpt>
      <trkpt lat="44.05037" lon="1.59934">
        <ele>16100</ele>
        <time>2020-05-31T05:15:55Z</time>
      </trkpt>
      <trkpt lat="44.05042" lon="1.59933">
        <ele>16100</ele>
        <time>2020-05-31T05:15:55Z</time>
      </trkpt>
      <trkpt lat="44.05046" lon="1.59931">
        <ele>16100</ele>
        <time>2020-05-31T05:15:56Z</time>
      </trkpt>
      <trkpt lat="44.05051" lon="1.59929">
        <ele>16100</ele>
        <time>2020-05-31T05:15:57Z</time>
      </trkpt>
      <trkpt lat="44.05056" lon="1.59928">
        <ele>16100</ele>
        <time>2020-05-31T05:15:58Z</time>
      </trkpt>
      <trkpt lat="44.05061" lon="1.59926">
        <ele>16100</ele>
        <time>2020-05-31T05:15:59Z</time>
      </trkpt>
      <trkpt lat="44.05065" lon="1.59925">
        <ele>16100</ele>
        <time>2020-05-31T05:16:00Z</time>
      </trkpt>
      <trkpt lat="44.05071" lon="1.59924">
        <ele>16100</ele>
        <time>2020-05-31T05:16:01Z</time>
      </trkpt>
      <trkpt lat="44.05075" lon="1.59923">
        <ele>16100</ele>
        <time>2020-05-31T05:16:02Z</time>
      </trkpt>
      <trkpt lat="44.0508" lon="1.59921">
        <ele>16100</ele>
        <time>2020-05-31T05:16:03Z</time>
      </trkpt>
      <trkpt lat="44.05085" lon="1.5992">
        <ele>16100</ele>
        <time>2020-05-31T05:16:04Z</time>
      </trkpt>
      <trkpt lat="44.0509" lon="1.5992">
        <ele>16100</ele>
        <time>2020-05-31T05:16:05Z</time>
      </trkpt>
      <trkpt lat="44.05095" lon="1.59919">
        <ele>16100</ele>
        <time>2020-05-31T05:16:06Z</time>
      </trkpt>
      <trkpt lat="44.05101" lon="1.59918">
        <ele>16000</ele>
        <time>2020-05-31T05:16:07Z</time>
      </trkpt>
      <trkpt lat="44.05106" lon="1.59917">
        <ele>16000</ele>
        <time>2020-05-31T05:16:08Z</time>
      </trkpt>
      <trkpt lat="44.05111" lon="1.59916">
        <ele>16000</ele>
        <time>2020-05-31T05:16:09Z</time>
      </trkpt>
      <trkpt lat="44.05116" lon="1.59915">
        <ele>16000</ele>
        <time>2020-05-31T05:16:10Z</time>
      </trkpt>
      <trkpt lat="44.05122" lon="1.59915">
        <ele>16000</ele>
        <time>2020-05-31T05:16:11Z</time>
      </trkpt>
      <trkpt lat="44.05127" lon="1.59915">
        <ele>16000</ele>
        <time>2020-05-31T05:16:12Z</time>
      </trkpt>
      <trkpt lat="44.05132" lon="1.59914">
        <ele>16000</ele>
        <time>2020-05-31T05:16:13Z</time>
      </trkpt>
      <trkpt lat="44.05137" lon="1.59914">
        <ele>16000</ele>
        <time>2020-05-31T05:16:14Z</time>
      </trkpt>
      <trkpt lat="44.05143" lon="1.59914">
        <ele>16000</ele>
        <time>2020-05-31T05:16:15Z</time>
      </trkpt>
      <trkpt lat="44.05148" lon="1.59914">
        <ele>16000</ele>
        <time>2020-05-31T05:16:16Z</time>
      </trkpt>
      <trkpt lat="44.05153" lon="1.59914">
        <ele>16000</ele>
        <time>2020-05-31T05:16:17Z</time>
      </trkpt>
      <trkpt lat="44.05158" lon="1.59913">
        <ele>16000</ele>
        <time>2020-05-31T05:16:18Z</time>
      </trkpt>
      <trkpt lat="44.05164" lon="1.59913">
        <ele>16000</ele>
        <time>2020-05-31T05:16:19Z</time>
      </trkpt>
      <trkpt lat="44.05169" lon="1.59913">
        <ele>16000</ele>
        <time>2020-05-31T05:16:20Z</time>
      </trkpt>
      <trkpt lat="44.05174" lon="1.59913">
        <ele>16000</ele>
        <time>2020-05-31T05:16:21Z</time>
      </trkpt>
      <trkpt lat="44.05179" lon="1.59912">
        <ele>16000</ele>
        <time>2020-05-31T05:16:22Z</time>
      </trkpt>
      <trkpt lat="44.05185" lon="1.59912">
        <ele>16000</ele>
        <time>2020-05-31T05:16:23Z</time>
      </trkpt>
      <trkpt lat="44.0519" lon="1.59912">
        <ele>15900</ele>
        <time>2020-05-31T05:16:24Z</time>
      </trkpt>
      <trkpt lat="44.05195" lon="1.59912">
        <ele>15900</ele>
        <time>2020-05-31T05:16:25Z</time>
      </trkpt>
      <trkpt lat="44.052" lon="1.59911">
        <ele>15900</ele>
        <time>2020-05-31T05:16:26Z</time>
      </trkpt>
      <trkpt lat="44.05206" lon="1.59911">
        <ele>15900</ele>
        <time>2020-05-31T05:16:27Z</time>
      </trkpt>
      <trkpt lat="44.05211" lon="1.59912">
        <ele>15900</ele>
        <time>2020-05-31T05:16:28Z</time>
      </trkpt>
      <trkpt lat="44.05216" lon="1.59912">
        <ele>15900</ele>
        <time>2020-05-31T05:16:29Z</time>
      </trkpt>
      <trkpt lat="44.05222" lon="1.59913">
        <ele>15900</ele>
        <time>2020-05-31T05:16:30Z</time>
      </trkpt>
      <trkpt lat="44.05227" lon="1.59915">
        <ele>15900</ele>
        <time>2020-05-31T05:16:31Z</time>
      </trkpt>
      <trkpt lat="44.05232" lon="1.59917">
        <ele>15900</ele>
        <time>2020-05-31T05:16:32Z</time>
      </trkpt>
      <trkpt lat="44.05237" lon="1.5992">
        <ele>15900</ele>
        <time>2020-05-31T05:16:33Z</time>
      </trkpt>
      <trkpt lat="44.05241" lon="1.59923">
        <ele>15800</ele>
        <time>2020-05-31T05:16:34Z</time>
      </trkpt>
      <trkpt lat="44.05246" lon="1.59927">
        <ele>15800</ele>
        <time>2020-05-31T05:16:35Z</time>
      </trkpt>
      <trkpt lat="44.05251" lon="1.5993">
        <ele>15800</ele>
        <time>2020-05-31T05:16:36Z</time>
      </trkpt>
      <trkpt lat="44.05255" lon="1.59934">
        <ele>15800</ele>
        <time>2020-05-31T05:16:37Z</time>
      </trkpt>
      <trkpt lat="44.0526" lon="1.59938">
        <ele>15800</ele>
        <time>2020-05-31T05:16:38Z</time>
      </trkpt>
      <trkpt lat="44.05265" lon="1.59941">
        <ele>15800</ele>
        <time>2020-05-31T05:16:39Z</time>
      </trkpt>
      <trkpt lat="44.0527" lon="1.59945">
        <ele>15800</ele>
        <time>2020-05-31T05:16:40Z</time>
      </trkpt>
      <trkpt lat="44.05275" lon="1.59949">
        <ele>15800</ele>
        <time>2020-05-31T05:16:41Z</time>
      </trkpt>
      <trkpt lat="44.0528" lon="1.59952">
        <ele>15700</ele>
        <time>2020-05-31T05:16:42Z</time>
      </trkpt>
      <trkpt lat="44.05285" lon="1.59956">
        <ele>15700</ele>
        <time>2020-05-31T05:16:43Z</time>
      </trkpt>
      <trkpt lat="44.0529" lon="1.5996">
        <ele>15700</ele>
        <time>2020-05-31T05:16:44Z</time>
      </trkpt>
      <trkpt lat="44.05295" lon="1.59963">
        <ele>15700</ele>
        <time>2020-05-31T05:16:45Z</time>
      </trkpt>
      <trkpt lat="44.053" lon="1.59967">
        <ele>15700</ele>
        <time>2020-05-31T05:16:46Z</time>
      </trkpt>
      <trkpt lat="44.05306" lon="1.59971">
        <ele>15700</ele>
        <time>2020-05-31T05:16:47Z</time>
      </trkpt>
      <trkpt lat="44.05311" lon="1.59974">
        <ele>15700</ele>
        <time>2020-05-31T05:16:48Z</time>
      </trkpt>
      <trkpt lat="44.05316" lon="1.59978">
        <ele>15600</ele>
        <time>2020-05-31T05:16:49Z</time>
      </trkpt>
      <trkpt lat="44.05322" lon="1.59981">
        <ele>15600</ele>
        <time>2020-05-31T05:16:50Z</time>
      </trkpt>
      <trkpt lat="44.05327" lon="1.59985">
        <ele>15600</ele>
        <time>2020-05-31T05:16:51Z</time>
      </trkpt>
      <trkpt lat="44.05333" lon="1.59988">
        <ele>15600</ele>
        <time>2020-05-31T05:16:52Z</time>
      </trkpt>
      <trkpt lat="44.05338" lon="1.59991">
        <ele>15600</ele>
        <time>2020-05-31T05:16:53Z</time>
      </trkpt>
      <trkpt lat="44.05343" lon="1.59995">
        <ele>15600</ele>
        <time>2020-05-31T05:16:54Z</time>
      </trkpt>
      <trkpt lat="44.05349" lon="1.59998">
        <ele>15600</ele>
        <time>2020-05-31T05:16:55Z</time>
      </trkpt>
      <trkpt lat="44.05354" lon="1.60002">
        <ele>15600</ele>
        <time>2020-05-31T05:16:56Z</time>
      </trkpt>
      <trkpt lat="44.0536" lon="1.60005">
        <ele>15600</ele>
        <time>2020-05-31T05:16:57Z</time>
      </trkpt>
      <trkpt lat="44.05365" lon="1.60008">
        <ele>15600</ele>
        <time>2020-05-31T05:16:58Z</time>
      </trkpt>
      <trkpt lat="44.0537" lon="1.60012">
        <ele>15600</ele>
        <time>2020-05-31T05:16:59Z</time>
      </trkpt>
      <trkpt lat="44.05376" lon="1.60015">
        <ele>15600</ele>
        <time>2020-05-31T05:17:00Z</time>
      </trkpt>
      <trkpt lat="44.05381" lon="1.60019">
        <ele>15600</ele>
        <time>2020-05-31T05:17:01Z</time>
      </trkpt>
      <trkpt lat="44.05387" lon="1.60023">
        <ele>15600</ele>
        <time>2020-05-31T05:17:02Z</time>
      </trkpt>
      <trkpt lat="44.05393" lon="1.60027">
        <ele>15600</ele>
        <time>2020-05-31T05:17:03Z</time>
      </trkpt>
      <trkpt lat="44.05398" lon="1.6003">
        <ele>15500</ele>
        <time>2020-05-31T05:17:04Z</time>
      </trkpt>
      <trkpt lat="44.05403" lon="1.60034">
        <ele>15500</ele>
        <time>2020-05-31T05:17:05Z</time>
      </trkpt>
      <trkpt lat="44.05409" lon="1.60038">
        <ele>15500</ele>
        <time>2020-05-31T05:17:06Z</time>
      </trkpt>
      <trkpt lat="44.05415" lon="1.60041">
        <ele>15500</ele>
        <time>2020-05-31T05:17:07Z</time>
      </trkpt>
      <trkpt lat="44.0542" lon="1.60045">
        <ele>15500</ele>
        <time>2020-05-31T05:17:07Z</time>
      </trkpt>
      <trkpt lat="44.05426" lon="1.60048">
        <ele>15500</ele>
        <time>2020-05-31T05:17:08Z</time>
      </trkpt>
      <trkpt lat="44.05431" lon="1.60051">
        <ele>15500</ele>
        <time>2020-05-31T05:17:09Z</time>
      </trkpt>
      <trkpt lat="44.05437" lon="1.60054">
        <ele>15500</ele>
        <time>2020-05-31T05:17:10Z</time>
      </trkpt>
      <trkpt lat="44.05442" lon="1.60056">
        <ele>15400</ele>
        <time>2020-05-31T05:17:11Z</time>
      </trkpt>
      <trkpt lat="44.05449" lon="1.60059">
        <ele>15400</ele>
        <time>2020-05-31T05:17:12Z</time>
      </trkpt>
      <trkpt lat="44.05454" lon="1.60061">
        <ele>15400</ele>
        <time>2020-05-31T05:17:13Z</time>
      </trkpt>
      <trkpt lat="44.0546" lon="1.60063">
        <ele>15400</ele>
        <time>2020-05-31T05:17:14Z</time>
      </trkpt>
      <trkpt lat="44.05466" lon="1.60065">
        <ele>15400</ele>
        <time>2020-05-31T05:17:15Z</time>
      </trkpt>
      <trkpt lat="44.05472" lon="1.60067">
        <ele>15400</ele>
        <time>2020-05-31T05:17:16Z</time>
      </trkpt>
      <trkpt lat="44.05478" lon="1.60068">
        <ele>15300</ele>
        <time>2020-05-31T05:17:17Z</time>
      </trkpt>
      <trkpt lat="44.05483" lon="1.60069">
        <ele>15300</ele>
        <time>2020-05-31T05:17:18Z</time>
      </trkpt>
      <trkpt lat="44.05489" lon="1.6007">
        <ele>15300</ele>
        <time>2020-05-31T05:17:19Z</time>
      </trkpt>
      <trkpt lat="44.05494" lon="1.60071">
        <ele>15300</ele>
        <time>2020-05-31T05:17:20Z</time>
      </trkpt>
      <trkpt lat="44.05499" lon="1.60072">
        <ele>15300</ele>
        <time>2020-05-31T05:17:21Z</time>
      </trkpt>
      <trkpt lat="44.05505" lon="1.60072">
        <ele>15300</ele>
        <time>2020-05-31T05:17:22Z</time>
      </trkpt>
      <trkpt lat="44.05509" lon="1.60073">
        <ele>15200</ele>
        <time>2020-05-31T05:17:23Z</time>
      </trkpt>
      <trkpt lat="44.05514" lon="1.60073">
        <ele>15200</ele>
        <time>2020-05-31T05:17:24Z</time>
      </trkpt>
      <trkpt lat="44.0552" lon="1.60074">
        <ele>15200</ele>
        <time>2020-05-31T05:17:25Z</time>
      </trkpt>
      <trkpt lat="44.05525" lon="1.60074">
        <ele>15200</ele>
        <time>2020-05-31T05:17:26Z</time>
      </trkpt>
      <trkpt lat="44.0553" lon="1.60075">
        <ele>15100</ele>
        <time>2020-05-31T05:17:27Z</time>
      </trkpt>
      <trkpt lat="44.05536" lon="1.60076">
        <ele>15100</ele>
        <time>2020-05-31T05:17:28Z</time>
      </trkpt>
      <trkpt lat="44.05541" lon="1.60076">
        <ele>15100</ele>
        <time>2020-05-31T05:17:29Z</time>
      </trkpt>
      <trkpt lat="44.05547" lon="1.60078">
        <ele>15100</ele>
        <time>2020-05-31T05:17:30Z</time>
      </trkpt>
      <trkpt lat="44.05553" lon="1.60079">
        <ele>15100</ele>
        <time>2020-05-31T05:17:31Z</time>
      </trkpt>
      <trkpt lat="44.05559" lon="1.6008">
        <ele>15100</ele>
        <time>2020-05-31T05:17:32Z</time>
      </trkpt>
      <trkpt lat="44.05565" lon="1.60082">
        <ele>15100</ele>
        <time>2020-05-31T05:17:33Z</time>
      </trkpt>
      <trkpt lat="44.05572" lon="1.60084">
        <ele>15100</ele>
        <time>2020-05-31T05:17:34Z</time>
      </trkpt>
      <trkpt lat="44.05578" lon="1.60086">
        <ele>15100</ele>
        <time>2020-05-31T05:17:35Z</time>
      </trkpt>
      <trkpt lat="44.05584" lon="1.60087">
        <ele>15100</ele>
        <time>2020-05-31T05:17:36Z</time>
      </trkpt>
      <trkpt lat="44.0559" lon="1.60089">
        <ele>15000</ele>
        <time>2020-05-31T05:17:37Z</time>
      </trkpt>
      <trkpt lat="44.05597" lon="1.60091">
        <ele>15000</ele>
        <time>2020-05-31T05:17:38Z</time>
      </trkpt>
      <trkpt lat="44.05603" lon="1.60093">
        <ele>15000</ele>
        <time>2020-05-31T05:17:39Z</time>
      </trkpt>
      <trkpt lat="44.0561" lon="1.60095">
        <ele>15000</ele>
        <time>2020-05-31T05:17:40Z</time>
      </trkpt>
      <trkpt lat="44.05616" lon="1.60097">
        <ele>15000</ele>
        <time>2020-05-31T05:17:41Z</time>
      </trkpt>
      <trkpt lat="44.05622" lon="1.60099">
        <ele>15000</ele>
        <time>2020-05-31T05:17:42Z</time>
      </trkpt>
      <trkpt lat="44.05629" lon="1.601">
        <ele>15000</ele>
        <time>2020-05-31T05:17:43Z</time>
      </trkpt>
      <trkpt lat="44.05635" lon="1.60102">
        <ele>15000</ele>
        <time>2020-05-31T05:17:44Z</time>
      </trkpt>
      <trkpt lat="44.05642" lon="1.60103">
        <ele>14900</ele>
        <time>2020-05-31T05:17:45Z</time>
      </trkpt>
      <trkpt lat="44.05648" lon="1.60105">
        <ele>14900</ele>
        <time>2020-05-31T05:17:46Z</time>
      </trkpt>
      <trkpt lat="44.05654" lon="1.60106">
        <ele>14900</ele>
        <time>2020-05-31T05:17:47Z</time>
      </trkpt>
      <trkpt lat="44.0566" lon="1.60107">
        <ele>14900</ele>
        <time>2020-05-31T05:17:48Z</time>
      </trkpt>
      <trkpt lat="44.05666" lon="1.60109">
        <ele>14900</ele>
        <time>2020-05-31T05:17:49Z</time>
      </trkpt>
      <trkpt lat="44.05672" lon="1.6011">
        <ele>14900</ele>
        <time>2020-05-31T05:17:50Z</time>
      </trkpt>
      <trkpt lat="44.05677" lon="1.60111">
        <ele>14900</ele>
        <time>2020-05-31T05:17:51Z</time>
      </trkpt>
      <trkpt lat="44.05683" lon="1.60111">
        <ele>14900</ele>
        <time>2020-05-31T05:17:52Z</time>
      </trkpt>
      <trkpt lat="44.05689" lon="1.60112">
        <ele>14900</ele>
        <time>2020-05-31T05:17:53Z</time>
      </trkpt>
      <trkpt lat="44.05694" lon="1.60112">
        <ele>14900</ele>
        <time>2020-05-31T05:17:54Z</time>
      </trkpt>
      <trkpt lat="44.05699" lon="1.60112">
        <ele>14900</ele>
        <time>2020-05-31T05:17:55Z</time>
      </trkpt>
      <trkpt lat="44.05704" lon="1.60112">
        <ele>14900</ele>
        <time>2020-05-31T05:17:56Z</time>
      </trkpt>
      <trkpt lat="44.0571" lon="1.60112">
        <ele>14900</ele>
        <time>2020-05-31T05:17:57Z</time>
      </trkpt>
      <trkpt lat="44.05714" lon="1.60112">
        <ele>14900</ele>
        <time>2020-05-31T05:17:58Z</time>
      </trkpt>
      <trkpt lat="44.05719" lon="1.60112">
        <ele>14900</ele>
        <time>2020-05-31T05:17:59Z</time>
      </trkpt>
      <trkpt lat="44.05724" lon="1.60112">
        <ele>14900</ele>
        <time>2020-05-31T05:18:00Z</time>
      </trkpt>
      <trkpt lat="44.05729" lon="1.60113">
        <ele>14900</ele>
        <time>2020-05-31T05:18:01Z</time>
      </trkpt>
      <trkpt lat="44.05734" lon="1.60114">
        <ele>14900</ele>
        <time>2020-05-31T05:18:02Z</time>
      </trkpt>
      <trkpt lat="44.05739" lon="1.60116">
        <ele>14900</ele>
        <time>2020-05-31T05:18:03Z</time>
      </trkpt>
      <trkpt lat="44.05744" lon="1.60117">
        <ele>14900</ele>
        <time>2020-05-31T05:18:04Z</time>
      </trkpt>
      <trkpt lat="44.05748" lon="1.60118">
        <ele>14900</ele>
        <time>2020-05-31T05:18:05Z</time>
      </trkpt>
      <trkpt lat="44.05753" lon="1.60119">
        <ele>14900</ele>
        <time>2020-05-31T05:18:06Z</time>
      </trkpt>
      <trkpt lat="44.05758" lon="1.60121">
        <ele>14900</ele>
        <time>2020-05-31T05:18:07Z</time>
      </trkpt>
      <trkpt lat="44.05762" lon="1.60122">
        <ele>14900</ele>
        <time>2020-05-31T05:18:08Z</time>
      </trkpt>
      <trkpt lat="44.05766" lon="1.60123">
        <ele>14900</ele>
        <time>2020-05-31T05:18:09Z</time>
      </trkpt>
      <trkpt lat="44.0577" lon="1.60124">
        <ele>15000</ele>
        <time>2020-05-31T05:18:10Z</time>
      </trkpt>
      <trkpt lat="44.05774" lon="1.60125">
        <ele>15000</ele>
        <time>2020-05-31T05:18:11Z</time>
      </trkpt>
      <trkpt lat="44.05778" lon="1.60126">
        <ele>15000</ele>
        <time>2020-05-31T05:18:12Z</time>
      </trkpt>
      <trkpt lat="44.05782" lon="1.60127">
        <ele>15000</ele>
        <time>2020-05-31T05:18:13Z</time>
      </trkpt>
      <trkpt lat="44.05785" lon="1.60127">
        <ele>15000</ele>
        <time>2020-05-31T05:18:14Z</time>
      </trkpt>
      <trkpt lat="44.05789" lon="1.60128">
        <ele>15000</ele>
        <time>2020-05-31T05:18:15Z</time>
      </trkpt>
      <trkpt lat="44.05793" lon="1.60129">
        <ele>15000</ele>
        <time>2020-05-31T05:18:16Z</time>
      </trkpt>
      <trkpt lat="44.05796" lon="1.6013">
        <ele>15000</ele>
        <time>2020-05-31T05:18:17Z</time>
      </trkpt>
      <trkpt lat="44.05801" lon="1.6013">
        <ele>15100</ele>
        <time>2020-05-31T05:18:18Z</time>
      </trkpt>
      <trkpt lat="44.05804" lon="1.60131">
        <ele>15100</ele>
        <time>2020-05-31T05:18:19Z</time>
      </trkpt>
      <trkpt lat="44.05807" lon="1.60132">
        <ele>15100</ele>
        <time>2020-05-31T05:18:20Z</time>
      </trkpt>
      <trkpt lat="44.05811" lon="1.60133">
        <ele>15100</ele>
        <time>2020-05-31T05:18:21Z</time>
      </trkpt>
      <trkpt lat="44.05815" lon="1.60134">
        <ele>15100</ele>
        <time>2020-05-31T05:18:22Z</time>
      </trkpt>
      <trkpt lat="44.05819" lon="1.60135">
        <ele>15100</ele>
        <time>2020-05-31T05:18:23Z</time>
      </trkpt>
      <trkpt lat="44.05822" lon="1.60137">
        <ele>15100</ele>
        <time>2020-05-31T05:18:24Z</time>
      </trkpt>
      <trkpt lat="44.05826" lon="1.60138">
        <ele>15100</ele>
        <time>2020-05-31T05:18:25Z</time>
      </trkpt>
      <trkpt lat="44.0583" lon="1.60139">
        <ele>15100</ele>
        <time>2020-05-31T05:18:26Z</time>
      </trkpt>
      <trkpt lat="44.05834" lon="1.6014">
        <ele>15100</ele>
        <time>2020-05-31T05:18:27Z</time>
      </trkpt>
      <trkpt lat="44.05837" lon="1.60142">
        <ele>15100</ele>
        <time>2020-05-31T05:18:28Z</time>
      </trkpt>
      <trkpt lat="44.05841" lon="1.60143">
        <ele>15100</ele>
        <time>2020-05-31T05:18:29Z</time>
      </trkpt>
      <trkpt lat="44.05845" lon="1.60144">
        <ele>15100</ele>
        <time>2020-05-31T05:18:30Z</time>
      </trkpt>
      <trkpt lat="44.05849" lon="1.60145">
        <ele>15100</ele>
        <time>2020-05-31T05:18:31Z</time>
      </trkpt>
      <trkpt lat="44.05852" lon="1.60147">
        <ele>15100</ele>
        <time>2020-05-31T05:18:32Z</time>
      </trkpt>
      <trkpt lat="44.05856" lon="1.60148">
        <ele>15100</ele>
        <time>2020-05-31T05:18:33Z</time>
      </trkpt>
      <trkpt lat="44.0586" lon="1.60149">
        <ele>15100</ele>
        <time>2020-05-31T05:18:34Z</time>
      </trkpt>
      <trkpt lat="44.05864" lon="1.6015">
        <ele>15100</ele>
        <time>2020-05-31T05:18:35Z</time>
      </trkpt>
      <trkpt lat="44.05868" lon="1.60152">
        <ele>15100</ele>
        <time>2020-05-31T05:18:36Z</time>
      </trkpt>
      <trkpt lat="44.05872" lon="1.60153">
        <ele>15100</ele>
        <time>2020-05-31T05:18:37Z</time>
      </trkpt>
      <trkpt lat="44.05876" lon="1.60155">
        <ele>15100</ele>
        <time>2020-05-31T05:18:38Z</time>
      </trkpt>
      <trkpt lat="44.0588" lon="1.60157">
        <ele>15100</ele>
        <time>2020-05-31T05:18:39Z</time>
      </trkpt>
      <trkpt lat="44.05885" lon="1.60158">
        <ele>15100</ele>
        <time>2020-05-31T05:18:40Z</time>
      </trkpt>
      <trkpt lat="44.05888" lon="1.6016">
        <ele>15100</ele>
        <time>2020-05-31T05:18:41Z</time>
      </trkpt>
      <trkpt lat="44.05893" lon="1.60161">
        <ele>15100</ele>
        <time>2020-05-31T05:18:42Z</time>
      </trkpt>
      <trkpt lat="44.05898" lon="1.60163">
        <ele>15100</ele>
        <time>2020-05-31T05:18:43Z</time>
      </trkpt>
      <trkpt lat="44.05903" lon="1.60164">
        <ele>15100</ele>
        <time>2020-05-31T05:18:44Z</time>
      </trkpt>
      <trkpt lat="44.05907" lon="1.60166">
        <ele>15100</ele>
        <time>2020-05-31T05:18:45Z</time>
      </trkpt>
      <trkpt lat="44.05912" lon="1.60168">
        <ele>15100</ele>
        <time>2020-05-31T05:18:46Z</time>
      </trkpt>
      <trkpt lat="44.05917" lon="1.6017">
        <ele>15100</ele>
        <time>2020-05-31T05:18:47Z</time>
      </trkpt>
      <trkpt lat="44.05922" lon="1.60172">
        <ele>15100</ele>
        <time>2020-05-31T05:18:48Z</time>
      </trkpt>
      <trkpt lat="44.05927" lon="1.60174">
        <ele>15000</ele>
        <time>2020-05-31T05:18:49Z</time>
      </trkpt>
      <trkpt lat="44.05933" lon="1.60176">
        <ele>15000</ele>
        <time>2020-05-31T05:18:50Z</time>
      </trkpt>
      <trkpt lat="44.05939" lon="1.60178">
        <ele>15000</ele>
        <time>2020-05-31T05:18:51Z</time>
      </trkpt>
      <trkpt lat="44.05944" lon="1.6018">
        <ele>15000</ele>
        <time>2020-05-31T05:18:52Z</time>
      </trkpt>
      <trkpt lat="44.05949" lon="1.60183">
        <ele>15000</ele>
        <time>2020-05-31T05:18:53Z</time>
      </trkpt>
      <trkpt lat="44.05955" lon="1.60185">
        <ele>15000</ele>
        <time>2020-05-31T05:18:54Z</time>
      </trkpt>
      <trkpt lat="44.05961" lon="1.60188">
        <ele>15000</ele>
        <time>2020-05-31T05:18:55Z</time>
      </trkpt>
      <trkpt lat="44.05966" lon="1.6019">
        <ele>15000</ele>
        <time>2020-05-31T05:18:56Z</time>
      </trkpt>
      <trkpt lat="44.05972" lon="1.60192">
        <ele>14900</ele>
        <time>2020-05-31T05:18:57Z</time>
      </trkpt>
      <trkpt lat="44.05977" lon="1.60194">
        <ele>14900</ele>
        <time>2020-05-31T05:18:58Z</time>
      </trkpt>
      <trkpt lat="44.05983" lon="1.60196">
        <ele>14900</ele>
        <time>2020-05-31T05:18:59Z</time>
      </trkpt>
      <trkpt lat="44.05988" lon="1.60198">
        <ele>14900</ele>
        <time>2020-05-31T05:19:00Z</time>
      </trkpt>
      <trkpt lat="44.05994" lon="1.602">
        <ele>14900</ele>
        <time>2020-05-31T05:19:01Z</time>
      </trkpt>
      <trkpt lat="44.06" lon="1.60202">
        <ele>14800</ele>
        <time>2020-05-31T05:19:02Z</time>
      </trkpt>
      <trkpt lat="44.06006" lon="1.60205">
        <ele>14800</ele>
        <time>2020-05-31T05:19:03Z</time>
      </trkpt>
      <trkpt lat="44.06012" lon="1.60207">
        <ele>14800</ele>
        <time>2020-05-31T05:19:04Z</time>
      </trkpt>
      <trkpt lat="44.06018" lon="1.6021">
        <ele>14700</ele>
        <time>2020-05-31T05:19:05Z</time>
      </trkpt>
      <trkpt lat="44.06025" lon="1.60212">
        <ele>14700</ele>
        <time>2020-05-31T05:19:06Z</time>
      </trkpt>
      <trkpt lat="44.06031" lon="1.60214">
        <ele>14700</ele>
        <time>2020-05-31T05:19:07Z</time>
      </trkpt>
      <trkpt lat="44.06038" lon="1.60217">
        <ele>14600</ele>
        <time>2020-05-31T05:19:08Z</time>
      </trkpt>
      <trkpt lat="44.06045" lon="1.60219">
        <ele>14600</ele>
        <time>2020-05-31T05:19:09Z</time>
      </trkpt>
      <trkpt lat="44.06051" lon="1.60221">
        <ele>14500</ele>
        <time>2020-05-31T05:19:10Z</time>
      </trkpt>
      <trkpt lat="44.06059" lon="1.60224">
        <ele>14500</ele>
        <time>2020-05-31T05:19:11Z</time>
      </trkpt>
      <trkpt lat="44.06065" lon="1.60226">
        <ele>14500</ele>
        <time>2020-05-31T05:19:12Z</time>
      </trkpt>
      <trkpt lat="44.06072" lon="1.60227">
        <ele>14500</ele>
        <time>2020-05-31T05:19:13Z</time>
      </trkpt>
      <trkpt lat="44.0608" lon="1.60228">
        <ele>14500</ele>
        <time>2020-05-31T05:19:14Z</time>
      </trkpt>
      <trkpt lat="44.06087" lon="1.60229">
        <ele>14500</ele>
        <time>2020-05-31T05:19:15Z</time>
      </trkpt>
      <trkpt lat="44.06093" lon="1.6023">
        <ele>14500</ele>
        <time>2020-05-31T05:19:16Z</time>
      </trkpt>
      <trkpt lat="44.06101" lon="1.60232">
        <ele>14500</ele>
        <time>2020-05-31T05:19:17Z</time>
      </trkpt>
      <trkpt lat="44.06108" lon="1.60233">
        <ele>14500</ele>
        <time>2020-05-31T05:19:18Z</time>
      </trkpt>
      <trkpt lat="44.06115" lon="1.60235">
        <ele>14500</ele>
        <time>2020-05-31T05:19:19Z</time>
      </trkpt>
      <trkpt lat="44.06121" lon="1.60236">
        <ele>14500</ele>
        <time>2020-05-31T05:19:20Z</time>
      </trkpt>
      <trkpt lat="44.06129" lon="1.60238">
        <ele>14500</ele>
        <time>2020-05-31T05:19:21Z</time>
      </trkpt>
      <trkpt lat="44.06135" lon="1.60239">
        <ele>14500</ele>
        <time>2020-05-31T05:19:22Z</time>
      </trkpt>
      <trkpt lat="44.06142" lon="1.6024">
        <ele>14500</ele>
        <time>2020-05-31T05:19:23Z</time>
      </trkpt>
      <trkpt lat="44.06149" lon="1.6024">
        <ele>14500</ele>
        <time>2020-05-31T05:19:24Z</time>
      </trkpt>
      <trkpt lat="44.06156" lon="1.60241">
        <ele>14500</ele>
        <time>2020-05-31T05:19:25Z</time>
      </trkpt>
      <trkpt lat="44.06162" lon="1.60241">
        <ele>14400</ele>
        <time>2020-05-31T05:19:26Z</time>
      </trkpt>
      <trkpt lat="44.06169" lon="1.60241">
        <ele>14400</ele>
        <time>2020-05-31T05:19:27Z</time>
      </trkpt>
      <trkpt lat="44.06175" lon="1.60242">
        <ele>14400</ele>
        <time>2020-05-31T05:19:28Z</time>
      </trkpt>
      <trkpt lat="44.06181" lon="1.60242">
        <ele>14400</ele>
        <time>2020-05-31T05:19:29Z</time>
      </trkpt>
      <trkpt lat="44.06187" lon="1.60243">
        <ele>14400</ele>
        <time>2020-05-31T05:19:30Z</time>
      </trkpt>
      <trkpt lat="44.06193" lon="1.60244">
        <ele>14400</ele>
        <time>2020-05-31T05:19:31Z</time>
      </trkpt>
      <trkpt lat="44.06199" lon="1.60245">
        <ele>14300</ele>
        <time>2020-05-31T05:19:32Z</time>
      </trkpt>
      <trkpt lat="44.06205" lon="1.60247">
        <ele>14300</ele>
        <time>2020-05-31T05:19:33Z</time>
      </trkpt>
      <trkpt lat="44.06212" lon="1.60248">
        <ele>14200</ele>
        <time>2020-05-31T05:19:34Z</time>
      </trkpt>
      <trkpt lat="44.06219" lon="1.60249">
        <ele>14200</ele>
        <time>2020-05-31T05:19:35Z</time>
      </trkpt>
      <trkpt lat="44.06226" lon="1.60251">
        <ele>14100</ele>
        <time>2020-05-31T05:19:36Z</time>
      </trkpt>
      <trkpt lat="44.06233" lon="1.60252">
        <ele>14100</ele>
        <time>2020-05-31T05:19:37Z</time>
      </trkpt>
      <trkpt lat="44.0624" lon="1.60254">
        <ele>13900</ele>
        <time>2020-05-31T05:19:38Z</time>
      </trkpt>
      <trkpt lat="44.06249" lon="1.60255">
        <ele>13800</ele>
        <time>2020-05-31T05:19:39Z</time>
      </trkpt>
      <trkpt lat="44.06257" lon="1.60257">
        <ele>13800</ele>
        <time>2020-05-31T05:19:40Z</time>
      </trkpt>
      <trkpt lat="44.06265" lon="1.6026">
        <ele>13800</ele>
        <time>2020-05-31T05:19:41Z</time>
      </trkpt>
      <trkpt lat="44.06273" lon="1.60262">
        <ele>13600</ele>
        <time>2020-05-31T05:19:42Z</time>
      </trkpt>
      <trkpt lat="44.06281" lon="1.60263">
        <ele>13600</ele>
        <time>2020-05-31T05:19:43Z</time>
      </trkpt>
      <trkpt lat="44.06289" lon="1.60265">
        <ele>13500</ele>
        <time>2020-05-31T05:19:44Z</time>
      </trkpt>
      <trkpt lat="44.06297" lon="1.60268">
        <ele>13500</ele>
        <time>2020-05-31T05:19:45Z</time>
      </trkpt>
      <trkpt lat="44.06304" lon="1.6027">
        <ele>13400</ele>
        <time>2020-05-31T05:19:46Z</time>
      </trkpt>
      <trkpt lat="44.06312" lon="1.60273">
        <ele>13400</ele>
        <time>2020-05-31T05:19:47Z</time>
      </trkpt>
      <trkpt lat="44.06319" lon="1.60275">
        <ele>13200</ele>
        <time>2020-05-31T05:19:48Z</time>
      </trkpt>
      <trkpt lat="44.06328" lon="1.60278">
        <ele>13200</ele>
        <time>2020-05-31T05:19:49Z</time>
      </trkpt>
      <trkpt lat="44.06337" lon="1.60281">
        <ele>13100</ele>
        <time>2020-05-31T05:19:50Z</time>
      </trkpt>
      <trkpt lat="44.06345" lon="1.60284">
        <ele>13100</ele>
        <time>2020-05-31T05:19:51Z</time>
      </trkpt>
      <trkpt lat="44.06353" lon="1.60287">
        <ele>12900</ele>
        <time>2020-05-31T05:19:52Z</time>
      </trkpt>
      <trkpt lat="44.06363" lon="1.6029">
        <ele>12900</ele>
        <time>2020-05-31T05:19:53Z</time>
      </trkpt>
      <trkpt lat="44.06371" lon="1.60294">
        <ele>12800</ele>
        <time>2020-05-31T05:19:54Z</time>
      </trkpt>
      <trkpt lat="44.06381" lon="1.60298">
        <ele>12800</ele>
        <time>2020-05-31T05:19:55Z</time>
      </trkpt>
      <trkpt lat="44.06389" lon="1.60302">
        <ele>12700</ele>
        <time>2020-05-31T05:19:56Z</time>
      </trkpt>
      <trkpt lat="44.06398" lon="1.60306">
        <ele>12700</ele>
        <time>2020-05-31T05:19:57Z</time>
      </trkpt>
      <trkpt lat="44.06407" lon="1.6031">
        <ele>12600</ele>
        <time>2020-05-31T05:19:58Z</time>
      </trkpt>
      <trkpt lat="44.06416" lon="1.60315">
        <ele>12600</ele>
        <time>2020-05-31T05:19:59Z</time>
      </trkpt>
      <trkpt lat="44.06424" lon="1.6032">
        <ele>12600</ele>
        <time>2020-05-31T05:20:00Z</time>
      </trkpt>
      <trkpt lat="44.06432" lon="1.60325">
        <ele>12500</ele>
        <time>2020-05-31T05:20:01Z</time>
      </trkpt>
      <trkpt lat="44.0644" lon="1.6033">
        <ele>12500</ele>
        <time>2020-05-31T05:20:02Z</time>
      </trkpt>
      <trkpt lat="44.06449" lon="1.60335">
        <ele>12500</ele>
        <time>2020-05-31T05:20:03Z</time>
      </trkpt>
      <trkpt lat="44.06457" lon="1.6034">
        <ele>12500</ele>
        <time>2020-05-31T05:20:04Z</time>
      </trkpt>
      <trkpt lat="44.06464" lon="1.60344">
        <ele>12400</ele>
        <time>2020-05-31T05:20:05Z</time>
      </trkpt>
      <trkpt lat="44.06472" lon="1.60349">
        <ele>12400</ele>
        <time>2020-05-31T05:20:06Z</time>
      </trkpt>
      <trkpt lat="44.0648" lon="1.60354">
        <ele>12400</ele>
        <time>2020-05-31T05:20:07Z</time>
      </trkpt>
      <trkpt lat="44.06487" lon="1.60358">
        <ele>12400</ele>
        <time>2020-05-31T05:20:08Z</time>
      </trkpt>
      <trkpt lat="44.06494" lon="1.60363">
        <ele>12400</ele>
        <time>2020-05-31T05:20:09Z</time>
      </trkpt>
      <trkpt lat="44.06501" lon="1.60367">
        <ele>12400</ele>
        <time>2020-05-31T05:20:10Z</time>
      </trkpt>
      <trkpt lat="44.06507" lon="1.60371">
        <ele>12400</ele>
        <time>2020-05-31T05:20:11Z</time>
      </trkpt>
      <trkpt lat="44.06513" lon="1.60375">
        <ele>12400</ele>
        <time>2020-05-31T05:20:12Z</time>
      </trkpt>
      <trkpt lat="44.06519" lon="1.60379">
        <ele>12400</ele>
        <time>2020-05-31T05:20:13Z</time>
      </trkpt>
      <trkpt lat="44.06525" lon="1.60383">
        <ele>12400</ele>
        <time>2020-05-31T05:20:14Z</time>
      </trkpt>
      <trkpt lat="44.06531" lon="1.60387">
        <ele>12400</ele>
        <time>2020-05-31T05:20:15Z</time>
      </trkpt>
      <trkpt lat="44.06537" lon="1.6039">
        <ele>12400</ele>
        <time>2020-05-31T05:20:16Z</time>
      </trkpt>
      <trkpt lat="44.06542" lon="1.60394">
        <ele>12400</ele>
        <time>2020-05-31T05:20:17Z</time>
      </trkpt>
      <trkpt lat="44.06547" lon="1.60396">
        <ele>12500</ele>
        <time>2020-05-31T05:20:18Z</time>
      </trkpt>
      <trkpt lat="44.06552" lon="1.60399">
        <ele>12500</ele>
        <time>2020-05-31T05:20:19Z</time>
      </trkpt>
      <trkpt lat="44.06557" lon="1.60402">
        <ele>12500</ele>
        <time>2020-05-31T05:20:20Z</time>
      </trkpt>
      <trkpt lat="44.06561" lon="1.60405">
        <ele>12500</ele>
        <time>2020-05-31T05:20:21Z</time>
      </trkpt>
      <trkpt lat="44.06566" lon="1.60407">
        <ele>12600</ele>
        <time>2020-05-31T05:20:22Z</time>
      </trkpt>
      <trkpt lat="44.06569" lon="1.60409">
        <ele>12600</ele>
        <time>2020-05-31T05:20:23Z</time>
      </trkpt>
      <trkpt lat="44.06573" lon="1.60411">
        <ele>12600</ele>
        <time>2020-05-31T05:20:24Z</time>
      </trkpt>
      <trkpt lat="44.06577" lon="1.60413">
        <ele>12600</ele>
        <time>2020-05-31T05:20:25Z</time>
      </trkpt>
      <trkpt lat="44.0658" lon="1.60415">
        <ele>12700</ele>
        <time>2020-05-31T05:20:26Z</time>
      </trkpt>
      <trkpt lat="44.06584" lon="1.60418">
        <ele>12700</ele>
        <time>2020-05-31T05:20:27Z</time>
      </trkpt>
      <trkpt lat="44.06587" lon="1.6042">
        <ele>12700</ele>
        <time>2020-05-31T05:20:28Z</time>
      </trkpt>
      <trkpt lat="44.06591" lon="1.60422">
        <ele>12700</ele>
        <time>2020-05-31T05:20:29Z</time>
      </trkpt>
      <trkpt lat="44.06594" lon="1.60424">
        <ele>12700</ele>
        <time>2020-05-31T05:20:30Z</time>
      </trkpt>
      <trkpt lat="44.06597" lon="1.60426">
        <ele>12700</ele>
        <time>2020-05-31T05:20:31Z</time>
      </trkpt>
      <trkpt lat="44.066" lon="1.60428">
        <ele>12800</ele>
        <time>2020-05-31T05:20:32Z</time>
      </trkpt>
      <trkpt lat="44.06602" lon="1.6043">
        <ele>12800</ele>
        <time>2020-05-31T05:20:33Z</time>
      </trkpt>
      <trkpt lat="44.06605" lon="1.60432">
        <ele>12800</ele>
        <time>2020-05-31T05:20:34Z</time>
      </trkpt>
      <trkpt lat="44.06608" lon="1.60434">
        <ele>12800</ele>
        <time>2020-05-31T05:20:35Z</time>
      </trkpt>
      <trkpt lat="44.06611" lon="1.60435">
        <ele>12800</ele>
        <time>2020-05-31T05:20:36Z</time>
      </trkpt>
      <trkpt lat="44.06613" lon="1.60437">
        <ele>12800</ele>
        <time>2020-05-31T05:20:37Z</time>
      </trkpt>
      <trkpt lat="44.06616" lon="1.60439">
        <ele>12900</ele>
        <time>2020-05-31T05:20:38Z</time>
      </trkpt>
      <trkpt lat="44.06619" lon="1.60441">
        <ele>12900</ele>
        <time>2020-05-31T05:20:39Z</time>
      </trkpt>
      <trkpt lat="44.06622" lon="1.60444">
        <ele>12900</ele>
        <time>2020-05-31T05:20:40Z</time>
      </trkpt>
      <trkpt lat="44.06625" lon="1.60447">
        <ele>12900</ele>
        <time>2020-05-31T05:20:41Z</time>
      </trkpt>
      <trkpt lat="44.06628" lon="1.60449">
        <ele>12900</ele>
        <time>2020-05-31T05:20:42Z</time>
      </trkpt>
      <trkpt lat="44.06631" lon="1.60452">
        <ele>12900</ele>
        <time>2020-05-31T05:20:43Z</time>
      </trkpt>
      <trkpt lat="44.06635" lon="1.60455">
        <ele>12900</ele>
        <time>2020-05-31T05:20:44Z</time>
      </trkpt>
      <trkpt lat="44.06638" lon="1.60458">
        <ele>12900</ele>
        <time>2020-05-31T05:20:45Z</time>
      </trkpt>
      <trkpt lat="44.06642" lon="1.60462">
        <ele>12900</ele>
        <time>2020-05-31T05:20:46Z</time>
      </trkpt>
      <trkpt lat="44.06646" lon="1.60465">
        <ele>12900</ele>
        <time>2020-05-31T05:20:47Z</time>
      </trkpt>
      <trkpt lat="44.06651" lon="1.60468">
        <ele>12900</ele>
        <time>2020-05-31T05:20:48Z</time>
      </trkpt>
      <trkpt lat="44.06655" lon="1.60472">
        <ele>12900</ele>
        <time>2020-05-31T05:20:49Z</time>
      </trkpt>
      <trkpt lat="44.06659" lon="1.60476">
        <ele>12800</ele>
        <time>2020-05-31T05:20:50Z</time>
      </trkpt>
      <trkpt lat="44.06664" lon="1.6048">
        <ele>12800</ele>
        <time>2020-05-31T05:20:51Z</time>
      </trkpt>
      <trkpt lat="44.06669" lon="1.60484">
        <ele>12800</ele>
        <time>2020-05-31T05:20:52Z</time>
      </trkpt>
      <trkpt lat="44.06674" lon="1.60488">
        <ele>12800</ele>
        <time>2020-05-31T05:20:53Z</time>
      </trkpt>
      <trkpt lat="44.06679" lon="1.60492">
        <ele>12700</ele>
        <time>2020-05-31T05:20:54Z</time>
      </trkpt>
      <trkpt lat="44.06684" lon="1.60496">
        <ele>12700</ele>
        <time>2020-05-31T05:20:55Z</time>
      </trkpt>
      <trkpt lat="44.0669" lon="1.605">
        <ele>12700</ele>
        <time>2020-05-31T05:20:56Z</time>
      </trkpt>
      <trkpt lat="44.06695" lon="1.60504">
        <ele>12700</ele>
        <time>2020-05-31T05:20:57Z</time>
      </trkpt>
      <trkpt lat="44.06701" lon="1.60508">
        <ele>12700</ele>
        <time>2020-05-31T05:20:58Z</time>
      </trkpt>
      <trkpt lat="44.06707" lon="1.60511">
        <ele>12600</ele>
        <time>2020-05-31T05:20:59Z</time>
      </trkpt>
      <trkpt lat="44.06713" lon="1.60514">
        <ele>12600</ele>
        <time>2020-05-31T05:21:00Z</time>
      </trkpt>
      <trkpt lat="44.0672" lon="1.60516">
        <ele>12600</ele>
        <time>2020-05-31T05:21:01Z</time>
      </trkpt>
      <trkpt lat="44.06726" lon="1.60518">
        <ele>12600</ele>
        <time>2020-05-31T05:21:02Z</time>
      </trkpt>
      <trkpt lat="44.06733" lon="1.60519">
        <ele>12600</ele>
        <time>2020-05-31T05:21:03Z</time>
      </trkpt>
      <trkpt lat="44.06739" lon="1.60521">
        <ele>12600</ele>
        <time>2020-05-31T05:21:04Z</time>
      </trkpt>
      <trkpt lat="44.06746" lon="1.60523">
        <ele>12600</ele>
        <time>2020-05-31T05:21:05Z</time>
      </trkpt>
      <trkpt lat="44.06753" lon="1.60524">
        <ele>12500</ele>
        <time>2020-05-31T05:21:06Z</time>
      </trkpt>
      <trkpt lat="44.06759" lon="1.60526">
        <ele>12500</ele>
        <time>2020-05-31T05:21:07Z</time>
      </trkpt>
      <trkpt lat="44.06765" lon="1.60527">
        <ele>12500</ele>
        <time>2020-05-31T05:21:08Z</time>
      </trkpt>
      <trkpt lat="44.0677" lon="1.60528">
        <ele>12500</ele>
        <time>2020-05-31T05:21:09Z</time>
      </trkpt>
      <trkpt lat="44.06775" lon="1.60529">
        <ele>12500</ele>
        <time>2020-05-31T05:21:10Z</time>
      </trkpt>
      <trkpt lat="44.06781" lon="1.6053">
        <ele>12500</ele>
        <time>2020-05-31T05:21:11Z</time>
      </trkpt>
      <trkpt lat="44.06787" lon="1.6053">
        <ele>12500</ele>
        <time>2020-05-31T05:21:12Z</time>
      </trkpt>
      <trkpt lat="44.06792" lon="1.6053">
        <ele>12500</ele>
        <time>2020-05-31T05:21:13Z</time>
      </trkpt>
      <trkpt lat="44.06798" lon="1.6053">
        <ele>12500</ele>
        <time>2020-05-31T05:21:14Z</time>
      </trkpt>
      <trkpt lat="44.06805" lon="1.60529">
        <ele>12500</ele>
        <time>2020-05-31T05:21:15Z</time>
      </trkpt>
      <trkpt lat="44.06811" lon="1.60529">
        <ele>12500</ele>
        <time>2020-05-31T05:21:16Z</time>
      </trkpt>
      <trkpt lat="44.06817" lon="1.60529">
        <ele>12500</ele>
        <time>2020-05-31T05:21:17Z</time>
      </trkpt>
      <trkpt lat="44.06823" lon="1.6053">
        <ele>12500</ele>
        <time>2020-05-31T05:21:18Z</time>
      </trkpt>
      <trkpt lat="44.0683" lon="1.6053">
        <ele>12500</ele>
        <time>2020-05-31T05:21:19Z</time>
      </trkpt>
      <trkpt lat="44.06835" lon="1.6053">
        <ele>12400</ele>
        <time>2020-05-31T05:21:20Z</time>
      </trkpt>
      <trkpt lat="44.06841" lon="1.60531">
        <ele>12400</ele>
        <time>2020-05-31T05:21:21Z</time>
      </trkpt>
      <trkpt lat="44.06847" lon="1.60532">
        <ele>12400</ele>
        <time>2020-05-31T05:21:22Z</time>
      </trkpt>
      <trkpt lat="44.06852" lon="1.60534">
        <ele>12400</ele>
        <time>2020-05-31T05:21:22Z</time>
      </trkpt>
      <trkpt lat="44.06857" lon="1.60536">
        <ele>12400</ele>
        <time>2020-05-31T05:21:23Z</time>
      </trkpt>
      <trkpt lat="44.06862" lon="1.60538">
        <ele>12400</ele>
        <time>2020-05-31T05:21:24Z</time>
      </trkpt>
      <trkpt lat="44.06867" lon="1.6054">
        <ele>12400</ele>
        <time>2020-05-31T05:21:25Z</time>
      </trkpt>
      <trkpt lat="44.06872" lon="1.60543">
        <ele>12400</ele>
        <time>2020-05-31T05:21:26Z</time>
      </trkpt>
      <trkpt lat="44.06877" lon="1.60546">
        <ele>12400</ele>
        <time>2020-05-31T05:21:27Z</time>
      </trkpt>
      <trkpt lat="44.06882" lon="1.60548">
        <ele>12400</ele>
        <time>2020-05-31T05:21:28Z</time>
      </trkpt>
      <trkpt lat="44.06887" lon="1.60551">
        <ele>12400</ele>
        <time>2020-05-31T05:21:29Z</time>
      </trkpt>
      <trkpt lat="44.06892" lon="1.60554">
        <ele>12400</ele>
        <time>2020-05-31T05:21:30Z</time>
      </trkpt>
      <trkpt lat="44.06896" lon="1.60557">
        <ele>12400</ele>
        <time>2020-05-31T05:21:31Z</time>
      </trkpt>
      <trkpt lat="44.06901" lon="1.6056">
        <ele>12400</ele>
        <time>2020-05-31T05:21:32Z</time>
      </trkpt>
      <trkpt lat="44.06907" lon="1.60563">
        <ele>12400</ele>
        <time>2020-05-31T05:21:33Z</time>
      </trkpt>
      <trkpt lat="44.06911" lon="1.60566">
        <ele>12400</ele>
        <time>2020-05-31T05:21:34Z</time>
      </trkpt>
      <trkpt lat="44.06916" lon="1.60569">
        <ele>12400</ele>
        <time>2020-05-31T05:21:35Z</time>
      </trkpt>
      <trkpt lat="44.06921" lon="1.60572">
        <ele>12400</ele>
        <time>2020-05-31T05:21:36Z</time>
      </trkpt>
      <trkpt lat="44.06926" lon="1.60575">
        <ele>12400</ele>
        <time>2020-05-31T05:21:37Z</time>
      </trkpt>
      <trkpt lat="44.06931" lon="1.60577">
        <ele>12400</ele>
        <time>2020-05-31T05:21:38Z</time>
      </trkpt>
      <trkpt lat="44.06937" lon="1.6058">
        <ele>12400</ele>
        <time>2020-05-31T05:21:39Z</time>
      </trkpt>
      <trkpt lat="44.06942" lon="1.60583">
        <ele>12400</ele>
        <time>2020-05-31T05:21:40Z</time>
      </trkpt>
      <trkpt lat="44.06947" lon="1.60585">
        <ele>12400</ele>
        <time>2020-05-31T05:21:41Z</time>
      </trkpt>
      <trkpt lat="44.06952" lon="1.60588">
        <ele>12400</ele>
        <time>2020-05-31T05:21:42Z</time>
      </trkpt>
      <trkpt lat="44.06958" lon="1.6059">
        <ele>12400</ele>
        <time>2020-05-31T05:21:43Z</time>
      </trkpt>
      <trkpt lat="44.06963" lon="1.60592">
        <ele>12400</ele>
        <time>2020-05-31T05:21:44Z</time>
      </trkpt>
      <trkpt lat="44.06968" lon="1.60595">
        <ele>12400</ele>
        <time>2020-05-31T05:21:45Z</time>
      </trkpt>
      <trkpt lat="44.06973" lon="1.60597">
        <ele>12400</ele>
        <time>2020-05-31T05:21:46Z</time>
      </trkpt>
      <trkpt lat="44.06978" lon="1.60599">
        <ele>12400</ele>
        <time>2020-05-31T05:21:47Z</time>
      </trkpt>
      <trkpt lat="44.06982" lon="1.60601">
        <ele>12400</ele>
        <time>2020-05-31T05:21:48Z</time>
      </trkpt>
      <trkpt lat="44.06987" lon="1.60603">
        <ele>12400</ele>
        <time>2020-05-31T05:21:49Z</time>
      </trkpt>
      <trkpt lat="44.06992" lon="1.60605">
        <ele>12400</ele>
        <time>2020-05-31T05:21:50Z</time>
      </trkpt>
      <trkpt lat="44.06998" lon="1.60607">
        <ele>12400</ele>
        <time>2020-05-31T05:21:51Z</time>
      </trkpt>
      <trkpt lat="44.07003" lon="1.60609">
        <ele>12400</ele>
        <time>2020-05-31T05:21:52Z</time>
      </trkpt>
      <trkpt lat="44.07008" lon="1.60611">
        <ele>12400</ele>
        <time>2020-05-31T05:21:53Z</time>
      </trkpt>
      <trkpt lat="44.07014" lon="1.60612">
        <ele>12400</ele>
        <time>2020-05-31T05:21:54Z</time>
      </trkpt>
      <trkpt lat="44.07019" lon="1.60614">
        <ele>12400</ele>
        <time>2020-05-31T05:21:55Z</time>
      </trkpt>
      <trkpt lat="44.07024" lon="1.60616">
        <ele>12400</ele>
        <time>2020-05-31T05:21:56Z</time>
      </trkpt>
      <trkpt lat="44.07029" lon="1.60618">
        <ele>12400</ele>
        <time>2020-05-31T05:21:57Z</time>
      </trkpt>
      <trkpt lat="44.07034" lon="1.6062">
        <ele>12400</ele>
        <time>2020-05-31T05:21:58Z</time>
      </trkpt>
      <trkpt lat="44.0704" lon="1.60622">
        <ele>12400</ele>
        <time>2020-05-31T05:21:59Z</time>
      </trkpt>
      <trkpt lat="44.07044" lon="1.60625">
        <ele>12400</ele>
        <time>2020-05-31T05:22:00Z</time>
      </trkpt>
      <trkpt lat="44.07049" lon="1.60628">
        <ele>12400</ele>
        <time>2020-05-31T05:22:01Z</time>
      </trkpt>
      <trkpt lat="44.07054" lon="1.60631">
        <ele>12400</ele>
        <time>2020-05-31T05:22:02Z</time>
      </trkpt>
      <trkpt lat="44.07058" lon="1.60634">
        <ele>12400</ele>
        <time>2020-05-31T05:22:03Z</time>
      </trkpt>
      <trkpt lat="44.07063" lon="1.60637">
        <ele>12400</ele>
        <time>2020-05-31T05:22:04Z</time>
      </trkpt>
      <trkpt lat="44.07068" lon="1.60641">
        <ele>12400</ele>
        <time>2020-05-31T05:22:05Z</time>
      </trkpt>
      <trkpt lat="44.07072" lon="1.60644">
        <ele>12400</ele>
        <time>2020-05-31T05:22:06Z</time>
      </trkpt>
      <trkpt lat="44.07076" lon="1.60648">
        <ele>12300</ele>
        <time>2020-05-31T05:22:07Z</time>
      </trkpt>
      <trkpt lat="44.07081" lon="1.60651">
        <ele>12300</ele>
        <time>2020-05-31T05:22:08Z</time>
      </trkpt>
      <trkpt lat="44.07086" lon="1.60655">
        <ele>12300</ele>
        <time>2020-05-31T05:22:09Z</time>
      </trkpt>
      <trkpt lat="44.07091" lon="1.60659">
        <ele>12300</ele>
        <time>2020-05-31T05:22:10Z</time>
      </trkpt>
      <trkpt lat="44.07097" lon="1.60663">
        <ele>12300</ele>
        <time>2020-05-31T05:22:11Z</time>
      </trkpt>
      <trkpt lat="44.07102" lon="1.60667">
        <ele>12200</ele>
        <time>2020-05-31T05:22:12Z</time>
      </trkpt>
      <trkpt lat="44.07108" lon="1.60671">
        <ele>12200</ele>
        <time>2020-05-31T05:22:13Z</time>
      </trkpt>
      <trkpt lat="44.07112" lon="1.60677">
        <ele>12200</ele>
        <time>2020-05-31T05:22:14Z</time>
      </trkpt>
      <trkpt lat="44.07118" lon="1.60682">
        <ele>12000</ele>
        <time>2020-05-31T05:22:15Z</time>
      </trkpt>
      <trkpt lat="44.07124" lon="1.60687">
        <ele>12000</ele>
        <time>2020-05-31T05:22:16Z</time>
      </trkpt>
      <trkpt lat="44.0713" lon="1.60694">
        <ele>11900</ele>
        <time>2020-05-31T05:22:17Z</time>
      </trkpt>
      <trkpt lat="44.07136" lon="1.607">
        <ele>11800</ele>
        <time>2020-05-31T05:22:18Z</time>
      </trkpt>
      <trkpt lat="44.07143" lon="1.60708">
        <ele>11700</ele>
        <time>2020-05-31T05:22:19Z</time>
      </trkpt>
      <trkpt lat="44.07151" lon="1.60715">
        <ele>11600</ele>
        <time>2020-05-31T05:22:20Z</time>
      </trkpt>
      <trkpt lat="44.07158" lon="1.60724">
        <ele>11600</ele>
        <time>2020-05-31T05:22:21Z</time>
      </trkpt>
      <trkpt lat="44.07165" lon="1.60732">
        <ele>11500</ele>
        <time>2020-05-31T05:22:22Z</time>
      </trkpt>
      <trkpt lat="44.07172" lon="1.60741">
        <ele>11500</ele>
        <time>2020-05-31T05:22:23Z</time>
      </trkpt>
      <trkpt lat="44.0718" lon="1.60749">
        <ele>11300</ele>
        <time>2020-05-31T05:22:24Z</time>
      </trkpt>
      <trkpt lat="44.07188" lon="1.60757">
        <ele>11300</ele>
        <time>2020-05-31T05:22:25Z</time>
      </trkpt>
      <trkpt lat="44.07196" lon="1.60764">
        <ele>11200</ele>
        <time>2020-05-31T05:22:26Z</time>
      </trkpt>
      <trkpt lat="44.07204" lon="1.60771">
        <ele>11200</ele>
        <time>2020-05-31T05:22:27Z</time>
      </trkpt>
      <trkpt lat="44.07212" lon="1.60778">
        <ele>11100</ele>
        <time>2020-05-31T05:22:28Z</time>
      </trkpt>
      <trkpt lat="44.07221" lon="1.60785">
        <ele>11100</ele>
        <time>2020-05-31T05:22:29Z</time>
      </trkpt>
      <trkpt lat="44.07229" lon="1.60791">
        <ele>11100</ele>
        <time>2020-05-31T05:22:30Z</time>
      </trkpt>
      <trkpt lat="44.07238" lon="1.60797">
        <ele>11100</ele>
        <time>2020-05-31T05:22:31Z</time>
      </trkpt>
      <trkpt lat="44.07246" lon="1.60803">
        <ele>11100</ele>
        <time>2020-05-31T05:22:32Z</time>
      </trkpt>
      <trkpt lat="44.07254" lon="1.60808">
        <ele>11100</ele>
        <time>2020-05-31T05:22:33Z</time>
      </trkpt>
      <trkpt lat="44.07262" lon="1.60814">
        <ele>11000</ele>
        <time>2020-05-31T05:22:34Z</time>
      </trkpt>
      <trkpt lat="44.0727" lon="1.60819">
        <ele>11000</ele>
        <time>2020-05-31T05:22:35Z</time>
      </trkpt>
      <trkpt lat="44.07278" lon="1.60825">
        <ele>10900</ele>
        <time>2020-05-31T05:22:36Z</time>
      </trkpt>
      <trkpt lat="44.07287" lon="1.6083">
        <ele>10900</ele>
        <time>2020-05-31T05:22:37Z</time>
      </trkpt>
      <trkpt lat="44.07295" lon="1.60836">
        <ele>10900</ele>
        <time>2020-05-31T05:22:38Z</time>
      </trkpt>
      <trkpt lat="44.07303" lon="1.60842">
        <ele>10800</ele>
        <time>2020-05-31T05:22:39Z</time>
      </trkpt>
      <trkpt lat="44.07311" lon="1.60847">
        <ele>10800</ele>
        <time>2020-05-31T05:22:40Z</time>
      </trkpt>
      <trkpt lat="44.07319" lon="1.60852">
        <ele>10700</ele>
        <time>2020-05-31T05:22:41Z</time>
      </trkpt>
      <trkpt lat="44.07326" lon="1.60856">
        <ele>10700</ele>
        <time>2020-05-31T05:22:42Z</time>
      </trkpt>
      <trkpt lat="44.07333" lon="1.60859">
        <ele>10700</ele>
        <time>2020-05-31T05:22:43Z</time>
      </trkpt>
      <trkpt lat="44.0734" lon="1.60862">
        <ele>10700</ele>
        <time>2020-05-31T05:22:44Z</time>
      </trkpt>
      <trkpt lat="44.07346" lon="1.60865">
        <ele>10600</ele>
        <time>2020-05-31T05:22:45Z</time>
      </trkpt>
      <trkpt lat="44.07351" lon="1.60867">
        <ele>10600</ele>
        <time>2020-05-31T05:22:46Z</time>
      </trkpt>
      <trkpt lat="44.07356" lon="1.60868">
        <ele>10600</ele>
        <time>2020-05-31T05:22:47Z</time>
      </trkpt>
      <trkpt lat="44.07359" lon="1.60871">
        <ele>10600</ele>
        <time>2020-05-31T05:22:48Z</time>
      </trkpt>
      <trkpt lat="44.07363" lon="1.60873">
        <ele>10600</ele>
        <time>2020-05-31T05:22:49Z</time>
      </trkpt>
      <trkpt lat="44.07366" lon="1.60877">
        <ele>10600</ele>
        <time>2020-05-31T05:22:50Z</time>
      </trkpt>
      <trkpt lat="44.07367" lon="1.60882">
        <ele>10500</ele>
        <time>2020-05-31T05:22:51Z</time>
      </trkpt>
      <trkpt lat="44.07369" lon="1.60888">
        <ele>10500</ele>
        <time>2020-05-31T05:22:52Z</time>
      </trkpt>
      <trkpt lat="44.07369" lon="1.60895">
        <ele>10500</ele>
        <time>2020-05-31T05:22:53Z</time>
      </trkpt>
      <trkpt lat="44.0737" lon="1.60903">
        <ele>10400</ele>
        <time>2020-05-31T05:22:54Z</time>
      </trkpt>
      <trkpt lat="44.07371" lon="1.60911">
        <ele>10400</ele>
        <time>2020-05-31T05:22:55Z</time>
      </trkpt>
      <trkpt lat="44.07371" lon="1.60919">
        <ele>10400</ele>
        <time>2020-05-31T05:22:56Z</time>
      </trkpt>
      <trkpt lat="44.07372" lon="1.60928">
        <ele>10400</ele>
        <time>2020-05-31T05:22:57Z</time>
      </trkpt>
      <trkpt lat="44.07373" lon="1.60937">
        <ele>10400</ele>
        <time>2020-05-31T05:22:58Z</time>
      </trkpt>
      <trkpt lat="44.07373" lon="1.60945">
        <ele>10400</ele>
        <time>2020-05-31T05:22:59Z</time>
      </trkpt>
      <trkpt lat="44.07374" lon="1.60954">
        <ele>10400</ele>
        <time>2020-05-31T05:23:00Z</time>
      </trkpt>
      <trkpt lat="44.07374" lon="1.60962">
        <ele>10400</ele>
        <time>2020-05-31T05:23:01Z</time>
      </trkpt>
      <trkpt lat="44.07374" lon="1.6097">
        <ele>10400</ele>
        <time>2020-05-31T05:23:02Z</time>
      </trkpt>
      <trkpt lat="44.07374" lon="1.60977">
        <ele>10400</ele>
        <time>2020-05-31T05:23:03Z</time>
      </trkpt>
      <trkpt lat="44.07374" lon="1.60985">
        <ele>10400</ele>
        <time>2020-05-31T05:23:04Z</time>
      </trkpt>
      <trkpt lat="44.07374" lon="1.60992">
        <ele>10400</ele>
        <time>2020-05-31T05:23:05Z</time>
      </trkpt>
      <trkpt lat="44.07374" lon="1.60999">
        <ele>10400</ele>
        <time>2020-05-31T05:23:06Z</time>
      </trkpt>
      <trkpt lat="44.07373" lon="1.61007">
        <ele>10400</ele>
        <time>2020-05-31T05:23:07Z</time>
      </trkpt>
      <trkpt lat="44.07372" lon="1.61014">
        <ele>10400</ele>
        <time>2020-05-31T05:23:08Z</time>
      </trkpt>
      <trkpt lat="44.07371" lon="1.6102">
        <ele>10400</ele>
        <time>2020-05-31T05:23:09Z</time>
      </trkpt>
      <trkpt lat="44.0737" lon="1.61026">
        <ele>10400</ele>
        <time>2020-05-31T05:23:10Z</time>
      </trkpt>
      <trkpt lat="44.07368" lon="1.61031">
        <ele>10400</ele>
        <time>2020-05-31T05:23:11Z</time>
      </trkpt>
      <trkpt lat="44.07367" lon="1.61036">
        <ele>10400</ele>
        <time>2020-05-31T05:23:12Z</time>
      </trkpt>
      <trkpt lat="44.07365" lon="1.6104">
        <ele>10500</ele>
        <time>2020-05-31T05:23:13Z</time>
      </trkpt>
      <trkpt lat="44.07363" lon="1.61045">
        <ele>10500</ele>
        <time>2020-05-31T05:23:14Z</time>
      </trkpt>
      <trkpt lat="44.07361" lon="1.61049">
        <ele>10500</ele>
        <time>2020-05-31T05:23:15Z</time>
      </trkpt>
      <trkpt lat="44.07359" lon="1.61053">
        <ele>10500</ele>
        <time>2020-05-31T05:23:16Z</time>
      </trkpt>
      <trkpt lat="44.07357" lon="1.61057">
        <ele>10500</ele>
        <time>2020-05-31T05:23:17Z</time>
      </trkpt>
      <trkpt lat="44.07356" lon="1.61061">
        <ele>10600</ele>
        <time>2020-05-31T05:23:18Z</time>
      </trkpt>
      <trkpt lat="44.07354" lon="1.61066">
        <ele>10600</ele>
        <time>2020-05-31T05:23:19Z</time>
      </trkpt>
      <trkpt lat="44.07352" lon="1.6107">
        <ele>10600</ele>
        <time>2020-05-31T05:23:20Z</time>
      </trkpt>
      <trkpt lat="44.07351" lon="1.61074">
        <ele>10600</ele>
        <time>2020-05-31T05:23:21Z</time>
      </trkpt>
      <trkpt lat="44.07349" lon="1.61078">
        <ele>10600</ele>
        <time>2020-05-31T05:23:22Z</time>
      </trkpt>
      <trkpt lat="44.07348" lon="1.61082">
        <ele>10700</ele>
        <time>2020-05-31T05:23:23Z</time>
      </trkpt>
      <trkpt lat="44.07346" lon="1.61086">
        <ele>10700</ele>
        <time>2020-05-31T05:23:24Z</time>
      </trkpt>
      <trkpt lat="44.07345" lon="1.6109">
        <ele>10700</ele>
        <time>2020-05-31T05:23:25Z</time>
      </trkpt>
      <trkpt lat="44.07343" lon="1.61094">
        <ele>10700</ele>
        <time>2020-05-31T05:23:26Z</time>
      </trkpt>
      <trkpt lat="44.07341" lon="1.61098">
        <ele>10700</ele>
        <time>2020-05-31T05:23:27Z</time>
      </trkpt>
      <trkpt lat="44.0734" lon="1.61102">
        <ele>10700</ele>
        <time>2020-05-31T05:23:28Z</time>
      </trkpt>
      <trkpt lat="44.07338" lon="1.61106">
        <ele>10700</ele>
        <time>2020-05-31T05:23:29Z</time>
      </trkpt>
      <trkpt lat="44.07336" lon="1.6111">
        <ele>10700</ele>
        <time>2020-05-31T05:23:30Z</time>
      </trkpt>
      <trkpt lat="44.07335" lon="1.61114">
        <ele>10700</ele>
        <time>2020-05-31T05:23:31Z</time>
      </trkpt>
      <trkpt lat="44.07332" lon="1.61118">
        <ele>10700</ele>
        <time>2020-05-31T05:23:32Z</time>
      </trkpt>
      <trkpt lat="44.0733" lon="1.61123">
        <ele>10700</ele>
        <time>2020-05-31T05:23:33Z</time>
      </trkpt>
      <trkpt lat="44.07328" lon="1.61127">
        <ele>10700</ele>
        <time>2020-05-31T05:23:34Z</time>
      </trkpt>
      <trkpt lat="44.07326" lon="1.61132">
        <ele>10700</ele>
        <time>2020-05-31T05:23:35Z</time>
      </trkpt>
      <trkpt lat="44.07325" lon="1.61136">
        <ele>10700</ele>
        <time>2020-05-31T05:23:36Z</time>
      </trkpt>
      <trkpt lat="44.07323" lon="1.6114">
        <ele>10700</ele>
        <time>2020-05-31T05:23:37Z</time>
      </trkpt>
      <trkpt lat="44.0732" lon="1.61145">
        <ele>10700</ele>
        <time>2020-05-31T05:23:38Z</time>
      </trkpt>
      <trkpt lat="44.07319" lon="1.61149">
        <ele>10700</ele>
        <time>2020-05-31T05:23:39Z</time>
      </trkpt>
      <trkpt lat="44.07317" lon="1.61153">
        <ele>10700</ele>
        <time>2020-05-31T05:23:40Z</time>
      </trkpt>
      <trkpt lat="44.07314" lon="1.61158">
        <ele>10700</ele>
        <time>2020-05-31T05:23:41Z</time>
      </trkpt>
      <trkpt lat="44.07312" lon="1.61163">
        <ele>10700</ele>
        <time>2020-05-31T05:23:42Z</time>
      </trkpt>
      <trkpt lat="44.07311" lon="1.61168">
        <ele>10700</ele>
        <time>2020-05-31T05:23:43Z</time>
      </trkpt>
      <trkpt lat="44.07308" lon="1.61173">
        <ele>10700</ele>
        <time>2020-05-31T05:23:44Z</time>
      </trkpt>
      <trkpt lat="44.07306" lon="1.61178">
        <ele>10800</ele>
        <time>2020-05-31T05:23:45Z</time>
      </trkpt>
      <trkpt lat="44.07305" lon="1.61183">
        <ele>10800</ele>
        <time>2020-05-31T05:23:46Z</time>
      </trkpt>
      <trkpt lat="44.07303" lon="1.61187">
        <ele>10800</ele>
        <time>2020-05-31T05:23:47Z</time>
      </trkpt>
      <trkpt lat="44.07301" lon="1.61192">
        <ele>10800</ele>
        <time>2020-05-31T05:23:48Z</time>
      </trkpt>
      <trkpt lat="44.07299" lon="1.61196">
        <ele>10800</ele>
        <time>2020-05-31T05:23:49Z</time>
      </trkpt>
      <trkpt lat="44.07298" lon="1.61201">
        <ele>10800</ele>
        <time>2020-05-31T05:23:50Z</time>
      </trkpt>
      <trkpt lat="44.07296" lon="1.61206">
        <ele>10800</ele>
        <time>2020-05-31T05:23:51Z</time>
      </trkpt>
      <trkpt lat="44.07295" lon="1.6121">
        <ele>10800</ele>
        <time>2020-05-31T05:23:52Z</time>
      </trkpt>
      <trkpt lat="44.07293" lon="1.61214">
        <ele>10800</ele>
        <time>2020-05-31T05:23:53Z</time>
      </trkpt>
      <trkpt lat="44.07292" lon="1.61219">
        <ele>10800</ele>
        <time>2020-05-31T05:23:54Z</time>
      </trkpt>
      <trkpt lat="44.0729" lon="1.61223">
        <ele>10800</ele>
        <time>2020-05-31T05:23:55Z</time>
      </trkpt>
      <trkpt lat="44.07288" lon="1.61228">
        <ele>10800</ele>
        <time>2020-05-31T05:23:56Z</time>
      </trkpt>
      <trkpt lat="44.07287" lon="1.61232">
        <ele>10800</ele>
        <time>2020-05-31T05:23:57Z</time>
      </trkpt>
      <trkpt lat="44.07285" lon="1.61236">
        <ele>10800</ele>
        <time>2020-05-31T05:23:58Z</time>
      </trkpt>
      <trkpt lat="44.07283" lon="1.6124">
        <ele>10800</ele>
        <time>2020-05-31T05:23:59Z</time>
      </trkpt>
      <trkpt lat="44.07281" lon="1.61244">
        <ele>10800</ele>
        <time>2020-05-31T05:24:00Z</time>
      </trkpt>
      <trkpt lat="44.0728" lon="1.61249">
        <ele>10900</ele>
        <time>2020-05-31T05:24:01Z</time>
      </trkpt>
      <trkpt lat="44.07278" lon="1.61254">
        <ele>10900</ele>
        <time>2020-05-31T05:24:02Z</time>
      </trkpt>
      <trkpt lat="44.07275" lon="1.61259">
        <ele>10900</ele>
        <time>2020-05-31T05:24:03Z</time>
      </trkpt>
      <trkpt lat="44.07274" lon="1.61264">
        <ele>10900</ele>
        <time>2020-05-31T05:24:04Z</time>
      </trkpt>
      <trkpt lat="44.07272" lon="1.61268">
        <ele>10900</ele>
        <time>2020-05-31T05:24:05Z</time>
      </trkpt>
      <trkpt lat="44.07271" lon="1.61273">
        <ele>10900</ele>
        <time>2020-05-31T05:24:06Z</time>
      </trkpt>
      <trkpt lat="44.07269" lon="1.61278">
        <ele>10900</ele>
        <time>2020-05-31T05:24:07Z</time>
      </trkpt>
      <trkpt lat="44.07268" lon="1.61283">
        <ele>10900</ele>
        <time>2020-05-31T05:24:08Z</time>
      </trkpt>
      <trkpt lat="44.07266" lon="1.61287">
        <ele>10900</ele>
        <time>2020-05-31T05:24:09Z</time>
      </trkpt>
      <trkpt lat="44.07264" lon="1.61292">
        <ele>10900</ele>
        <time>2020-05-31T05:24:10Z</time>
      </trkpt>
      <trkpt lat="44.07262" lon="1.61296">
        <ele>10900</ele>
        <time>2020-05-31T05:24:11Z</time>
      </trkpt>
      <trkpt lat="44.0726" lon="1.61301">
        <ele>11000</ele>
        <time>2020-05-31T05:24:12Z</time>
      </trkpt>
      <trkpt lat="44.07258" lon="1.61305">
        <ele>11000</ele>
        <time>2020-05-31T05:24:13Z</time>
      </trkpt>
      <trkpt lat="44.07256" lon="1.6131">
        <ele>11000</ele>
        <time>2020-05-31T05:24:14Z</time>
      </trkpt>
      <trkpt lat="44.07254" lon="1.61315">
        <ele>11000</ele>
        <time>2020-05-31T05:24:15Z</time>
      </trkpt>
      <trkpt lat="44.07251" lon="1.61319">
        <ele>11000</ele>
        <time>2020-05-31T05:24:16Z</time>
      </trkpt>
      <trkpt lat="44.07248" lon="1.61323">
        <ele>11000</ele>
        <time>2020-05-31T05:24:17Z</time>
      </trkpt>
      <trkpt lat="44.07246" lon="1.61327">
        <ele>11000</ele>
        <time>2020-05-31T05:24:18Z</time>
      </trkpt>
      <trkpt lat="44.07244" lon="1.61331">
        <ele>11100</ele>
        <time>2020-05-31T05:24:19Z</time>
      </trkpt>
      <trkpt lat="44.07241" lon="1.61334">
        <ele>11100</ele>
        <time>2020-05-31T05:24:20Z</time>
      </trkpt>
      <trkpt lat="44.07239" lon="1.61338">
        <ele>11100</ele>
        <time>2020-05-31T05:24:21Z</time>
      </trkpt>
      <trkpt lat="44.07238" lon="1.61342">
        <ele>11100</ele>
        <time>2020-05-31T05:24:22Z</time>
      </trkpt>
      <trkpt lat="44.07236" lon="1.61345">
        <ele>11100</ele>
        <time>2020-05-31T05:24:23Z</time>
      </trkpt>
      <trkpt lat="44.07235" lon="1.61348">
        <ele>11100</ele>
        <time>2020-05-31T05:24:24Z</time>
      </trkpt>
      <trkpt lat="44.07233" lon="1.61352">
        <ele>11100</ele>
        <time>2020-05-31T05:24:25Z</time>
      </trkpt>
      <trkpt lat="44.07232" lon="1.61356">
        <ele>11100</ele>
        <time>2020-05-31T05:24:26Z</time>
      </trkpt>
      <trkpt lat="44.0723" lon="1.6136">
        <ele>11100</ele>
        <time>2020-05-31T05:24:27Z</time>
      </trkpt>
      <trkpt lat="44.07229" lon="1.61364">
        <ele>11100</ele>
        <time>2020-05-31T05:24:28Z</time>
      </trkpt>
      <trkpt lat="44.07227" lon="1.61369">
        <ele>11100</ele>
        <time>2020-05-31T05:24:29Z</time>
      </trkpt>
      <trkpt lat="44.07226" lon="1.61374">
        <ele>11100</ele>
        <time>2020-05-31T05:24:30Z</time>
      </trkpt>
      <trkpt lat="44.07224" lon="1.61378">
        <ele>11200</ele>
        <time>2020-05-31T05:24:31Z</time>
      </trkpt>
      <trkpt lat="44.07222" lon="1.61383">
        <ele>11200</ele>
        <time>2020-05-31T05:24:32Z</time>
      </trkpt>
      <trkpt lat="44.07221" lon="1.61387">
        <ele>11200</ele>
        <time>2020-05-31T05:24:33Z</time>
      </trkpt>
      <trkpt lat="44.07219" lon="1.61392">
        <ele>11200</ele>
        <time>2020-05-31T05:24:34Z</time>
      </trkpt>
      <trkpt lat="44.07217" lon="1.61397">
        <ele>11200</ele>
        <time>2020-05-31T05:24:35Z</time>
      </trkpt>
      <trkpt lat="44.07215" lon="1.61402">
        <ele>11200</ele>
        <time>2020-05-31T05:24:36Z</time>
      </trkpt>
      <trkpt lat="44.07212" lon="1.61406">
        <ele>11200</ele>
        <time>2020-05-31T05:24:37Z</time>
      </trkpt>
      <trkpt lat="44.07211" lon="1.61411">
        <ele>11300</ele>
        <time>2020-05-31T05:24:38Z</time>
      </trkpt>
      <trkpt lat="44.07209" lon="1.61415">
        <ele>11300</ele>
        <time>2020-05-31T05:24:39Z</time>
      </trkpt>
      <trkpt lat="44.07206" lon="1.6142">
        <ele>11300</ele>
        <time>2020-05-31T05:24:40Z</time>
      </trkpt>
      <trkpt lat="44.07204" lon="1.61424">
        <ele>11300</ele>
        <time>2020-05-31T05:24:41Z</time>
      </trkpt>
      <trkpt lat="44.07203" lon="1.61428">
        <ele>11300</ele>
        <time>2020-05-31T05:24:42Z</time>
      </trkpt>
      <trkpt lat="44.07201" lon="1.61432">
        <ele>11300</ele>
        <time>2020-05-31T05:24:43Z</time>
      </trkpt>
      <trkpt lat="44.07199" lon="1.61436">
        <ele>11400</ele>
        <time>2020-05-31T05:24:44Z</time>
      </trkpt>
      <trkpt lat="44.07198" lon="1.6144">
        <ele>11400</ele>
        <time>2020-05-31T05:24:45Z</time>
      </trkpt>
      <trkpt lat="44.07197" lon="1.61444">
        <ele>11400</ele>
        <time>2020-05-31T05:24:46Z</time>
      </trkpt>
      <trkpt lat="44.07196" lon="1.61448">
        <ele>11400</ele>
        <time>2020-05-31T05:24:47Z</time>
      </trkpt>
      <trkpt lat="44.07195" lon="1.61452">
        <ele>11400</ele>
        <time>2020-05-31T05:24:48Z</time>
      </trkpt>
      <trkpt lat="44.07195" lon="1.61456">
        <ele>11400</ele>
        <time>2020-05-31T05:24:49Z</time>
      </trkpt>
      <trkpt lat="44.07196" lon="1.61459">
        <ele>11400</ele>
        <time>2020-05-31T05:24:50Z</time>
      </trkpt>
      <trkpt lat="44.07197" lon="1.61461">
        <ele>11400</ele>
        <time>2020-05-31T05:24:51Z</time>
      </trkpt>
      <trkpt lat="44.07198" lon="1.61463">
        <ele>11400</ele>
        <time>2020-05-31T05:24:52Z</time>
      </trkpt>
      <trkpt lat="44.07201" lon="1.61464">
        <ele>11400</ele>
        <time>2020-05-31T05:24:53Z</time>
      </trkpt>
      <trkpt lat="44.07203" lon="1.61465">
        <ele>11400</ele>
        <time>2020-05-31T05:24:54Z</time>
      </trkpt>
      <trkpt lat="44.07207" lon="1.61466">
        <ele>11400</ele>
        <time>2020-05-31T05:24:55Z</time>
      </trkpt>
      <trkpt lat="44.07211" lon="1.61466">
        <ele>11400</ele>
        <time>2020-05-31T05:24:56Z</time>
      </trkpt>
      <trkpt lat="44.07216" lon="1.61467">
        <ele>11300</ele>
        <time>2020-05-31T05:24:57Z</time>
      </trkpt>
      <trkpt lat="44.07221" lon="1.61468">
        <ele>11300</ele>
        <time>2020-05-31T05:24:58Z</time>
      </trkpt>
      <trkpt lat="44.07226" lon="1.6147">
        <ele>11200</ele>
        <time>2020-05-31T05:24:59Z</time>
      </trkpt>
      <trkpt lat="44.07232" lon="1.61473">
        <ele>11200</ele>
        <time>2020-05-31T05:25:00Z</time>
      </trkpt>
      <trkpt lat="44.07238" lon="1.61476">
        <ele>11200</ele>
        <time>2020-05-31T05:25:01Z</time>
      </trkpt>
      <trkpt lat="44.07243" lon="1.61479">
        <ele>11100</ele>
        <time>2020-05-31T05:25:02Z</time>
      </trkpt>
      <trkpt lat="44.07248" lon="1.61483">
        <ele>11100</ele>
        <time>2020-05-31T05:25:03Z</time>
      </trkpt>
      <trkpt lat="44.07253" lon="1.61487">
        <ele>11100</ele>
        <time>2020-05-31T05:25:04Z</time>
      </trkpt>
      <trkpt lat="44.07256" lon="1.61493">
        <ele>11000</ele>
        <time>2020-05-31T05:25:05Z</time>
      </trkpt>
      <trkpt lat="44.07258" lon="1.615">
        <ele>11000</ele>
        <time>2020-05-31T05:25:06Z</time>
      </trkpt>
      <trkpt lat="44.07258" lon="1.61507">
        <ele>10900</ele>
        <time>2020-05-31T05:25:07Z</time>
      </trkpt>
      <trkpt lat="44.07258" lon="1.61515">
        <ele>10900</ele>
        <time>2020-05-31T05:25:08Z</time>
      </trkpt>
      <trkpt lat="44.07257" lon="1.61523">
        <ele>10900</ele>
        <time>2020-05-31T05:25:09Z</time>
      </trkpt>
      <trkpt lat="44.07256" lon="1.61531">
        <ele>10800</ele>
        <time>2020-05-31T05:25:10Z</time>
      </trkpt>
      <trkpt lat="44.07255" lon="1.6154">
        <ele>10800</ele>
        <time>2020-05-31T05:25:11Z</time>
      </trkpt>
      <trkpt lat="44.07254" lon="1.61549">
        <ele>10800</ele>
        <time>2020-05-31T05:25:12Z</time>
      </trkpt>
      <trkpt lat="44.07253" lon="1.61558">
        <ele>10700</ele>
        <time>2020-05-31T05:25:13Z</time>
      </trkpt>
      <trkpt lat="44.07251" lon="1.61568">
        <ele>10700</ele>
        <time>2020-05-31T05:25:14Z</time>
      </trkpt>
      <trkpt lat="44.07248" lon="1.61577">
        <ele>10600</ele>
        <time>2020-05-31T05:25:15Z</time>
      </trkpt>
      <trkpt lat="44.07246" lon="1.61587">
        <ele>10600</ele>
        <time>2020-05-31T05:25:16Z</time>
      </trkpt>
      <trkpt lat="44.07244" lon="1.61598">
        <ele>10600</ele>
        <time>2020-05-31T05:25:17Z</time>
      </trkpt>
      <trkpt lat="44.07243" lon="1.61608">
        <ele>10500</ele>
        <time>2020-05-31T05:25:18Z</time>
      </trkpt>
      <trkpt lat="44.07243" lon="1.61618">
        <ele>10500</ele>
        <time>2020-05-31T05:25:19Z</time>
      </trkpt>
      <trkpt lat="44.07245" lon="1.61628">
        <ele>10500</ele>
        <time>2020-05-31T05:25:20Z</time>
      </trkpt>
      <trkpt lat="44.07248" lon="1.61637">
        <ele>10400</ele>
        <time>2020-05-31T05:25:21Z</time>
      </trkpt>
      <trkpt lat="44.07251" lon="1.61644">
        <ele>10400</ele>
        <time>2020-05-31T05:25:22Z</time>
      </trkpt>
      <trkpt lat="44.07255" lon="1.61651">
        <ele>10400</ele>
        <time>2020-05-31T05:25:23Z</time>
      </trkpt>
      <trkpt lat="44.0726" lon="1.61657">
        <ele>10300</ele>
        <time>2020-05-31T05:25:24Z</time>
      </trkpt>
      <trkpt lat="44.07266" lon="1.61662">
        <ele>10300</ele>
        <time>2020-05-31T05:25:25Z</time>
      </trkpt>
      <trkpt lat="44.07272" lon="1.61667">
        <ele>10300</ele>
        <time>2020-05-31T05:25:26Z</time>
      </trkpt>
      <trkpt lat="44.0728" lon="1.61671">
        <ele>10200</ele>
        <time>2020-05-31T05:25:27Z</time>
      </trkpt>
      <trkpt lat="44.07287" lon="1.61674">
        <ele>10200</ele>
        <time>2020-05-31T05:25:28Z</time>
      </trkpt>
      <trkpt lat="44.07294" lon="1.61678">
        <ele>10200</ele>
        <time>2020-05-31T05:25:29Z</time>
      </trkpt>
      <trkpt lat="44.07302" lon="1.61681">
        <ele>10200</ele>
        <time>2020-05-31T05:25:30Z</time>
      </trkpt>
      <trkpt lat="44.07309" lon="1.61685">
        <ele>10200</ele>
        <time>2020-05-31T05:25:31Z</time>
      </trkpt>
      <trkpt lat="44.07315" lon="1.61688">
        <ele>10200</ele>
        <time>2020-05-31T05:25:32Z</time>
      </trkpt>
      <trkpt lat="44.07323" lon="1.6169">
        <ele>10200</ele>
        <time>2020-05-31T05:25:33Z</time>
      </trkpt>
      <trkpt lat="44.07329" lon="1.61693">
        <ele>10200</ele>
        <time>2020-05-31T05:25:34Z</time>
      </trkpt>
      <trkpt lat="44.07335" lon="1.61696">
        <ele>10200</ele>
        <time>2020-05-31T05:25:35Z</time>
      </trkpt>
      <trkpt lat="44.07342" lon="1.61698">
        <ele>10200</ele>
        <time>2020-05-31T05:25:36Z</time>
      </trkpt>
      <trkpt lat="44.07348" lon="1.61701">
        <ele>10200</ele>
        <time>2020-05-31T05:25:37Z</time>
      </trkpt>
      <trkpt lat="44.07354" lon="1.61704">
        <ele>10200</ele>
        <time>2020-05-31T05:25:37Z</time>
      </trkpt>
      <trkpt lat="44.0736" lon="1.61706">
        <ele>10200</ele>
        <time>2020-05-31T05:25:38Z</time>
      </trkpt>
      <trkpt lat="44.07366" lon="1.61708">
        <ele>10200</ele>
        <time>2020-05-31T05:25:39Z</time>
      </trkpt>
      <trkpt lat="44.07371" lon="1.61711">
        <ele>10200</ele>
        <time>2020-05-31T05:25:40Z</time>
      </trkpt>
      <trkpt lat="44.07377" lon="1.61713">
        <ele>10200</ele>
        <time>2020-05-31T05:25:41Z</time>
      </trkpt>
      <trkpt lat="44.07382" lon="1.61716">
        <ele>10200</ele>
        <time>2020-05-31T05:25:42Z</time>
      </trkpt>
      <trkpt lat="44.07387" lon="1.61718">
        <ele>10200</ele>
        <time>2020-05-31T05:25:43Z</time>
      </trkpt>
      <trkpt lat="44.07392" lon="1.6172">
        <ele>10200</ele>
        <time>2020-05-31T05:25:44Z</time>
      </trkpt>
      <trkpt lat="44.07398" lon="1.61722">
        <ele>10200</ele>
        <time>2020-05-31T05:25:45Z</time>
      </trkpt>
      <trkpt lat="44.07402" lon="1.61724">
        <ele>10200</ele>
        <time>2020-05-31T05:25:46Z</time>
      </trkpt>
      <trkpt lat="44.07407" lon="1.61726">
        <ele>10200</ele>
        <time>2020-05-31T05:25:47Z</time>
      </trkpt>
      <trkpt lat="44.07412" lon="1.61728">
        <ele>10200</ele>
        <time>2020-05-31T05:25:48Z</time>
      </trkpt>
      <trkpt lat="44.07417" lon="1.61729">
        <ele>10300</ele>
        <time>2020-05-31T05:25:49Z</time>
      </trkpt>
      <trkpt lat="44.07422" lon="1.61731">
        <ele>10300</ele>
        <time>2020-05-31T05:25:50Z</time>
      </trkpt>
      <trkpt lat="44.07426" lon="1.61732">
        <ele>10300</ele>
        <time>2020-05-31T05:25:51Z</time>
      </trkpt>
      <trkpt lat="44.07431" lon="1.61734">
        <ele>10300</ele>
        <time>2020-05-31T05:25:52Z</time>
      </trkpt>
      <trkpt lat="44.07435" lon="1.61736">
        <ele>10300</ele>
        <time>2020-05-31T05:25:53Z</time>
      </trkpt>
      <trkpt lat="44.07439" lon="1.61737">
        <ele>10300</ele>
        <time>2020-05-31T05:25:54Z</time>
      </trkpt>
      <trkpt lat="44.07444" lon="1.61739">
        <ele>10300</ele>
        <time>2020-05-31T05:25:55Z</time>
      </trkpt>
      <trkpt lat="44.07448" lon="1.6174">
        <ele>10300</ele>
        <time>2020-05-31T05:25:56Z</time>
      </trkpt>
      <trkpt lat="44.07452" lon="1.61742">
        <ele>10300</ele>
        <time>2020-05-31T05:25:57Z</time>
      </trkpt>
      <trkpt lat="44.07456" lon="1.61744">
        <ele>10400</ele>
        <time>2020-05-31T05:25:58Z</time>
      </trkpt>
      <trkpt lat="44.0746" lon="1.61746">
        <ele>10400</ele>
        <time>2020-05-31T05:25:59Z</time>
      </trkpt>
      <trkpt lat="44.07464" lon="1.61749">
        <ele>10400</ele>
        <time>2020-05-31T05:26:00Z</time>
      </trkpt>
      <trkpt lat="44.07467" lon="1.61752">
        <ele>10400</ele>
        <time>2020-05-31T05:26:01Z</time>
      </trkpt>
      <trkpt lat="44.0747" lon="1.61755">
        <ele>10400</ele>
        <time>2020-05-31T05:26:02Z</time>
      </trkpt>
      <trkpt lat="44.07473" lon="1.61758">
        <ele>10500</ele>
        <time>2020-05-31T05:26:03Z</time>
      </trkpt>
      <trkpt lat="44.07474" lon="1.61762">
        <ele>10500</ele>
        <time>2020-05-31T05:26:04Z</time>
      </trkpt>
      <trkpt lat="44.07476" lon="1.61767">
        <ele>10500</ele>
        <time>2020-05-31T05:26:05Z</time>
      </trkpt>
      <trkpt lat="44.07477" lon="1.61771">
        <ele>10600</ele>
        <time>2020-05-31T05:26:06Z</time>
      </trkpt>
      <trkpt lat="44.07477" lon="1.61776">
        <ele>10600</ele>
        <time>2020-05-31T05:26:07Z</time>
      </trkpt>
      <trkpt lat="44.07477" lon="1.6178">
        <ele>10600</ele>
        <time>2020-05-31T05:26:08Z</time>
      </trkpt>
      <trkpt lat="44.07477" lon="1.61785">
        <ele>10600</ele>
        <time>2020-05-31T05:26:09Z</time>
      </trkpt>
      <trkpt lat="44.07477" lon="1.61789">
        <ele>10600</ele>
        <time>2020-05-31T05:26:10Z</time>
      </trkpt>
      <trkpt lat="44.07476" lon="1.61793">
        <ele>10600</ele>
        <time>2020-05-31T05:26:11Z</time>
      </trkpt>
      <trkpt lat="44.07476" lon="1.61796">
        <ele>10700</ele>
        <time>2020-05-31T05:26:12Z</time>
      </trkpt>
      <trkpt lat="44.07476" lon="1.61798">
        <ele>10700</ele>
        <time>2020-05-31T05:26:13Z</time>
      </trkpt>
      <trkpt lat="44.07476" lon="1.618">
        <ele>10700</ele>
        <time>2020-05-31T05:26:14Z</time>
      </trkpt>
      <trkpt lat="44.07475" lon="1.61802">
        <ele>10700</ele>
        <time>2020-05-31T05:26:15Z</time>
      </trkpt>
      <trkpt lat="44.07475" lon="1.61803">
        <ele>10800</ele>
        <time>2020-05-31T05:26:16Z</time>
      </trkpt>
      <trkpt lat="44.07475" lon="1.61805">
        <ele>10800</ele>
        <time>2020-05-31T05:26:17Z</time>
      </trkpt>
      <trkpt lat="44.07475" lon="1.61806">
        <ele>10800</ele>
        <time>2020-05-31T05:26:18Z</time>
      </trkpt>
      <trkpt lat="44.07476" lon="1.61807">
        <ele>10800</ele>
        <time>2020-05-31T05:26:19Z</time>
      </trkpt>
      <trkpt lat="44.07476" lon="1.61807">
        <ele>10800</ele>
        <time>2020-05-31T05:26:20Z</time>
      </trkpt>
      <trkpt lat="44.07476" lon="1.61808">
        <ele>10800</ele>
        <time>2020-05-31T05:26:21Z</time>
      </trkpt>
      <trkpt lat="44.07476" lon="1.61808">
        <ele>10800</ele>
        <time>2020-05-31T05:26:22Z</time>
      </trkpt>
      <trkpt lat="44.07476" lon="1.61808">
        <ele>10900</ele>
        <time>2020-05-31T05:26:23Z</time>
      </trkpt>
      <trkpt lat="44.07477" lon="1.61809">
        <ele>10900</ele>
        <time>2020-05-31T05:26:24Z</time>
      </trkpt>
      <trkpt lat="44.07477" lon="1.61809">
        <ele>10900</ele>
        <time>2020-05-31T05:26:25Z</time>
      </trkpt>
      <trkpt lat="44.07477" lon="1.6181">
        <ele>10900</ele>
        <time>2020-05-31T05:26:26Z</time>
      </trkpt>
      <trkpt lat="44.07478" lon="1.6181">
        <ele>10900</ele>
        <time>2020-05-31T05:26:28Z</time>
      </trkpt>
      <trkpt lat="44.07478" lon="1.61809">
        <ele>10900</ele>
        <time>2020-05-31T05:26:29Z</time>
      </trkpt>
      <trkpt lat="44.07478" lon="1.6181">
        <ele>10900</ele>
        <time>2020-05-31T05:26:30Z</time>
      </trkpt>
      <trkpt lat="44.07477" lon="1.6181">
        <ele>10900</ele>
        <time>2020-05-31T05:26:31Z</time>
      </trkpt>
      <trkpt lat="44.07477" lon="1.61811">
        <ele>10900</ele>
        <time>2020-05-31T05:26:32Z</time>
      </trkpt>
      <trkpt lat="44.07477" lon="1.61811">
        <ele>10900</ele>
        <time>2020-05-31T05:26:33Z</time>
      </trkpt>
      <trkpt lat="44.07476" lon="1.61812">
        <ele>10900</ele>
        <time>2020-05-31T05:26:34Z</time>
      </trkpt>
      <trkpt lat="44.07476" lon="1.61813">
        <ele>10900</ele>
        <time>2020-05-31T05:26:35Z</time>
      </trkpt>
      <trkpt lat="44.07476" lon="1.61814">
        <ele>10900</ele>
        <time>2020-05-31T05:26:36Z</time>
      </trkpt>
      <trkpt lat="44.07475" lon="1.61815">
        <ele>11000</ele>
        <time>2020-05-31T05:26:37Z</time>
      </trkpt>
      <trkpt lat="44.07475" lon="1.61816">
        <ele>11000</ele>
        <time>2020-05-31T05:26:38Z</time>
      </trkpt>
      <trkpt lat="44.07474" lon="1.61817">
        <ele>11000</ele>
        <time>2020-05-31T05:26:39Z</time>
      </trkpt>
      <trkpt lat="44.07474" lon="1.61818">
        <ele>11000</ele>
        <time>2020-05-31T05:26:40Z</time>
      </trkpt>
      <trkpt lat="44.07474" lon="1.61819">
        <ele>11000</ele>
        <time>2020-05-31T05:26:41Z</time>
      </trkpt>
      <trkpt lat="44.07474" lon="1.6182">
        <ele>11000</ele>
        <time>2020-05-31T05:26:42Z</time>
      </trkpt>
      <trkpt lat="44.07474" lon="1.61821">
        <ele>11000</ele>
        <time>2020-05-31T05:26:43Z</time>
      </trkpt>
      <trkpt lat="44.07473" lon="1.61823">
        <ele>11000</ele>
        <time>2020-05-31T05:26:44Z</time>
      </trkpt>
      <trkpt lat="44.07473" lon="1.61824">
        <ele>11100</ele>
        <time>2020-05-31T05:26:45Z</time>
      </trkpt>
      <trkpt lat="44.07473" lon="1.61826">
        <ele>11100</ele>
        <time>2020-05-31T05:26:46Z</time>
      </trkpt>
      <trkpt lat="44.07473" lon="1.61827">
        <ele>11100</ele>
        <time>2020-05-31T05:26:47Z</time>
      </trkpt>
      <trkpt lat="44.07473" lon="1.61829">
        <ele>11100</ele>
        <time>2020-05-31T05:26:48Z</time>
      </trkpt>
      <trkpt lat="44.07473" lon="1.6183">
        <ele>11100</ele>
        <time>2020-05-31T05:26:49Z</time>
      </trkpt>
      <trkpt lat="44.07473" lon="1.61831">
        <ele>11100</ele>
        <time>2020-05-31T05:26:50Z</time>
      </trkpt>
      <trkpt lat="44.07473" lon="1.61831">
        <ele>11100</ele>
        <time>2020-05-31T05:26:51Z</time>
      </trkpt>
      <trkpt lat="44.07472" lon="1.61832">
        <ele>11100</ele>
        <time>2020-05-31T05:26:52Z</time>
      </trkpt>
      <trkpt lat="44.07472" lon="1.61833">
        <ele>11100</ele>
        <time>2020-05-31T05:26:53Z</time>
      </trkpt>
      <trkpt lat="44.07471" lon="1.61834">
        <ele>11100</ele>
        <time>2020-05-31T05:26:54Z</time>
      </trkpt>
      <trkpt lat="44.07471" lon="1.61835">
        <ele>11100</ele>
        <time>2020-05-31T05:26:55Z</time>
      </trkpt>
      <trkpt lat="44.0747" lon="1.61836">
        <ele>11100</ele>
        <time>2020-05-31T05:26:56Z</time>
      </trkpt>
      <trkpt lat="44.0747" lon="1.61836">
        <ele>11100</ele>
        <time>2020-05-31T05:26:57Z</time>
      </trkpt>
      <trkpt lat="44.07469" lon="1.61837">
        <ele>11100</ele>
        <time>2020-05-31T05:26:58Z</time>
      </trkpt>
      <trkpt lat="44.07469" lon="1.61838">
        <ele>11100</ele>
        <time>2020-05-31T05:26:59Z</time>
      </trkpt>
      <trkpt lat="44.07468" lon="1.61839">
        <ele>11100</ele>
        <time>2020-05-31T05:27:00Z</time>
      </trkpt>
      <trkpt lat="44.07468" lon="1.6184">
        <ele>11200</ele>
        <time>2020-05-31T05:27:01Z</time>
      </trkpt>
      <trkpt lat="44.07468" lon="1.61841">
        <ele>11200</ele>
        <time>2020-05-31T05:27:02Z</time>
      </trkpt>
      <trkpt lat="44.07468" lon="1.61841">
        <ele>11200</ele>
        <time>2020-05-31T05:27:03Z</time>
      </trkpt>
      <trkpt lat="44.07468" lon="1.61842">
        <ele>11200</ele>
        <time>2020-05-31T05:27:04Z</time>
      </trkpt>
      <trkpt lat="44.07467" lon="1.61843">
        <ele>11200</ele>
        <time>2020-05-31T05:27:05Z</time>
      </trkpt>
      <trkpt lat="44.07467" lon="1.61843">
        <ele>11200</ele>
        <time>2020-05-31T05:27:06Z</time>
      </trkpt>
      <trkpt lat="44.07467" lon="1.61844">
        <ele>11200</ele>
        <time>2020-05-31T05:27:07Z</time>
      </trkpt>
      <trkpt lat="44.07467" lon="1.61845">
        <ele>11200</ele>
        <time>2020-05-31T05:27:09Z</time>
      </trkpt>
      <trkpt lat="44.07467" lon="1.61845">
        <ele>11200</ele>
        <time>2020-05-31T05:27:10Z</time>
      </trkpt>
      <trkpt lat="44.07467" lon="1.61845">
        <ele>11200</ele>
        <time>2020-05-31T05:27:11Z</time>
      </trkpt>
      <trkpt lat="44.07466" lon="1.61846">
        <ele>11200</ele>
        <time>2020-05-31T05:27:12Z</time>
      </trkpt>
      <trkpt lat="44.07466" lon="1.61846">
        <ele>11200</ele>
        <time>2020-05-31T05:27:13Z</time>
      </trkpt>
      <trkpt lat="44.07465" lon="1.61847">
        <ele>11300</ele>
        <time>2020-05-31T05:27:14Z</time>
      </trkpt>
      <trkpt lat="44.07465" lon="1.61847">
        <ele>11300</ele>
        <time>2020-05-31T05:27:15Z</time>
      </trkpt>
      <trkpt lat="44.07465" lon="1.61848">
        <ele>11300</ele>
        <time>2020-05-31T05:27:16Z</time>
      </trkpt>
      <trkpt lat="44.07464" lon="1.61848">
        <ele>11300</ele>
        <time>2020-05-31T05:27:17Z</time>
      </trkpt>
      <trkpt lat="44.07464" lon="1.61849">
        <ele>11300</ele>
        <time>2020-05-31T05:27:18Z</time>
      </trkpt>
      <trkpt lat="44.07463" lon="1.61849">
        <ele>11300</ele>
        <time>2020-05-31T05:27:19Z</time>
      </trkpt>
      <trkpt lat="44.07463" lon="1.6185">
        <ele>11300</ele>
        <time>2020-05-31T05:27:20Z</time>
      </trkpt>
      <trkpt lat="44.07462" lon="1.61851">
        <ele>11300</ele>
        <time>2020-05-31T05:27:21Z</time>
      </trkpt>
      <trkpt lat="44.07462" lon="1.61852">
        <ele>11300</ele>
        <time>2020-05-31T05:27:22Z</time>
      </trkpt>
      <trkpt lat="44.07462" lon="1.61853">
        <ele>11300</ele>
        <time>2020-05-31T05:27:23Z</time>
      </trkpt>
      <trkpt lat="44.07462" lon="1.61854">
        <ele>11300</ele>
        <time>2020-05-31T05:27:24Z</time>
      </trkpt>
      <trkpt lat="44.07462" lon="1.61856">
        <ele>11300</ele>
        <time>2020-05-31T05:27:26Z</time>
      </trkpt>
      <trkpt lat="44.07462" lon="1.61856">
        <ele>11300</ele>
        <time>2020-05-31T05:27:27Z</time>
      </trkpt>
      <trkpt lat="44.07462" lon="1.61856">
        <ele>11300</ele>
        <time>2020-05-31T05:27:28Z</time>
      </trkpt>
      <trkpt lat="44.07462" lon="1.61856">
        <ele>11300</ele>
        <time>2020-05-31T05:27:29Z</time>
      </trkpt>
      <trkpt lat="44.07461" lon="1.61856">
        <ele>11300</ele>
        <time>2020-05-31T05:27:30Z</time>
      </trkpt>
      <trkpt lat="44.07461" lon="1.61857">
        <ele>11300</ele>
        <time>2020-05-31T05:27:31Z</time>
      </trkpt>
      <trkpt lat="44.0746" lon="1.61858">
        <ele>11300</ele>
        <time>2020-05-31T05:27:33Z</time>
      </trkpt>
      <trkpt lat="44.07461" lon="1.61858">
        <ele>11300</ele>
        <time>2020-05-31T05:27:36Z</time>
      </trkpt>
      <trkpt lat="44.07461" lon="1.61858">
        <ele>11300</ele>
        <time>2020-05-31T05:27:37Z</time>
      </trkpt>
      <trkpt lat="44.0746" lon="1.61858">
        <ele>11300</ele>
        <time>2020-05-31T05:27:57Z</time>
      </trkpt>
      <trkpt lat="44.0746" lon="1.61858">
        <ele>11300</ele>
        <time>2020-05-31T05:27:58Z</time>
      </trkpt>
      <trkpt lat="44.07459" lon="1.61858">
        <ele>11300</ele>
        <time>2020-05-31T05:27:59Z</time>
      </trkpt>
      <trkpt lat="44.07457" lon="1.61859">
        <ele>11300</ele>
        <time>2020-05-31T05:28:00Z</time>
      </trkpt>
      <trkpt lat="44.07456" lon="1.61861">
        <ele>11300</ele>
        <time>2020-05-31T05:28:01Z</time>
      </trkpt>
      <trkpt lat="44.07454" lon="1.61863">
        <ele>11300</ele>
        <time>2020-05-31T05:28:02Z</time>
      </trkpt>
      <trkpt lat="44.07452" lon="1.61866">
        <ele>11300</ele>
        <time>2020-05-31T05:28:03Z</time>
      </trkpt>
      <trkpt lat="44.0745" lon="1.61869">
        <ele>11300</ele>
        <time>2020-05-31T05:28:04Z</time>
      </trkpt>
      <trkpt lat="44.07448" lon="1.61872">
        <ele>11300</ele>
        <time>2020-05-31T05:28:05Z</time>
      </trkpt>
      <trkpt lat="44.07447" lon="1.61876">
        <ele>11300</ele>
        <time>2020-05-31T05:28:06Z</time>
      </trkpt>
      <trkpt lat="44.07445" lon="1.6188">
        <ele>11300</ele>
        <time>2020-05-31T05:28:07Z</time>
      </trkpt>
      <trkpt lat="44.07444" lon="1.61884">
        <ele>11300</ele>
        <time>2020-05-31T05:28:08Z</time>
      </trkpt>
      <trkpt lat="44.07443" lon="1.61889">
        <ele>11300</ele>
        <time>2020-05-31T05:28:09Z</time>
      </trkpt>
      <trkpt lat="44.07442" lon="1.61894">
        <ele>11500</ele>
        <time>2020-05-31T05:28:10Z</time>
      </trkpt>
      <trkpt lat="44.07442" lon="1.61899">
        <ele>11500</ele>
        <time>2020-05-31T05:28:11Z</time>
      </trkpt>
      <trkpt lat="44.07441" lon="1.61904">
        <ele>11500</ele>
        <time>2020-05-31T05:28:12Z</time>
      </trkpt>
      <trkpt lat="44.07442" lon="1.61908">
        <ele>11500</ele>
        <time>2020-05-31T05:28:13Z</time>
      </trkpt>
      <trkpt lat="44.07442" lon="1.61913">
        <ele>11500</ele>
        <time>2020-05-31T05:28:14Z</time>
      </trkpt>
      <trkpt lat="44.07443" lon="1.61918">
        <ele>11500</ele>
        <time>2020-05-31T05:28:15Z</time>
      </trkpt>
      <trkpt lat="44.07443" lon="1.61923">
        <ele>11500</ele>
        <time>2020-05-31T05:28:16Z</time>
      </trkpt>
      <trkpt lat="44.07444" lon="1.61927">
        <ele>11500</ele>
        <time>2020-05-31T05:28:17Z</time>
      </trkpt>
      <trkpt lat="44.07444" lon="1.6193">
        <ele>11500</ele>
        <time>2020-05-31T05:28:18Z</time>
      </trkpt>
      <trkpt lat="44.07447" lon="1.61933">
        <ele>11500</ele>
        <time>2020-05-31T05:28:19Z</time>
      </trkpt>
      <trkpt lat="44.07449" lon="1.61936">
        <ele>11600</ele>
        <time>2020-05-31T05:28:20Z</time>
      </trkpt>
      <trkpt lat="44.07452" lon="1.61939">
        <ele>11600</ele>
        <time>2020-05-31T05:28:21Z</time>
      </trkpt>
      <trkpt lat="44.07455" lon="1.61941">
        <ele>11600</ele>
        <time>2020-05-31T05:28:22Z</time>
      </trkpt>
      <trkpt lat="44.07458" lon="1.61944">
        <ele>11600</ele>
        <time>2020-05-31T05:28:23Z</time>
      </trkpt>
      <trkpt lat="44.07461" lon="1.61947">
        <ele>11600</ele>
        <time>2020-05-31T05:28:24Z</time>
      </trkpt>
      <trkpt lat="44.07464" lon="1.61949">
        <ele>11600</ele>
        <time>2020-05-31T05:28:25Z</time>
      </trkpt>
      <trkpt lat="44.07467" lon="1.61952">
        <ele>11600</ele>
        <time>2020-05-31T05:28:26Z</time>
      </trkpt>
      <trkpt lat="44.0747" lon="1.61955">
        <ele>11600</ele>
        <time>2020-05-31T05:28:27Z</time>
      </trkpt>
      <trkpt lat="44.07473" lon="1.61957">
        <ele>11600</ele>
        <time>2020-05-31T05:28:28Z</time>
      </trkpt>
      <trkpt lat="44.07476" lon="1.6196">
        <ele>11600</ele>
        <time>2020-05-31T05:28:29Z</time>
      </trkpt>
      <trkpt lat="44.0748" lon="1.61963">
        <ele>11600</ele>
        <time>2020-05-31T05:28:30Z</time>
      </trkpt>
      <trkpt lat="44.07482" lon="1.61966">
        <ele>11600</ele>
        <time>2020-05-31T05:28:31Z</time>
      </trkpt>
      <trkpt lat="44.07485" lon="1.61968">
        <ele>11600</ele>
        <time>2020-05-31T05:28:32Z</time>
      </trkpt>
      <trkpt lat="44.07488" lon="1.61971">
        <ele>11600</ele>
        <time>2020-05-31T05:28:33Z</time>
      </trkpt>
      <trkpt lat="44.07491" lon="1.61974">
        <ele>11700</ele>
        <time>2020-05-31T05:28:34Z</time>
      </trkpt>
      <trkpt lat="44.07493" lon="1.61978">
        <ele>11700</ele>
        <time>2020-05-31T05:28:35Z</time>
      </trkpt>
      <trkpt lat="44.07496" lon="1.61981">
        <ele>11700</ele>
        <time>2020-05-31T05:28:36Z</time>
      </trkpt>
      <trkpt lat="44.07498" lon="1.61984">
        <ele>11700</ele>
        <time>2020-05-31T05:28:37Z</time>
      </trkpt>
      <trkpt lat="44.07501" lon="1.61987">
        <ele>11700</ele>
        <time>2020-05-31T05:28:38Z</time>
      </trkpt>
      <trkpt lat="44.07504" lon="1.6199">
        <ele>11700</ele>
        <time>2020-05-31T05:28:39Z</time>
      </trkpt>
      <trkpt lat="44.07507" lon="1.61992">
        <ele>11700</ele>
        <time>2020-05-31T05:28:40Z</time>
      </trkpt>
      <trkpt lat="44.0751" lon="1.61994">
        <ele>11700</ele>
        <time>2020-05-31T05:28:41Z</time>
      </trkpt>
      <trkpt lat="44.07513" lon="1.61996">
        <ele>11700</ele>
        <time>2020-05-31T05:28:42Z</time>
      </trkpt>
      <trkpt lat="44.07516" lon="1.61998">
        <ele>11800</ele>
        <time>2020-05-31T05:28:43Z</time>
      </trkpt>
      <trkpt lat="44.07519" lon="1.62">
        <ele>11800</ele>
        <time>2020-05-31T05:28:44Z</time>
      </trkpt>
      <trkpt lat="44.07522" lon="1.62002">
        <ele>11800</ele>
        <time>2020-05-31T05:28:45Z</time>
      </trkpt>
      <trkpt lat="44.07525" lon="1.62004">
        <ele>11800</ele>
        <time>2020-05-31T05:28:46Z</time>
      </trkpt>
      <trkpt lat="44.07528" lon="1.62006">
        <ele>11800</ele>
        <time>2020-05-31T05:28:47Z</time>
      </trkpt>
      <trkpt lat="44.07531" lon="1.62008">
        <ele>11800</ele>
        <time>2020-05-31T05:28:48Z</time>
      </trkpt>
      <trkpt lat="44.07534" lon="1.6201">
        <ele>11800</ele>
        <time>2020-05-31T05:28:49Z</time>
      </trkpt>
      <trkpt lat="44.07537" lon="1.62013">
        <ele>11800</ele>
        <time>2020-05-31T05:28:50Z</time>
      </trkpt>
      <trkpt lat="44.07541" lon="1.62015">
        <ele>11800</ele>
        <time>2020-05-31T05:28:51Z</time>
      </trkpt>
      <trkpt lat="44.07544" lon="1.62016">
        <ele>11800</ele>
        <time>2020-05-31T05:28:52Z</time>
      </trkpt>
      <trkpt lat="44.07549" lon="1.62017">
        <ele>11800</ele>
        <time>2020-05-31T05:28:53Z</time>
      </trkpt>
      <trkpt lat="44.07552" lon="1.62018">
        <ele>11800</ele>
        <time>2020-05-31T05:28:54Z</time>
      </trkpt>
      <trkpt lat="44.07556" lon="1.62019">
        <ele>11800</ele>
        <time>2020-05-31T05:28:55Z</time>
      </trkpt>
      <trkpt lat="44.0756" lon="1.62019">
        <ele>11800</ele>
        <time>2020-05-31T05:28:56Z</time>
      </trkpt>
      <trkpt lat="44.07564" lon="1.6202">
        <ele>11900</ele>
        <time>2020-05-31T05:28:57Z</time>
      </trkpt>
      <trkpt lat="44.07567" lon="1.6202">
        <ele>11900</ele>
        <time>2020-05-31T05:28:58Z</time>
      </trkpt>
      <trkpt lat="44.07571" lon="1.62021">
        <ele>11900</ele>
        <time>2020-05-31T05:28:59Z</time>
      </trkpt>
      <trkpt lat="44.07576" lon="1.62022">
        <ele>11900</ele>
        <time>2020-05-31T05:29:00Z</time>
      </trkpt>
      <trkpt lat="44.0758" lon="1.62023">
        <ele>11900</ele>
        <time>2020-05-31T05:29:01Z</time>
      </trkpt>
      <trkpt lat="44.07584" lon="1.62023">
        <ele>11900</ele>
        <time>2020-05-31T05:29:02Z</time>
      </trkpt>
      <trkpt lat="44.07587" lon="1.62022">
        <ele>11900</ele>
        <time>2020-05-31T05:29:03Z</time>
      </trkpt>
      <trkpt lat="44.0759" lon="1.62021">
        <ele>11900</ele>
        <time>2020-05-31T05:29:04Z</time>
      </trkpt>
      <trkpt lat="44.07592" lon="1.62021">
        <ele>11900</ele>
        <time>2020-05-31T05:29:05Z</time>
      </trkpt>
      <trkpt lat="44.07595" lon="1.6202">
        <ele>11900</ele>
        <time>2020-05-31T05:29:06Z</time>
      </trkpt>
      <trkpt lat="44.07596" lon="1.62019">
        <ele>11900</ele>
        <time>2020-05-31T05:29:07Z</time>
      </trkpt>
      <trkpt lat="44.07597" lon="1.62017">
        <ele>11900</ele>
        <time>2020-05-31T05:29:08Z</time>
      </trkpt>
      <trkpt lat="44.07596" lon="1.62015">
        <ele>11900</ele>
        <time>2020-05-31T05:29:09Z</time>
      </trkpt>
      <trkpt lat="44.07595" lon="1.62013">
        <ele>11900</ele>
        <time>2020-05-31T05:29:10Z</time>
      </trkpt>
      <trkpt lat="44.07595" lon="1.6201">
        <ele>11900</ele>
        <time>2020-05-31T05:29:11Z</time>
      </trkpt>
      <trkpt lat="44.07594" lon="1.62008">
        <ele>11900</ele>
        <time>2020-05-31T05:29:12Z</time>
      </trkpt>
      <trkpt lat="44.07592" lon="1.62005">
        <ele>11900</ele>
        <time>2020-05-31T05:29:13Z</time>
      </trkpt>
      <trkpt lat="44.07592" lon="1.62002">
        <ele>11900</ele>
        <time>2020-05-31T05:29:14Z</time>
      </trkpt>
      <trkpt lat="44.07591" lon="1.62">
        <ele>11900</ele>
        <time>2020-05-31T05:29:15Z</time>
      </trkpt>
      <trkpt lat="44.07591" lon="1.61998">
        <ele>11900</ele>
        <time>2020-05-31T05:29:16Z</time>
      </trkpt>
      <trkpt lat="44.07591" lon="1.61997">
        <ele>11900</ele>
        <time>2020-05-31T05:29:17Z</time>
      </trkpt>
      <trkpt lat="44.07591" lon="1.61995">
        <ele>11900</ele>
        <time>2020-05-31T05:29:18Z</time>
      </trkpt>
      <trkpt lat="44.07592" lon="1.61994">
        <ele>11900</ele>
        <time>2020-05-31T05:29:19Z</time>
      </trkpt>
      <trkpt lat="44.07592" lon="1.61993">
        <ele>11900</ele>
        <time>2020-05-31T05:29:20Z</time>
      </trkpt>
      <trkpt lat="44.07592" lon="1.61992">
        <ele>11900</ele>
        <time>2020-05-31T05:29:21Z</time>
      </trkpt>
      <trkpt lat="44.07592" lon="1.61991">
        <ele>11900</ele>
        <time>2020-05-31T05:29:22Z</time>
      </trkpt>
      <trkpt lat="44.07592" lon="1.6199">
        <ele>11900</ele>
        <time>2020-05-31T05:29:23Z</time>
      </trkpt>
      <trkpt lat="44.07592" lon="1.61988">
        <ele>11900</ele>
        <time>2020-05-31T05:29:24Z</time>
      </trkpt>
      <trkpt lat="44.07593" lon="1.61987">
        <ele>11900</ele>
        <time>2020-05-31T05:29:25Z</time>
      </trkpt>
      <trkpt lat="44.07594" lon="1.61985">
        <ele>11900</ele>
        <time>2020-05-31T05:29:26Z</time>
      </trkpt>
      <trkpt lat="44.07594" lon="1.61983">
        <ele>11900</ele>
        <time>2020-05-31T05:29:27Z</time>
      </trkpt>
      <trkpt lat="44.07594" lon="1.61982">
        <ele>11900</ele>
        <time>2020-05-31T05:29:28Z</time>
      </trkpt>
      <trkpt lat="44.07595" lon="1.6198">
        <ele>11900</ele>
        <time>2020-05-31T05:29:29Z</time>
      </trkpt>
      <trkpt lat="44.07595" lon="1.61978">
        <ele>11900</ele>
        <time>2020-05-31T05:29:30Z</time>
      </trkpt>
      <trkpt lat="44.07597" lon="1.61975">
        <ele>11900</ele>
        <time>2020-05-31T05:29:32Z</time>
      </trkpt>
      <trkpt lat="44.07597" lon="1.61975">
        <ele>11900</ele>
        <time>2020-05-31T05:29:34Z</time>
      </trkpt>
      <trkpt lat="44.07597" lon="1.61975">
        <ele>11900</ele>
        <time>2020-05-31T05:29:35Z</time>
      </trkpt>
      <trkpt lat="44.07597" lon="1.61976">
        <ele>11900</ele>
        <time>2020-05-31T05:29:36Z</time>
      </trkpt>
      <trkpt lat="44.07595" lon="1.61977">
        <ele>11900</ele>
        <time>2020-05-31T05:29:37Z</time>
      </trkpt>
      <trkpt lat="44.07594" lon="1.61978">
        <ele>11900</ele>
        <time>2020-05-31T05:29:38Z</time>
      </trkpt>
      <trkpt lat="44.07593" lon="1.61979">
        <ele>11900</ele>
        <time>2020-05-31T05:29:39Z</time>
      </trkpt>
      <trkpt lat="44.07592" lon="1.6198">
        <ele>11900</ele>
        <time>2020-05-31T05:29:40Z</time>
      </trkpt>
      <trkpt lat="44.07591" lon="1.6198">
        <ele>11900</ele>
        <time>2020-05-31T05:29:41Z</time>
      </trkpt>
      <trkpt lat="44.07591" lon="1.6198">
        <ele>11900</ele>
        <time>2020-05-31T05:29:42Z</time>
      </trkpt>
      <trkpt lat="44.07636" lon="1.62078">
        <ele>12200</ele>
        <time>2020-05-31T05:31:39Z</time>
      </trkpt>
      <trkpt lat="44.07636" lon="1.62079">
        <ele>12200</ele>
        <time>2020-05-31T05:31:40Z</time>
      </trkpt>
      <trkpt lat="44.07637" lon="1.6208">
        <ele>12200</ele>
        <time>2020-05-31T05:31:41Z</time>
      </trkpt>
      <trkpt lat="44.07638" lon="1.62081">
        <ele>12200</ele>
        <time>2020-05-31T05:31:42Z</time>
      </trkpt>
      <trkpt lat="44.07639" lon="1.62083">
        <ele>12200</ele>
        <time>2020-05-31T05:31:43Z</time>
      </trkpt>
      <trkpt lat="44.0764" lon="1.62085">
        <ele>12200</ele>
        <time>2020-05-31T05:31:44Z</time>
      </trkpt>
      <trkpt lat="44.07641" lon="1.62087">
        <ele>12200</ele>
        <time>2020-05-31T05:31:45Z</time>
      </trkpt>
      <trkpt lat="44.07642" lon="1.62089">
        <ele>12200</ele>
        <time>2020-05-31T05:31:46Z</time>
      </trkpt>
      <trkpt lat="44.07642" lon="1.62092">
        <ele>12200</ele>
        <time>2020-05-31T05:31:47Z</time>
      </trkpt>
      <trkpt lat="44.07644" lon="1.62094">
        <ele>12200</ele>
        <time>2020-05-31T05:31:48Z</time>
      </trkpt>
      <trkpt lat="44.07645" lon="1.62097">
        <ele>12200</ele>
        <time>2020-05-31T05:31:49Z</time>
      </trkpt>
      <trkpt lat="44.07647" lon="1.62099">
        <ele>12200</ele>
        <time>2020-05-31T05:31:50Z</time>
      </trkpt>
      <trkpt lat="44.07649" lon="1.62102">
        <ele>12200</ele>
        <time>2020-05-31T05:31:51Z</time>
      </trkpt>
      <trkpt lat="44.0765" lon="1.62105">
        <ele>12200</ele>
        <time>2020-05-31T05:31:52Z</time>
      </trkpt>
      <trkpt lat="44.07651" lon="1.62108">
        <ele>12200</ele>
        <time>2020-05-31T05:31:53Z</time>
      </trkpt>
      <trkpt lat="44.07652" lon="1.62111">
        <ele>12300</ele>
        <time>2020-05-31T05:31:54Z</time>
      </trkpt>
      <trkpt lat="44.07653" lon="1.62114">
        <ele>12300</ele>
        <time>2020-05-31T05:31:55Z</time>
      </trkpt>
      <trkpt lat="44.07654" lon="1.62118">
        <ele>12300</ele>
        <time>2020-05-31T05:31:56Z</time>
      </trkpt>
      <trkpt lat="44.07655" lon="1.62122">
        <ele>12300</ele>
        <time>2020-05-31T05:31:57Z</time>
      </trkpt>
      <trkpt lat="44.07655" lon="1.62127">
        <ele>12300</ele>
        <time>2020-05-31T05:31:58Z</time>
      </trkpt>
      <trkpt lat="44.07655" lon="1.62132">
        <ele>12300</ele>
        <time>2020-05-31T05:31:59Z</time>
      </trkpt>
      <trkpt lat="44.07655" lon="1.62137">
        <ele>12300</ele>
        <time>2020-05-31T05:32:00Z</time>
      </trkpt>
      <trkpt lat="44.07654" lon="1.62142">
        <ele>12300</ele>
        <time>2020-05-31T05:32:01Z</time>
      </trkpt>
      <trkpt lat="44.07653" lon="1.62148">
        <ele>12400</ele>
        <time>2020-05-31T05:32:02Z</time>
      </trkpt>
      <trkpt lat="44.07652" lon="1.62154">
        <ele>12400</ele>
        <time>2020-05-31T05:32:03Z</time>
      </trkpt>
      <trkpt lat="44.07652" lon="1.6216">
        <ele>12400</ele>
        <time>2020-05-31T05:32:04Z</time>
      </trkpt>
      <trkpt lat="44.0765" lon="1.62165">
        <ele>12400</ele>
        <time>2020-05-31T05:32:05Z</time>
      </trkpt>
      <trkpt lat="44.07649" lon="1.62171">
        <ele>12400</ele>
        <time>2020-05-31T05:32:06Z</time>
      </trkpt>
      <trkpt lat="44.07648" lon="1.62177">
        <ele>12400</ele>
        <time>2020-05-31T05:32:07Z</time>
      </trkpt>
      <trkpt lat="44.07647" lon="1.62182">
        <ele>12400</ele>
        <time>2020-05-31T05:32:08Z</time>
      </trkpt>
      <trkpt lat="44.07646" lon="1.62187">
        <ele>12400</ele>
        <time>2020-05-31T05:32:09Z</time>
      </trkpt>
      <trkpt lat="44.07645" lon="1.62193">
        <ele>12400</ele>
        <time>2020-05-31T05:32:10Z</time>
      </trkpt>
      <trkpt lat="44.07644" lon="1.62199">
        <ele>12400</ele>
        <time>2020-05-31T05:32:11Z</time>
      </trkpt>
      <trkpt lat="44.07643" lon="1.62204">
        <ele>12400</ele>
        <time>2020-05-31T05:32:12Z</time>
      </trkpt>
      <trkpt lat="44.07642" lon="1.62209">
        <ele>12400</ele>
        <time>2020-05-31T05:32:13Z</time>
      </trkpt>
      <trkpt lat="44.07642" lon="1.62214">
        <ele>12400</ele>
        <time>2020-05-31T05:32:14Z</time>
      </trkpt>
      <trkpt lat="44.0764" lon="1.62219">
        <ele>12500</ele>
        <time>2020-05-31T05:32:15Z</time>
      </trkpt>
      <trkpt lat="44.07639" lon="1.62224">
        <ele>12500</ele>
        <time>2020-05-31T05:32:16Z</time>
      </trkpt>
      <trkpt lat="44.07638" lon="1.62229">
        <ele>12500</ele>
        <time>2020-05-31T05:32:17Z</time>
      </trkpt>
      <trkpt lat="44.07637" lon="1.62233">
        <ele>12500</ele>
        <time>2020-05-31T05:32:18Z</time>
      </trkpt>
      <trkpt lat="44.07636" lon="1.62238">
        <ele>12500</ele>
        <time>2020-05-31T05:32:19Z</time>
      </trkpt>
      <trkpt lat="44.07635" lon="1.62243">
        <ele>12500</ele>
        <time>2020-05-31T05:32:20Z</time>
      </trkpt>
      <trkpt lat="44.07634" lon="1.62248">
        <ele>12500</ele>
        <time>2020-05-31T05:32:21Z</time>
      </trkpt>
      <trkpt lat="44.07633" lon="1.62253">
        <ele>12500</ele>
        <time>2020-05-31T05:32:22Z</time>
      </trkpt>
      <trkpt lat="44.07632" lon="1.62257">
        <ele>12600</ele>
        <time>2020-05-31T05:32:23Z</time>
      </trkpt>
      <trkpt lat="44.07631" lon="1.62262">
        <ele>12600</ele>
        <time>2020-05-31T05:32:24Z</time>
      </trkpt>
      <trkpt lat="44.07631" lon="1.62267">
        <ele>12600</ele>
        <time>2020-05-31T05:32:25Z</time>
      </trkpt>
      <trkpt lat="44.07629" lon="1.62271">
        <ele>12600</ele>
        <time>2020-05-31T05:32:26Z</time>
      </trkpt>
      <trkpt lat="44.07628" lon="1.62275">
        <ele>12600</ele>
        <time>2020-05-31T05:32:27Z</time>
      </trkpt>
      <trkpt lat="44.07627" lon="1.6228">
        <ele>12600</ele>
        <time>2020-05-31T05:32:28Z</time>
      </trkpt>
      <trkpt lat="44.07627" lon="1.62285">
        <ele>12700</ele>
        <time>2020-05-31T05:32:29Z</time>
      </trkpt>
      <trkpt lat="44.07626" lon="1.6229">
        <ele>12700</ele>
        <time>2020-05-31T05:32:30Z</time>
      </trkpt>
      <trkpt lat="44.07625" lon="1.62295">
        <ele>12700</ele>
        <time>2020-05-31T05:32:31Z</time>
      </trkpt>
      <trkpt lat="44.07624" lon="1.62299">
        <ele>12700</ele>
        <time>2020-05-31T05:32:32Z</time>
      </trkpt>
      <trkpt lat="44.07623" lon="1.62304">
        <ele>12700</ele>
        <time>2020-05-31T05:32:33Z</time>
      </trkpt>
      <trkpt lat="44.07622" lon="1.62308">
        <ele>12700</ele>
        <time>2020-05-31T05:32:34Z</time>
      </trkpt>
      <trkpt lat="44.07621" lon="1.62313">
        <ele>12700</ele>
        <time>2020-05-31T05:32:35Z</time>
      </trkpt>
      <trkpt lat="44.07621" lon="1.62317">
        <ele>12700</ele>
        <time>2020-05-31T05:32:36Z</time>
      </trkpt>
      <trkpt lat="44.0762" lon="1.62321">
        <ele>12700</ele>
        <time>2020-05-31T05:32:37Z</time>
      </trkpt>
      <trkpt lat="44.07619" lon="1.62326">
        <ele>12700</ele>
        <time>2020-05-31T05:32:38Z</time>
      </trkpt>
      <trkpt lat="44.07618" lon="1.6233">
        <ele>12800</ele>
        <time>2020-05-31T05:32:39Z</time>
      </trkpt>
      <trkpt lat="44.07617" lon="1.62334">
        <ele>12800</ele>
        <time>2020-05-31T05:32:40Z</time>
      </trkpt>
      <trkpt lat="44.07616" lon="1.62338">
        <ele>12800</ele>
        <time>2020-05-31T05:32:41Z</time>
      </trkpt>
      <trkpt lat="44.07615" lon="1.62342">
        <ele>12800</ele>
        <time>2020-05-31T05:32:42Z</time>
      </trkpt>
      <trkpt lat="44.07614" lon="1.62346">
        <ele>12800</ele>
        <time>2020-05-31T05:32:43Z</time>
      </trkpt>
      <trkpt lat="44.07613" lon="1.6235">
        <ele>12900</ele>
        <time>2020-05-31T05:32:44Z</time>
      </trkpt>
      <trkpt lat="44.07612" lon="1.62354">
        <ele>12900</ele>
        <time>2020-05-31T05:32:45Z</time>
      </trkpt>
      <trkpt lat="44.07612" lon="1.62358">
        <ele>12900</ele>
        <time>2020-05-31T05:32:46Z</time>
      </trkpt>
      <trkpt lat="44.07611" lon="1.62362">
        <ele>12900</ele>
        <time>2020-05-31T05:32:47Z</time>
      </trkpt>
      <trkpt lat="44.0761" lon="1.62366">
        <ele>12900</ele>
        <time>2020-05-31T05:32:48Z</time>
      </trkpt>
      <trkpt lat="44.07609" lon="1.6237">
        <ele>12900</ele>
        <time>2020-05-31T05:32:49Z</time>
      </trkpt>
      <trkpt lat="44.07608" lon="1.62374">
        <ele>13000</ele>
        <time>2020-05-31T05:32:50Z</time>
      </trkpt>
      <trkpt lat="44.07608" lon="1.62378">
        <ele>13000</ele>
        <time>2020-05-31T05:32:51Z</time>
      </trkpt>
      <trkpt lat="44.07608" lon="1.62382">
        <ele>13000</ele>
        <time>2020-05-31T05:32:52Z</time>
      </trkpt>
      <trkpt lat="44.07607" lon="1.62387">
        <ele>13000</ele>
        <time>2020-05-31T05:32:53Z</time>
      </trkpt>
      <trkpt lat="44.07606" lon="1.62392">
        <ele>13000</ele>
        <time>2020-05-31T05:32:54Z</time>
      </trkpt>
      <trkpt lat="44.07606" lon="1.62396">
        <ele>13100</ele>
        <time>2020-05-31T05:32:55Z</time>
      </trkpt>
      <trkpt lat="44.07605" lon="1.624">
        <ele>13100</ele>
        <time>2020-05-31T05:32:56Z</time>
      </trkpt>
      <trkpt lat="44.07605" lon="1.62404">
        <ele>13100</ele>
        <time>2020-05-31T05:32:57Z</time>
      </trkpt>
      <trkpt lat="44.07604" lon="1.62408">
        <ele>13100</ele>
        <time>2020-05-31T05:32:58Z</time>
      </trkpt>
      <trkpt lat="44.07603" lon="1.62413">
        <ele>13100</ele>
        <time>2020-05-31T05:32:59Z</time>
      </trkpt>
      <trkpt lat="44.07603" lon="1.62416">
        <ele>13200</ele>
        <time>2020-05-31T05:33:00Z</time>
      </trkpt>
      <trkpt lat="44.07602" lon="1.6242">
        <ele>13200</ele>
        <time>2020-05-31T05:33:01Z</time>
      </trkpt>
      <trkpt lat="44.07602" lon="1.62424">
        <ele>13200</ele>
        <time>2020-05-31T05:33:02Z</time>
      </trkpt>
      <trkpt lat="44.07601" lon="1.62428">
        <ele>13200</ele>
        <time>2020-05-31T05:33:03Z</time>
      </trkpt>
      <trkpt lat="44.07601" lon="1.62432">
        <ele>13200</ele>
        <time>2020-05-31T05:33:04Z</time>
      </trkpt>
      <trkpt lat="44.076" lon="1.62436">
        <ele>13300</ele>
        <time>2020-05-31T05:33:05Z</time>
      </trkpt>
      <trkpt lat="44.076" lon="1.6244">
        <ele>13300</ele>
        <time>2020-05-31T05:33:06Z</time>
      </trkpt>
      <trkpt lat="44.07599" lon="1.62444">
        <ele>13300</ele>
        <time>2020-05-31T05:33:07Z</time>
      </trkpt>
      <trkpt lat="44.07598" lon="1.62449">
        <ele>13300</ele>
        <time>2020-05-31T05:33:08Z</time>
      </trkpt>
      <trkpt lat="44.07598" lon="1.62453">
        <ele>13300</ele>
        <time>2020-05-31T05:33:09Z</time>
      </trkpt>
      <trkpt lat="44.07597" lon="1.62457">
        <ele>13400</ele>
        <time>2020-05-31T05:33:10Z</time>
      </trkpt>
      <trkpt lat="44.07596" lon="1.62461">
        <ele>13400</ele>
        <time>2020-05-31T05:33:11Z</time>
      </trkpt>
      <trkpt lat="44.07595" lon="1.62465">
        <ele>13400</ele>
        <time>2020-05-31T05:33:12Z</time>
      </trkpt>
      <trkpt lat="44.07595" lon="1.62469">
        <ele>13400</ele>
        <time>2020-05-31T05:33:13Z</time>
      </trkpt>
      <trkpt lat="44.07594" lon="1.62473">
        <ele>13400</ele>
        <time>2020-05-31T05:33:14Z</time>
      </trkpt>
      <trkpt lat="44.07594" lon="1.62477">
        <ele>13400</ele>
        <time>2020-05-31T05:33:15Z</time>
      </trkpt>
      <trkpt lat="44.07592" lon="1.62481">
        <ele>13400</ele>
        <time>2020-05-31T05:33:16Z</time>
      </trkpt>
      <trkpt lat="44.07592" lon="1.62486">
        <ele>13400</ele>
        <time>2020-05-31T05:33:17Z</time>
      </trkpt>
      <trkpt lat="44.07591" lon="1.6249">
        <ele>13400</ele>
        <time>2020-05-31T05:33:18Z</time>
      </trkpt>
      <trkpt lat="44.07591" lon="1.62495">
        <ele>13400</ele>
        <time>2020-05-31T05:33:19Z</time>
      </trkpt>
      <trkpt lat="44.0759" lon="1.625">
        <ele>13400</ele>
        <time>2020-05-31T05:33:20Z</time>
      </trkpt>
      <trkpt lat="44.07589" lon="1.62505">
        <ele>13400</ele>
        <time>2020-05-31T05:33:21Z</time>
      </trkpt>
      <trkpt lat="44.07589" lon="1.6251">
        <ele>13400</ele>
        <time>2020-05-31T05:33:22Z</time>
      </trkpt>
      <trkpt lat="44.07588" lon="1.62514">
        <ele>13400</ele>
        <time>2020-05-31T05:33:23Z</time>
      </trkpt>
      <trkpt lat="44.07587" lon="1.62519">
        <ele>13500</ele>
        <time>2020-05-31T05:33:24Z</time>
      </trkpt>
      <trkpt lat="44.07585" lon="1.62523">
        <ele>13500</ele>
        <time>2020-05-31T05:33:25Z</time>
      </trkpt>
      <trkpt lat="44.07584" lon="1.62528">
        <ele>13500</ele>
        <time>2020-05-31T05:33:26Z</time>
      </trkpt>
      <trkpt lat="44.07583" lon="1.62533">
        <ele>13500</ele>
        <time>2020-05-31T05:33:27Z</time>
      </trkpt>
      <trkpt lat="44.07582" lon="1.62537">
        <ele>13500</ele>
        <time>2020-05-31T05:33:28Z</time>
      </trkpt>
      <trkpt lat="44.07581" lon="1.62542">
        <ele>13500</ele>
        <time>2020-05-31T05:33:29Z</time>
      </trkpt>
      <trkpt lat="44.07579" lon="1.62546">
        <ele>13500</ele>
        <time>2020-05-31T05:33:30Z</time>
      </trkpt>
      <trkpt lat="44.07577" lon="1.62551">
        <ele>13500</ele>
        <time>2020-05-31T05:33:31Z</time>
      </trkpt>
      <trkpt lat="44.07576" lon="1.62556">
        <ele>13500</ele>
        <time>2020-05-31T05:33:32Z</time>
      </trkpt>
      <trkpt lat="44.07574" lon="1.62561">
        <ele>13500</ele>
        <time>2020-05-31T05:33:33Z</time>
      </trkpt>
      <trkpt lat="44.07573" lon="1.62566">
        <ele>13500</ele>
        <time>2020-05-31T05:33:34Z</time>
      </trkpt>
      <trkpt lat="44.07571" lon="1.62571">
        <ele>13500</ele>
        <time>2020-05-31T05:33:35Z</time>
      </trkpt>
      <trkpt lat="44.0757" lon="1.62577">
        <ele>13500</ele>
        <time>2020-05-31T05:33:36Z</time>
      </trkpt>
      <trkpt lat="44.07568" lon="1.62582">
        <ele>13500</ele>
        <time>2020-05-31T05:33:37Z</time>
      </trkpt>
      <trkpt lat="44.07567" lon="1.62588">
        <ele>13500</ele>
        <time>2020-05-31T05:33:38Z</time>
      </trkpt>
      <trkpt lat="44.07565" lon="1.62594">
        <ele>13500</ele>
        <time>2020-05-31T05:33:39Z</time>
      </trkpt>
      <trkpt lat="44.07563" lon="1.626">
        <ele>13500</ele>
        <time>2020-05-31T05:33:40Z</time>
      </trkpt>
      <trkpt lat="44.07562" lon="1.62606">
        <ele>13500</ele>
        <time>2020-05-31T05:33:41Z</time>
      </trkpt>
      <trkpt lat="44.0756" lon="1.62612">
        <ele>13500</ele>
        <time>2020-05-31T05:33:42Z</time>
      </trkpt>
      <trkpt lat="44.07559" lon="1.62619">
        <ele>13400</ele>
        <time>2020-05-31T05:33:43Z</time>
      </trkpt>
      <trkpt lat="44.07558" lon="1.62625">
        <ele>13400</ele>
        <time>2020-05-31T05:33:44Z</time>
      </trkpt>
      <trkpt lat="44.07557" lon="1.62632">
        <ele>13400</ele>
        <time>2020-05-31T05:33:45Z</time>
      </trkpt>
      <trkpt lat="44.07556" lon="1.62638">
        <ele>13400</ele>
        <time>2020-05-31T05:33:46Z</time>
      </trkpt>
      <trkpt lat="44.07554" lon="1.62644">
        <ele>13400</ele>
        <time>2020-05-31T05:33:47Z</time>
      </trkpt>
      <trkpt lat="44.07552" lon="1.62651">
        <ele>13400</ele>
        <time>2020-05-31T05:33:48Z</time>
      </trkpt>
      <trkpt lat="44.07552" lon="1.62658">
        <ele>13400</ele>
        <time>2020-05-31T05:33:49Z</time>
      </trkpt>
      <trkpt lat="44.0755" lon="1.62665">
        <ele>13400</ele>
        <time>2020-05-31T05:33:50Z</time>
      </trkpt>
      <trkpt lat="44.07549" lon="1.62672">
        <ele>13400</ele>
        <time>2020-05-31T05:33:51Z</time>
      </trkpt>
      <trkpt lat="44.07548" lon="1.62679">
        <ele>13400</ele>
        <time>2020-05-31T05:33:52Z</time>
      </trkpt>
      <trkpt lat="44.07547" lon="1.62686">
        <ele>13400</ele>
        <time>2020-05-31T05:33:53Z</time>
      </trkpt>
      <trkpt lat="44.07546" lon="1.62692">
        <ele>13400</ele>
        <time>2020-05-31T05:33:54Z</time>
      </trkpt>
      <trkpt lat="44.07544" lon="1.62698">
        <ele>13400</ele>
        <time>2020-05-31T05:33:55Z</time>
      </trkpt>
      <trkpt lat="44.07543" lon="1.62705">
        <ele>13400</ele>
        <time>2020-05-31T05:33:56Z</time>
      </trkpt>
      <trkpt lat="44.07542" lon="1.62711">
        <ele>13400</ele>
        <time>2020-05-31T05:33:57Z</time>
      </trkpt>
      <trkpt lat="44.07542" lon="1.62717">
        <ele>13400</ele>
        <time>2020-05-31T05:33:58Z</time>
      </trkpt>
      <trkpt lat="44.0754" lon="1.62723">
        <ele>13400</ele>
        <time>2020-05-31T05:33:59Z</time>
      </trkpt>
      <trkpt lat="44.07539" lon="1.62728">
        <ele>13400</ele>
        <time>2020-05-31T05:34:00Z</time>
      </trkpt>
      <trkpt lat="44.07538" lon="1.62734">
        <ele>13400</ele>
        <time>2020-05-31T05:34:01Z</time>
      </trkpt>
      <trkpt lat="44.07537" lon="1.6274">
        <ele>13400</ele>
        <time>2020-05-31T05:34:02Z</time>
      </trkpt>
      <trkpt lat="44.07536" lon="1.62746">
        <ele>13400</ele>
        <time>2020-05-31T05:34:03Z</time>
      </trkpt>
      <trkpt lat="44.07534" lon="1.62752">
        <ele>13400</ele>
        <time>2020-05-31T05:34:04Z</time>
      </trkpt>
      <trkpt lat="44.07534" lon="1.62758">
        <ele>13400</ele>
        <time>2020-05-31T05:34:05Z</time>
      </trkpt>
      <trkpt lat="44.07533" lon="1.62765">
        <ele>13400</ele>
        <time>2020-05-31T05:34:06Z</time>
      </trkpt>
      <trkpt lat="44.07531" lon="1.62772">
        <ele>13400</ele>
        <time>2020-05-31T05:34:07Z</time>
      </trkpt>
      <trkpt lat="44.0753" lon="1.62778">
        <ele>13400</ele>
        <time>2020-05-31T05:34:07Z</time>
      </trkpt>
      <trkpt lat="44.07529" lon="1.62784">
        <ele>13400</ele>
        <time>2020-05-31T05:34:08Z</time>
      </trkpt>
      <trkpt lat="44.07528" lon="1.62791">
        <ele>13500</ele>
        <time>2020-05-31T05:34:09Z</time>
      </trkpt>
      <trkpt lat="44.07526" lon="1.62797">
        <ele>13500</ele>
        <time>2020-05-31T05:34:10Z</time>
      </trkpt>
      <trkpt lat="44.07525" lon="1.62804">
        <ele>13500</ele>
        <time>2020-05-31T05:34:11Z</time>
      </trkpt>
      <trkpt lat="44.07525" lon="1.6281">
        <ele>13500</ele>
        <time>2020-05-31T05:34:12Z</time>
      </trkpt>
      <trkpt lat="44.07523" lon="1.62817">
        <ele>13500</ele>
        <time>2020-05-31T05:34:13Z</time>
      </trkpt>
      <trkpt lat="44.07522" lon="1.62824">
        <ele>13500</ele>
        <time>2020-05-31T05:34:14Z</time>
      </trkpt>
      <trkpt lat="44.07521" lon="1.6283">
        <ele>13500</ele>
        <time>2020-05-31T05:34:15Z</time>
      </trkpt>
      <trkpt lat="44.0752" lon="1.62837">
        <ele>13500</ele>
        <time>2020-05-31T05:34:16Z</time>
      </trkpt>
      <trkpt lat="44.07519" lon="1.62843">
        <ele>13500</ele>
        <time>2020-05-31T05:34:17Z</time>
      </trkpt>
      <trkpt lat="44.07518" lon="1.62849">
        <ele>13500</ele>
        <time>2020-05-31T05:34:18Z</time>
      </trkpt>
      <trkpt lat="44.07518" lon="1.62855">
        <ele>13500</ele>
        <time>2020-05-31T05:34:19Z</time>
      </trkpt>
      <trkpt lat="44.07517" lon="1.62861">
        <ele>13500</ele>
        <time>2020-05-31T05:34:20Z</time>
      </trkpt>
      <trkpt lat="44.07517" lon="1.62867">
        <ele>13500</ele>
        <time>2020-05-31T05:34:21Z</time>
      </trkpt>
      <trkpt lat="44.07516" lon="1.62873">
        <ele>13500</ele>
        <time>2020-05-31T05:34:22Z</time>
      </trkpt>
      <trkpt lat="44.07516" lon="1.62879">
        <ele>13500</ele>
        <time>2020-05-31T05:34:23Z</time>
      </trkpt>
      <trkpt lat="44.07515" lon="1.62885">
        <ele>13500</ele>
        <time>2020-05-31T05:34:24Z</time>
      </trkpt>
      <trkpt lat="44.07515" lon="1.62891">
        <ele>13500</ele>
        <time>2020-05-31T05:34:25Z</time>
      </trkpt>
      <trkpt lat="44.07514" lon="1.62897">
        <ele>13500</ele>
        <time>2020-05-31T05:34:26Z</time>
      </trkpt>
      <trkpt lat="44.07513" lon="1.62903">
        <ele>13500</ele>
        <time>2020-05-31T05:34:27Z</time>
      </trkpt>
      <trkpt lat="44.07513" lon="1.62909">
        <ele>13500</ele>
        <time>2020-05-31T05:34:28Z</time>
      </trkpt>
      <trkpt lat="44.07513" lon="1.62915">
        <ele>13500</ele>
        <time>2020-05-31T05:34:29Z</time>
      </trkpt>
      <trkpt lat="44.07513" lon="1.62922">
        <ele>13500</ele>
        <time>2020-05-31T05:34:30Z</time>
      </trkpt>
      <trkpt lat="44.07512" lon="1.62928">
        <ele>13500</ele>
        <time>2020-05-31T05:34:31Z</time>
      </trkpt>
      <trkpt lat="44.07512" lon="1.62934">
        <ele>13500</ele>
        <time>2020-05-31T05:34:32Z</time>
      </trkpt>
      <trkpt lat="44.07512" lon="1.62941">
        <ele>13500</ele>
        <time>2020-05-31T05:34:33Z</time>
      </trkpt>
      <trkpt lat="44.07512" lon="1.62947">
        <ele>13500</ele>
        <time>2020-05-31T05:34:34Z</time>
      </trkpt>
      <trkpt lat="44.07512" lon="1.62954">
        <ele>13500</ele>
        <time>2020-05-31T05:34:35Z</time>
      </trkpt>
      <trkpt lat="44.07512" lon="1.62961">
        <ele>13500</ele>
        <time>2020-05-31T05:34:36Z</time>
      </trkpt>
      <trkpt lat="44.07512" lon="1.62967">
        <ele>13500</ele>
        <time>2020-05-31T05:34:37Z</time>
      </trkpt>
      <trkpt lat="44.07511" lon="1.62974">
        <ele>13500</ele>
        <time>2020-05-31T05:34:38Z</time>
      </trkpt>
      <trkpt lat="44.07511" lon="1.62982">
        <ele>13500</ele>
        <time>2020-05-31T05:34:39Z</time>
      </trkpt>
      <trkpt lat="44.0751" lon="1.62989">
        <ele>13400</ele>
        <time>2020-05-31T05:34:40Z</time>
      </trkpt>
      <trkpt lat="44.0751" lon="1.62997">
        <ele>13400</ele>
        <time>2020-05-31T05:34:41Z</time>
      </trkpt>
      <trkpt lat="44.0751" lon="1.63005">
        <ele>13400</ele>
        <time>2020-05-31T05:34:42Z</time>
      </trkpt>
      <trkpt lat="44.0751" lon="1.63013">
        <ele>13300</ele>
        <time>2020-05-31T05:34:43Z</time>
      </trkpt>
      <trkpt lat="44.0751" lon="1.63022">
        <ele>13300</ele>
        <time>2020-05-31T05:34:44Z</time>
      </trkpt>
      <trkpt lat="44.0751" lon="1.63031">
        <ele>13200</ele>
        <time>2020-05-31T05:34:45Z</time>
      </trkpt>
      <trkpt lat="44.0751" lon="1.6304">
        <ele>13200</ele>
        <time>2020-05-31T05:34:46Z</time>
      </trkpt>
      <trkpt lat="44.0751" lon="1.6305">
        <ele>13200</ele>
        <time>2020-05-31T05:34:47Z</time>
      </trkpt>
      <trkpt lat="44.07509" lon="1.6306">
        <ele>13200</ele>
        <time>2020-05-31T05:34:48Z</time>
      </trkpt>
      <trkpt lat="44.07509" lon="1.63071">
        <ele>13100</ele>
        <time>2020-05-31T05:34:49Z</time>
      </trkpt>
      <trkpt lat="44.07509" lon="1.63081">
        <ele>13100</ele>
        <time>2020-05-31T05:34:50Z</time>
      </trkpt>
      <trkpt lat="44.07509" lon="1.63092">
        <ele>13000</ele>
        <time>2020-05-31T05:34:51Z</time>
      </trkpt>
      <trkpt lat="44.07509" lon="1.63103">
        <ele>13000</ele>
        <time>2020-05-31T05:34:52Z</time>
      </trkpt>
      <trkpt lat="44.07509" lon="1.63115">
        <ele>13000</ele>
        <time>2020-05-31T05:34:53Z</time>
      </trkpt>
      <trkpt lat="44.0751" lon="1.63127">
        <ele>12900</ele>
        <time>2020-05-31T05:34:54Z</time>
      </trkpt>
      <trkpt lat="44.0751" lon="1.63138">
        <ele>12900</ele>
        <time>2020-05-31T05:34:55Z</time>
      </trkpt>
      <trkpt lat="44.0751" lon="1.6315">
        <ele>12900</ele>
        <time>2020-05-31T05:34:56Z</time>
      </trkpt>
      <trkpt lat="44.0751" lon="1.63161">
        <ele>12900</ele>
        <time>2020-05-31T05:34:57Z</time>
      </trkpt>
      <trkpt lat="44.0751" lon="1.63172">
        <ele>12900</ele>
        <time>2020-05-31T05:34:58Z</time>
      </trkpt>
      <trkpt lat="44.07511" lon="1.63182">
        <ele>12900</ele>
        <time>2020-05-31T05:34:59Z</time>
      </trkpt>
      <trkpt lat="44.07511" lon="1.63192">
        <ele>12900</ele>
        <time>2020-05-31T05:35:00Z</time>
      </trkpt>
      <trkpt lat="44.07511" lon="1.63202">
        <ele>12900</ele>
        <time>2020-05-31T05:35:01Z</time>
      </trkpt>
      <trkpt lat="44.0751" lon="1.63211">
        <ele>12900</ele>
        <time>2020-05-31T05:35:02Z</time>
      </trkpt>
      <trkpt lat="44.0751" lon="1.63219">
        <ele>12900</ele>
        <time>2020-05-31T05:35:03Z</time>
      </trkpt>
      <trkpt lat="44.07509" lon="1.63227">
        <ele>12900</ele>
        <time>2020-05-31T05:35:04Z</time>
      </trkpt>
      <trkpt lat="44.07509" lon="1.63235">
        <ele>12900</ele>
        <time>2020-05-31T05:35:05Z</time>
      </trkpt>
      <trkpt lat="44.07509" lon="1.63242">
        <ele>12900</ele>
        <time>2020-05-31T05:35:06Z</time>
      </trkpt>
      <trkpt lat="44.07509" lon="1.63249">
        <ele>12900</ele>
        <time>2020-05-31T05:35:07Z</time>
      </trkpt>
      <trkpt lat="44.07509" lon="1.63255">
        <ele>12900</ele>
        <time>2020-05-31T05:35:08Z</time>
      </trkpt>
      <trkpt lat="44.07509" lon="1.63261">
        <ele>12900</ele>
        <time>2020-05-31T05:35:09Z</time>
      </trkpt>
      <trkpt lat="44.07508" lon="1.63266">
        <ele>12900</ele>
        <time>2020-05-31T05:35:10Z</time>
      </trkpt>
      <trkpt lat="44.07508" lon="1.63272">
        <ele>13000</ele>
        <time>2020-05-31T05:35:11Z</time>
      </trkpt>
      <trkpt lat="44.07508" lon="1.63277">
        <ele>13000</ele>
        <time>2020-05-31T05:35:12Z</time>
      </trkpt>
      <trkpt lat="44.07507" lon="1.63282">
        <ele>13000</ele>
        <time>2020-05-31T05:35:13Z</time>
      </trkpt>
      <trkpt lat="44.07507" lon="1.63287">
        <ele>13000</ele>
        <time>2020-05-31T05:35:14Z</time>
      </trkpt>
      <trkpt lat="44.07507" lon="1.63291">
        <ele>13000</ele>
        <time>2020-05-31T05:35:15Z</time>
      </trkpt>
      <trkpt lat="44.07507" lon="1.63296">
        <ele>13000</ele>
        <time>2020-05-31T05:35:16Z</time>
      </trkpt>
      <trkpt lat="44.07507" lon="1.63301">
        <ele>13000</ele>
        <time>2020-05-31T05:35:17Z</time>
      </trkpt>
      <trkpt lat="44.07507" lon="1.63306">
        <ele>13000</ele>
        <time>2020-05-31T05:35:18Z</time>
      </trkpt>
      <trkpt lat="44.07507" lon="1.63311">
        <ele>13000</ele>
        <time>2020-05-31T05:35:19Z</time>
      </trkpt>
      <trkpt lat="44.07507" lon="1.63317">
        <ele>13000</ele>
        <time>2020-05-31T05:35:20Z</time>
      </trkpt>
      <trkpt lat="44.07508" lon="1.63323">
        <ele>13000</ele>
        <time>2020-05-31T05:35:21Z</time>
      </trkpt>
      <trkpt lat="44.07509" lon="1.63328">
        <ele>13000</ele>
        <time>2020-05-31T05:35:22Z</time>
      </trkpt>
      <trkpt lat="44.0751" lon="1.63335">
        <ele>13000</ele>
        <time>2020-05-31T05:35:23Z</time>
      </trkpt>
      <trkpt lat="44.0751" lon="1.63341">
        <ele>13000</ele>
        <time>2020-05-31T05:35:24Z</time>
      </trkpt>
      <trkpt lat="44.07511" lon="1.63348">
        <ele>12900</ele>
        <time>2020-05-31T05:35:25Z</time>
      </trkpt>
      <trkpt lat="44.07512" lon="1.63355">
        <ele>12900</ele>
        <time>2020-05-31T05:35:26Z</time>
      </trkpt>
      <trkpt lat="44.07513" lon="1.63362">
        <ele>12900</ele>
        <time>2020-05-31T05:35:27Z</time>
      </trkpt>
      <trkpt lat="44.07515" lon="1.63369">
        <ele>12900</ele>
        <time>2020-05-31T05:35:28Z</time>
      </trkpt>
      <trkpt lat="44.07516" lon="1.63376">
        <ele>12800</ele>
        <time>2020-05-31T05:35:29Z</time>
      </trkpt>
      <trkpt lat="44.07517" lon="1.63384">
        <ele>12800</ele>
        <time>2020-05-31T05:35:30Z</time>
      </trkpt>
      <trkpt lat="44.07518" lon="1.63392">
        <ele>12800</ele>
        <time>2020-05-31T05:35:31Z</time>
      </trkpt>
      <trkpt lat="44.07518" lon="1.634">
        <ele>12700</ele>
        <time>2020-05-31T05:35:32Z</time>
      </trkpt>
      <trkpt lat="44.07519" lon="1.63408">
        <ele>12700</ele>
        <time>2020-05-31T05:35:33Z</time>
      </trkpt>
      <trkpt lat="44.07519" lon="1.63417">
        <ele>12700</ele>
        <time>2020-05-31T05:35:34Z</time>
      </trkpt>
      <trkpt lat="44.07519" lon="1.63426">
        <ele>12600</ele>
        <time>2020-05-31T05:35:35Z</time>
      </trkpt>
      <trkpt lat="44.07519" lon="1.63434">
        <ele>12600</ele>
        <time>2020-05-31T05:35:36Z</time>
      </trkpt>
      <trkpt lat="44.07519" lon="1.63443">
        <ele>12600</ele>
        <time>2020-05-31T05:35:37Z</time>
      </trkpt>
      <trkpt lat="44.07519" lon="1.63452">
        <ele>12600</ele>
        <time>2020-05-31T05:35:38Z</time>
      </trkpt>
      <trkpt lat="44.07519" lon="1.63461">
        <ele>12500</ele>
        <time>2020-05-31T05:35:39Z</time>
      </trkpt>
      <trkpt lat="44.07519" lon="1.6347">
        <ele>12500</ele>
        <time>2020-05-31T05:35:40Z</time>
      </trkpt>
      <trkpt lat="44.07519" lon="1.63479">
        <ele>12500</ele>
        <time>2020-05-31T05:35:41Z</time>
      </trkpt>
      <trkpt lat="44.07519" lon="1.63488">
        <ele>12500</ele>
        <time>2020-05-31T05:35:42Z</time>
      </trkpt>
      <trkpt lat="44.07519" lon="1.63497">
        <ele>12500</ele>
        <time>2020-05-31T05:35:43Z</time>
      </trkpt>
      <trkpt lat="44.07519" lon="1.63506">
        <ele>12400</ele>
        <time>2020-05-31T05:35:44Z</time>
      </trkpt>
      <trkpt lat="44.07519" lon="1.63515">
        <ele>12400</ele>
        <time>2020-05-31T05:35:45Z</time>
      </trkpt>
      <trkpt lat="44.07519" lon="1.63524">
        <ele>12400</ele>
        <time>2020-05-31T05:35:46Z</time>
      </trkpt>
      <trkpt lat="44.07519" lon="1.63532">
        <ele>12400</ele>
        <time>2020-05-31T05:35:47Z</time>
      </trkpt>
      <trkpt lat="44.07519" lon="1.63541">
        <ele>12400</ele>
        <time>2020-05-31T05:35:48Z</time>
      </trkpt>
      <trkpt lat="44.0752" lon="1.6355">
        <ele>12400</ele>
        <time>2020-05-31T05:35:49Z</time>
      </trkpt>
      <trkpt lat="44.0752" lon="1.63559">
        <ele>12300</ele>
        <time>2020-05-31T05:35:50Z</time>
      </trkpt>
      <trkpt lat="44.07521" lon="1.63567">
        <ele>12300</ele>
        <time>2020-05-31T05:35:51Z</time>
      </trkpt>
      <trkpt lat="44.07523" lon="1.63575">
        <ele>12300</ele>
        <time>2020-05-31T05:35:52Z</time>
      </trkpt>
      <trkpt lat="44.07525" lon="1.63584">
        <ele>12300</ele>
        <time>2020-05-31T05:35:53Z</time>
      </trkpt>
      <trkpt lat="44.07526" lon="1.63592">
        <ele>12300</ele>
        <time>2020-05-31T05:35:54Z</time>
      </trkpt>
      <trkpt lat="44.07528" lon="1.636">
        <ele>12300</ele>
        <time>2020-05-31T05:35:55Z</time>
      </trkpt>
      <trkpt lat="44.0753" lon="1.63609">
        <ele>12300</ele>
        <time>2020-05-31T05:35:56Z</time>
      </trkpt>
      <trkpt lat="44.07531" lon="1.63618">
        <ele>12300</ele>
        <time>2020-05-31T05:35:57Z</time>
      </trkpt>
      <trkpt lat="44.07533" lon="1.63627">
        <ele>12300</ele>
        <time>2020-05-31T05:35:58Z</time>
      </trkpt>
      <trkpt lat="44.07533" lon="1.63635">
        <ele>12300</ele>
        <time>2020-05-31T05:35:59Z</time>
      </trkpt>
      <trkpt lat="44.07533" lon="1.63644">
        <ele>12300</ele>
        <time>2020-05-31T05:36:00Z</time>
      </trkpt>
      <trkpt lat="44.07532" lon="1.63652">
        <ele>12300</ele>
        <time>2020-05-31T05:36:01Z</time>
      </trkpt>
      <trkpt lat="44.07531" lon="1.63659">
        <ele>12300</ele>
        <time>2020-05-31T05:36:02Z</time>
      </trkpt>
      <trkpt lat="44.0753" lon="1.63666">
        <ele>12300</ele>
        <time>2020-05-31T05:36:03Z</time>
      </trkpt>
      <trkpt lat="44.07529" lon="1.63672">
        <ele>12300</ele>
        <time>2020-05-31T05:36:04Z</time>
      </trkpt>
      <trkpt lat="44.07528" lon="1.63678">
        <ele>12300</ele>
        <time>2020-05-31T05:36:05Z</time>
      </trkpt>
      <trkpt lat="44.07527" lon="1.63683">
        <ele>12400</ele>
        <time>2020-05-31T05:36:06Z</time>
      </trkpt>
      <trkpt lat="44.07526" lon="1.63689">
        <ele>12400</ele>
        <time>2020-05-31T05:36:07Z</time>
      </trkpt>
      <trkpt lat="44.07525" lon="1.63694">
        <ele>12400</ele>
        <time>2020-05-31T05:36:08Z</time>
      </trkpt>
      <trkpt lat="44.07525" lon="1.63699">
        <ele>12400</ele>
        <time>2020-05-31T05:36:09Z</time>
      </trkpt>
      <trkpt lat="44.07525" lon="1.63704">
        <ele>12400</ele>
        <time>2020-05-31T05:36:10Z</time>
      </trkpt>
      <trkpt lat="44.07524" lon="1.63709">
        <ele>12400</ele>
        <time>2020-05-31T05:36:11Z</time>
      </trkpt>
      <trkpt lat="44.07524" lon="1.63714">
        <ele>12400</ele>
        <time>2020-05-31T05:36:12Z</time>
      </trkpt>
      <trkpt lat="44.07525" lon="1.63719">
        <ele>12400</ele>
        <time>2020-05-31T05:36:13Z</time>
      </trkpt>
      <trkpt lat="44.07525" lon="1.63724">
        <ele>12500</ele>
        <time>2020-05-31T05:36:14Z</time>
      </trkpt>
      <trkpt lat="44.07525" lon="1.63728">
        <ele>12500</ele>
        <time>2020-05-31T05:36:15Z</time>
      </trkpt>
      <trkpt lat="44.07525" lon="1.63733">
        <ele>12500</ele>
        <time>2020-05-31T05:36:16Z</time>
      </trkpt>
      <trkpt lat="44.07525" lon="1.63737">
        <ele>12500</ele>
        <time>2020-05-31T05:36:17Z</time>
      </trkpt>
      <trkpt lat="44.07525" lon="1.63742">
        <ele>12600</ele>
        <time>2020-05-31T05:36:18Z</time>
      </trkpt>
      <trkpt lat="44.07525" lon="1.63746">
        <ele>12600</ele>
        <time>2020-05-31T05:36:19Z</time>
      </trkpt>
      <trkpt lat="44.07525" lon="1.6375">
        <ele>12600</ele>
        <time>2020-05-31T05:36:20Z</time>
      </trkpt>
      <trkpt lat="44.07525" lon="1.63754">
        <ele>12600</ele>
        <time>2020-05-31T05:36:21Z</time>
      </trkpt>
      <trkpt lat="44.07525" lon="1.63758">
        <ele>12600</ele>
        <time>2020-05-31T05:36:22Z</time>
      </trkpt>
      <trkpt lat="44.07526" lon="1.63761">
        <ele>12700</ele>
        <time>2020-05-31T05:36:23Z</time>
      </trkpt>
      <trkpt lat="44.07526" lon="1.63766">
        <ele>12700</ele>
        <time>2020-05-31T05:36:24Z</time>
      </trkpt>
      <trkpt lat="44.07526" lon="1.6377">
        <ele>12700</ele>
        <time>2020-05-31T05:36:25Z</time>
      </trkpt>
      <trkpt lat="44.07527" lon="1.63774">
        <ele>12700</ele>
        <time>2020-05-31T05:36:26Z</time>
      </trkpt>
      <trkpt lat="44.07527" lon="1.63779">
        <ele>12700</ele>
        <time>2020-05-31T05:36:27Z</time>
      </trkpt>
      <trkpt lat="44.07526" lon="1.63783">
        <ele>12700</ele>
        <time>2020-05-31T05:36:28Z</time>
      </trkpt>
      <trkpt lat="44.07526" lon="1.63788">
        <ele>12800</ele>
        <time>2020-05-31T05:36:29Z</time>
      </trkpt>
      <trkpt lat="44.07526" lon="1.63793">
        <ele>12800</ele>
        <time>2020-05-31T05:36:30Z</time>
      </trkpt>
      <trkpt lat="44.07525" lon="1.63798">
        <ele>12800</ele>
        <time>2020-05-31T05:36:31Z</time>
      </trkpt>
      <trkpt lat="44.07525" lon="1.63803">
        <ele>12800</ele>
        <time>2020-05-31T05:36:32Z</time>
      </trkpt>
      <trkpt lat="44.07524" lon="1.63808">
        <ele>12800</ele>
        <time>2020-05-31T05:36:33Z</time>
      </trkpt>
      <trkpt lat="44.07523" lon="1.63813">
        <ele>12800</ele>
        <time>2020-05-31T05:36:34Z</time>
      </trkpt>
      <trkpt lat="44.07523" lon="1.63818">
        <ele>12800</ele>
        <time>2020-05-31T05:36:35Z</time>
      </trkpt>
      <trkpt lat="44.07523" lon="1.63824">
        <ele>12800</ele>
        <time>2020-05-31T05:36:36Z</time>
      </trkpt>
      <trkpt lat="44.07523" lon="1.63829">
        <ele>12800</ele>
        <time>2020-05-31T05:36:37Z</time>
      </trkpt>
      <trkpt lat="44.07523" lon="1.63835">
        <ele>12800</ele>
        <time>2020-05-31T05:36:38Z</time>
      </trkpt>
      <trkpt lat="44.07523" lon="1.63841">
        <ele>12800</ele>
        <time>2020-05-31T05:36:39Z</time>
      </trkpt>
      <trkpt lat="44.07524" lon="1.63848">
        <ele>12800</ele>
        <time>2020-05-31T05:36:40Z</time>
      </trkpt>
      <trkpt lat="44.07524" lon="1.63854">
        <ele>12800</ele>
        <time>2020-05-31T05:36:41Z</time>
      </trkpt>
      <trkpt lat="44.07525" lon="1.63861">
        <ele>12800</ele>
        <time>2020-05-31T05:36:42Z</time>
      </trkpt>
      <trkpt lat="44.07525" lon="1.63868">
        <ele>12800</ele>
        <time>2020-05-31T05:36:43Z</time>
      </trkpt>
      <trkpt lat="44.07526" lon="1.63875">
        <ele>12800</ele>
        <time>2020-05-31T05:36:44Z</time>
      </trkpt>
      <trkpt lat="44.07527" lon="1.63882">
        <ele>12800</ele>
        <time>2020-05-31T05:36:45Z</time>
      </trkpt>
      <trkpt lat="44.07528" lon="1.63889">
        <ele>12800</ele>
        <time>2020-05-31T05:36:46Z</time>
      </trkpt>
      <trkpt lat="44.07531" lon="1.63897">
        <ele>12700</ele>
        <time>2020-05-31T05:36:47Z</time>
      </trkpt>
      <trkpt lat="44.07534" lon="1.63904">
        <ele>12700</ele>
        <time>2020-05-31T05:36:48Z</time>
      </trkpt>
      <trkpt lat="44.07537" lon="1.63913">
        <ele>12700</ele>
        <time>2020-05-31T05:36:49Z</time>
      </trkpt>
      <trkpt lat="44.0754" lon="1.63921">
        <ele>12600</ele>
        <time>2020-05-31T05:36:50Z</time>
      </trkpt>
      <trkpt lat="44.07544" lon="1.6393">
        <ele>12600</ele>
        <time>2020-05-31T05:36:51Z</time>
      </trkpt>
      <trkpt lat="44.07547" lon="1.63939">
        <ele>12500</ele>
        <time>2020-05-31T05:36:52Z</time>
      </trkpt>
      <trkpt lat="44.07552" lon="1.63949">
        <ele>12500</ele>
        <time>2020-05-31T05:36:53Z</time>
      </trkpt>
      <trkpt lat="44.07555" lon="1.63959">
        <ele>12500</ele>
        <time>2020-05-31T05:36:54Z</time>
      </trkpt>
      <trkpt lat="44.07558" lon="1.63969">
        <ele>12400</ele>
        <time>2020-05-31T05:36:55Z</time>
      </trkpt>
      <trkpt lat="44.07561" lon="1.63979">
        <ele>12400</ele>
        <time>2020-05-31T05:36:56Z</time>
      </trkpt>
      <trkpt lat="44.07563" lon="1.63988">
        <ele>12400</ele>
        <time>2020-05-31T05:36:57Z</time>
      </trkpt>
      <trkpt lat="44.07565" lon="1.63998">
        <ele>12400</ele>
        <time>2020-05-31T05:36:59Z</time>
      </trkpt>
      <trkpt lat="44.07566" lon="1.64007">
        <ele>12400</ele>
        <time>2020-05-31T05:36:59Z</time>
      </trkpt>
      <trkpt lat="44.07566" lon="1.64016">
        <ele>12500</ele>
        <time>2020-05-31T05:37:00Z</time>
      </trkpt>
      <trkpt lat="44.07566" lon="1.64025">
        <ele>12500</ele>
        <time>2020-05-31T05:37:01Z</time>
      </trkpt>
      <trkpt lat="44.07565" lon="1.64033">
        <ele>12500</ele>
        <time>2020-05-31T05:37:02Z</time>
      </trkpt>
      <trkpt lat="44.07565" lon="1.6404">
        <ele>12500</ele>
        <time>2020-05-31T05:37:03Z</time>
      </trkpt>
      <trkpt lat="44.07565" lon="1.64046">
        <ele>12600</ele>
        <time>2020-05-31T05:37:04Z</time>
      </trkpt>
      <trkpt lat="44.07564" lon="1.64052">
        <ele>12600</ele>
        <time>2020-05-31T05:37:05Z</time>
      </trkpt>
      <trkpt lat="44.07564" lon="1.64058">
        <ele>12600</ele>
        <time>2020-05-31T05:37:06Z</time>
      </trkpt>
      <trkpt lat="44.07563" lon="1.64063">
        <ele>12600</ele>
        <time>2020-05-31T05:37:07Z</time>
      </trkpt>
      <trkpt lat="44.07562" lon="1.64067">
        <ele>12700</ele>
        <time>2020-05-31T05:37:08Z</time>
      </trkpt>
      <trkpt lat="44.07562" lon="1.64072">
        <ele>12700</ele>
        <time>2020-05-31T05:37:09Z</time>
      </trkpt>
      <trkpt lat="44.07561" lon="1.64076">
        <ele>12700</ele>
        <time>2020-05-31T05:37:10Z</time>
      </trkpt>
      <trkpt lat="44.07561" lon="1.6408">
        <ele>12700</ele>
        <time>2020-05-31T05:37:11Z</time>
      </trkpt>
      <trkpt lat="44.07561" lon="1.64084">
        <ele>12800</ele>
        <time>2020-05-31T05:37:12Z</time>
      </trkpt>
      <trkpt lat="44.0756" lon="1.64089">
        <ele>12800</ele>
        <time>2020-05-31T05:37:13Z</time>
      </trkpt>
      <trkpt lat="44.07559" lon="1.64092">
        <ele>12800</ele>
        <time>2020-05-31T05:37:14Z</time>
      </trkpt>
      <trkpt lat="44.07558" lon="1.64096">
        <ele>12800</ele>
        <time>2020-05-31T05:37:15Z</time>
      </trkpt>
      <trkpt lat="44.07557" lon="1.64099">
        <ele>12900</ele>
        <time>2020-05-31T05:37:16Z</time>
      </trkpt>
      <trkpt lat="44.07556" lon="1.64103">
        <ele>12900</ele>
        <time>2020-05-31T05:37:17Z</time>
      </trkpt>
      <trkpt lat="44.07555" lon="1.64107">
        <ele>12900</ele>
        <time>2020-05-31T05:37:18Z</time>
      </trkpt>
      <trkpt lat="44.07555" lon="1.6411">
        <ele>12900</ele>
        <time>2020-05-31T05:37:19Z</time>
      </trkpt>
      <trkpt lat="44.07555" lon="1.64114">
        <ele>12900</ele>
        <time>2020-05-31T05:37:20Z</time>
      </trkpt>
      <trkpt lat="44.07554" lon="1.64117">
        <ele>12900</ele>
        <time>2020-05-31T05:37:21Z</time>
      </trkpt>
      <trkpt lat="44.07554" lon="1.64121">
        <ele>12900</ele>
        <time>2020-05-31T05:37:22Z</time>
      </trkpt>
      <trkpt lat="44.07554" lon="1.64124">
        <ele>13000</ele>
        <time>2020-05-31T05:37:23Z</time>
      </trkpt>
      <trkpt lat="44.07554" lon="1.64128">
        <ele>13000</ele>
        <time>2020-05-31T05:37:24Z</time>
      </trkpt>
      <trkpt lat="44.07554" lon="1.64131">
        <ele>13000</ele>
        <time>2020-05-31T05:37:25Z</time>
      </trkpt>
      <trkpt lat="44.07554" lon="1.64135">
        <ele>13000</ele>
        <time>2020-05-31T05:37:26Z</time>
      </trkpt>
      <trkpt lat="44.07554" lon="1.64139">
        <ele>13000</ele>
        <time>2020-05-31T05:37:27Z</time>
      </trkpt>
      <trkpt lat="44.07553" lon="1.64143">
        <ele>13100</ele>
        <time>2020-05-31T05:37:28Z</time>
      </trkpt>
      <trkpt lat="44.07552" lon="1.64146">
        <ele>13100</ele>
        <time>2020-05-31T05:37:29Z</time>
      </trkpt>
      <trkpt lat="44.07552" lon="1.6415">
        <ele>13100</ele>
        <time>2020-05-31T05:37:30Z</time>
      </trkpt>
      <trkpt lat="44.07552" lon="1.64155">
        <ele>13100</ele>
        <time>2020-05-31T05:37:31Z</time>
      </trkpt>
      <trkpt lat="44.07551" lon="1.64159">
        <ele>13100</ele>
        <time>2020-05-31T05:37:32Z</time>
      </trkpt>
      <trkpt lat="44.0755" lon="1.64163">
        <ele>13100</ele>
        <time>2020-05-31T05:37:33Z</time>
      </trkpt>
      <trkpt lat="44.0755" lon="1.64167">
        <ele>13100</ele>
        <time>2020-05-31T05:37:34Z</time>
      </trkpt>
      <trkpt lat="44.07549" lon="1.64171">
        <ele>13200</ele>
        <time>2020-05-31T05:37:35Z</time>
      </trkpt>
      <trkpt lat="44.07549" lon="1.64176">
        <ele>13200</ele>
        <time>2020-05-31T05:37:36Z</time>
      </trkpt>
      <trkpt lat="44.07547" lon="1.6418">
        <ele>13200</ele>
        <time>2020-05-31T05:37:37Z</time>
      </trkpt>
      <trkpt lat="44.07546" lon="1.64184">
        <ele>13200</ele>
        <time>2020-05-31T05:37:38Z</time>
      </trkpt>
      <trkpt lat="44.07546" lon="1.64189">
        <ele>13200</ele>
        <time>2020-05-31T05:37:39Z</time>
      </trkpt>
      <trkpt lat="44.07545" lon="1.64193">
        <ele>13200</ele>
        <time>2020-05-31T05:37:40Z</time>
      </trkpt>
      <trkpt lat="44.07544" lon="1.64197">
        <ele>13200</ele>
        <time>2020-05-31T05:37:41Z</time>
      </trkpt>
      <trkpt lat="44.07543" lon="1.64201">
        <ele>13300</ele>
        <time>2020-05-31T05:37:42Z</time>
      </trkpt>
      <trkpt lat="44.07543" lon="1.64205">
        <ele>13300</ele>
        <time>2020-05-31T05:37:43Z</time>
      </trkpt>
      <trkpt lat="44.07542" lon="1.6421">
        <ele>13300</ele>
        <time>2020-05-31T05:37:44Z</time>
      </trkpt>
      <trkpt lat="44.07542" lon="1.64214">
        <ele>13300</ele>
        <time>2020-05-31T05:37:45Z</time>
      </trkpt>
      <trkpt lat="44.07541" lon="1.64219">
        <ele>13300</ele>
        <time>2020-05-31T05:37:46Z</time>
      </trkpt>
      <trkpt lat="44.0754" lon="1.64223">
        <ele>13300</ele>
        <time>2020-05-31T05:37:47Z</time>
      </trkpt>
      <trkpt lat="44.0754" lon="1.64228">
        <ele>13300</ele>
        <time>2020-05-31T05:37:48Z</time>
      </trkpt>
      <trkpt lat="44.07539" lon="1.64233">
        <ele>13400</ele>
        <time>2020-05-31T05:37:49Z</time>
      </trkpt>
      <trkpt lat="44.07538" lon="1.64237">
        <ele>13400</ele>
        <time>2020-05-31T05:37:50Z</time>
      </trkpt>
      <trkpt lat="44.07536" lon="1.64242">
        <ele>13400</ele>
        <time>2020-05-31T05:37:51Z</time>
      </trkpt>
      <trkpt lat="44.07535" lon="1.64247">
        <ele>13400</ele>
        <time>2020-05-31T05:37:52Z</time>
      </trkpt>
      <trkpt lat="44.07534" lon="1.64251">
        <ele>13400</ele>
        <time>2020-05-31T05:37:53Z</time>
      </trkpt>
      <trkpt lat="44.07533" lon="1.64256">
        <ele>13500</ele>
        <time>2020-05-31T05:37:54Z</time>
      </trkpt>
      <trkpt lat="44.07532" lon="1.64261">
        <ele>13500</ele>
        <time>2020-05-31T05:37:55Z</time>
      </trkpt>
      <trkpt lat="44.07531" lon="1.64265">
        <ele>13500</ele>
        <time>2020-05-31T05:37:56Z</time>
      </trkpt>
      <trkpt lat="44.07531" lon="1.6427">
        <ele>13500</ele>
        <time>2020-05-31T05:37:57Z</time>
      </trkpt>
      <trkpt lat="44.0753" lon="1.64274">
        <ele>13500</ele>
        <time>2020-05-31T05:37:58Z</time>
      </trkpt>
      <trkpt lat="44.07529" lon="1.64279">
        <ele>13500</ele>
        <time>2020-05-31T05:37:59Z</time>
      </trkpt>
      <trkpt lat="44.07529" lon="1.64283">
        <ele>13500</ele>
        <time>2020-05-31T05:38:00Z</time>
      </trkpt>
      <trkpt lat="44.07528" lon="1.64288">
        <ele>13500</ele>
        <time>2020-05-31T05:38:01Z</time>
      </trkpt>
      <trkpt lat="44.07528" lon="1.64292">
        <ele>13500</ele>
        <time>2020-05-31T05:38:02Z</time>
      </trkpt>
      <trkpt lat="44.07528" lon="1.64297">
        <ele>13500</ele>
        <time>2020-05-31T05:38:03Z</time>
      </trkpt>
      <trkpt lat="44.07528" lon="1.64301">
        <ele>13600</ele>
        <time>2020-05-31T05:38:04Z</time>
      </trkpt>
      <trkpt lat="44.07528" lon="1.64306">
        <ele>13600</ele>
        <time>2020-05-31T05:38:05Z</time>
      </trkpt>
      <trkpt lat="44.07528" lon="1.6431">
        <ele>13600</ele>
        <time>2020-05-31T05:38:06Z</time>
      </trkpt>
      <trkpt lat="44.07528" lon="1.64314">
        <ele>13600</ele>
        <time>2020-05-31T05:38:07Z</time>
      </trkpt>
      <trkpt lat="44.07529" lon="1.64318">
        <ele>13700</ele>
        <time>2020-05-31T05:38:08Z</time>
      </trkpt>
      <trkpt lat="44.0753" lon="1.64322">
        <ele>13700</ele>
        <time>2020-05-31T05:38:09Z</time>
      </trkpt>
      <trkpt lat="44.07531" lon="1.64325">
        <ele>13700</ele>
        <time>2020-05-31T05:38:10Z</time>
      </trkpt>
      <trkpt lat="44.07531" lon="1.64329">
        <ele>13700</ele>
        <time>2020-05-31T05:38:11Z</time>
      </trkpt>
      <trkpt lat="44.07533" lon="1.64333">
        <ele>13700</ele>
        <time>2020-05-31T05:38:12Z</time>
      </trkpt>
      <trkpt lat="44.07533" lon="1.64337">
        <ele>13800</ele>
        <time>2020-05-31T05:38:13Z</time>
      </trkpt>
      <trkpt lat="44.07534" lon="1.64342">
        <ele>13800</ele>
        <time>2020-05-31T05:38:14Z</time>
      </trkpt>
      <trkpt lat="44.07534" lon="1.64346">
        <ele>13800</ele>
        <time>2020-05-31T05:38:15Z</time>
      </trkpt>
      <trkpt lat="44.07534" lon="1.64351">
        <ele>13800</ele>
        <time>2020-05-31T05:38:16Z</time>
      </trkpt>
      <trkpt lat="44.07534" lon="1.64357">
        <ele>13800</ele>
        <time>2020-05-31T05:38:17Z</time>
      </trkpt>
      <trkpt lat="44.07534" lon="1.64363">
        <ele>13800</ele>
        <time>2020-05-31T05:38:18Z</time>
      </trkpt>
      <trkpt lat="44.07534" lon="1.64369">
        <ele>13800</ele>
        <time>2020-05-31T05:38:19Z</time>
      </trkpt>
      <trkpt lat="44.07534" lon="1.64377">
        <ele>13600</ele>
        <time>2020-05-31T05:38:20Z</time>
      </trkpt>
      <trkpt lat="44.07533" lon="1.64385">
        <ele>13600</ele>
        <time>2020-05-31T05:38:21Z</time>
      </trkpt>
      <trkpt lat="44.07533" lon="1.64394">
        <ele>13500</ele>
        <time>2020-05-31T05:38:22Z</time>
      </trkpt>
      <trkpt lat="44.07531" lon="1.64403">
        <ele>13500</ele>
        <time>2020-05-31T05:38:22Z</time>
      </trkpt>
      <trkpt lat="44.07531" lon="1.64413">
        <ele>13400</ele>
        <time>2020-05-31T05:38:23Z</time>
      </trkpt>
      <trkpt lat="44.0753" lon="1.64423">
        <ele>13400</ele>
        <time>2020-05-31T05:38:24Z</time>
      </trkpt>
      <trkpt lat="44.07529" lon="1.64434">
        <ele>13200</ele>
        <time>2020-05-31T05:38:25Z</time>
      </trkpt>
      <trkpt lat="44.07528" lon="1.64445">
        <ele>13200</ele>
        <time>2020-05-31T05:38:26Z</time>
      </trkpt>
      <trkpt lat="44.07528" lon="1.64456">
        <ele>13200</ele>
        <time>2020-05-31T05:38:27Z</time>
      </trkpt>
      <trkpt lat="44.07526" lon="1.64466">
        <ele>13000</ele>
        <time>2020-05-31T05:38:28Z</time>
      </trkpt>
      <trkpt lat="44.07525" lon="1.64477">
        <ele>13000</ele>
        <time>2020-05-31T05:38:29Z</time>
      </trkpt>
      <trkpt lat="44.07522" lon="1.64487">
        <ele>12900</ele>
        <time>2020-05-31T05:38:30Z</time>
      </trkpt>
      <trkpt lat="44.07518" lon="1.64496">
        <ele>12900</ele>
        <time>2020-05-31T05:38:31Z</time>
      </trkpt>
      <trkpt lat="44.07513" lon="1.64506">
        <ele>12700</ele>
        <time>2020-05-31T05:38:32Z</time>
      </trkpt>
      <trkpt lat="44.07509" lon="1.64515">
        <ele>12700</ele>
        <time>2020-05-31T05:38:33Z</time>
      </trkpt>
      <trkpt lat="44.07504" lon="1.64524">
        <ele>12600</ele>
        <time>2020-05-31T05:38:34Z</time>
      </trkpt>
      <trkpt lat="44.07498" lon="1.64533">
        <ele>12600</ele>
        <time>2020-05-31T05:38:35Z</time>
      </trkpt>
      <trkpt lat="44.07492" lon="1.64543">
        <ele>12500</ele>
        <time>2020-05-31T05:38:36Z</time>
      </trkpt>
      <trkpt lat="44.07488" lon="1.64553">
        <ele>12500</ele>
        <time>2020-05-31T05:38:37Z</time>
      </trkpt>
      <trkpt lat="44.07482" lon="1.64563">
        <ele>12400</ele>
        <time>2020-05-31T05:38:38Z</time>
      </trkpt>
      <trkpt lat="44.07477" lon="1.64573">
        <ele>12300</ele>
        <time>2020-05-31T05:38:39Z</time>
      </trkpt>
      <trkpt lat="44.07471" lon="1.64583">
        <ele>12200</ele>
        <time>2020-05-31T05:38:40Z</time>
      </trkpt>
      <trkpt lat="44.07465" lon="1.64593">
        <ele>12100</ele>
        <time>2020-05-31T05:38:41Z</time>
      </trkpt>
      <trkpt lat="44.0746" lon="1.64602">
        <ele>12000</ele>
        <time>2020-05-31T05:38:42Z</time>
      </trkpt>
      <trkpt lat="44.07454" lon="1.64612">
        <ele>11900</ele>
        <time>2020-05-31T05:38:43Z</time>
      </trkpt>
      <trkpt lat="44.07449" lon="1.64622">
        <ele>11800</ele>
        <time>2020-05-31T05:38:44Z</time>
      </trkpt>
      <trkpt lat="44.07444" lon="1.64632">
        <ele>11700</ele>
        <time>2020-05-31T05:38:45Z</time>
      </trkpt>
      <trkpt lat="44.07438" lon="1.64642">
        <ele>11600</ele>
        <time>2020-05-31T05:38:46Z</time>
      </trkpt>
      <trkpt lat="44.07434" lon="1.64653">
        <ele>11500</ele>
        <time>2020-05-31T05:38:47Z</time>
      </trkpt>
      <trkpt lat="44.07431" lon="1.64664">
        <ele>11400</ele>
        <time>2020-05-31T05:38:48Z</time>
      </trkpt>
      <trkpt lat="44.07427" lon="1.64676">
        <ele>11400</ele>
        <time>2020-05-31T05:38:49Z</time>
      </trkpt>
      <trkpt lat="44.07423" lon="1.64688">
        <ele>11200</ele>
        <time>2020-05-31T05:38:50Z</time>
      </trkpt>
      <trkpt lat="44.07419" lon="1.647">
        <ele>11200</ele>
        <time>2020-05-31T05:38:51Z</time>
      </trkpt>
      <trkpt lat="44.07415" lon="1.64712">
        <ele>11100</ele>
        <time>2020-05-31T05:38:52Z</time>
      </trkpt>
      <trkpt lat="44.0741" lon="1.64724">
        <ele>11100</ele>
        <time>2020-05-31T05:38:53Z</time>
      </trkpt>
      <trkpt lat="44.07405" lon="1.64734">
        <ele>11100</ele>
        <time>2020-05-31T05:38:54Z</time>
      </trkpt>
      <trkpt lat="44.074" lon="1.64744">
        <ele>11100</ele>
        <time>2020-05-31T05:38:55Z</time>
      </trkpt>
      <trkpt lat="44.07395" lon="1.64754">
        <ele>11100</ele>
        <time>2020-05-31T05:38:56Z</time>
      </trkpt>
      <trkpt lat="44.0739" lon="1.64764">
        <ele>11100</ele>
        <time>2020-05-31T05:38:57Z</time>
      </trkpt>
      <trkpt lat="44.07386" lon="1.64772">
        <ele>11100</ele>
        <time>2020-05-31T05:38:58Z</time>
      </trkpt>
      <trkpt lat="44.07381" lon="1.64781">
        <ele>11100</ele>
        <time>2020-05-31T05:38:59Z</time>
      </trkpt>
      <trkpt lat="44.07377" lon="1.64788">
        <ele>11100</ele>
        <time>2020-05-31T05:39:00Z</time>
      </trkpt>
      <trkpt lat="44.07374" lon="1.64795">
        <ele>11200</ele>
        <time>2020-05-31T05:39:01Z</time>
      </trkpt>
      <trkpt lat="44.0737" lon="1.64802">
        <ele>11200</ele>
        <time>2020-05-31T05:39:02Z</time>
      </trkpt>
      <trkpt lat="44.07367" lon="1.64809">
        <ele>11200</ele>
        <time>2020-05-31T05:39:03Z</time>
      </trkpt>
      <trkpt lat="44.07365" lon="1.64815">
        <ele>11200</ele>
        <time>2020-05-31T05:39:04Z</time>
      </trkpt>
      <trkpt lat="44.07362" lon="1.64821">
        <ele>11200</ele>
        <time>2020-05-31T05:39:05Z</time>
      </trkpt>
      <trkpt lat="44.07359" lon="1.64827">
        <ele>11200</ele>
        <time>2020-05-31T05:39:06Z</time>
      </trkpt>
      <trkpt lat="44.07357" lon="1.64832">
        <ele>11200</ele>
        <time>2020-05-31T05:39:07Z</time>
      </trkpt>
      <trkpt lat="44.07354" lon="1.64837">
        <ele>11200</ele>
        <time>2020-05-31T05:39:08Z</time>
      </trkpt>
      <trkpt lat="44.07351" lon="1.64841">
        <ele>11200</ele>
        <time>2020-05-31T05:39:09Z</time>
      </trkpt>
      <trkpt lat="44.07348" lon="1.64845">
        <ele>11200</ele>
        <time>2020-05-31T05:39:10Z</time>
      </trkpt>
      <trkpt lat="44.07345" lon="1.6485">
        <ele>11200</ele>
        <time>2020-05-31T05:39:11Z</time>
      </trkpt>
      <trkpt lat="44.07341" lon="1.64855">
        <ele>11100</ele>
        <time>2020-05-31T05:39:12Z</time>
      </trkpt>
      <trkpt lat="44.07336" lon="1.64862">
        <ele>11000</ele>
        <time>2020-05-31T05:39:13Z</time>
      </trkpt>
      <trkpt lat="44.07332" lon="1.64868">
        <ele>10900</ele>
        <time>2020-05-31T05:39:14Z</time>
      </trkpt>
      <trkpt lat="44.07326" lon="1.64875">
        <ele>10800</ele>
        <time>2020-05-31T05:39:15Z</time>
      </trkpt>
      <trkpt lat="44.07319" lon="1.64881">
        <ele>10600</ele>
        <time>2020-05-31T05:39:16Z</time>
      </trkpt>
      <trkpt lat="44.07312" lon="1.64887">
        <ele>10500</ele>
        <time>2020-05-31T05:39:17Z</time>
      </trkpt>
      <trkpt lat="44.07304" lon="1.64894">
        <ele>10400</ele>
        <time>2020-05-31T05:39:18Z</time>
      </trkpt>
      <trkpt lat="44.07296" lon="1.64901">
        <ele>10300</ele>
        <time>2020-05-31T05:39:19Z</time>
      </trkpt>
      <trkpt lat="44.07288" lon="1.6491">
        <ele>10300</ele>
        <time>2020-05-31T05:39:20Z</time>
      </trkpt>
      <trkpt lat="44.0728" lon="1.64919">
        <ele>10100</ele>
        <time>2020-05-31T05:39:21Z</time>
      </trkpt>
      <trkpt lat="44.07272" lon="1.64929">
        <ele>10000</ele>
        <time>2020-05-31T05:39:22Z</time>
      </trkpt>
      <trkpt lat="44.07264" lon="1.64939">
        <ele>10000</ele>
        <time>2020-05-31T05:39:23Z</time>
      </trkpt>
      <trkpt lat="44.07256" lon="1.6495">
        <ele>9900</ele>
        <time>2020-05-31T05:39:24Z</time>
      </trkpt>
      <trkpt lat="44.07248" lon="1.64961">
        <ele>9900</ele>
        <time>2020-05-31T05:39:25Z</time>
      </trkpt>
      <trkpt lat="44.0724" lon="1.64972">
        <ele>9900</ele>
        <time>2020-05-31T05:39:26Z</time>
      </trkpt>
      <trkpt lat="44.07232" lon="1.64983">
        <ele>9900</ele>
        <time>2020-05-31T05:39:27Z</time>
      </trkpt>
      <trkpt lat="44.07224" lon="1.64993">
        <ele>9900</ele>
        <time>2020-05-31T05:39:28Z</time>
      </trkpt>
      <trkpt lat="44.07216" lon="1.65004">
        <ele>9800</ele>
        <time>2020-05-31T05:39:29Z</time>
      </trkpt>
      <trkpt lat="44.07209" lon="1.65015">
        <ele>9800</ele>
        <time>2020-05-31T05:39:30Z</time>
      </trkpt>
      <trkpt lat="44.07203" lon="1.65025">
        <ele>9800</ele>
        <time>2020-05-31T05:39:31Z</time>
      </trkpt>
      <trkpt lat="44.07197" lon="1.65036">
        <ele>9800</ele>
        <time>2020-05-31T05:39:32Z</time>
      </trkpt>
      <trkpt lat="44.07191" lon="1.65047">
        <ele>9800</ele>
        <time>2020-05-31T05:39:33Z</time>
      </trkpt>
      <trkpt lat="44.07185" lon="1.65057">
        <ele>9800</ele>
        <time>2020-05-31T05:39:34Z</time>
      </trkpt>
      <trkpt lat="44.0718" lon="1.65067">
        <ele>9800</ele>
        <time>2020-05-31T05:39:35Z</time>
      </trkpt>
      <trkpt lat="44.07175" lon="1.65076">
        <ele>9800</ele>
        <time>2020-05-31T05:39:36Z</time>
      </trkpt>
      <trkpt lat="44.07171" lon="1.65085">
        <ele>9800</ele>
        <time>2020-05-31T05:39:37Z</time>
      </trkpt>
      <trkpt lat="44.07166" lon="1.65094">
        <ele>9800</ele>
        <time>2020-05-31T05:39:38Z</time>
      </trkpt>
      <trkpt lat="44.07162" lon="1.65103">
        <ele>9800</ele>
        <time>2020-05-31T05:39:39Z</time>
      </trkpt>
      <trkpt lat="44.07158" lon="1.65111">
        <ele>9800</ele>
        <time>2020-05-31T05:39:40Z</time>
      </trkpt>
      <trkpt lat="44.07154" lon="1.65118">
        <ele>9800</ele>
        <time>2020-05-31T05:39:41Z</time>
      </trkpt>
      <trkpt lat="44.07151" lon="1.65125">
        <ele>9800</ele>
        <time>2020-05-31T05:39:42Z</time>
      </trkpt>
      <trkpt lat="44.07148" lon="1.65132">
        <ele>9900</ele>
        <time>2020-05-31T05:39:43Z</time>
      </trkpt>
      <trkpt lat="44.07145" lon="1.65137">
        <ele>9900</ele>
        <time>2020-05-31T05:39:44Z</time>
      </trkpt>
      <trkpt lat="44.07143" lon="1.65143">
        <ele>10000</ele>
        <time>2020-05-31T05:39:45Z</time>
      </trkpt>
      <trkpt lat="44.0714" lon="1.65148">
        <ele>10000</ele>
        <time>2020-05-31T05:39:46Z</time>
      </trkpt>
      <trkpt lat="44.07138" lon="1.65152">
        <ele>10000</ele>
        <time>2020-05-31T05:39:47Z</time>
      </trkpt>
      <trkpt lat="44.07136" lon="1.65157">
        <ele>10100</ele>
        <time>2020-05-31T05:39:48Z</time>
      </trkpt>
      <trkpt lat="44.07135" lon="1.65161">
        <ele>10100</ele>
        <time>2020-05-31T05:39:49Z</time>
      </trkpt>
      <trkpt lat="44.07133" lon="1.65164">
        <ele>10100</ele>
        <time>2020-05-31T05:39:50Z</time>
      </trkpt>
      <trkpt lat="44.07131" lon="1.65168">
        <ele>10100</ele>
        <time>2020-05-31T05:39:51Z</time>
      </trkpt>
      <trkpt lat="44.07129" lon="1.65171">
        <ele>10100</ele>
        <time>2020-05-31T05:39:52Z</time>
      </trkpt>
      <trkpt lat="44.07127" lon="1.65174">
        <ele>10100</ele>
        <time>2020-05-31T05:39:53Z</time>
      </trkpt>
      <trkpt lat="44.07126" lon="1.65177">
        <ele>10100</ele>
        <time>2020-05-31T05:39:54Z</time>
      </trkpt>
      <trkpt lat="44.07124" lon="1.6518">
        <ele>10100</ele>
        <time>2020-05-31T05:39:55Z</time>
      </trkpt>
      <trkpt lat="44.07121" lon="1.65183">
        <ele>10100</ele>
        <time>2020-05-31T05:39:56Z</time>
      </trkpt>
      <trkpt lat="44.07119" lon="1.65185">
        <ele>10100</ele>
        <time>2020-05-31T05:39:57Z</time>
      </trkpt>
      <trkpt lat="44.07117" lon="1.65189">
        <ele>10100</ele>
        <time>2020-05-31T05:39:58Z</time>
      </trkpt>
      <trkpt lat="44.07114" lon="1.65192">
        <ele>10100</ele>
        <time>2020-05-31T05:39:59Z</time>
      </trkpt>
      <trkpt lat="44.07111" lon="1.65196">
        <ele>10100</ele>
        <time>2020-05-31T05:40:00Z</time>
      </trkpt>
      <trkpt lat="44.07108" lon="1.652">
        <ele>10100</ele>
        <time>2020-05-31T05:40:01Z</time>
      </trkpt>
      <trkpt lat="44.07106" lon="1.65204">
        <ele>10100</ele>
        <time>2020-05-31T05:40:02Z</time>
      </trkpt>
      <trkpt lat="44.07102" lon="1.65207">
        <ele>10100</ele>
        <time>2020-05-31T05:40:03Z</time>
      </trkpt>
      <trkpt lat="44.07099" lon="1.65211">
        <ele>10100</ele>
        <time>2020-05-31T05:40:04Z</time>
      </trkpt>
      <trkpt lat="44.07096" lon="1.65215">
        <ele>10100</ele>
        <time>2020-05-31T05:40:05Z</time>
      </trkpt>
      <trkpt lat="44.07093" lon="1.65219">
        <ele>10100</ele>
        <time>2020-05-31T05:40:06Z</time>
      </trkpt>
      <trkpt lat="44.0709" lon="1.65223">
        <ele>10100</ele>
        <time>2020-05-31T05:40:07Z</time>
      </trkpt>
      <trkpt lat="44.07088" lon="1.65228">
        <ele>10100</ele>
        <time>2020-05-31T05:40:08Z</time>
      </trkpt>
      <trkpt lat="44.07085" lon="1.65232">
        <ele>10100</ele>
        <time>2020-05-31T05:40:09Z</time>
      </trkpt>
      <trkpt lat="44.07082" lon="1.65236">
        <ele>10100</ele>
        <time>2020-05-31T05:40:10Z</time>
      </trkpt>
      <trkpt lat="44.07079" lon="1.6524">
        <ele>10100</ele>
        <time>2020-05-31T05:40:11Z</time>
      </trkpt>
      <trkpt lat="44.07076" lon="1.65245">
        <ele>10100</ele>
        <time>2020-05-31T05:40:12Z</time>
      </trkpt>
      <trkpt lat="44.07073" lon="1.65249">
        <ele>10100</ele>
        <time>2020-05-31T05:40:13Z</time>
      </trkpt>
      <trkpt lat="44.07071" lon="1.65254">
        <ele>10100</ele>
        <time>2020-05-31T05:40:14Z</time>
      </trkpt>
      <trkpt lat="44.07068" lon="1.65258">
        <ele>10100</ele>
        <time>2020-05-31T05:40:15Z</time>
      </trkpt>
      <trkpt lat="44.07065" lon="1.65262">
        <ele>10100</ele>
        <time>2020-05-31T05:40:16Z</time>
      </trkpt>
      <trkpt lat="44.07062" lon="1.65267">
        <ele>10100</ele>
        <time>2020-05-31T05:40:17Z</time>
      </trkpt>
      <trkpt lat="44.07059" lon="1.65271">
        <ele>10100</ele>
        <time>2020-05-31T05:40:18Z</time>
      </trkpt>
      <trkpt lat="44.07056" lon="1.65275">
        <ele>10100</ele>
        <time>2020-05-31T05:40:19Z</time>
      </trkpt>
      <trkpt lat="44.07053" lon="1.65279">
        <ele>10100</ele>
        <time>2020-05-31T05:40:20Z</time>
      </trkpt>
      <trkpt lat="44.07051" lon="1.65284">
        <ele>10100</ele>
        <time>2020-05-31T05:40:21Z</time>
      </trkpt>
      <trkpt lat="44.07048" lon="1.65288">
        <ele>10100</ele>
        <time>2020-05-31T05:40:22Z</time>
      </trkpt>
      <trkpt lat="44.07046" lon="1.65292">
        <ele>10100</ele>
        <time>2020-05-31T05:40:23Z</time>
      </trkpt>
      <trkpt lat="44.07043" lon="1.65297">
        <ele>10100</ele>
        <time>2020-05-31T05:40:24Z</time>
      </trkpt>
      <trkpt lat="44.07041" lon="1.65302">
        <ele>10100</ele>
        <time>2020-05-31T05:40:25Z</time>
      </trkpt>
      <trkpt lat="44.07039" lon="1.65307">
        <ele>10100</ele>
        <time>2020-05-31T05:40:26Z</time>
      </trkpt>
      <trkpt lat="44.07037" lon="1.65312">
        <ele>10100</ele>
        <time>2020-05-31T05:40:27Z</time>
      </trkpt>
      <trkpt lat="44.07035" lon="1.65316">
        <ele>10100</ele>
        <time>2020-05-31T05:40:28Z</time>
      </trkpt>
      <trkpt lat="44.07033" lon="1.65321">
        <ele>10100</ele>
        <time>2020-05-31T05:40:29Z</time>
      </trkpt>
      <trkpt lat="44.07032" lon="1.65326">
        <ele>10100</ele>
        <time>2020-05-31T05:40:30Z</time>
      </trkpt>
      <trkpt lat="44.0703" lon="1.65331">
        <ele>10100</ele>
        <time>2020-05-31T05:40:31Z</time>
      </trkpt>
      <trkpt lat="44.07028" lon="1.65335">
        <ele>10100</ele>
        <time>2020-05-31T05:40:32Z</time>
      </trkpt>
      <trkpt lat="44.07027" lon="1.6534">
        <ele>10100</ele>
        <time>2020-05-31T05:40:33Z</time>
      </trkpt>
      <trkpt lat="44.07025" lon="1.65345">
        <ele>10100</ele>
        <time>2020-05-31T05:40:34Z</time>
      </trkpt>
      <trkpt lat="44.07024" lon="1.6535">
        <ele>10100</ele>
        <time>2020-05-31T05:40:35Z</time>
      </trkpt>
      <trkpt lat="44.07023" lon="1.65356">
        <ele>10200</ele>
        <time>2020-05-31T05:40:36Z</time>
      </trkpt>
      <trkpt lat="44.07022" lon="1.6536">
        <ele>10200</ele>
        <time>2020-05-31T05:40:37Z</time>
      </trkpt>
      <trkpt lat="44.07021" lon="1.65365">
        <ele>10200</ele>
        <time>2020-05-31T05:40:38Z</time>
      </trkpt>
      <trkpt lat="44.0702" lon="1.6537">
        <ele>10200</ele>
        <time>2020-05-31T05:40:39Z</time>
      </trkpt>
      <trkpt lat="44.07019" lon="1.65375">
        <ele>10200</ele>
        <time>2020-05-31T05:40:40Z</time>
      </trkpt>
      <trkpt lat="44.07017" lon="1.65379">
        <ele>10300</ele>
        <time>2020-05-31T05:40:41Z</time>
      </trkpt>
      <trkpt lat="44.07016" lon="1.65383">
        <ele>10300</ele>
        <time>2020-05-31T05:40:42Z</time>
      </trkpt>
      <trkpt lat="44.07015" lon="1.65388">
        <ele>10300</ele>
        <time>2020-05-31T05:40:43Z</time>
      </trkpt>
      <trkpt lat="44.07013" lon="1.65392">
        <ele>10300</ele>
        <time>2020-05-31T05:40:44Z</time>
      </trkpt>
      <trkpt lat="44.07012" lon="1.65396">
        <ele>10300</ele>
        <time>2020-05-31T05:40:45Z</time>
      </trkpt>
      <trkpt lat="44.07012" lon="1.654">
        <ele>10300</ele>
        <time>2020-05-31T05:40:46Z</time>
      </trkpt>
      <trkpt lat="44.07011" lon="1.65404">
        <ele>10300</ele>
        <time>2020-05-31T05:40:47Z</time>
      </trkpt>
      <trkpt lat="44.0701" lon="1.65409">
        <ele>10300</ele>
        <time>2020-05-31T05:40:48Z</time>
      </trkpt>
      <trkpt lat="44.0701" lon="1.65414">
        <ele>10400</ele>
        <time>2020-05-31T05:40:49Z</time>
      </trkpt>
      <trkpt lat="44.07009" lon="1.65419">
        <ele>10400</ele>
        <time>2020-05-31T05:40:50Z</time>
      </trkpt>
      <trkpt lat="44.07008" lon="1.65424">
        <ele>10400</ele>
        <time>2020-05-31T05:40:51Z</time>
      </trkpt>
      <trkpt lat="44.07007" lon="1.65429">
        <ele>10400</ele>
        <time>2020-05-31T05:40:52Z</time>
      </trkpt>
      <trkpt lat="44.07005" lon="1.65433">
        <ele>10400</ele>
        <time>2020-05-31T05:40:53Z</time>
      </trkpt>
      <trkpt lat="44.07003" lon="1.65438">
        <ele>10400</ele>
        <time>2020-05-31T05:40:54Z</time>
      </trkpt>
      <trkpt lat="44.07001" lon="1.65442">
        <ele>10400</ele>
        <time>2020-05-31T05:40:55Z</time>
      </trkpt>
      <trkpt lat="44.07" lon="1.65447">
        <ele>10400</ele>
        <time>2020-05-31T05:40:56Z</time>
      </trkpt>
      <trkpt lat="44.06998" lon="1.65452">
        <ele>10400</ele>
        <time>2020-05-31T05:40:57Z</time>
      </trkpt>
      <trkpt lat="44.06996" lon="1.65457">
        <ele>10400</ele>
        <time>2020-05-31T05:40:58Z</time>
      </trkpt>
      <trkpt lat="44.06994" lon="1.65461">
        <ele>10400</ele>
        <time>2020-05-31T05:40:59Z</time>
      </trkpt>
      <trkpt lat="44.06991" lon="1.65466">
        <ele>10500</ele>
        <time>2020-05-31T05:41:00Z</time>
      </trkpt>
      <trkpt lat="44.0699" lon="1.65471">
        <ele>10500</ele>
        <time>2020-05-31T05:41:01Z</time>
      </trkpt>
      <trkpt lat="44.06988" lon="1.65476">
        <ele>10500</ele>
        <time>2020-05-31T05:41:02Z</time>
      </trkpt>
      <trkpt lat="44.06986" lon="1.6548">
        <ele>10500</ele>
        <time>2020-05-31T05:41:03Z</time>
      </trkpt>
      <trkpt lat="44.06984" lon="1.65485">
        <ele>10500</ele>
        <time>2020-05-31T05:41:04Z</time>
      </trkpt>
      <trkpt lat="44.06982" lon="1.6549">
        <ele>10500</ele>
        <time>2020-05-31T05:41:05Z</time>
      </trkpt>
      <trkpt lat="44.06981" lon="1.65495">
        <ele>10500</ele>
        <time>2020-05-31T05:41:06Z</time>
      </trkpt>
      <trkpt lat="44.06979" lon="1.65499">
        <ele>10500</ele>
        <time>2020-05-31T05:41:07Z</time>
      </trkpt>
      <trkpt lat="44.06977" lon="1.65502">
        <ele>10500</ele>
        <time>2020-05-31T05:41:08Z</time>
      </trkpt>
      <trkpt lat="44.06975" lon="1.65506">
        <ele>10500</ele>
        <time>2020-05-31T05:41:09Z</time>
      </trkpt>
      <trkpt lat="44.06973" lon="1.6551">
        <ele>10500</ele>
        <time>2020-05-31T05:41:10Z</time>
      </trkpt>
      <trkpt lat="44.0697" lon="1.65514">
        <ele>10500</ele>
        <time>2020-05-31T05:41:11Z</time>
      </trkpt>
      <trkpt lat="44.06968" lon="1.65518">
        <ele>10500</ele>
        <time>2020-05-31T05:41:12Z</time>
      </trkpt>
      <trkpt lat="44.06966" lon="1.65523">
        <ele>10600</ele>
        <time>2020-05-31T05:41:13Z</time>
      </trkpt>
      <trkpt lat="44.06964" lon="1.65528">
        <ele>10600</ele>
        <time>2020-05-31T05:41:14Z</time>
      </trkpt>
      <trkpt lat="44.06962" lon="1.65533">
        <ele>10600</ele>
        <time>2020-05-31T05:41:15Z</time>
      </trkpt>
      <trkpt lat="44.06961" lon="1.65537">
        <ele>10600</ele>
        <time>2020-05-31T05:41:16Z</time>
      </trkpt>
      <trkpt lat="44.06959" lon="1.65542">
        <ele>10600</ele>
        <time>2020-05-31T05:41:17Z</time>
      </trkpt>
      <trkpt lat="44.06958" lon="1.65547">
        <ele>10600</ele>
        <time>2020-05-31T05:41:18Z</time>
      </trkpt>
      <trkpt lat="44.06956" lon="1.65552">
        <ele>10600</ele>
        <time>2020-05-31T05:41:19Z</time>
      </trkpt>
      <trkpt lat="44.06955" lon="1.65558">
        <ele>10600</ele>
        <time>2020-05-31T05:41:20Z</time>
      </trkpt>
      <trkpt lat="44.06953" lon="1.65563">
        <ele>10600</ele>
        <time>2020-05-31T05:41:21Z</time>
      </trkpt>
      <trkpt lat="44.06952" lon="1.65568">
        <ele>10600</ele>
        <time>2020-05-31T05:41:22Z</time>
      </trkpt>
      <trkpt lat="44.0695" lon="1.65573">
        <ele>10600</ele>
        <time>2020-05-31T05:41:23Z</time>
      </trkpt>
      <trkpt lat="44.06949" lon="1.65578">
        <ele>10600</ele>
        <time>2020-05-31T05:41:24Z</time>
      </trkpt>
      <trkpt lat="44.06947" lon="1.65582">
        <ele>10600</ele>
        <time>2020-05-31T05:41:25Z</time>
      </trkpt>
      <trkpt lat="44.06945" lon="1.65587">
        <ele>10600</ele>
        <time>2020-05-31T05:41:26Z</time>
      </trkpt>
      <trkpt lat="44.06944" lon="1.65592">
        <ele>10600</ele>
        <time>2020-05-31T05:41:27Z</time>
      </trkpt>
      <trkpt lat="44.06943" lon="1.65597">
        <ele>10600</ele>
        <time>2020-05-31T05:41:28Z</time>
      </trkpt>
      <trkpt lat="44.06941" lon="1.65602">
        <ele>10600</ele>
        <time>2020-05-31T05:41:29Z</time>
      </trkpt>
      <trkpt lat="44.0694" lon="1.65608">
        <ele>10600</ele>
        <time>2020-05-31T05:41:30Z</time>
      </trkpt>
      <trkpt lat="44.06938" lon="1.65613">
        <ele>10600</ele>
        <time>2020-05-31T05:41:31Z</time>
      </trkpt>
      <trkpt lat="44.06937" lon="1.65618">
        <ele>10600</ele>
        <time>2020-05-31T05:41:32Z</time>
      </trkpt>
      <trkpt lat="44.06936" lon="1.65623">
        <ele>10600</ele>
        <time>2020-05-31T05:41:33Z</time>
      </trkpt>
      <trkpt lat="44.06934" lon="1.65629">
        <ele>10600</ele>
        <time>2020-05-31T05:41:34Z</time>
      </trkpt>
      <trkpt lat="44.06933" lon="1.65634">
        <ele>10600</ele>
        <time>2020-05-31T05:41:35Z</time>
      </trkpt>
      <trkpt lat="44.06932" lon="1.65638">
        <ele>10600</ele>
        <time>2020-05-31T05:41:36Z</time>
      </trkpt>
      <trkpt lat="44.06931" lon="1.65643">
        <ele>10600</ele>
        <time>2020-05-31T05:41:37Z</time>
      </trkpt>
      <trkpt lat="44.06929" lon="1.65648">
        <ele>10600</ele>
        <time>2020-05-31T05:41:38Z</time>
      </trkpt>
      <trkpt lat="44.06928" lon="1.65652">
        <ele>10600</ele>
        <time>2020-05-31T05:41:39Z</time>
      </trkpt>
      <trkpt lat="44.06926" lon="1.65656">
        <ele>10600</ele>
        <time>2020-05-31T05:41:40Z</time>
      </trkpt>
      <trkpt lat="44.06924" lon="1.6566">
        <ele>10600</ele>
        <time>2020-05-31T05:41:41Z</time>
      </trkpt>
      <trkpt lat="44.06922" lon="1.65665">
        <ele>10600</ele>
        <time>2020-05-31T05:41:42Z</time>
      </trkpt>
      <trkpt lat="44.0692" lon="1.65669">
        <ele>10600</ele>
        <time>2020-05-31T05:41:43Z</time>
      </trkpt>
      <trkpt lat="44.06918" lon="1.65673">
        <ele>10600</ele>
        <time>2020-05-31T05:41:44Z</time>
      </trkpt>
      <trkpt lat="44.06916" lon="1.65677">
        <ele>10600</ele>
        <time>2020-05-31T05:41:45Z</time>
      </trkpt>
      <trkpt lat="44.06915" lon="1.65681">
        <ele>10600</ele>
        <time>2020-05-31T05:41:46Z</time>
      </trkpt>
      <trkpt lat="44.06913" lon="1.65686">
        <ele>10600</ele>
        <time>2020-05-31T05:41:47Z</time>
      </trkpt>
      <trkpt lat="44.06912" lon="1.6569">
        <ele>10700</ele>
        <time>2020-05-31T05:41:48Z</time>
      </trkpt>
      <trkpt lat="44.0691" lon="1.65694">
        <ele>10700</ele>
        <time>2020-05-31T05:41:49Z</time>
      </trkpt>
      <trkpt lat="44.06908" lon="1.65698">
        <ele>10700</ele>
        <time>2020-05-31T05:41:50Z</time>
      </trkpt>
      <trkpt lat="44.06906" lon="1.65702">
        <ele>10700</ele>
        <time>2020-05-31T05:41:51Z</time>
      </trkpt>
      <trkpt lat="44.06904" lon="1.65706">
        <ele>10700</ele>
        <time>2020-05-31T05:41:52Z</time>
      </trkpt>
      <trkpt lat="44.06902" lon="1.6571">
        <ele>10700</ele>
        <time>2020-05-31T05:41:53Z</time>
      </trkpt>
      <trkpt lat="44.069" lon="1.65714">
        <ele>10700</ele>
        <time>2020-05-31T05:41:54Z</time>
      </trkpt>
      <trkpt lat="44.06898" lon="1.65718">
        <ele>10700</ele>
        <time>2020-05-31T05:41:55Z</time>
      </trkpt>
      <trkpt lat="44.06896" lon="1.65723">
        <ele>10700</ele>
        <time>2020-05-31T05:41:56Z</time>
      </trkpt>
      <trkpt lat="44.06893" lon="1.65727">
        <ele>10700</ele>
        <time>2020-05-31T05:41:57Z</time>
      </trkpt>
      <trkpt lat="44.06891" lon="1.65732">
        <ele>10700</ele>
        <time>2020-05-31T05:41:58Z</time>
      </trkpt>
      <trkpt lat="44.06888" lon="1.65737">
        <ele>10700</ele>
        <time>2020-05-31T05:41:59Z</time>
      </trkpt>
      <trkpt lat="44.06886" lon="1.65742">
        <ele>10700</ele>
        <time>2020-05-31T05:42:00Z</time>
      </trkpt>
      <trkpt lat="44.06883" lon="1.65747">
        <ele>10700</ele>
        <time>2020-05-31T05:42:01Z</time>
      </trkpt>
      <trkpt lat="44.06881" lon="1.65753">
        <ele>10700</ele>
        <time>2020-05-31T05:42:02Z</time>
      </trkpt>
      <trkpt lat="44.06878" lon="1.65759">
        <ele>10700</ele>
        <time>2020-05-31T05:42:03Z</time>
      </trkpt>
      <trkpt lat="44.06875" lon="1.65766">
        <ele>10700</ele>
        <time>2020-05-31T05:42:04Z</time>
      </trkpt>
      <trkpt lat="44.06873" lon="1.65773">
        <ele>10600</ele>
        <time>2020-05-31T05:42:05Z</time>
      </trkpt>
      <trkpt lat="44.0687" lon="1.65779">
        <ele>10600</ele>
        <time>2020-05-31T05:42:06Z</time>
      </trkpt>
      <trkpt lat="44.06867" lon="1.65786">
        <ele>10600</ele>
        <time>2020-05-31T05:42:07Z</time>
      </trkpt>
      <trkpt lat="44.06863" lon="1.65792">
        <ele>10600</ele>
        <time>2020-05-31T05:42:08Z</time>
      </trkpt>
      <trkpt lat="44.06861" lon="1.65798">
        <ele>10600</ele>
        <time>2020-05-31T05:42:09Z</time>
      </trkpt>
      <trkpt lat="44.06858" lon="1.65804">
        <ele>10600</ele>
        <time>2020-05-31T05:42:10Z</time>
      </trkpt>
      <trkpt lat="44.06855" lon="1.65811">
        <ele>10600</ele>
        <time>2020-05-31T05:42:11Z</time>
      </trkpt>
      <trkpt lat="44.06852" lon="1.65818">
        <ele>10600</ele>
        <time>2020-05-31T05:42:12Z</time>
      </trkpt>
      <trkpt lat="44.06848" lon="1.65825">
        <ele>10500</ele>
        <time>2020-05-31T05:42:13Z</time>
      </trkpt>
      <trkpt lat="44.06845" lon="1.65832">
        <ele>10500</ele>
        <time>2020-05-31T05:42:14Z</time>
      </trkpt>
      <trkpt lat="44.06841" lon="1.6584">
        <ele>10500</ele>
        <time>2020-05-31T05:42:15Z</time>
      </trkpt>
      <trkpt lat="44.06837" lon="1.65848">
        <ele>10400</ele>
        <time>2020-05-31T05:42:16Z</time>
      </trkpt>
      <trkpt lat="44.06833" lon="1.65855">
        <ele>10400</ele>
        <time>2020-05-31T05:42:17Z</time>
      </trkpt>
      <trkpt lat="44.06829" lon="1.65862">
        <ele>10400</ele>
        <time>2020-05-31T05:42:18Z</time>
      </trkpt>
      <trkpt lat="44.06825" lon="1.65867">
        <ele>10400</ele>
        <time>2020-05-31T05:42:19Z</time>
      </trkpt>
      <trkpt lat="44.06819" lon="1.65873">
        <ele>10400</ele>
        <time>2020-05-31T05:42:20Z</time>
      </trkpt>
      <trkpt lat="44.06815" lon="1.65878">
        <ele>10400</ele>
        <time>2020-05-31T05:42:21Z</time>
      </trkpt>
      <trkpt lat="44.0681" lon="1.65883">
        <ele>10400</ele>
        <time>2020-05-31T05:42:22Z</time>
      </trkpt>
      <trkpt lat="44.06806" lon="1.65887">
        <ele>10400</ele>
        <time>2020-05-31T05:42:23Z</time>
      </trkpt>
      <trkpt lat="44.06802" lon="1.65891">
        <ele>10400</ele>
        <time>2020-05-31T05:42:24Z</time>
      </trkpt>
      <trkpt lat="44.06798" lon="1.65895">
        <ele>10400</ele>
        <time>2020-05-31T05:42:25Z</time>
      </trkpt>
      <trkpt lat="44.06795" lon="1.65899">
        <ele>10400</ele>
        <time>2020-05-31T05:42:26Z</time>
      </trkpt>
      <trkpt lat="44.06792" lon="1.65902">
        <ele>10400</ele>
        <time>2020-05-31T05:42:27Z</time>
      </trkpt>
      <trkpt lat="44.06789" lon="1.65906">
        <ele>10400</ele>
        <time>2020-05-31T05:42:28Z</time>
      </trkpt>
      <trkpt lat="44.06785" lon="1.65909">
        <ele>10400</ele>
        <time>2020-05-31T05:42:29Z</time>
      </trkpt>
      <trkpt lat="44.06782" lon="1.65912">
        <ele>10400</ele>
        <time>2020-05-31T05:42:30Z</time>
      </trkpt>
      <trkpt lat="44.06779" lon="1.65915">
        <ele>10400</ele>
        <time>2020-05-31T05:42:31Z</time>
      </trkpt>
      <trkpt lat="44.06776" lon="1.65918">
        <ele>10400</ele>
        <time>2020-05-31T05:42:32Z</time>
      </trkpt>
      <trkpt lat="44.06774" lon="1.65921">
        <ele>10400</ele>
        <time>2020-05-31T05:42:33Z</time>
      </trkpt>
      <trkpt lat="44.06771" lon="1.65925">
        <ele>10400</ele>
        <time>2020-05-31T05:42:34Z</time>
      </trkpt>
      <trkpt lat="44.06768" lon="1.65929">
        <ele>10400</ele>
        <time>2020-05-31T05:42:35Z</time>
      </trkpt>
      <trkpt lat="44.06765" lon="1.65933">
        <ele>10400</ele>
        <time>2020-05-31T05:42:36Z</time>
      </trkpt>
      <trkpt lat="44.06762" lon="1.65937">
        <ele>10400</ele>
        <time>2020-05-31T05:42:37Z</time>
      </trkpt>
      <trkpt lat="44.06759" lon="1.6594">
        <ele>10400</ele>
        <time>2020-05-31T05:42:37Z</time>
      </trkpt>
      <trkpt lat="44.06755" lon="1.65944">
        <ele>10400</ele>
        <time>2020-05-31T05:42:38Z</time>
      </trkpt>
      <trkpt lat="44.06752" lon="1.65948">
        <ele>10400</ele>
        <time>2020-05-31T05:42:39Z</time>
      </trkpt>
      <trkpt lat="44.06749" lon="1.65952">
        <ele>10400</ele>
        <time>2020-05-31T05:42:40Z</time>
      </trkpt>
      <trkpt lat="44.06746" lon="1.65956">
        <ele>10400</ele>
        <time>2020-05-31T05:42:41Z</time>
      </trkpt>
      <trkpt lat="44.06743" lon="1.6596">
        <ele>10400</ele>
        <time>2020-05-31T05:42:42Z</time>
      </trkpt>
      <trkpt lat="44.06739" lon="1.65964">
        <ele>10400</ele>
        <time>2020-05-31T05:42:43Z</time>
      </trkpt>
      <trkpt lat="44.06736" lon="1.65968">
        <ele>10400</ele>
        <time>2020-05-31T05:42:44Z</time>
      </trkpt>
      <trkpt lat="44.06733" lon="1.65972">
        <ele>10400</ele>
        <time>2020-05-31T05:42:45Z</time>
      </trkpt>
      <trkpt lat="44.0673" lon="1.65976">
        <ele>10500</ele>
        <time>2020-05-31T05:42:46Z</time>
      </trkpt>
      <trkpt lat="44.06727" lon="1.6598">
        <ele>10500</ele>
        <time>2020-05-31T05:42:47Z</time>
      </trkpt>
      <trkpt lat="44.06724" lon="1.65984">
        <ele>10500</ele>
        <time>2020-05-31T05:42:48Z</time>
      </trkpt>
      <trkpt lat="44.06721" lon="1.65988">
        <ele>10500</ele>
        <time>2020-05-31T05:42:49Z</time>
      </trkpt>
      <trkpt lat="44.06718" lon="1.65992">
        <ele>10500</ele>
        <time>2020-05-31T05:42:50Z</time>
      </trkpt>
      <trkpt lat="44.06716" lon="1.65996">
        <ele>10500</ele>
        <time>2020-05-31T05:42:51Z</time>
      </trkpt>
      <trkpt lat="44.06713" lon="1.65999">
        <ele>10500</ele>
        <time>2020-05-31T05:42:52Z</time>
      </trkpt>
      <trkpt lat="44.0671" lon="1.66003">
        <ele>10500</ele>
        <time>2020-05-31T05:42:53Z</time>
      </trkpt>
      <trkpt lat="44.06707" lon="1.66007">
        <ele>10500</ele>
        <time>2020-05-31T05:42:54Z</time>
      </trkpt>
      <trkpt lat="44.06704" lon="1.66011">
        <ele>10500</ele>
        <time>2020-05-31T05:42:55Z</time>
      </trkpt>
      <trkpt lat="44.06701" lon="1.66015">
        <ele>10500</ele>
        <time>2020-05-31T05:42:56Z</time>
      </trkpt>
      <trkpt lat="44.06698" lon="1.66019">
        <ele>10500</ele>
        <time>2020-05-31T05:42:57Z</time>
      </trkpt>
      <trkpt lat="44.06694" lon="1.66023">
        <ele>10500</ele>
        <time>2020-05-31T05:42:58Z</time>
      </trkpt>
      <trkpt lat="44.06691" lon="1.66027">
        <ele>10500</ele>
        <time>2020-05-31T05:42:59Z</time>
      </trkpt>
      <trkpt lat="44.06688" lon="1.66031">
        <ele>10500</ele>
        <time>2020-05-31T05:43:00Z</time>
      </trkpt>
      <trkpt lat="44.06685" lon="1.66035">
        <ele>10500</ele>
        <time>2020-05-31T05:43:01Z</time>
      </trkpt>
      <trkpt lat="44.06681" lon="1.66039">
        <ele>10500</ele>
        <time>2020-05-31T05:43:02Z</time>
      </trkpt>
      <trkpt lat="44.06678" lon="1.66043">
        <ele>10500</ele>
        <time>2020-05-31T05:43:03Z</time>
      </trkpt>
      <trkpt lat="44.06675" lon="1.66047">
        <ele>10500</ele>
        <time>2020-05-31T05:43:04Z</time>
      </trkpt>
      <trkpt lat="44.06671" lon="1.66051">
        <ele>10500</ele>
        <time>2020-05-31T05:43:05Z</time>
      </trkpt>
      <trkpt lat="44.06667" lon="1.66056">
        <ele>10500</ele>
        <time>2020-05-31T05:43:06Z</time>
      </trkpt>
      <trkpt lat="44.06663" lon="1.6606">
        <ele>10500</ele>
        <time>2020-05-31T05:43:07Z</time>
      </trkpt>
      <trkpt lat="44.06659" lon="1.66064">
        <ele>10500</ele>
        <time>2020-05-31T05:43:08Z</time>
      </trkpt>
      <trkpt lat="44.06654" lon="1.66068">
        <ele>10500</ele>
        <time>2020-05-31T05:43:09Z</time>
      </trkpt>
      <trkpt lat="44.06651" lon="1.66072">
        <ele>10400</ele>
        <time>2020-05-31T05:43:10Z</time>
      </trkpt>
      <trkpt lat="44.06646" lon="1.66076">
        <ele>10400</ele>
        <time>2020-05-31T05:43:11Z</time>
      </trkpt>
      <trkpt lat="44.06642" lon="1.6608">
        <ele>10400</ele>
        <time>2020-05-31T05:43:12Z</time>
      </trkpt>
      <trkpt lat="44.06638" lon="1.66083">
        <ele>10400</ele>
        <time>2020-05-31T05:43:13Z</time>
      </trkpt>
      <trkpt lat="44.06633" lon="1.66087">
        <ele>10400</ele>
        <time>2020-05-31T05:43:14Z</time>
      </trkpt>
      <trkpt lat="44.0663" lon="1.66091">
        <ele>10400</ele>
        <time>2020-05-31T05:43:15Z</time>
      </trkpt>
      <trkpt lat="44.06625" lon="1.66096">
        <ele>10400</ele>
        <time>2020-05-31T05:43:16Z</time>
      </trkpt>
      <trkpt lat="44.06621" lon="1.661">
        <ele>10400</ele>
        <time>2020-05-31T05:43:17Z</time>
      </trkpt>
      <trkpt lat="44.06618" lon="1.66104">
        <ele>10400</ele>
        <time>2020-05-31T05:43:18Z</time>
      </trkpt>
      <trkpt lat="44.06614" lon="1.66108">
        <ele>10400</ele>
        <time>2020-05-31T05:43:19Z</time>
      </trkpt>
      <trkpt lat="44.0661" lon="1.66112">
        <ele>10400</ele>
        <time>2020-05-31T05:43:20Z</time>
      </trkpt>
      <trkpt lat="44.06606" lon="1.66116">
        <ele>10400</ele>
        <time>2020-05-31T05:43:21Z</time>
      </trkpt>
      <trkpt lat="44.06602" lon="1.6612">
        <ele>10400</ele>
        <time>2020-05-31T05:43:22Z</time>
      </trkpt>
      <trkpt lat="44.06599" lon="1.66124">
        <ele>10400</ele>
        <time>2020-05-31T05:43:23Z</time>
      </trkpt>
      <trkpt lat="44.06595" lon="1.66129">
        <ele>10400</ele>
        <time>2020-05-31T05:43:24Z</time>
      </trkpt>
      <trkpt lat="44.06591" lon="1.66133">
        <ele>10400</ele>
        <time>2020-05-31T05:43:25Z</time>
      </trkpt>
      <trkpt lat="44.06588" lon="1.66137">
        <ele>10400</ele>
        <time>2020-05-31T05:43:26Z</time>
      </trkpt>
      <trkpt lat="44.06585" lon="1.66141">
        <ele>10400</ele>
        <time>2020-05-31T05:43:27Z</time>
      </trkpt>
      <trkpt lat="44.06581" lon="1.66146">
        <ele>10400</ele>
        <time>2020-05-31T05:43:28Z</time>
      </trkpt>
      <trkpt lat="44.06578" lon="1.66151">
        <ele>10400</ele>
        <time>2020-05-31T05:43:29Z</time>
      </trkpt>
      <trkpt lat="44.06575" lon="1.66156">
        <ele>10400</ele>
        <time>2020-05-31T05:43:30Z</time>
      </trkpt>
      <trkpt lat="44.06572" lon="1.6616">
        <ele>10400</ele>
        <time>2020-05-31T05:43:31Z</time>
      </trkpt>
      <trkpt lat="44.06569" lon="1.66165">
        <ele>10400</ele>
        <time>2020-05-31T05:43:32Z</time>
      </trkpt>
      <trkpt lat="44.06566" lon="1.6617">
        <ele>10400</ele>
        <time>2020-05-31T05:43:33Z</time>
      </trkpt>
      <trkpt lat="44.06563" lon="1.66175">
        <ele>10400</ele>
        <time>2020-05-31T05:43:34Z</time>
      </trkpt>
      <trkpt lat="44.06561" lon="1.6618">
        <ele>10400</ele>
        <time>2020-05-31T05:43:35Z</time>
      </trkpt>
      <trkpt lat="44.06558" lon="1.66185">
        <ele>10400</ele>
        <time>2020-05-31T05:43:36Z</time>
      </trkpt>
      <trkpt lat="44.06556" lon="1.6619">
        <ele>10400</ele>
        <time>2020-05-31T05:43:37Z</time>
      </trkpt>
      <trkpt lat="44.06554" lon="1.66194">
        <ele>10400</ele>
        <time>2020-05-31T05:43:38Z</time>
      </trkpt>
      <trkpt lat="44.06551" lon="1.66199">
        <ele>10400</ele>
        <time>2020-05-31T05:43:39Z</time>
      </trkpt>
      <trkpt lat="44.06548" lon="1.66204">
        <ele>10400</ele>
        <time>2020-05-31T05:43:40Z</time>
      </trkpt>
      <trkpt lat="44.06546" lon="1.66208">
        <ele>10400</ele>
        <time>2020-05-31T05:43:41Z</time>
      </trkpt>
      <trkpt lat="44.06543" lon="1.66213">
        <ele>10400</ele>
        <time>2020-05-31T05:43:42Z</time>
      </trkpt>
      <trkpt lat="44.06541" lon="1.66217">
        <ele>10400</ele>
        <time>2020-05-31T05:43:43Z</time>
      </trkpt>
      <trkpt lat="44.06538" lon="1.66221">
        <ele>10400</ele>
        <time>2020-05-31T05:43:44Z</time>
      </trkpt>
      <trkpt lat="44.06535" lon="1.66225">
        <ele>10400</ele>
        <time>2020-05-31T05:43:45Z</time>
      </trkpt>
      <trkpt lat="44.06531" lon="1.66229">
        <ele>10400</ele>
        <time>2020-05-31T05:43:46Z</time>
      </trkpt>
      <trkpt lat="44.06527" lon="1.66233">
        <ele>10400</ele>
        <time>2020-05-31T05:43:47Z</time>
      </trkpt>
      <trkpt lat="44.06524" lon="1.66237">
        <ele>10400</ele>
        <time>2020-05-31T05:43:48Z</time>
      </trkpt>
      <trkpt lat="44.06521" lon="1.6624">
        <ele>10400</ele>
        <time>2020-05-31T05:43:49Z</time>
      </trkpt>
      <trkpt lat="44.06517" lon="1.66244">
        <ele>10400</ele>
        <time>2020-05-31T05:43:50Z</time>
      </trkpt>
      <trkpt lat="44.06513" lon="1.66247">
        <ele>10400</ele>
        <time>2020-05-31T05:43:51Z</time>
      </trkpt>
      <trkpt lat="44.06509" lon="1.66251">
        <ele>10400</ele>
        <time>2020-05-31T05:43:52Z</time>
      </trkpt>
      <trkpt lat="44.06506" lon="1.66254">
        <ele>10400</ele>
        <time>2020-05-31T05:43:53Z</time>
      </trkpt>
      <trkpt lat="44.06501" lon="1.66258">
        <ele>10400</ele>
        <time>2020-05-31T05:43:54Z</time>
      </trkpt>
      <trkpt lat="44.06497" lon="1.66262">
        <ele>10400</ele>
        <time>2020-05-31T05:43:55Z</time>
      </trkpt>
      <trkpt lat="44.06492" lon="1.66266">
        <ele>10400</ele>
        <time>2020-05-31T05:43:56Z</time>
      </trkpt>
      <trkpt lat="44.06488" lon="1.66271">
        <ele>10400</ele>
        <time>2020-05-31T05:43:57Z</time>
      </trkpt>
      <trkpt lat="44.06484" lon="1.66275">
        <ele>10400</ele>
        <time>2020-05-31T05:43:58Z</time>
      </trkpt>
      <trkpt lat="44.06481" lon="1.6628">
        <ele>10400</ele>
        <time>2020-05-31T05:43:59Z</time>
      </trkpt>
      <trkpt lat="44.06477" lon="1.66286">
        <ele>10400</ele>
        <time>2020-05-31T05:44:00Z</time>
      </trkpt>
      <trkpt lat="44.06475" lon="1.66291">
        <ele>10400</ele>
        <time>2020-05-31T05:44:01Z</time>
      </trkpt>
      <trkpt lat="44.06472" lon="1.66297">
        <ele>10400</ele>
        <time>2020-05-31T05:44:02Z</time>
      </trkpt>
      <trkpt lat="44.06469" lon="1.66303">
        <ele>10400</ele>
        <time>2020-05-31T05:44:03Z</time>
      </trkpt>
      <trkpt lat="44.06466" lon="1.66309">
        <ele>10400</ele>
        <time>2020-05-31T05:44:04Z</time>
      </trkpt>
      <trkpt lat="44.06462" lon="1.66316">
        <ele>10400</ele>
        <time>2020-05-31T05:44:05Z</time>
      </trkpt>
      <trkpt lat="44.06459" lon="1.66322">
        <ele>10400</ele>
        <time>2020-05-31T05:44:06Z</time>
      </trkpt>
      <trkpt lat="44.06456" lon="1.66329">
        <ele>10400</ele>
        <time>2020-05-31T05:44:07Z</time>
      </trkpt>
      <trkpt lat="44.06454" lon="1.66335">
        <ele>10400</ele>
        <time>2020-05-31T05:44:08Z</time>
      </trkpt>
      <trkpt lat="44.06451" lon="1.6634">
        <ele>10400</ele>
        <time>2020-05-31T05:44:09Z</time>
      </trkpt>
      <trkpt lat="44.06448" lon="1.66346">
        <ele>10400</ele>
        <time>2020-05-31T05:44:10Z</time>
      </trkpt>
      <trkpt lat="44.06446" lon="1.66351">
        <ele>10400</ele>
        <time>2020-05-31T05:44:11Z</time>
      </trkpt>
      <trkpt lat="44.06443" lon="1.66356">
        <ele>10400</ele>
        <time>2020-05-31T05:44:12Z</time>
      </trkpt>
      <trkpt lat="44.0644" lon="1.66361">
        <ele>10400</ele>
        <time>2020-05-31T05:44:13Z</time>
      </trkpt>
      <trkpt lat="44.06437" lon="1.66365">
        <ele>10400</ele>
        <time>2020-05-31T05:44:14Z</time>
      </trkpt>
      <trkpt lat="44.06435" lon="1.66369">
        <ele>10400</ele>
        <time>2020-05-31T05:44:15Z</time>
      </trkpt>
      <trkpt lat="44.06432" lon="1.66374">
        <ele>10400</ele>
        <time>2020-05-31T05:44:16Z</time>
      </trkpt>
      <trkpt lat="44.0643" lon="1.66378">
        <ele>10400</ele>
        <time>2020-05-31T05:44:17Z</time>
      </trkpt>
      <trkpt lat="44.06428" lon="1.66382">
        <ele>10400</ele>
        <time>2020-05-31T05:44:18Z</time>
      </trkpt>
      <trkpt lat="44.06426" lon="1.66385">
        <ele>10400</ele>
        <time>2020-05-31T05:44:19Z</time>
      </trkpt>
      <trkpt lat="44.06423" lon="1.66388">
        <ele>10400</ele>
        <time>2020-05-31T05:44:20Z</time>
      </trkpt>
      <trkpt lat="44.06421" lon="1.66393">
        <ele>10400</ele>
        <time>2020-05-31T05:44:21Z</time>
      </trkpt>
      <trkpt lat="44.06419" lon="1.66397">
        <ele>10400</ele>
        <time>2020-05-31T05:44:22Z</time>
      </trkpt>
      <trkpt lat="44.06417" lon="1.66401">
        <ele>10400</ele>
        <time>2020-05-31T05:44:23Z</time>
      </trkpt>
      <trkpt lat="44.06415" lon="1.66406">
        <ele>10400</ele>
        <time>2020-05-31T05:44:24Z</time>
      </trkpt>
      <trkpt lat="44.06413" lon="1.66411">
        <ele>10400</ele>
        <time>2020-05-31T05:44:25Z</time>
      </trkpt>
      <trkpt lat="44.06411" lon="1.66415">
        <ele>10400</ele>
        <time>2020-05-31T05:44:26Z</time>
      </trkpt>
      <trkpt lat="44.06409" lon="1.6642">
        <ele>10400</ele>
        <time>2020-05-31T05:44:27Z</time>
      </trkpt>
      <trkpt lat="44.06408" lon="1.66424">
        <ele>10400</ele>
        <time>2020-05-31T05:44:28Z</time>
      </trkpt>
      <trkpt lat="44.06406" lon="1.66428">
        <ele>10400</ele>
        <time>2020-05-31T05:44:29Z</time>
      </trkpt>
      <trkpt lat="44.06405" lon="1.66432">
        <ele>10400</ele>
        <time>2020-05-31T05:44:30Z</time>
      </trkpt>
      <trkpt lat="44.06403" lon="1.66436">
        <ele>10400</ele>
        <time>2020-05-31T05:44:31Z</time>
      </trkpt>
      <trkpt lat="44.064" lon="1.6644">
        <ele>10400</ele>
        <time>2020-05-31T05:44:32Z</time>
      </trkpt>
      <trkpt lat="44.06397" lon="1.66443">
        <ele>10400</ele>
        <time>2020-05-31T05:44:33Z</time>
      </trkpt>
      <trkpt lat="44.06394" lon="1.66447">
        <ele>10400</ele>
        <time>2020-05-31T05:44:34Z</time>
      </trkpt>
      <trkpt lat="44.06391" lon="1.66451">
        <ele>10500</ele>
        <time>2020-05-31T05:44:35Z</time>
      </trkpt>
      <trkpt lat="44.06388" lon="1.66454">
        <ele>10500</ele>
        <time>2020-05-31T05:44:36Z</time>
      </trkpt>
      <trkpt lat="44.06386" lon="1.66458">
        <ele>10500</ele>
        <time>2020-05-31T05:44:37Z</time>
      </trkpt>
      <trkpt lat="44.06383" lon="1.66462">
        <ele>10500</ele>
        <time>2020-05-31T05:44:38Z</time>
      </trkpt>
      <trkpt lat="44.06381" lon="1.66465">
        <ele>10500</ele>
        <time>2020-05-31T05:44:39Z</time>
      </trkpt>
      <trkpt lat="44.06379" lon="1.66469">
        <ele>10500</ele>
        <time>2020-05-31T05:44:40Z</time>
      </trkpt>
      <trkpt lat="44.06376" lon="1.66472">
        <ele>10500</ele>
        <time>2020-05-31T05:44:41Z</time>
      </trkpt>
      <trkpt lat="44.06374" lon="1.66476">
        <ele>10600</ele>
        <time>2020-05-31T05:44:42Z</time>
      </trkpt>
      <trkpt lat="44.06371" lon="1.6648">
        <ele>10600</ele>
        <time>2020-05-31T05:44:43Z</time>
      </trkpt>
      <trkpt lat="44.06369" lon="1.66483">
        <ele>10600</ele>
        <time>2020-05-31T05:44:44Z</time>
      </trkpt>
      <trkpt lat="44.06366" lon="1.66487">
        <ele>10600</ele>
        <time>2020-05-31T05:44:45Z</time>
      </trkpt>
      <trkpt lat="44.06364" lon="1.66491">
        <ele>10600</ele>
        <time>2020-05-31T05:44:46Z</time>
      </trkpt>
      <trkpt lat="44.06361" lon="1.66495">
        <ele>10600</ele>
        <time>2020-05-31T05:44:47Z</time>
      </trkpt>
      <trkpt lat="44.06359" lon="1.66499">
        <ele>10600</ele>
        <time>2020-05-31T05:44:48Z</time>
      </trkpt>
      <trkpt lat="44.06356" lon="1.66502">
        <ele>10600</ele>
        <time>2020-05-31T05:44:49Z</time>
      </trkpt>
      <trkpt lat="44.06354" lon="1.66506">
        <ele>10600</ele>
        <time>2020-05-31T05:44:50Z</time>
      </trkpt>
      <trkpt lat="44.06352" lon="1.66509">
        <ele>10700</ele>
        <time>2020-05-31T05:44:51Z</time>
      </trkpt>
      <trkpt lat="44.06349" lon="1.66512">
        <ele>10700</ele>
        <time>2020-05-31T05:44:52Z</time>
      </trkpt>
      <trkpt lat="44.06347" lon="1.66515">
        <ele>10700</ele>
        <time>2020-05-31T05:44:53Z</time>
      </trkpt>
      <trkpt lat="44.06345" lon="1.66518">
        <ele>10700</ele>
        <time>2020-05-31T05:44:54Z</time>
      </trkpt>
      <trkpt lat="44.06342" lon="1.66521">
        <ele>10700</ele>
        <time>2020-05-31T05:44:55Z</time>
      </trkpt>
      <trkpt lat="44.0634" lon="1.66525">
        <ele>10700</ele>
        <time>2020-05-31T05:44:56Z</time>
      </trkpt>
      <trkpt lat="44.06337" lon="1.66528">
        <ele>10700</ele>
        <time>2020-05-31T05:44:57Z</time>
      </trkpt>
      <trkpt lat="44.06335" lon="1.66531">
        <ele>10700</ele>
        <time>2020-05-31T05:44:58Z</time>
      </trkpt>
      <trkpt lat="44.06332" lon="1.66534">
        <ele>10700</ele>
        <time>2020-05-31T05:44:59Z</time>
      </trkpt>
      <trkpt lat="44.06329" lon="1.66538">
        <ele>10700</ele>
        <time>2020-05-31T05:45:00Z</time>
      </trkpt>
      <trkpt lat="44.06327" lon="1.66541">
        <ele>10800</ele>
        <time>2020-05-31T05:45:01Z</time>
      </trkpt>
      <trkpt lat="44.06324" lon="1.66545">
        <ele>10800</ele>
        <time>2020-05-31T05:45:02Z</time>
      </trkpt>
      <trkpt lat="44.06322" lon="1.66549">
        <ele>10800</ele>
        <time>2020-05-31T05:45:03Z</time>
      </trkpt>
      <trkpt lat="44.06319" lon="1.66552">
        <ele>10800</ele>
        <time>2020-05-31T05:45:04Z</time>
      </trkpt>
      <trkpt lat="44.06316" lon="1.66556">
        <ele>10800</ele>
        <time>2020-05-31T05:45:05Z</time>
      </trkpt>
      <trkpt lat="44.06313" lon="1.66559">
        <ele>10800</ele>
        <time>2020-05-31T05:45:06Z</time>
      </trkpt>
      <trkpt lat="44.0631" lon="1.66563">
        <ele>10800</ele>
        <time>2020-05-31T05:45:07Z</time>
      </trkpt>
      <trkpt lat="44.06307" lon="1.66567">
        <ele>10800</ele>
        <time>2020-05-31T05:45:08Z</time>
      </trkpt>
      <trkpt lat="44.06303" lon="1.66571">
        <ele>10800</ele>
        <time>2020-05-31T05:45:09Z</time>
      </trkpt>
      <trkpt lat="44.063" lon="1.66574">
        <ele>10800</ele>
        <time>2020-05-31T05:45:10Z</time>
      </trkpt>
      <trkpt lat="44.06296" lon="1.66578">
        <ele>10800</ele>
        <time>2020-05-31T05:45:11Z</time>
      </trkpt>
      <trkpt lat="44.06292" lon="1.66581">
        <ele>10800</ele>
        <time>2020-05-31T05:45:12Z</time>
      </trkpt>
      <trkpt lat="44.06289" lon="1.66584">
        <ele>10800</ele>
        <time>2020-05-31T05:45:13Z</time>
      </trkpt>
      <trkpt lat="44.06284" lon="1.66587">
        <ele>10800</ele>
        <time>2020-05-31T05:45:14Z</time>
      </trkpt>
      <trkpt lat="44.0628" lon="1.66589">
        <ele>10800</ele>
        <time>2020-05-31T05:45:15Z</time>
      </trkpt>
      <trkpt lat="44.06276" lon="1.66592">
        <ele>10800</ele>
        <time>2020-05-31T05:45:16Z</time>
      </trkpt>
      <trkpt lat="44.06271" lon="1.66595">
        <ele>10800</ele>
        <time>2020-05-31T05:45:17Z</time>
      </trkpt>
      <trkpt lat="44.06267" lon="1.66597">
        <ele>10800</ele>
        <time>2020-05-31T05:45:18Z</time>
      </trkpt>
      <trkpt lat="44.06263" lon="1.666">
        <ele>10800</ele>
        <time>2020-05-31T05:45:19Z</time>
      </trkpt>
      <trkpt lat="44.06259" lon="1.66603">
        <ele>10800</ele>
        <time>2020-05-31T05:45:20Z</time>
      </trkpt>
      <trkpt lat="44.06255" lon="1.66605">
        <ele>10800</ele>
        <time>2020-05-31T05:45:21Z</time>
      </trkpt>
      <trkpt lat="44.0625" lon="1.66608">
        <ele>10800</ele>
        <time>2020-05-31T05:45:22Z</time>
      </trkpt>
      <trkpt lat="44.06246" lon="1.66611">
        <ele>10800</ele>
        <time>2020-05-31T05:45:23Z</time>
      </trkpt>
      <trkpt lat="44.06242" lon="1.66613">
        <ele>10800</ele>
        <time>2020-05-31T05:45:24Z</time>
      </trkpt>
      <trkpt lat="44.06237" lon="1.66616">
        <ele>10800</ele>
        <time>2020-05-31T05:45:25Z</time>
      </trkpt>
      <trkpt lat="44.06233" lon="1.66619">
        <ele>10800</ele>
        <time>2020-05-31T05:45:26Z</time>
      </trkpt>
      <trkpt lat="44.06229" lon="1.66622">
        <ele>10800</ele>
        <time>2020-05-31T05:45:27Z</time>
      </trkpt>
      <trkpt lat="44.06224" lon="1.66624">
        <ele>10800</ele>
        <time>2020-05-31T05:45:28Z</time>
      </trkpt>
      <trkpt lat="44.0622" lon="1.66626">
        <ele>10800</ele>
        <time>2020-05-31T05:45:29Z</time>
      </trkpt>
      <trkpt lat="44.06216" lon="1.66628">
        <ele>10800</ele>
        <time>2020-05-31T05:45:30Z</time>
      </trkpt>
      <trkpt lat="44.06212" lon="1.6663">
        <ele>10800</ele>
        <time>2020-05-31T05:45:31Z</time>
      </trkpt>
      <trkpt lat="44.06207" lon="1.66632">
        <ele>10800</ele>
        <time>2020-05-31T05:45:32Z</time>
      </trkpt>
      <trkpt lat="44.06203" lon="1.66635">
        <ele>10800</ele>
        <time>2020-05-31T05:45:33Z</time>
      </trkpt>
      <trkpt lat="44.06199" lon="1.66638">
        <ele>10800</ele>
        <time>2020-05-31T05:45:34Z</time>
      </trkpt>
      <trkpt lat="44.06195" lon="1.66641">
        <ele>10800</ele>
        <time>2020-05-31T05:45:35Z</time>
      </trkpt>
      <trkpt lat="44.06191" lon="1.66644">
        <ele>10800</ele>
        <time>2020-05-31T05:45:36Z</time>
      </trkpt>
      <trkpt lat="44.06187" lon="1.66647">
        <ele>10800</ele>
        <time>2020-05-31T05:45:37Z</time>
      </trkpt>
      <trkpt lat="44.06183" lon="1.6665">
        <ele>10800</ele>
        <time>2020-05-31T05:45:38Z</time>
      </trkpt>
      <trkpt lat="44.06179" lon="1.66653">
        <ele>10800</ele>
        <time>2020-05-31T05:45:39Z</time>
      </trkpt>
      <trkpt lat="44.06175" lon="1.66656">
        <ele>10800</ele>
        <time>2020-05-31T05:45:40Z</time>
      </trkpt>
      <trkpt lat="44.06171" lon="1.66659">
        <ele>10800</ele>
        <time>2020-05-31T05:45:41Z</time>
      </trkpt>
      <trkpt lat="44.06168" lon="1.66662">
        <ele>10800</ele>
        <time>2020-05-31T05:45:42Z</time>
      </trkpt>
      <trkpt lat="44.06164" lon="1.66665">
        <ele>10800</ele>
        <time>2020-05-31T05:45:43Z</time>
      </trkpt>
      <trkpt lat="44.0616" lon="1.66667">
        <ele>10800</ele>
        <time>2020-05-31T05:45:44Z</time>
      </trkpt>
      <trkpt lat="44.06157" lon="1.6667">
        <ele>10800</ele>
        <time>2020-05-31T05:45:45Z</time>
      </trkpt>
      <trkpt lat="44.06153" lon="1.66673">
        <ele>10800</ele>
        <time>2020-05-31T05:45:46Z</time>
      </trkpt>
      <trkpt lat="44.0615" lon="1.66676">
        <ele>10800</ele>
        <time>2020-05-31T05:45:47Z</time>
      </trkpt>
      <trkpt lat="44.06147" lon="1.6668">
        <ele>10800</ele>
        <time>2020-05-31T05:45:48Z</time>
      </trkpt>
      <trkpt lat="44.06144" lon="1.66683">
        <ele>10800</ele>
        <time>2020-05-31T05:45:49Z</time>
      </trkpt>
      <trkpt lat="44.06141" lon="1.66686">
        <ele>10800</ele>
        <time>2020-05-31T05:45:50Z</time>
      </trkpt>
      <trkpt lat="44.06138" lon="1.66688">
        <ele>10800</ele>
        <time>2020-05-31T05:45:51Z</time>
      </trkpt>
      <trkpt lat="44.06135" lon="1.66691">
        <ele>10800</ele>
        <time>2020-05-31T05:45:52Z</time>
      </trkpt>
      <trkpt lat="44.06132" lon="1.66694">
        <ele>10800</ele>
        <time>2020-05-31T05:45:53Z</time>
      </trkpt>
      <trkpt lat="44.06129" lon="1.66697">
        <ele>10800</ele>
        <time>2020-05-31T05:45:54Z</time>
      </trkpt>
      <trkpt lat="44.06126" lon="1.667">
        <ele>10900</ele>
        <time>2020-05-31T05:45:55Z</time>
      </trkpt>
      <trkpt lat="44.06124" lon="1.66703">
        <ele>10900</ele>
        <time>2020-05-31T05:45:56Z</time>
      </trkpt>
      <trkpt lat="44.06121" lon="1.66705">
        <ele>10900</ele>
        <time>2020-05-31T05:45:57Z</time>
      </trkpt>
      <trkpt lat="44.06119" lon="1.66707">
        <ele>10900</ele>
        <time>2020-05-31T05:45:58Z</time>
      </trkpt>
      <trkpt lat="44.06117" lon="1.6671">
        <ele>10900</ele>
        <time>2020-05-31T05:45:59Z</time>
      </trkpt>
      <trkpt lat="44.06113" lon="1.66712">
        <ele>10900</ele>
        <time>2020-05-31T05:46:00Z</time>
      </trkpt>
      <trkpt lat="44.06111" lon="1.66715">
        <ele>10900</ele>
        <time>2020-05-31T05:46:01Z</time>
      </trkpt>
      <trkpt lat="44.06108" lon="1.66717">
        <ele>10900</ele>
        <time>2020-05-31T05:46:02Z</time>
      </trkpt>
      <trkpt lat="44.06105" lon="1.6672">
        <ele>10900</ele>
        <time>2020-05-31T05:46:03Z</time>
      </trkpt>
      <trkpt lat="44.06102" lon="1.66723">
        <ele>10900</ele>
        <time>2020-05-31T05:46:04Z</time>
      </trkpt>
      <trkpt lat="44.06099" lon="1.66726">
        <ele>10900</ele>
        <time>2020-05-31T05:46:05Z</time>
      </trkpt>
      <trkpt lat="44.06096" lon="1.66729">
        <ele>10900</ele>
        <time>2020-05-31T05:46:06Z</time>
      </trkpt>
      <trkpt lat="44.06094" lon="1.66733">
        <ele>10900</ele>
        <time>2020-05-31T05:46:07Z</time>
      </trkpt>
      <trkpt lat="44.06091" lon="1.66737">
        <ele>10900</ele>
        <time>2020-05-31T05:46:08Z</time>
      </trkpt>
      <trkpt lat="44.06088" lon="1.6674">
        <ele>10900</ele>
        <time>2020-05-31T05:46:09Z</time>
      </trkpt>
      <trkpt lat="44.06084" lon="1.66744">
        <ele>10900</ele>
        <time>2020-05-31T05:46:10Z</time>
      </trkpt>
      <trkpt lat="44.06081" lon="1.66747">
        <ele>10900</ele>
        <time>2020-05-31T05:46:11Z</time>
      </trkpt>
      <trkpt lat="44.06078" lon="1.66749">
        <ele>10900</ele>
        <time>2020-05-31T05:46:12Z</time>
      </trkpt>
      <trkpt lat="44.06073" lon="1.66751">
        <ele>10900</ele>
        <time>2020-05-31T05:46:13Z</time>
      </trkpt>
      <trkpt lat="44.06069" lon="1.66752">
        <ele>10900</ele>
        <time>2020-05-31T05:46:14Z</time>
      </trkpt>
      <trkpt lat="44.06065" lon="1.66754">
        <ele>10900</ele>
        <time>2020-05-31T05:46:15Z</time>
      </trkpt>
      <trkpt lat="44.06061" lon="1.66756">
        <ele>10900</ele>
        <time>2020-05-31T05:46:16Z</time>
      </trkpt>
      <trkpt lat="44.06057" lon="1.66758">
        <ele>10900</ele>
        <time>2020-05-31T05:46:17Z</time>
      </trkpt>
      <trkpt lat="44.06052" lon="1.6676">
        <ele>10900</ele>
        <time>2020-05-31T05:46:18Z</time>
      </trkpt>
      <trkpt lat="44.06048" lon="1.66761">
        <ele>10900</ele>
        <time>2020-05-31T05:46:19Z</time>
      </trkpt>
      <trkpt lat="44.06043" lon="1.66763">
        <ele>10900</ele>
        <time>2020-05-31T05:46:20Z</time>
      </trkpt>
      <trkpt lat="44.06039" lon="1.66764">
        <ele>10900</ele>
        <time>2020-05-31T05:46:21Z</time>
      </trkpt>
      <trkpt lat="44.06035" lon="1.66766">
        <ele>10900</ele>
        <time>2020-05-31T05:46:22Z</time>
      </trkpt>
      <trkpt lat="44.0603" lon="1.66769">
        <ele>10900</ele>
        <time>2020-05-31T05:46:23Z</time>
      </trkpt>
      <trkpt lat="44.06025" lon="1.66771">
        <ele>10900</ele>
        <time>2020-05-31T05:46:24Z</time>
      </trkpt>
      <trkpt lat="44.06021" lon="1.66773">
        <ele>10900</ele>
        <time>2020-05-31T05:46:25Z</time>
      </trkpt>
      <trkpt lat="44.06017" lon="1.66775">
        <ele>10900</ele>
        <time>2020-05-31T05:46:26Z</time>
      </trkpt>
      <trkpt lat="44.06014" lon="1.66777">
        <ele>10900</ele>
        <time>2020-05-31T05:46:27Z</time>
      </trkpt>
      <trkpt lat="44.0601" lon="1.66778">
        <ele>10900</ele>
        <time>2020-05-31T05:46:28Z</time>
      </trkpt>
      <trkpt lat="44.06006" lon="1.6678">
        <ele>10900</ele>
        <time>2020-05-31T05:46:29Z</time>
      </trkpt>
      <trkpt lat="44.06003" lon="1.66782">
        <ele>10900</ele>
        <time>2020-05-31T05:46:30Z</time>
      </trkpt>
      <trkpt lat="44.06" lon="1.66783">
        <ele>10900</ele>
        <time>2020-05-31T05:46:31Z</time>
      </trkpt>
      <trkpt lat="44.05997" lon="1.66785">
        <ele>10900</ele>
        <time>2020-05-31T05:46:32Z</time>
      </trkpt>
      <trkpt lat="44.05993" lon="1.66786">
        <ele>11000</ele>
        <time>2020-05-31T05:46:33Z</time>
      </trkpt>
      <trkpt lat="44.0599" lon="1.66788">
        <ele>11000</ele>
        <time>2020-05-31T05:46:34Z</time>
      </trkpt>
      <trkpt lat="44.05986" lon="1.66789">
        <ele>11000</ele>
        <time>2020-05-31T05:46:35Z</time>
      </trkpt>
      <trkpt lat="44.05983" lon="1.66791">
        <ele>11000</ele>
        <time>2020-05-31T05:46:36Z</time>
      </trkpt>
      <trkpt lat="44.05979" lon="1.66793">
        <ele>11000</ele>
        <time>2020-05-31T05:46:37Z</time>
      </trkpt>
      <trkpt lat="44.05976" lon="1.66795">
        <ele>11000</ele>
        <time>2020-05-31T05:46:38Z</time>
      </trkpt>
      <trkpt lat="44.05972" lon="1.66796">
        <ele>11000</ele>
        <time>2020-05-31T05:46:39Z</time>
      </trkpt>
      <trkpt lat="44.0597" lon="1.66797">
        <ele>11100</ele>
        <time>2020-05-31T05:46:40Z</time>
      </trkpt>
      <trkpt lat="44.05967" lon="1.66798">
        <ele>11100</ele>
        <time>2020-05-31T05:46:41Z</time>
      </trkpt>
      <trkpt lat="44.05963" lon="1.66799">
        <ele>11100</ele>
        <time>2020-05-31T05:46:42Z</time>
      </trkpt>
      <trkpt lat="44.0596" lon="1.668">
        <ele>11100</ele>
        <time>2020-05-31T05:46:43Z</time>
      </trkpt>
      <trkpt lat="44.05957" lon="1.668">
        <ele>11100</ele>
        <time>2020-05-31T05:46:44Z</time>
      </trkpt>
      <trkpt lat="44.05954" lon="1.66801">
        <ele>11100</ele>
        <time>2020-05-31T05:46:45Z</time>
      </trkpt>
      <trkpt lat="44.0595" lon="1.66801">
        <ele>11100</ele>
        <time>2020-05-31T05:46:46Z</time>
      </trkpt>
      <trkpt lat="44.05946" lon="1.66802">
        <ele>11100</ele>
        <time>2020-05-31T05:46:47Z</time>
      </trkpt>
      <trkpt lat="44.05943" lon="1.66802">
        <ele>11100</ele>
        <time>2020-05-31T05:46:48Z</time>
      </trkpt>
      <trkpt lat="44.05939" lon="1.66803">
        <ele>11100</ele>
        <time>2020-05-31T05:46:49Z</time>
      </trkpt>
      <trkpt lat="44.05936" lon="1.66804">
        <ele>11100</ele>
        <time>2020-05-31T05:46:50Z</time>
      </trkpt>
      <trkpt lat="44.05932" lon="1.66805">
        <ele>11200</ele>
        <time>2020-05-31T05:46:51Z</time>
      </trkpt>
      <trkpt lat="44.05928" lon="1.66806">
        <ele>11200</ele>
        <time>2020-05-31T05:46:52Z</time>
      </trkpt>
      <trkpt lat="44.05925" lon="1.66807">
        <ele>11200</ele>
        <time>2020-05-31T05:46:52Z</time>
      </trkpt>
      <trkpt lat="44.05921" lon="1.66808">
        <ele>11200</ele>
        <time>2020-05-31T05:46:53Z</time>
      </trkpt>
      <trkpt lat="44.05918" lon="1.66809">
        <ele>11200</ele>
        <time>2020-05-31T05:46:54Z</time>
      </trkpt>
      <trkpt lat="44.05914" lon="1.6681">
        <ele>11200</ele>
        <time>2020-05-31T05:46:55Z</time>
      </trkpt>
      <trkpt lat="44.05911" lon="1.6681">
        <ele>11200</ele>
        <time>2020-05-31T05:46:56Z</time>
      </trkpt>
      <trkpt lat="44.05907" lon="1.6681">
        <ele>11200</ele>
        <time>2020-05-31T05:46:57Z</time>
      </trkpt>
      <trkpt lat="44.05903" lon="1.6681">
        <ele>11200</ele>
        <time>2020-05-31T05:46:58Z</time>
      </trkpt>
      <trkpt lat="44.05899" lon="1.6681">
        <ele>11200</ele>
        <time>2020-05-31T05:46:59Z</time>
      </trkpt>
      <trkpt lat="44.05895" lon="1.6681">
        <ele>11200</ele>
        <time>2020-05-31T05:47:00Z</time>
      </trkpt>
      <trkpt lat="44.0589" lon="1.6681">
        <ele>11200</ele>
        <time>2020-05-31T05:47:01Z</time>
      </trkpt>
      <trkpt lat="44.05886" lon="1.6681">
        <ele>11200</ele>
        <time>2020-05-31T05:47:02Z</time>
      </trkpt>
      <trkpt lat="44.05882" lon="1.66811">
        <ele>11200</ele>
        <time>2020-05-31T05:47:03Z</time>
      </trkpt>
      <trkpt lat="44.05878" lon="1.66811">
        <ele>11200</ele>
        <time>2020-05-31T05:47:04Z</time>
      </trkpt>
      <trkpt lat="44.05874" lon="1.66811">
        <ele>11200</ele>
        <time>2020-05-31T05:47:05Z</time>
      </trkpt>
      <trkpt lat="44.0587" lon="1.66812">
        <ele>11200</ele>
        <time>2020-05-31T05:47:06Z</time>
      </trkpt>
      <trkpt lat="44.05866" lon="1.66812">
        <ele>11200</ele>
        <time>2020-05-31T05:47:07Z</time>
      </trkpt>
      <trkpt lat="44.05861" lon="1.66811">
        <ele>11200</ele>
        <time>2020-05-31T05:47:08Z</time>
      </trkpt>
      <trkpt lat="44.05858" lon="1.66811">
        <ele>11200</ele>
        <time>2020-05-31T05:47:09Z</time>
      </trkpt>
      <trkpt lat="44.05853" lon="1.6681">
        <ele>11200</ele>
        <time>2020-05-31T05:47:10Z</time>
      </trkpt>
      <trkpt lat="44.0585" lon="1.66809">
        <ele>11200</ele>
        <time>2020-05-31T05:47:11Z</time>
      </trkpt>
      <trkpt lat="44.05846" lon="1.66809">
        <ele>11200</ele>
        <time>2020-05-31T05:47:12Z</time>
      </trkpt>
      <trkpt lat="44.05843" lon="1.66808">
        <ele>11200</ele>
        <time>2020-05-31T05:47:13Z</time>
      </trkpt>
      <trkpt lat="44.05838" lon="1.66808">
        <ele>11200</ele>
        <time>2020-05-31T05:47:14Z</time>
      </trkpt>
      <trkpt lat="44.05835" lon="1.66808">
        <ele>11200</ele>
        <time>2020-05-31T05:47:15Z</time>
      </trkpt>
      <trkpt lat="44.05831" lon="1.66808">
        <ele>11200</ele>
        <time>2020-05-31T05:47:16Z</time>
      </trkpt>
      <trkpt lat="44.05827" lon="1.66808">
        <ele>11200</ele>
        <time>2020-05-31T05:47:17Z</time>
      </trkpt>
      <trkpt lat="44.05823" lon="1.66808">
        <ele>11200</ele>
        <time>2020-05-31T05:47:18Z</time>
      </trkpt>
      <trkpt lat="44.05819" lon="1.66809">
        <ele>11200</ele>
        <time>2020-05-31T05:47:19Z</time>
      </trkpt>
      <trkpt lat="44.05815" lon="1.66811">
        <ele>11200</ele>
        <time>2020-05-31T05:47:20Z</time>
      </trkpt>
      <trkpt lat="44.05811" lon="1.66812">
        <ele>11200</ele>
        <time>2020-05-31T05:47:21Z</time>
      </trkpt>
      <trkpt lat="44.05807" lon="1.66813">
        <ele>11200</ele>
        <time>2020-05-31T05:47:22Z</time>
      </trkpt>
      <trkpt lat="44.05803" lon="1.66815">
        <ele>11200</ele>
        <time>2020-05-31T05:47:23Z</time>
      </trkpt>
      <trkpt lat="44.058" lon="1.66818">
        <ele>11200</ele>
        <time>2020-05-31T05:47:24Z</time>
      </trkpt>
      <trkpt lat="44.05796" lon="1.6682">
        <ele>11200</ele>
        <time>2020-05-31T05:47:25Z</time>
      </trkpt>
      <trkpt lat="44.05793" lon="1.66823">
        <ele>11200</ele>
        <time>2020-05-31T05:47:26Z</time>
      </trkpt>
      <trkpt lat="44.0579" lon="1.66826">
        <ele>11200</ele>
        <time>2020-05-31T05:47:27Z</time>
      </trkpt>
      <trkpt lat="44.05787" lon="1.66829">
        <ele>11300</ele>
        <time>2020-05-31T05:47:28Z</time>
      </trkpt>
      <trkpt lat="44.05784" lon="1.66832">
        <ele>11300</ele>
        <time>2020-05-31T05:47:29Z</time>
      </trkpt>
      <trkpt lat="44.05781" lon="1.66835">
        <ele>11300</ele>
        <time>2020-05-31T05:47:30Z</time>
      </trkpt>
      <trkpt lat="44.05779" lon="1.66839">
        <ele>11300</ele>
        <time>2020-05-31T05:47:31Z</time>
      </trkpt>
      <trkpt lat="44.05776" lon="1.66842">
        <ele>11300</ele>
        <time>2020-05-31T05:47:32Z</time>
      </trkpt>
      <trkpt lat="44.05774" lon="1.66846">
        <ele>11300</ele>
        <time>2020-05-31T05:47:33Z</time>
      </trkpt>
      <trkpt lat="44.05772" lon="1.6685">
        <ele>11300</ele>
        <time>2020-05-31T05:47:34Z</time>
      </trkpt>
      <trkpt lat="44.0577" lon="1.66854">
        <ele>11300</ele>
        <time>2020-05-31T05:47:35Z</time>
      </trkpt>
      <trkpt lat="44.05767" lon="1.66858">
        <ele>11300</ele>
        <time>2020-05-31T05:47:36Z</time>
      </trkpt>
      <trkpt lat="44.05765" lon="1.66862">
        <ele>11300</ele>
        <time>2020-05-31T05:47:37Z</time>
      </trkpt>
      <trkpt lat="44.05763" lon="1.66866">
        <ele>11300</ele>
        <time>2020-05-31T05:47:38Z</time>
      </trkpt>
      <trkpt lat="44.05761" lon="1.66871">
        <ele>11300</ele>
        <time>2020-05-31T05:47:39Z</time>
      </trkpt>
      <trkpt lat="44.05759" lon="1.66875">
        <ele>11300</ele>
        <time>2020-05-31T05:47:40Z</time>
      </trkpt>
      <trkpt lat="44.05758" lon="1.6688">
        <ele>11300</ele>
        <time>2020-05-31T05:47:41Z</time>
      </trkpt>
      <trkpt lat="44.05756" lon="1.66885">
        <ele>11300</ele>
        <time>2020-05-31T05:47:42Z</time>
      </trkpt>
      <trkpt lat="44.05755" lon="1.6689">
        <ele>11300</ele>
        <time>2020-05-31T05:47:43Z</time>
      </trkpt>
      <trkpt lat="44.05753" lon="1.66896">
        <ele>11300</ele>
        <time>2020-05-31T05:47:44Z</time>
      </trkpt>
      <trkpt lat="44.05752" lon="1.66902">
        <ele>11200</ele>
        <time>2020-05-31T05:47:45Z</time>
      </trkpt>
      <trkpt lat="44.0575" lon="1.66908">
        <ele>11200</ele>
        <time>2020-05-31T05:47:46Z</time>
      </trkpt>
      <trkpt lat="44.05748" lon="1.66914">
        <ele>11200</ele>
        <time>2020-05-31T05:47:47Z</time>
      </trkpt>
      <trkpt lat="44.05745" lon="1.66919">
        <ele>11100</ele>
        <time>2020-05-31T05:47:48Z</time>
      </trkpt>
      <trkpt lat="44.05742" lon="1.66925">
        <ele>11100</ele>
        <time>2020-05-31T05:47:49Z</time>
      </trkpt>
      <trkpt lat="44.05737" lon="1.66931">
        <ele>11000</ele>
        <time>2020-05-31T05:47:50Z</time>
      </trkpt>
      <trkpt lat="44.05732" lon="1.66937">
        <ele>11000</ele>
        <time>2020-05-31T05:47:51Z</time>
      </trkpt>
      <trkpt lat="44.05727" lon="1.66942">
        <ele>10900</ele>
        <time>2020-05-31T05:47:52Z</time>
      </trkpt>
      <trkpt lat="44.05721" lon="1.66947">
        <ele>10900</ele>
        <time>2020-05-31T05:47:53Z</time>
      </trkpt>
      <trkpt lat="44.05714" lon="1.66951">
        <ele>10900</ele>
        <time>2020-05-31T05:47:54Z</time>
      </trkpt>
      <trkpt lat="44.05708" lon="1.66955">
        <ele>10900</ele>
        <time>2020-05-31T05:47:55Z</time>
      </trkpt>
      <trkpt lat="44.05701" lon="1.66957">
        <ele>10900</ele>
        <time>2020-05-31T05:47:56Z</time>
      </trkpt>
      <trkpt lat="44.05695" lon="1.66959">
        <ele>10900</ele>
        <time>2020-05-31T05:47:57Z</time>
      </trkpt>
      <trkpt lat="44.05689" lon="1.66959">
        <ele>10900</ele>
        <time>2020-05-31T05:47:58Z</time>
      </trkpt>
      <trkpt lat="44.05682" lon="1.6696">
        <ele>10900</ele>
        <time>2020-05-31T05:47:59Z</time>
      </trkpt>
      <trkpt lat="44.05676" lon="1.6696">
        <ele>10900</ele>
        <time>2020-05-31T05:48:00Z</time>
      </trkpt>
      <trkpt lat="44.05671" lon="1.66959">
        <ele>10900</ele>
        <time>2020-05-31T05:48:01Z</time>
      </trkpt>
      <trkpt lat="44.05665" lon="1.66959">
        <ele>10900</ele>
        <time>2020-05-31T05:48:02Z</time>
      </trkpt>
      <trkpt lat="44.05661" lon="1.66958">
        <ele>10900</ele>
        <time>2020-05-31T05:48:03Z</time>
      </trkpt>
      <trkpt lat="44.05656" lon="1.66958">
        <ele>10900</ele>
        <time>2020-05-31T05:48:04Z</time>
      </trkpt>
      <trkpt lat="44.05653" lon="1.66957">
        <ele>10900</ele>
        <time>2020-05-31T05:48:05Z</time>
      </trkpt>
      <trkpt lat="44.05648" lon="1.66956">
        <ele>10900</ele>
        <time>2020-05-31T05:48:06Z</time>
      </trkpt>
      <trkpt lat="44.05645" lon="1.66955">
        <ele>10900</ele>
        <time>2020-05-31T05:48:07Z</time>
      </trkpt>
      <trkpt lat="44.05641" lon="1.66954">
        <ele>10900</ele>
        <time>2020-05-31T05:48:08Z</time>
      </trkpt>
      <trkpt lat="44.05638" lon="1.66954">
        <ele>10900</ele>
        <time>2020-05-31T05:48:09Z</time>
      </trkpt>
      <trkpt lat="44.05635" lon="1.66955">
        <ele>10900</ele>
        <time>2020-05-31T05:48:10Z</time>
      </trkpt>
      <trkpt lat="44.05634" lon="1.66957">
        <ele>10900</ele>
        <time>2020-05-31T05:48:11Z</time>
      </trkpt>
      <trkpt lat="44.05632" lon="1.6696">
        <ele>10900</ele>
        <time>2020-05-31T05:48:12Z</time>
      </trkpt>
      <trkpt lat="44.05631" lon="1.66965">
        <ele>10900</ele>
        <time>2020-05-31T05:48:13Z</time>
      </trkpt>
      <trkpt lat="44.0563" lon="1.6697">
        <ele>10900</ele>
        <time>2020-05-31T05:48:14Z</time>
      </trkpt>
      <trkpt lat="44.05629" lon="1.66976">
        <ele>10900</ele>
        <time>2020-05-31T05:48:15Z</time>
      </trkpt>
      <trkpt lat="44.05629" lon="1.66982">
        <ele>10900</ele>
        <time>2020-05-31T05:48:16Z</time>
      </trkpt>
      <trkpt lat="44.05629" lon="1.66988">
        <ele>10900</ele>
        <time>2020-05-31T05:48:17Z</time>
      </trkpt>
      <trkpt lat="44.05629" lon="1.66995">
        <ele>10900</ele>
        <time>2020-05-31T05:48:18Z</time>
      </trkpt>
      <trkpt lat="44.0563" lon="1.67001">
        <ele>10900</ele>
        <time>2020-05-31T05:48:19Z</time>
      </trkpt>
      <trkpt lat="44.05631" lon="1.67008">
        <ele>10900</ele>
        <time>2020-05-31T05:48:20Z</time>
      </trkpt>
      <trkpt lat="44.05631" lon="1.67014">
        <ele>10900</ele>
        <time>2020-05-31T05:48:21Z</time>
      </trkpt>
      <trkpt lat="44.05632" lon="1.67021">
        <ele>10900</ele>
        <time>2020-05-31T05:48:22Z</time>
      </trkpt>
      <trkpt lat="44.05632" lon="1.67027">
        <ele>10900</ele>
        <time>2020-05-31T05:48:23Z</time>
      </trkpt>
      <trkpt lat="44.05631" lon="1.67034">
        <ele>10900</ele>
        <time>2020-05-31T05:48:24Z</time>
      </trkpt>
      <trkpt lat="44.05631" lon="1.6704">
        <ele>10900</ele>
        <time>2020-05-31T05:48:25Z</time>
      </trkpt>
      <trkpt lat="44.05629" lon="1.67047">
        <ele>10900</ele>
        <time>2020-05-31T05:48:26Z</time>
      </trkpt>
      <trkpt lat="44.05626" lon="1.67053">
        <ele>10900</ele>
        <time>2020-05-31T05:48:27Z</time>
      </trkpt>
      <trkpt lat="44.05623" lon="1.67058">
        <ele>10900</ele>
        <time>2020-05-31T05:48:28Z</time>
      </trkpt>
      <trkpt lat="44.0562" lon="1.67063">
        <ele>10900</ele>
        <time>2020-05-31T05:48:29Z</time>
      </trkpt>
      <trkpt lat="44.05616" lon="1.67068">
        <ele>10900</ele>
        <time>2020-05-31T05:48:30Z</time>
      </trkpt>
      <trkpt lat="44.05611" lon="1.67072">
        <ele>10900</ele>
        <time>2020-05-31T05:48:31Z</time>
      </trkpt>
      <trkpt lat="44.05607" lon="1.67077">
        <ele>10900</ele>
        <time>2020-05-31T05:48:32Z</time>
      </trkpt>
      <trkpt lat="44.05602" lon="1.67081">
        <ele>10900</ele>
        <time>2020-05-31T05:48:33Z</time>
      </trkpt>
      <trkpt lat="44.05597" lon="1.67085">
        <ele>10900</ele>
        <time>2020-05-31T05:48:34Z</time>
      </trkpt>
      <trkpt lat="44.05591" lon="1.67088">
        <ele>10900</ele>
        <time>2020-05-31T05:48:35Z</time>
      </trkpt>
      <trkpt lat="44.05586" lon="1.67092">
        <ele>10900</ele>
        <time>2020-05-31T05:48:36Z</time>
      </trkpt>
      <trkpt lat="44.0558" lon="1.67096">
        <ele>10900</ele>
        <time>2020-05-31T05:48:37Z</time>
      </trkpt>
      <trkpt lat="44.05574" lon="1.67099">
        <ele>10900</ele>
        <time>2020-05-31T05:48:38Z</time>
      </trkpt>
      <trkpt lat="44.05569" lon="1.67103">
        <ele>10900</ele>
        <time>2020-05-31T05:48:39Z</time>
      </trkpt>
      <trkpt lat="44.05563" lon="1.67107">
        <ele>10900</ele>
        <time>2020-05-31T05:48:40Z</time>
      </trkpt>
      <trkpt lat="44.05557" lon="1.67111">
        <ele>10800</ele>
        <time>2020-05-31T05:48:41Z</time>
      </trkpt>
      <trkpt lat="44.05552" lon="1.67115">
        <ele>10800</ele>
        <time>2020-05-31T05:48:42Z</time>
      </trkpt>
      <trkpt lat="44.05546" lon="1.67119">
        <ele>10800</ele>
        <time>2020-05-31T05:48:43Z</time>
      </trkpt>
      <trkpt lat="44.05541" lon="1.67123">
        <ele>10800</ele>
        <time>2020-05-31T05:48:44Z</time>
      </trkpt>
      <trkpt lat="44.05535" lon="1.67127">
        <ele>10800</ele>
        <time>2020-05-31T05:48:45Z</time>
      </trkpt>
      <trkpt lat="44.0553" lon="1.67131">
        <ele>10800</ele>
        <time>2020-05-31T05:48:46Z</time>
      </trkpt>
      <trkpt lat="44.05524" lon="1.67136">
        <ele>10800</ele>
        <time>2020-05-31T05:48:47Z</time>
      </trkpt>
      <trkpt lat="44.0552" lon="1.6714">
        <ele>10800</ele>
        <time>2020-05-31T05:48:48Z</time>
      </trkpt>
      <trkpt lat="44.05515" lon="1.67144">
        <ele>10800</ele>
        <time>2020-05-31T05:48:49Z</time>
      </trkpt>
      <trkpt lat="44.0551" lon="1.67149">
        <ele>10800</ele>
        <time>2020-05-31T05:48:50Z</time>
      </trkpt>
      <trkpt lat="44.05505" lon="1.67153">
        <ele>10800</ele>
        <time>2020-05-31T05:48:51Z</time>
      </trkpt>
      <trkpt lat="44.055" lon="1.67156">
        <ele>10800</ele>
        <time>2020-05-31T05:48:52Z</time>
      </trkpt>
      <trkpt lat="44.05494" lon="1.67159">
        <ele>10800</ele>
        <time>2020-05-31T05:48:53Z</time>
      </trkpt>
      <trkpt lat="44.05489" lon="1.67162">
        <ele>10800</ele>
        <time>2020-05-31T05:48:54Z</time>
      </trkpt>
      <trkpt lat="44.05484" lon="1.67165">
        <ele>10800</ele>
        <time>2020-05-31T05:48:55Z</time>
      </trkpt>
      <trkpt lat="44.05479" lon="1.67168">
        <ele>10800</ele>
        <time>2020-05-31T05:48:56Z</time>
      </trkpt>
      <trkpt lat="44.05474" lon="1.67171">
        <ele>10800</ele>
        <time>2020-05-31T05:48:57Z</time>
      </trkpt>
      <trkpt lat="44.05468" lon="1.67173">
        <ele>10800</ele>
        <time>2020-05-31T05:48:58Z</time>
      </trkpt>
      <trkpt lat="44.05463" lon="1.67176">
        <ele>10800</ele>
        <time>2020-05-31T05:48:59Z</time>
      </trkpt>
      <trkpt lat="44.05457" lon="1.67178">
        <ele>10800</ele>
        <time>2020-05-31T05:49:00Z</time>
      </trkpt>
      <trkpt lat="44.05452" lon="1.67181">
        <ele>10800</ele>
        <time>2020-05-31T05:49:01Z</time>
      </trkpt>
      <trkpt lat="44.05447" lon="1.67183">
        <ele>10800</ele>
        <time>2020-05-31T05:49:02Z</time>
      </trkpt>
      <trkpt lat="44.05442" lon="1.67185">
        <ele>10800</ele>
        <time>2020-05-31T05:49:03Z</time>
      </trkpt>
      <trkpt lat="44.05436" lon="1.67187">
        <ele>10800</ele>
        <time>2020-05-31T05:49:04Z</time>
      </trkpt>
      <trkpt lat="44.05431" lon="1.67189">
        <ele>10800</ele>
        <time>2020-05-31T05:49:05Z</time>
      </trkpt>
      <trkpt lat="44.05425" lon="1.67191">
        <ele>10800</ele>
        <time>2020-05-31T05:49:06Z</time>
      </trkpt>
      <trkpt lat="44.0542" lon="1.67193">
        <ele>10800</ele>
        <time>2020-05-31T05:49:07Z</time>
      </trkpt>
      <trkpt lat="44.05415" lon="1.67194">
        <ele>10800</ele>
        <time>2020-05-31T05:49:08Z</time>
      </trkpt>
      <trkpt lat="44.0541" lon="1.67196">
        <ele>10800</ele>
        <time>2020-05-31T05:49:09Z</time>
      </trkpt>
      <trkpt lat="44.05405" lon="1.67197">
        <ele>10800</ele>
        <time>2020-05-31T05:49:10Z</time>
      </trkpt>
      <trkpt lat="44.054" lon="1.67197">
        <ele>10800</ele>
        <time>2020-05-31T05:49:11Z</time>
      </trkpt>
      <trkpt lat="44.05396" lon="1.67198">
        <ele>10800</ele>
        <time>2020-05-31T05:49:12Z</time>
      </trkpt>
      <trkpt lat="44.05391" lon="1.67199">
        <ele>10900</ele>
        <time>2020-05-31T05:49:13Z</time>
      </trkpt>
      <trkpt lat="44.05386" lon="1.67199">
        <ele>10900</ele>
        <time>2020-05-31T05:49:14Z</time>
      </trkpt>
      <trkpt lat="44.05382" lon="1.67198">
        <ele>10900</ele>
        <time>2020-05-31T05:49:15Z</time>
      </trkpt>
      <trkpt lat="44.05378" lon="1.67197">
        <ele>10900</ele>
        <time>2020-05-31T05:49:16Z</time>
      </trkpt>
      <trkpt lat="44.05375" lon="1.67194">
        <ele>10900</ele>
        <time>2020-05-31T05:49:17Z</time>
      </trkpt>
      <trkpt lat="44.05372" lon="1.6719">
        <ele>10900</ele>
        <time>2020-05-31T05:49:18Z</time>
      </trkpt>
      <trkpt lat="44.05369" lon="1.67185">
        <ele>10900</ele>
        <time>2020-05-31T05:49:19Z</time>
      </trkpt>
      <trkpt lat="44.05367" lon="1.67179">
        <ele>10900</ele>
        <time>2020-05-31T05:49:20Z</time>
      </trkpt>
      <trkpt lat="44.05365" lon="1.67173">
        <ele>10900</ele>
        <time>2020-05-31T05:49:21Z</time>
      </trkpt>
      <trkpt lat="44.05364" lon="1.67166">
        <ele>10900</ele>
        <time>2020-05-31T05:49:22Z</time>
      </trkpt>
      <trkpt lat="44.05362" lon="1.67158">
        <ele>10800</ele>
        <time>2020-05-31T05:49:23Z</time>
      </trkpt>
      <trkpt lat="44.0536" lon="1.6715">
        <ele>10800</ele>
        <time>2020-05-31T05:49:24Z</time>
      </trkpt>
      <trkpt lat="44.05358" lon="1.67142">
        <ele>10800</ele>
        <time>2020-05-31T05:49:25Z</time>
      </trkpt>
      <trkpt lat="44.05356" lon="1.67134">
        <ele>10700</ele>
        <time>2020-05-31T05:49:26Z</time>
      </trkpt>
      <trkpt lat="44.05354" lon="1.67125">
        <ele>10700</ele>
        <time>2020-05-31T05:49:27Z</time>
      </trkpt>
      <trkpt lat="44.05351" lon="1.67116">
        <ele>10700</ele>
        <time>2020-05-31T05:49:28Z</time>
      </trkpt>
      <trkpt lat="44.05348" lon="1.67108">
        <ele>10700</ele>
        <time>2020-05-31T05:49:29Z</time>
      </trkpt>
      <trkpt lat="44.05346" lon="1.67101">
        <ele>10600</ele>
        <time>2020-05-31T05:49:30Z</time>
      </trkpt>
      <trkpt lat="44.05343" lon="1.67095">
        <ele>10600</ele>
        <time>2020-05-31T05:49:31Z</time>
      </trkpt>
      <trkpt lat="44.05339" lon="1.67088">
        <ele>10500</ele>
        <time>2020-05-31T05:49:32Z</time>
      </trkpt>
      <trkpt lat="44.05336" lon="1.67082">
        <ele>10500</ele>
        <time>2020-05-31T05:49:33Z</time>
      </trkpt>
      <trkpt lat="44.05331" lon="1.67076">
        <ele>10500</ele>
        <time>2020-05-31T05:49:34Z</time>
      </trkpt>
      <trkpt lat="44.05327" lon="1.6707">
        <ele>10500</ele>
        <time>2020-05-31T05:49:35Z</time>
      </trkpt>
      <trkpt lat="44.05323" lon="1.67065">
        <ele>10500</ele>
        <time>2020-05-31T05:49:36Z</time>
      </trkpt>
      <trkpt lat="44.0532" lon="1.6706">
        <ele>10500</ele>
        <time>2020-05-31T05:49:37Z</time>
      </trkpt>
      <trkpt lat="44.05316" lon="1.67056">
        <ele>10500</ele>
        <time>2020-05-31T05:49:38Z</time>
      </trkpt>
      <trkpt lat="44.05312" lon="1.67052">
        <ele>10500</ele>
        <time>2020-05-31T05:49:39Z</time>
      </trkpt>
      <trkpt lat="44.05309" lon="1.67047">
        <ele>10500</ele>
        <time>2020-05-31T05:49:40Z</time>
      </trkpt>
      <trkpt lat="44.05307" lon="1.67043">
        <ele>10500</ele>
        <time>2020-05-31T05:49:41Z</time>
      </trkpt>
      <trkpt lat="44.05306" lon="1.67038">
        <ele>10500</ele>
        <time>2020-05-31T05:49:42Z</time>
      </trkpt>
      <trkpt lat="44.05304" lon="1.67033">
        <ele>10600</ele>
        <time>2020-05-31T05:49:43Z</time>
      </trkpt>
      <trkpt lat="44.05303" lon="1.67029">
        <ele>10600</ele>
        <time>2020-05-31T05:49:44Z</time>
      </trkpt>
      <trkpt lat="44.05302" lon="1.67024">
        <ele>10600</ele>
        <time>2020-05-31T05:49:45Z</time>
      </trkpt>
      <trkpt lat="44.05302" lon="1.6702">
        <ele>10600</ele>
        <time>2020-05-31T05:49:46Z</time>
      </trkpt>
      <trkpt lat="44.05303" lon="1.67016">
        <ele>10600</ele>
        <time>2020-05-31T05:49:47Z</time>
      </trkpt>
      <trkpt lat="44.05304" lon="1.67012">
        <ele>10700</ele>
        <time>2020-05-31T05:49:48Z</time>
      </trkpt>
      <trkpt lat="44.05306" lon="1.67009">
        <ele>10700</ele>
        <time>2020-05-31T05:49:49Z</time>
      </trkpt>
      <trkpt lat="44.05307" lon="1.67006">
        <ele>10700</ele>
        <time>2020-05-31T05:49:50Z</time>
      </trkpt>
      <trkpt lat="44.05309" lon="1.67003">
        <ele>10700</ele>
        <time>2020-05-31T05:49:51Z</time>
      </trkpt>
      <trkpt lat="44.05312" lon="1.67001">
        <ele>10800</ele>
        <time>2020-05-31T05:49:52Z</time>
      </trkpt>
      <trkpt lat="44.05314" lon="1.66998">
        <ele>10800</ele>
        <time>2020-05-31T05:49:53Z</time>
      </trkpt>
      <trkpt lat="44.05315" lon="1.66996">
        <ele>10800</ele>
        <time>2020-05-31T05:49:54Z</time>
      </trkpt>
      <trkpt lat="44.05317" lon="1.66993">
        <ele>10800</ele>
        <time>2020-05-31T05:49:55Z</time>
      </trkpt>
      <trkpt lat="44.05319" lon="1.66991">
        <ele>10900</ele>
        <time>2020-05-31T05:49:56Z</time>
      </trkpt>
      <trkpt lat="44.05321" lon="1.66989">
        <ele>10900</ele>
        <time>2020-05-31T05:49:57Z</time>
      </trkpt>
      <trkpt lat="44.05323" lon="1.66986">
        <ele>10900</ele>
        <time>2020-05-31T05:49:58Z</time>
      </trkpt>
      <trkpt lat="44.05325" lon="1.66984">
        <ele>10900</ele>
        <time>2020-05-31T05:49:59Z</time>
      </trkpt>
      <trkpt lat="44.05327" lon="1.66981">
        <ele>11000</ele>
        <time>2020-05-31T05:50:00Z</time>
      </trkpt>
      <trkpt lat="44.05328" lon="1.66979">
        <ele>11000</ele>
        <time>2020-05-31T05:50:01Z</time>
      </trkpt>
      <trkpt lat="44.0533" lon="1.66976">
        <ele>11000</ele>
        <time>2020-05-31T05:50:02Z</time>
      </trkpt>
      <trkpt lat="44.05331" lon="1.66974">
        <ele>11000</ele>
        <time>2020-05-31T05:50:03Z</time>
      </trkpt>
      <trkpt lat="44.05333" lon="1.66971">
        <ele>11000</ele>
        <time>2020-05-31T05:50:04Z</time>
      </trkpt>
      <trkpt lat="44.05335" lon="1.66969">
        <ele>11000</ele>
        <time>2020-05-31T05:50:05Z</time>
      </trkpt>
      <trkpt lat="44.05337" lon="1.66966">
        <ele>11000</ele>
        <time>2020-05-31T05:50:06Z</time>
      </trkpt>
      <trkpt lat="44.05339" lon="1.66964">
        <ele>11000</ele>
        <time>2020-05-31T05:50:07Z</time>
      </trkpt>
      <trkpt lat="44.05341" lon="1.66962">
        <ele>11100</ele>
        <time>2020-05-31T05:50:08Z</time>
      </trkpt>
      <trkpt lat="44.05343" lon="1.6696">
        <ele>11100</ele>
        <time>2020-05-31T05:50:09Z</time>
      </trkpt>
      <trkpt lat="44.05345" lon="1.66958">
        <ele>11100</ele>
        <time>2020-05-31T05:50:10Z</time>
      </trkpt>
      <trkpt lat="44.05347" lon="1.66956">
        <ele>11100</ele>
        <time>2020-05-31T05:50:11Z</time>
      </trkpt>
      <trkpt lat="44.05348" lon="1.66953">
        <ele>11200</ele>
        <time>2020-05-31T05:50:12Z</time>
      </trkpt>
      <trkpt lat="44.0535" lon="1.6695">
        <ele>11200</ele>
        <time>2020-05-31T05:50:13Z</time>
      </trkpt>
      <trkpt lat="44.05351" lon="1.66948">
        <ele>11200</ele>
        <time>2020-05-31T05:50:14Z</time>
      </trkpt>
      <trkpt lat="44.05354" lon="1.66946">
        <ele>11200</ele>
        <time>2020-05-31T05:50:15Z</time>
      </trkpt>
      <trkpt lat="44.05355" lon="1.66944">
        <ele>11300</ele>
        <time>2020-05-31T05:50:16Z</time>
      </trkpt>
      <trkpt lat="44.05357" lon="1.66942">
        <ele>11300</ele>
        <time>2020-05-31T05:50:17Z</time>
      </trkpt>
      <trkpt lat="44.05359" lon="1.6694">
        <ele>11300</ele>
        <time>2020-05-31T05:50:18Z</time>
      </trkpt>
      <trkpt lat="44.0536" lon="1.66938">
        <ele>11300</ele>
        <time>2020-05-31T05:50:19Z</time>
      </trkpt>
      <trkpt lat="44.05361" lon="1.66936">
        <ele>11400</ele>
        <time>2020-05-31T05:50:20Z</time>
      </trkpt>
      <trkpt lat="44.05362" lon="1.66934">
        <ele>11400</ele>
        <time>2020-05-31T05:50:21Z</time>
      </trkpt>
      <trkpt lat="44.05363" lon="1.66932">
        <ele>11400</ele>
        <time>2020-05-31T05:50:22Z</time>
      </trkpt>
      <trkpt lat="44.05364" lon="1.6693">
        <ele>11400</ele>
        <time>2020-05-31T05:50:23Z</time>
      </trkpt>
      <trkpt lat="44.05366" lon="1.66928">
        <ele>11500</ele>
        <time>2020-05-31T05:50:24Z</time>
      </trkpt>
      <trkpt lat="44.05367" lon="1.66926">
        <ele>11500</ele>
        <time>2020-05-31T05:50:25Z</time>
      </trkpt>
      <trkpt lat="44.05369" lon="1.66923">
        <ele>11500</ele>
        <time>2020-05-31T05:50:26Z</time>
      </trkpt>
      <trkpt lat="44.05371" lon="1.66921">
        <ele>11500</ele>
        <time>2020-05-31T05:50:27Z</time>
      </trkpt>
      <trkpt lat="44.05373" lon="1.66919">
        <ele>11600</ele>
        <time>2020-05-31T05:50:28Z</time>
      </trkpt>
      <trkpt lat="44.05375" lon="1.66917">
        <ele>11600</ele>
        <time>2020-05-31T05:50:29Z</time>
      </trkpt>
      <trkpt lat="44.05377" lon="1.66914">
        <ele>11600</ele>
        <time>2020-05-31T05:50:30Z</time>
      </trkpt>
      <trkpt lat="44.05379" lon="1.66912">
        <ele>11600</ele>
        <time>2020-05-31T05:50:31Z</time>
      </trkpt>
      <trkpt lat="44.05381" lon="1.6691">
        <ele>11600</ele>
        <time>2020-05-31T05:50:32Z</time>
      </trkpt>
      <trkpt lat="44.05382" lon="1.66908">
        <ele>11700</ele>
        <time>2020-05-31T05:50:33Z</time>
      </trkpt>
      <trkpt lat="44.05384" lon="1.66905">
        <ele>11700</ele>
        <time>2020-05-31T05:50:34Z</time>
      </trkpt>
      <trkpt lat="44.05386" lon="1.66903">
        <ele>11700</ele>
        <time>2020-05-31T05:50:35Z</time>
      </trkpt>
      <trkpt lat="44.05388" lon="1.66901">
        <ele>11700</ele>
        <time>2020-05-31T05:50:36Z</time>
      </trkpt>
      <trkpt lat="44.0539" lon="1.66899">
        <ele>11700</ele>
        <time>2020-05-31T05:50:37Z</time>
      </trkpt>
      <trkpt lat="44.05391" lon="1.66896">
        <ele>11700</ele>
        <time>2020-05-31T05:50:38Z</time>
      </trkpt>
      <trkpt lat="44.05393" lon="1.66893">
        <ele>11700</ele>
        <time>2020-05-31T05:50:39Z</time>
      </trkpt>
      <trkpt lat="44.05394" lon="1.6689">
        <ele>11700</ele>
        <time>2020-05-31T05:50:40Z</time>
      </trkpt>
      <trkpt lat="44.05396" lon="1.66888">
        <ele>11800</ele>
        <time>2020-05-31T05:50:41Z</time>
      </trkpt>
      <trkpt lat="44.05397" lon="1.66885">
        <ele>11800</ele>
        <time>2020-05-31T05:50:42Z</time>
      </trkpt>
      <trkpt lat="44.05399" lon="1.66883">
        <ele>11800</ele>
        <time>2020-05-31T05:50:43Z</time>
      </trkpt>
      <trkpt lat="44.054" lon="1.6688">
        <ele>11800</ele>
        <time>2020-05-31T05:50:44Z</time>
      </trkpt>
      <trkpt lat="44.05402" lon="1.66878">
        <ele>11800</ele>
        <time>2020-05-31T05:50:45Z</time>
      </trkpt>
      <trkpt lat="44.05403" lon="1.66875">
        <ele>11900</ele>
        <time>2020-05-31T05:50:46Z</time>
      </trkpt>
      <trkpt lat="44.05405" lon="1.66872">
        <ele>11900</ele>
        <time>2020-05-31T05:50:47Z</time>
      </trkpt>
      <trkpt lat="44.05406" lon="1.66869">
        <ele>11900</ele>
        <time>2020-05-31T05:50:48Z</time>
      </trkpt>
      <trkpt lat="44.05408" lon="1.66866">
        <ele>11900</ele>
        <time>2020-05-31T05:50:49Z</time>
      </trkpt>
      <trkpt lat="44.05409" lon="1.66864">
        <ele>12000</ele>
        <time>2020-05-31T05:50:50Z</time>
      </trkpt>
      <trkpt lat="44.0541" lon="1.66861">
        <ele>12000</ele>
        <time>2020-05-31T05:50:51Z</time>
      </trkpt>
      <trkpt lat="44.05412" lon="1.66859">
        <ele>12000</ele>
        <time>2020-05-31T05:50:52Z</time>
      </trkpt>
      <trkpt lat="44.05413" lon="1.66857">
        <ele>12000</ele>
        <time>2020-05-31T05:50:53Z</time>
      </trkpt>
      <trkpt lat="44.05414" lon="1.66854">
        <ele>12100</ele>
        <time>2020-05-31T05:50:54Z</time>
      </trkpt>
      <trkpt lat="44.05415" lon="1.66852">
        <ele>12100</ele>
        <time>2020-05-31T05:50:55Z</time>
      </trkpt>
      <trkpt lat="44.05416" lon="1.6685">
        <ele>12100</ele>
        <time>2020-05-31T05:50:56Z</time>
      </trkpt>
      <trkpt lat="44.05417" lon="1.66847">
        <ele>12100</ele>
        <time>2020-05-31T05:50:57Z</time>
      </trkpt>
      <trkpt lat="44.05417" lon="1.66845">
        <ele>12200</ele>
        <time>2020-05-31T05:50:58Z</time>
      </trkpt>
      <trkpt lat="44.05417" lon="1.66842">
        <ele>12200</ele>
        <time>2020-05-31T05:50:59Z</time>
      </trkpt>
      <trkpt lat="44.05417" lon="1.66839">
        <ele>12200</ele>
        <time>2020-05-31T05:51:00Z</time>
      </trkpt>
      <trkpt lat="44.05417" lon="1.66837">
        <ele>12200</ele>
        <time>2020-05-31T05:51:01Z</time>
      </trkpt>
      <trkpt lat="44.05417" lon="1.66834">
        <ele>12200</ele>
        <time>2020-05-31T05:51:02Z</time>
      </trkpt>
      <trkpt lat="44.05417" lon="1.66831">
        <ele>12200</ele>
        <time>2020-05-31T05:51:03Z</time>
      </trkpt>
      <trkpt lat="44.05416" lon="1.66828">
        <ele>12200</ele>
        <time>2020-05-31T05:51:04Z</time>
      </trkpt>
      <trkpt lat="44.05415" lon="1.66825">
        <ele>12200</ele>
        <time>2020-05-31T05:51:05Z</time>
      </trkpt>
      <trkpt lat="44.05415" lon="1.66822">
        <ele>12200</ele>
        <time>2020-05-31T05:51:06Z</time>
      </trkpt>
      <trkpt lat="44.05415" lon="1.66819">
        <ele>12200</ele>
        <time>2020-05-31T05:51:07Z</time>
      </trkpt>
      <trkpt lat="44.05413" lon="1.66815">
        <ele>12300</ele>
        <time>2020-05-31T05:51:07Z</time>
      </trkpt>
      <trkpt lat="44.05413" lon="1.66812">
        <ele>12300</ele>
        <time>2020-05-31T05:51:08Z</time>
      </trkpt>
      <trkpt lat="44.05412" lon="1.66808">
        <ele>12300</ele>
        <time>2020-05-31T05:51:09Z</time>
      </trkpt>
      <trkpt lat="44.05411" lon="1.66805">
        <ele>12300</ele>
        <time>2020-05-31T05:51:10Z</time>
      </trkpt>
      <trkpt lat="44.0541" lon="1.66801">
        <ele>12300</ele>
        <time>2020-05-31T05:51:11Z</time>
      </trkpt>
      <trkpt lat="44.05409" lon="1.66798">
        <ele>12400</ele>
        <time>2020-05-31T05:51:12Z</time>
      </trkpt>
      <trkpt lat="44.05408" lon="1.66795">
        <ele>12400</ele>
        <time>2020-05-31T05:51:13Z</time>
      </trkpt>
      <trkpt lat="44.05407" lon="1.66793">
        <ele>12400</ele>
        <time>2020-05-31T05:51:14Z</time>
      </trkpt>
      <trkpt lat="44.05406" lon="1.6679">
        <ele>12400</ele>
        <time>2020-05-31T05:51:15Z</time>
      </trkpt>
      <trkpt lat="44.05405" lon="1.66787">
        <ele>12400</ele>
        <time>2020-05-31T05:51:16Z</time>
      </trkpt>
      <trkpt lat="44.05404" lon="1.66784">
        <ele>12500</ele>
        <time>2020-05-31T05:51:17Z</time>
      </trkpt>
      <trkpt lat="44.05404" lon="1.66781">
        <ele>12500</ele>
        <time>2020-05-31T05:51:18Z</time>
      </trkpt>
      <trkpt lat="44.05403" lon="1.66778">
        <ele>12500</ele>
        <time>2020-05-31T05:51:19Z</time>
      </trkpt>
      <trkpt lat="44.05402" lon="1.66774">
        <ele>12500</ele>
        <time>2020-05-31T05:51:20Z</time>
      </trkpt>
      <trkpt lat="44.05401" lon="1.66771">
        <ele>12500</ele>
        <time>2020-05-31T05:51:21Z</time>
      </trkpt>
      <trkpt lat="44.054" lon="1.66768">
        <ele>12600</ele>
        <time>2020-05-31T05:51:22Z</time>
      </trkpt>
      <trkpt lat="44.054" lon="1.66765">
        <ele>12600</ele>
        <time>2020-05-31T05:51:23Z</time>
      </trkpt>
      <trkpt lat="44.05399" lon="1.66762">
        <ele>12600</ele>
        <time>2020-05-31T05:51:24Z</time>
      </trkpt>
      <trkpt lat="44.05399" lon="1.66759">
        <ele>12600</ele>
        <time>2020-05-31T05:51:25Z</time>
      </trkpt>
      <trkpt lat="44.05397" lon="1.66756">
        <ele>12700</ele>
        <time>2020-05-31T05:51:26Z</time>
      </trkpt>
      <trkpt lat="44.05397" lon="1.66754">
        <ele>12700</ele>
        <time>2020-05-31T05:51:27Z</time>
      </trkpt>
      <trkpt lat="44.05396" lon="1.66751">
        <ele>12700</ele>
        <time>2020-05-31T05:51:28Z</time>
      </trkpt>
      <trkpt lat="44.05394" lon="1.66749">
        <ele>12700</ele>
        <time>2020-05-31T05:51:29Z</time>
      </trkpt>
      <trkpt lat="44.05393" lon="1.66746">
        <ele>12700</ele>
        <time>2020-05-31T05:51:30Z</time>
      </trkpt>
      <trkpt lat="44.05393" lon="1.66743">
        <ele>12800</ele>
        <time>2020-05-31T05:51:31Z</time>
      </trkpt>
      <trkpt lat="44.05392" lon="1.66741">
        <ele>12800</ele>
        <time>2020-05-31T05:51:32Z</time>
      </trkpt>
      <trkpt lat="44.05391" lon="1.66738">
        <ele>12800</ele>
        <time>2020-05-31T05:51:33Z</time>
      </trkpt>
      <trkpt lat="44.0539" lon="1.66735">
        <ele>12800</ele>
        <time>2020-05-31T05:51:34Z</time>
      </trkpt>
      <trkpt lat="44.05389" lon="1.66732">
        <ele>12800</ele>
        <time>2020-05-31T05:51:35Z</time>
      </trkpt>
      <trkpt lat="44.05388" lon="1.6673">
        <ele>12900</ele>
        <time>2020-05-31T05:51:36Z</time>
      </trkpt>
      <trkpt lat="44.05387" lon="1.66727">
        <ele>12900</ele>
        <time>2020-05-31T05:51:37Z</time>
      </trkpt>
      <trkpt lat="44.05386" lon="1.66724">
        <ele>12900</ele>
        <time>2020-05-31T05:51:38Z</time>
      </trkpt>
      <trkpt lat="44.05385" lon="1.66721">
        <ele>12900</ele>
        <time>2020-05-31T05:51:39Z</time>
      </trkpt>
      <trkpt lat="44.05384" lon="1.66718">
        <ele>12900</ele>
        <time>2020-05-31T05:51:40Z</time>
      </trkpt>
      <trkpt lat="44.05384" lon="1.66715">
        <ele>12900</ele>
        <time>2020-05-31T05:51:41Z</time>
      </trkpt>
      <trkpt lat="44.05383" lon="1.66712">
        <ele>12900</ele>
        <time>2020-05-31T05:51:42Z</time>
      </trkpt>
      <trkpt lat="44.05383" lon="1.66709">
        <ele>12900</ele>
        <time>2020-05-31T05:51:43Z</time>
      </trkpt>
      <trkpt lat="44.05382" lon="1.66706">
        <ele>12900</ele>
        <time>2020-05-31T05:51:44Z</time>
      </trkpt>
      <trkpt lat="44.05381" lon="1.66703">
        <ele>13000</ele>
        <time>2020-05-31T05:51:45Z</time>
      </trkpt>
      <trkpt lat="44.05381" lon="1.667">
        <ele>13000</ele>
        <time>2020-05-31T05:51:46Z</time>
      </trkpt>
      <trkpt lat="44.0538" lon="1.66697">
        <ele>13000</ele>
        <time>2020-05-31T05:51:47Z</time>
      </trkpt>
      <trkpt lat="44.0538" lon="1.66694">
        <ele>13000</ele>
        <time>2020-05-31T05:51:48Z</time>
      </trkpt>
      <trkpt lat="44.05379" lon="1.66691">
        <ele>13000</ele>
        <time>2020-05-31T05:51:49Z</time>
      </trkpt>
      <trkpt lat="44.05378" lon="1.66688">
        <ele>13100</ele>
        <time>2020-05-31T05:51:50Z</time>
      </trkpt>
      <trkpt lat="44.05378" lon="1.66685">
        <ele>13100</ele>
        <time>2020-05-31T05:51:51Z</time>
      </trkpt>
      <trkpt lat="44.05377" lon="1.66682">
        <ele>13100</ele>
        <time>2020-05-31T05:51:52Z</time>
      </trkpt>
      <trkpt lat="44.05376" lon="1.66679">
        <ele>13100</ele>
        <time>2020-05-31T05:51:53Z</time>
      </trkpt>
      <trkpt lat="44.05376" lon="1.66677">
        <ele>13200</ele>
        <time>2020-05-31T05:51:54Z</time>
      </trkpt>
      <trkpt lat="44.05375" lon="1.66674">
        <ele>13200</ele>
        <time>2020-05-31T05:51:55Z</time>
      </trkpt>
      <trkpt lat="44.05375" lon="1.66671">
        <ele>13200</ele>
        <time>2020-05-31T05:51:56Z</time>
      </trkpt>
      <trkpt lat="44.05374" lon="1.66668">
        <ele>13200</ele>
        <time>2020-05-31T05:51:57Z</time>
      </trkpt>
      <trkpt lat="44.05373" lon="1.66666">
        <ele>13200</ele>
        <time>2020-05-31T05:51:58Z</time>
      </trkpt>
      <trkpt lat="44.05373" lon="1.66663">
        <ele>13300</ele>
        <time>2020-05-31T05:51:59Z</time>
      </trkpt>
      <trkpt lat="44.05372" lon="1.6666">
        <ele>13300</ele>
        <time>2020-05-31T05:52:00Z</time>
      </trkpt>
      <trkpt lat="44.05372" lon="1.66658">
        <ele>13300</ele>
        <time>2020-05-31T05:52:01Z</time>
      </trkpt>
      <trkpt lat="44.05371" lon="1.66655">
        <ele>13300</ele>
        <time>2020-05-31T05:52:02Z</time>
      </trkpt>
      <trkpt lat="44.0537" lon="1.66652">
        <ele>13400</ele>
        <time>2020-05-31T05:52:03Z</time>
      </trkpt>
      <trkpt lat="44.0537" lon="1.66649">
        <ele>13400</ele>
        <time>2020-05-31T05:52:04Z</time>
      </trkpt>
      <trkpt lat="44.05369" lon="1.66646">
        <ele>13400</ele>
        <time>2020-05-31T05:52:05Z</time>
      </trkpt>
      <trkpt lat="44.05369" lon="1.66643">
        <ele>13400</ele>
        <time>2020-05-31T05:52:06Z</time>
      </trkpt>
      <trkpt lat="44.05368" lon="1.6664">
        <ele>13400</ele>
        <time>2020-05-31T05:52:07Z</time>
      </trkpt>
      <trkpt lat="44.05367" lon="1.66638">
        <ele>13500</ele>
        <time>2020-05-31T05:52:08Z</time>
      </trkpt>
      <trkpt lat="44.05367" lon="1.66635">
        <ele>13500</ele>
        <time>2020-05-31T05:52:09Z</time>
      </trkpt>
      <trkpt lat="44.05366" lon="1.66632">
        <ele>13500</ele>
        <time>2020-05-31T05:52:10Z</time>
      </trkpt>
      <trkpt lat="44.05366" lon="1.66629">
        <ele>13500</ele>
        <time>2020-05-31T05:52:11Z</time>
      </trkpt>
      <trkpt lat="44.05365" lon="1.66626">
        <ele>13500</ele>
        <time>2020-05-31T05:52:12Z</time>
      </trkpt>
      <trkpt lat="44.05364" lon="1.66624">
        <ele>13600</ele>
        <time>2020-05-31T05:52:13Z</time>
      </trkpt>
      <trkpt lat="44.05363" lon="1.66621">
        <ele>13600</ele>
        <time>2020-05-31T05:52:14Z</time>
      </trkpt>
      <trkpt lat="44.05361" lon="1.66619">
        <ele>13600</ele>
        <time>2020-05-31T05:52:15Z</time>
      </trkpt>
      <trkpt lat="44.05361" lon="1.66616">
        <ele>13600</ele>
        <time>2020-05-31T05:52:16Z</time>
      </trkpt>
      <trkpt lat="44.0536" lon="1.66613">
        <ele>13600</ele>
        <time>2020-05-31T05:52:17Z</time>
      </trkpt>
      <trkpt lat="44.0536" lon="1.6661">
        <ele>13600</ele>
        <time>2020-05-31T05:52:18Z</time>
      </trkpt>
      <trkpt lat="44.05359" lon="1.66606">
        <ele>13600</ele>
        <time>2020-05-31T05:52:19Z</time>
      </trkpt>
      <trkpt lat="44.05359" lon="1.66603">
        <ele>13600</ele>
        <time>2020-05-31T05:52:20Z</time>
      </trkpt>
      <trkpt lat="44.05359" lon="1.66599">
        <ele>13600</ele>
        <time>2020-05-31T05:52:21Z</time>
      </trkpt>
      <trkpt lat="44.05358" lon="1.66596">
        <ele>13600</ele>
        <time>2020-05-31T05:52:22Z</time>
      </trkpt>
      <trkpt lat="44.05358" lon="1.66592">
        <ele>13700</ele>
        <time>2020-05-31T05:52:23Z</time>
      </trkpt>
      <trkpt lat="44.05358" lon="1.66588">
        <ele>13700</ele>
        <time>2020-05-31T05:52:24Z</time>
      </trkpt>
      <trkpt lat="44.05358" lon="1.66584">
        <ele>13700</ele>
        <time>2020-05-31T05:52:25Z</time>
      </trkpt>
      <trkpt lat="44.05358" lon="1.6658">
        <ele>13700</ele>
        <time>2020-05-31T05:52:26Z</time>
      </trkpt>
      <trkpt lat="44.05358" lon="1.66576">
        <ele>13700</ele>
        <time>2020-05-31T05:52:27Z</time>
      </trkpt>
      <trkpt lat="44.05358" lon="1.66572">
        <ele>13800</ele>
        <time>2020-05-31T05:52:28Z</time>
      </trkpt>
      <trkpt lat="44.05358" lon="1.66569">
        <ele>13800</ele>
        <time>2020-05-31T05:52:29Z</time>
      </trkpt>
      <trkpt lat="44.05357" lon="1.66565">
        <ele>13800</ele>
        <time>2020-05-31T05:52:30Z</time>
      </trkpt>
      <trkpt lat="44.05357" lon="1.66561">
        <ele>13800</ele>
        <time>2020-05-31T05:52:31Z</time>
      </trkpt>
      <trkpt lat="44.05357" lon="1.66558">
        <ele>13800</ele>
        <time>2020-05-31T05:52:32Z</time>
      </trkpt>
      <trkpt lat="44.05357" lon="1.66554">
        <ele>13800</ele>
        <time>2020-05-31T05:52:33Z</time>
      </trkpt>
      <trkpt lat="44.05357" lon="1.66551">
        <ele>13900</ele>
        <time>2020-05-31T05:52:34Z</time>
      </trkpt>
      <trkpt lat="44.05357" lon="1.66547">
        <ele>13900</ele>
        <time>2020-05-31T05:52:35Z</time>
      </trkpt>
      <trkpt lat="44.05357" lon="1.66544">
        <ele>13900</ele>
        <time>2020-05-31T05:52:36Z</time>
      </trkpt>
      <trkpt lat="44.05357" lon="1.6654">
        <ele>13900</ele>
        <time>2020-05-31T05:52:37Z</time>
      </trkpt>
      <trkpt lat="44.05357" lon="1.66536">
        <ele>13900</ele>
        <time>2020-05-31T05:52:38Z</time>
      </trkpt>
      <trkpt lat="44.05357" lon="1.66533">
        <ele>14000</ele>
        <time>2020-05-31T05:52:39Z</time>
      </trkpt>
      <trkpt lat="44.05357" lon="1.66529">
        <ele>14000</ele>
        <time>2020-05-31T05:52:40Z</time>
      </trkpt>
      <trkpt lat="44.05358" lon="1.66526">
        <ele>14000</ele>
        <time>2020-05-31T05:52:41Z</time>
      </trkpt>
      <trkpt lat="44.05358" lon="1.66522">
        <ele>14000</ele>
        <time>2020-05-31T05:52:42Z</time>
      </trkpt>
      <trkpt lat="44.05358" lon="1.66518">
        <ele>14100</ele>
        <time>2020-05-31T05:52:43Z</time>
      </trkpt>
      <trkpt lat="44.05358" lon="1.66514">
        <ele>14100</ele>
        <time>2020-05-31T05:52:44Z</time>
      </trkpt>
      <trkpt lat="44.05358" lon="1.66511">
        <ele>14100</ele>
        <time>2020-05-31T05:52:45Z</time>
      </trkpt>
      <trkpt lat="44.05359" lon="1.66507">
        <ele>14100</ele>
        <time>2020-05-31T05:52:46Z</time>
      </trkpt>
      <trkpt lat="44.05359" lon="1.66503">
        <ele>14100</ele>
        <time>2020-05-31T05:52:47Z</time>
      </trkpt>
      <trkpt lat="44.05359" lon="1.665">
        <ele>14100</ele>
        <time>2020-05-31T05:52:48Z</time>
      </trkpt>
      <trkpt lat="44.05359" lon="1.66496">
        <ele>14100</ele>
        <time>2020-05-31T05:52:49Z</time>
      </trkpt>
      <trkpt lat="44.05359" lon="1.66492">
        <ele>14100</ele>
        <time>2020-05-31T05:52:50Z</time>
      </trkpt>
      <trkpt lat="44.05359" lon="1.66488">
        <ele>14100</ele>
        <time>2020-05-31T05:52:51Z</time>
      </trkpt>
      <trkpt lat="44.05359" lon="1.66484">
        <ele>14100</ele>
        <time>2020-05-31T05:52:52Z</time>
      </trkpt>
      <trkpt lat="44.05359" lon="1.6648">
        <ele>14100</ele>
        <time>2020-05-31T05:52:53Z</time>
      </trkpt>
      <trkpt lat="44.05359" lon="1.66477">
        <ele>14100</ele>
        <time>2020-05-31T05:52:54Z</time>
      </trkpt>
      <trkpt lat="44.0536" lon="1.66473">
        <ele>14100</ele>
        <time>2020-05-31T05:52:55Z</time>
      </trkpt>
      <trkpt lat="44.0536" lon="1.6647">
        <ele>14200</ele>
        <time>2020-05-31T05:52:56Z</time>
      </trkpt>
      <trkpt lat="44.0536" lon="1.66466">
        <ele>14200</ele>
        <time>2020-05-31T05:52:57Z</time>
      </trkpt>
      <trkpt lat="44.0536" lon="1.66462">
        <ele>14200</ele>
        <time>2020-05-31T05:52:58Z</time>
      </trkpt>
      <trkpt lat="44.0536" lon="1.66458">
        <ele>14200</ele>
        <time>2020-05-31T05:52:59Z</time>
      </trkpt>
      <trkpt lat="44.05361" lon="1.66454">
        <ele>14200</ele>
        <time>2020-05-31T05:53:00Z</time>
      </trkpt>
      <trkpt lat="44.05361" lon="1.66449">
        <ele>14200</ele>
        <time>2020-05-31T05:53:01Z</time>
      </trkpt>
      <trkpt lat="44.05361" lon="1.66444">
        <ele>14200</ele>
        <time>2020-05-31T05:53:02Z</time>
      </trkpt>
      <trkpt lat="44.05361" lon="1.66439">
        <ele>14200</ele>
        <time>2020-05-31T05:53:03Z</time>
      </trkpt>
      <trkpt lat="44.05361" lon="1.66433">
        <ele>14200</ele>
        <time>2020-05-31T05:53:04Z</time>
      </trkpt>
      <trkpt lat="44.05361" lon="1.66428">
        <ele>14200</ele>
        <time>2020-05-31T05:53:05Z</time>
      </trkpt>
      <trkpt lat="44.05361" lon="1.66423">
        <ele>14200</ele>
        <time>2020-05-31T05:53:06Z</time>
      </trkpt>
      <trkpt lat="44.05361" lon="1.66417">
        <ele>14200</ele>
        <time>2020-05-31T05:53:07Z</time>
      </trkpt>
      <trkpt lat="44.05361" lon="1.66411">
        <ele>14100</ele>
        <time>2020-05-31T05:53:08Z</time>
      </trkpt>
      <trkpt lat="44.05361" lon="1.66406">
        <ele>14100</ele>
        <time>2020-05-31T05:53:09Z</time>
      </trkpt>
      <trkpt lat="44.05361" lon="1.664">
        <ele>14100</ele>
        <time>2020-05-31T05:53:10Z</time>
      </trkpt>
      <trkpt lat="44.05361" lon="1.66395">
        <ele>14100</ele>
        <time>2020-05-31T05:53:11Z</time>
      </trkpt>
      <trkpt lat="44.05361" lon="1.6639">
        <ele>14000</ele>
        <time>2020-05-31T05:53:12Z</time>
      </trkpt>
      <trkpt lat="44.05362" lon="1.66386">
        <ele>14000</ele>
        <time>2020-05-31T05:53:13Z</time>
      </trkpt>
      <trkpt lat="44.05363" lon="1.66382">
        <ele>14000</ele>
        <time>2020-05-31T05:53:14Z</time>
      </trkpt>
      <trkpt lat="44.05365" lon="1.6638">
        <ele>14000</ele>
        <time>2020-05-31T05:53:15Z</time>
      </trkpt>
      <trkpt lat="44.05367" lon="1.66379">
        <ele>14000</ele>
        <time>2020-05-31T05:53:16Z</time>
      </trkpt>
      <trkpt lat="44.05368" lon="1.6638">
        <ele>14000</ele>
        <time>2020-05-31T05:53:17Z</time>
      </trkpt>
      <trkpt lat="44.0537" lon="1.66381">
        <ele>14000</ele>
        <time>2020-05-31T05:53:18Z</time>
      </trkpt>
      <trkpt lat="44.0537" lon="1.66383">
        <ele>14000</ele>
        <time>2020-05-31T05:53:19Z</time>
      </trkpt>
      <trkpt lat="44.05371" lon="1.66386">
        <ele>14000</ele>
        <time>2020-05-31T05:53:20Z</time>
      </trkpt>
      <trkpt lat="44.05372" lon="1.66389">
        <ele>14000</ele>
        <time>2020-05-31T05:53:21Z</time>
      </trkpt>
      <trkpt lat="44.05372" lon="1.66392">
        <ele>14000</ele>
        <time>2020-05-31T05:53:22Z</time>
      </trkpt>
      <trkpt lat="44.05373" lon="1.66396">
        <ele>14000</ele>
        <time>2020-05-31T05:53:23Z</time>
      </trkpt>
      <trkpt lat="44.05373" lon="1.664">
        <ele>14000</ele>
        <time>2020-05-31T05:53:24Z</time>
      </trkpt>
      <trkpt lat="44.05373" lon="1.66404">
        <ele>14000</ele>
        <time>2020-05-31T05:53:25Z</time>
      </trkpt>
      <trkpt lat="44.05373" lon="1.66408">
        <ele>14000</ele>
        <time>2020-05-31T05:53:26Z</time>
      </trkpt>
      <trkpt lat="44.05374" lon="1.66411">
        <ele>14000</ele>
        <time>2020-05-31T05:53:27Z</time>
      </trkpt>
      <trkpt lat="44.05374" lon="1.66415">
        <ele>14000</ele>
        <time>2020-05-31T05:53:28Z</time>
      </trkpt>
      <trkpt lat="44.05375" lon="1.66418">
        <ele>14000</ele>
        <time>2020-05-31T05:53:29Z</time>
      </trkpt>
      <trkpt lat="44.05375" lon="1.66422">
        <ele>14100</ele>
        <time>2020-05-31T05:53:30Z</time>
      </trkpt>
      <trkpt lat="44.05375" lon="1.66426">
        <ele>14100</ele>
        <time>2020-05-31T05:53:31Z</time>
      </trkpt>
      <trkpt lat="44.05376" lon="1.6643">
        <ele>14100</ele>
        <time>2020-05-31T05:53:32Z</time>
      </trkpt>
      <trkpt lat="44.05376" lon="1.66434">
        <ele>14100</ele>
        <time>2020-05-31T05:53:33Z</time>
      </trkpt>
      <trkpt lat="44.05376" lon="1.66438">
        <ele>14100</ele>
        <time>2020-05-31T05:53:34Z</time>
      </trkpt>
      <trkpt lat="44.05376" lon="1.66442">
        <ele>14100</ele>
        <time>2020-05-31T05:53:35Z</time>
      </trkpt>
      <trkpt lat="44.05377" lon="1.66446">
        <ele>14100</ele>
        <time>2020-05-31T05:53:36Z</time>
      </trkpt>
      <trkpt lat="44.05377" lon="1.6645">
        <ele>14100</ele>
        <time>2020-05-31T05:53:37Z</time>
      </trkpt>
      <trkpt lat="44.05378" lon="1.66454">
        <ele>14100</ele>
        <time>2020-05-31T05:53:38Z</time>
      </trkpt>
      <trkpt lat="44.05378" lon="1.66458">
        <ele>14100</ele>
        <time>2020-05-31T05:53:39Z</time>
      </trkpt>
      <trkpt lat="44.05379" lon="1.66461">
        <ele>14100</ele>
        <time>2020-05-31T05:53:40Z</time>
      </trkpt>
      <trkpt lat="44.05379" lon="1.66464">
        <ele>14100</ele>
        <time>2020-05-31T05:53:41Z</time>
      </trkpt>
      <trkpt lat="44.0538" lon="1.66466">
        <ele>14100</ele>
        <time>2020-05-31T05:53:42Z</time>
      </trkpt>
      <trkpt lat="44.0538" lon="1.66468">
        <ele>14100</ele>
        <time>2020-05-31T05:53:43Z</time>
      </trkpt>
      <trkpt lat="44.05381" lon="1.66469">
        <ele>14100</ele>
        <time>2020-05-31T05:53:44Z</time>
      </trkpt>
      <trkpt lat="44.05382" lon="1.6647">
        <ele>14100</ele>
        <time>2020-05-31T05:53:45Z</time>
      </trkpt>
      <trkpt lat="44.05382" lon="1.6647">
        <ele>14100</ele>
        <time>2020-05-31T05:53:46Z</time>
      </trkpt>
      <trkpt lat="44.05383" lon="1.66471">
        <ele>14100</ele>
        <time>2020-05-31T05:53:47Z</time>
      </trkpt>
      <trkpt lat="44.05384" lon="1.66471">
        <ele>14100</ele>
        <time>2020-05-31T05:53:48Z</time>
      </trkpt>
    </trkseg>
  </trk>
</gpx>